<?xml version="1.0" encoding="UTF-8" standalone="no" ?>
<gpx xmlns="http://www.topografix.com/GPX/1/1" creator="MapSource 6.13.7" version="1.1" xmlns:xsi="http://www.w3.org/2001/XMLSchema-instance" xsi:schemaLocation="http://www.garmin.com/xmlschemas/GpxExtensions/v3 http://www.garmin.com/xmlschemas/GpxExtensions/v3/GpxExtensionsv3.xsd http://www.topografix.com/GPX/1/1 http://www.topografix.com/GPX/1/1/gpx.xsd">

  <metadata>
    <link href="http://www.garmin.com">
      <text>Garmin International</text>
    </link>
    <time>2026-07-17T15:32:41Z</time>
    <bounds maxlat="54.8565026" maxlon="18.8353626" minlat="53.8939635" minlon="10.7704140"/>
  </metadata>

  <trk>
    <name>20260715</name>
    <extensions>
      <gpxx:TrackExtension xmlns:gpxx="http://www.garmin.com/xmlschemas/GpxExtensions/v3">
        <gpxx:DisplayColor>Transparent</gpxx:DisplayColor>
      </gpxx:TrackExtension>
    </extensions>
    <trkseg>
      <trkpt lat="53.8958833" lon="10.7704140">
        <time>2026-07-15T04:11:07Z</time>
      </trkpt>
      <trkpt lat="53.8959163" lon="10.7705421">
        <time>2026-07-15T04:12:00Z</time>
      </trkpt>
      <trkpt lat="53.8959039" lon="10.7707353">
        <time>2026-07-15T04:12:56Z</time>
      </trkpt>
      <trkpt lat="53.8959565" lon="10.7708747">
        <time>2026-07-15T04:13:04Z</time>
      </trkpt>
      <trkpt lat="53.8960825" lon="10.7716840">
        <time>2026-07-15T04:13:34Z</time>
      </trkpt>
      <trkpt lat="53.8961195" lon="10.7721140">
        <time>2026-07-15T04:13:48Z</time>
      </trkpt>
      <trkpt lat="53.8961079" lon="10.7730328">
        <time>2026-07-15T04:14:18Z</time>
      </trkpt>
      <trkpt lat="53.8960147" lon="10.7739203">
        <time>2026-07-15T04:15:08Z</time>
      </trkpt>
      <trkpt lat="53.8957503" lon="10.7751824">
        <time>2026-07-15T04:17:30Z</time>
      </trkpt>
      <trkpt lat="53.8956772" lon="10.7759925">
        <time>2026-07-15T04:19:38Z</time>
      </trkpt>
      <trkpt lat="53.8957432" lon="10.7769815">
        <time>2026-07-15T04:20:39Z</time>
      </trkpt>
      <trkpt lat="53.8957275" lon="10.7774333">
        <time>2026-07-15T04:20:59Z</time>
      </trkpt>
      <trkpt lat="53.8955698" lon="10.7783435">
        <time>2026-07-15T04:21:31Z</time>
      </trkpt>
      <trkpt lat="53.8952602" lon="10.7806410">
        <time>2026-07-15T04:23:00Z</time>
      </trkpt>
      <trkpt lat="53.8950700" lon="10.7836915">
        <time>2026-07-15T04:24:22Z</time>
      </trkpt>
      <trkpt lat="53.8950284" lon="10.7857084">
        <time>2026-07-15T04:25:16Z</time>
      </trkpt>
      <trkpt lat="53.8948183" lon="10.7895816">
        <time>2026-07-15T04:26:58Z</time>
      </trkpt>
      <trkpt lat="53.8947122" lon="10.7927643">
        <time>2026-07-15T04:28:24Z</time>
      </trkpt>
      <trkpt lat="53.8946635" lon="10.7955115">
        <time>2026-07-15T04:29:32Z</time>
      </trkpt>
      <trkpt lat="53.8944680" lon="10.7995370">
        <time>2026-07-15T04:31:07Z</time>
      </trkpt>
      <trkpt lat="53.8940750" lon="10.8040145">
        <time>2026-07-15T04:32:53Z</time>
      </trkpt>
      <trkpt lat="53.8939787" lon="10.8057410">
        <time>2026-07-15T04:33:35Z</time>
      </trkpt>
      <trkpt lat="53.8939635" lon="10.8077555">
        <time>2026-07-15T04:34:23Z</time>
      </trkpt>
      <trkpt lat="53.8939878" lon="10.8103442">
        <time>2026-07-15T04:35:25Z</time>
      </trkpt>
      <trkpt lat="53.8941140" lon="10.8127790">
        <time>2026-07-15T04:36:23Z</time>
      </trkpt>
      <trkpt lat="53.8946135" lon="10.8158092">
        <time>2026-07-15T04:37:39Z</time>
      </trkpt>
      <trkpt lat="53.8950085" lon="10.8176930">
        <time>2026-07-15T04:38:27Z</time>
      </trkpt>
      <trkpt lat="53.8958132" lon="10.8218240">
        <time>2026-07-15T04:40:12Z</time>
      </trkpt>
      <trkpt lat="53.8963465" lon="10.8243173">
        <time>2026-07-15T04:41:16Z</time>
      </trkpt>
      <trkpt lat="53.8972077" lon="10.8277223">
        <time>2026-07-15T04:42:44Z</time>
      </trkpt>
      <trkpt lat="53.8978405" lon="10.8298855">
        <time>2026-07-15T04:43:42Z</time>
      </trkpt>
      <trkpt lat="53.8987959" lon="10.8322889">
        <time>2026-07-15T04:44:52Z</time>
      </trkpt>
      <trkpt lat="53.8998268" lon="10.8348575">
        <time>2026-07-15T04:46:06Z</time>
      </trkpt>
      <trkpt lat="53.9004567" lon="10.8362570">
        <time>2026-07-15T04:46:48Z</time>
      </trkpt>
      <trkpt lat="53.9014170" lon="10.8386363">
        <time>2026-07-15T04:47:59Z</time>
      </trkpt>
      <trkpt lat="53.9037067" lon="10.8436828">
        <time>2026-07-15T04:50:31Z</time>
      </trkpt>
      <trkpt lat="53.9050295" lon="10.8459932">
        <time>2026-07-15T04:51:47Z</time>
      </trkpt>
      <trkpt lat="53.9059896" lon="10.8479100">
        <time>2026-07-15T04:52:47Z</time>
      </trkpt>
      <trkpt lat="53.9065919" lon="10.8491958">
        <time>2026-07-15T04:53:27Z</time>
      </trkpt>
      <trkpt lat="53.9076731" lon="10.8519315">
        <time>2026-07-15T04:54:47Z</time>
      </trkpt>
      <trkpt lat="53.9088920" lon="10.8549865">
        <time>2026-07-15T04:56:15Z</time>
      </trkpt>
      <trkpt lat="53.9094257" lon="10.8560870">
        <time>2026-07-15T04:56:49Z</time>
      </trkpt>
      <trkpt lat="53.9103172" lon="10.8581725">
        <time>2026-07-15T04:57:52Z</time>
      </trkpt>
      <trkpt lat="53.9112691" lon="10.8601449">
        <time>2026-07-15T04:58:52Z</time>
      </trkpt>
      <trkpt lat="53.9119751" lon="10.8615153">
        <time>2026-07-15T04:59:36Z</time>
      </trkpt>
      <trkpt lat="53.9134618" lon="10.8640940">
        <time>2026-07-15T05:01:00Z</time>
      </trkpt>
      <trkpt lat="53.9143218" lon="10.8653858">
        <time>2026-07-15T05:01:46Z</time>
      </trkpt>
      <trkpt lat="53.9155128" lon="10.8673742">
        <time>2026-07-15T05:02:52Z</time>
      </trkpt>
      <trkpt lat="53.9163021" lon="10.8685481">
        <time>2026-07-15T05:03:34Z</time>
      </trkpt>
      <trkpt lat="53.9170889" lon="10.8694841">
        <time>2026-07-15T05:04:12Z</time>
      </trkpt>
      <trkpt lat="53.9177645" lon="10.8702083">
        <time>2026-07-15T05:04:44Z</time>
      </trkpt>
      <trkpt lat="53.9186203" lon="10.8709346">
        <time>2026-07-15T05:05:22Z</time>
      </trkpt>
      <trkpt lat="53.9199841" lon="10.8718074">
        <time>2026-07-15T05:06:21Z</time>
      </trkpt>
      <trkpt lat="53.9207353" lon="10.8721440">
        <time>2026-07-15T05:06:53Z</time>
      </trkpt>
      <trkpt lat="53.9214673" lon="10.8723675">
        <time>2026-07-15T05:07:23Z</time>
      </trkpt>
      <trkpt lat="53.9222752" lon="10.8725158">
        <time>2026-07-15T05:07:55Z</time>
      </trkpt>
      <trkpt lat="53.9231321" lon="10.8725839">
        <time>2026-07-15T05:08:29Z</time>
      </trkpt>
      <trkpt lat="53.9242833" lon="10.8725033">
        <time>2026-07-15T05:09:15Z</time>
      </trkpt>
      <trkpt lat="53.9255936" lon="10.8720755">
        <time>2026-07-15T05:10:09Z</time>
      </trkpt>
      <trkpt lat="53.9272112" lon="10.8717244">
        <time>2026-07-15T05:11:16Z</time>
      </trkpt>
      <trkpt lat="53.9290472" lon="10.8711492">
        <time>2026-07-15T05:12:30Z</time>
      </trkpt>
      <trkpt lat="53.9314678" lon="10.8702717">
        <time>2026-07-15T05:14:08Z</time>
      </trkpt>
      <trkpt lat="53.9323520" lon="10.8699110">
        <time>2026-07-15T05:14:46Z</time>
      </trkpt>
      <trkpt lat="53.9339942" lon="10.8690567">
        <time>2026-07-15T05:15:56Z</time>
      </trkpt>
      <trkpt lat="53.9351468" lon="10.8683743">
        <time>2026-07-15T05:16:46Z</time>
      </trkpt>
      <trkpt lat="53.9358439" lon="10.8678866">
        <time>2026-07-15T05:17:18Z</time>
      </trkpt>
      <trkpt lat="53.9365577" lon="10.8674870">
        <time>2026-07-15T05:17:51Z</time>
      </trkpt>
      <trkpt lat="53.9378559" lon="10.8669464">
        <time>2026-07-15T05:18:47Z</time>
      </trkpt>
      <trkpt lat="53.9417522" lon="10.8647920">
        <time>2026-07-15T05:21:35Z</time>
      </trkpt>
      <trkpt lat="53.9452703" lon="10.8630193">
        <time>2026-07-15T05:24:05Z</time>
      </trkpt>
      <trkpt lat="53.9463984" lon="10.8626381">
        <time>2026-07-15T05:24:52Z</time>
      </trkpt>
      <trkpt lat="53.9478271" lon="10.8624622">
        <time>2026-07-15T05:25:50Z</time>
      </trkpt>
      <trkpt lat="53.9488414" lon="10.8625977">
        <time>2026-07-15T05:26:32Z</time>
      </trkpt>
      <trkpt lat="53.9495487" lon="10.8629003">
        <time>2026-07-15T05:27:02Z</time>
      </trkpt>
      <trkpt lat="53.9512169" lon="10.8640973">
        <time>2026-07-15T05:28:16Z</time>
      </trkpt>
      <trkpt lat="53.9522212" lon="10.8651033">
        <time>2026-07-15T05:29:04Z</time>
      </trkpt>
      <trkpt lat="53.9531092" lon="10.8663211">
        <time>2026-07-15T05:29:51Z</time>
      </trkpt>
      <trkpt lat="53.9551412" lon="10.8695234">
        <time>2026-07-15T05:31:39Z</time>
      </trkpt>
      <trkpt lat="53.9564380" lon="10.8723218">
        <time>2026-07-15T05:33:03Z</time>
      </trkpt>
      <trkpt lat="53.9568986" lon="10.8735697">
        <time>2026-07-15T05:33:37Z</time>
      </trkpt>
      <trkpt lat="53.9576756" lon="10.8761990">
        <time>2026-07-15T05:34:45Z</time>
      </trkpt>
      <trkpt lat="53.9583780" lon="10.8794717">
        <time>2026-07-15T05:36:08Z</time>
      </trkpt>
      <trkpt lat="53.9588797" lon="10.8815771">
        <time>2026-07-15T05:37:02Z</time>
      </trkpt>
      <trkpt lat="53.9592950" lon="10.8831215">
        <time>2026-07-15T05:37:42Z</time>
      </trkpt>
      <trkpt lat="53.9601147" lon="10.8867202">
        <time>2026-07-15T05:39:14Z</time>
      </trkpt>
      <trkpt lat="53.9606779" lon="10.8889268">
        <time>2026-07-15T05:40:12Z</time>
      </trkpt>
      <trkpt lat="53.9612182" lon="10.8907240">
        <time>2026-07-15T05:41:00Z</time>
      </trkpt>
      <trkpt lat="53.9619778" lon="10.8925855">
        <time>2026-07-15T05:41:55Z</time>
      </trkpt>
      <trkpt lat="53.9627484" lon="10.8943589">
        <time>2026-07-15T05:42:47Z</time>
      </trkpt>
      <trkpt lat="53.9636581" lon="10.8970687">
        <time>2026-07-15T05:43:57Z</time>
      </trkpt>
      <trkpt lat="53.9651833" lon="10.9010335">
        <time>2026-07-15T05:45:21Z</time>
      </trkpt>
      <trkpt lat="53.9656982" lon="10.9025658">
        <time>2026-07-15T05:45:51Z</time>
      </trkpt>
      <trkpt lat="53.9664717" lon="10.9044925">
        <time>2026-07-15T05:46:32Z</time>
      </trkpt>
      <trkpt lat="53.9676365" lon="10.9081912">
        <time>2026-07-15T05:47:42Z</time>
      </trkpt>
      <trkpt lat="53.9683635" lon="10.9100754">
        <time>2026-07-15T05:48:20Z</time>
      </trkpt>
      <trkpt lat="53.9690868" lon="10.9123815">
        <time>2026-07-15T05:49:04Z</time>
      </trkpt>
      <trkpt lat="53.9694835" lon="10.9135028">
        <time>2026-07-15T05:49:26Z</time>
      </trkpt>
      <trkpt lat="53.9707305" lon="10.9162491">
        <time>2026-07-15T05:50:24Z</time>
      </trkpt>
      <trkpt lat="53.9714163" lon="10.9178923">
        <time>2026-07-15T05:50:58Z</time>
      </trkpt>
      <trkpt lat="53.9727968" lon="10.9217068">
        <time>2026-07-15T05:52:13Z</time>
      </trkpt>
      <trkpt lat="53.9732258" lon="10.9228090">
        <time>2026-07-15T05:52:35Z</time>
      </trkpt>
      <trkpt lat="53.9738727" lon="10.9242176">
        <time>2026-07-15T05:53:05Z</time>
      </trkpt>
      <trkpt lat="53.9755118" lon="10.9286345">
        <time>2026-07-15T05:54:33Z</time>
      </trkpt>
      <trkpt lat="53.9760912" lon="10.9301583">
        <time>2026-07-15T05:55:03Z</time>
      </trkpt>
      <trkpt lat="53.9772567" lon="10.9335477">
        <time>2026-07-15T05:56:08Z</time>
      </trkpt>
      <trkpt lat="53.9780715" lon="10.9356622">
        <time>2026-07-15T05:56:50Z</time>
      </trkpt>
      <trkpt lat="53.9797314" lon="10.9393026">
        <time>2026-07-15T05:58:06Z</time>
      </trkpt>
      <trkpt lat="53.9811635" lon="10.9428085">
        <time>2026-07-15T05:59:16Z</time>
      </trkpt>
      <trkpt lat="53.9819111" lon="10.9444840">
        <time>2026-07-15T05:59:50Z</time>
      </trkpt>
      <trkpt lat="53.9825155" lon="10.9457357">
        <time>2026-07-15T06:00:16Z</time>
      </trkpt>
      <trkpt lat="53.9835518" lon="10.9474928">
        <time>2026-07-15T06:00:57Z</time>
      </trkpt>
      <trkpt lat="53.9844958" lon="10.9494622">
        <time>2026-07-15T06:01:37Z</time>
      </trkpt>
      <trkpt lat="53.9850555" lon="10.9510755">
        <time>2026-07-15T06:02:07Z</time>
      </trkpt>
      <trkpt lat="53.9859014" lon="10.9541709">
        <time>2026-07-15T06:03:01Z</time>
      </trkpt>
      <trkpt lat="53.9864079" lon="10.9558332">
        <time>2026-07-15T06:03:31Z</time>
      </trkpt>
      <trkpt lat="53.9871232" lon="10.9577460">
        <time>2026-07-15T06:04:07Z</time>
      </trkpt>
      <trkpt lat="53.9885008" lon="10.9605342">
        <time>2026-07-15T06:05:05Z</time>
      </trkpt>
      <trkpt lat="53.9890731" lon="10.9618495">
        <time>2026-07-15T06:05:32Z</time>
      </trkpt>
      <trkpt lat="53.9896272" lon="10.9633870">
        <time>2026-07-15T06:06:00Z</time>
      </trkpt>
      <trkpt lat="53.9904530" lon="10.9666553">
        <time>2026-07-15T06:06:56Z</time>
      </trkpt>
      <trkpt lat="53.9921579" lon="10.9717139">
        <time>2026-07-15T06:08:30Z</time>
      </trkpt>
      <trkpt lat="53.9924955" lon="10.9728097">
        <time>2026-07-15T06:08:50Z</time>
      </trkpt>
      <trkpt lat="53.9936205" lon="10.9775832">
        <time>2026-07-15T06:10:14Z</time>
      </trkpt>
      <trkpt lat="53.9945433" lon="10.9801445">
        <time>2026-07-15T06:11:05Z</time>
      </trkpt>
      <trkpt lat="53.9953237" lon="10.9830015">
        <time>2026-07-15T06:11:55Z</time>
      </trkpt>
      <trkpt lat="53.9956918" lon="10.9849636">
        <time>2026-07-15T06:12:29Z</time>
      </trkpt>
      <trkpt lat="53.9963663" lon="10.9872444">
        <time>2026-07-15T06:13:11Z</time>
      </trkpt>
      <trkpt lat="53.9969588" lon="10.9896110">
        <time>2026-07-15T06:13:53Z</time>
      </trkpt>
      <trkpt lat="53.9974187" lon="10.9911046">
        <time>2026-07-15T06:14:21Z</time>
      </trkpt>
      <trkpt lat="53.9982647" lon="10.9944283">
        <time>2026-07-15T06:15:21Z</time>
      </trkpt>
      <trkpt lat="53.9990998" lon="10.9973213">
        <time>2026-07-15T06:16:15Z</time>
      </trkpt>
      <trkpt lat="54.0000488" lon="11.0013340">
        <time>2026-07-15T06:17:28Z</time>
      </trkpt>
      <trkpt lat="54.0012005" lon="11.0045780">
        <time>2026-07-15T06:18:30Z</time>
      </trkpt>
      <trkpt lat="54.0019208" lon="11.0066630">
        <time>2026-07-15T06:19:10Z</time>
      </trkpt>
      <trkpt lat="54.0023710" lon="11.0081692">
        <time>2026-07-15T06:19:38Z</time>
      </trkpt>
      <trkpt lat="54.0031830" lon="11.0114712">
        <time>2026-07-15T06:20:38Z</time>
      </trkpt>
      <trkpt lat="54.0043519" lon="11.0146975">
        <time>2026-07-15T06:21:42Z</time>
      </trkpt>
      <trkpt lat="54.0047290" lon="11.0159185">
        <time>2026-07-15T06:22:04Z</time>
      </trkpt>
      <trkpt lat="54.0057223" lon="11.0208731">
        <time>2026-07-15T06:23:33Z</time>
      </trkpt>
      <trkpt lat="54.0061431" lon="11.0225037">
        <time>2026-07-15T06:24:03Z</time>
      </trkpt>
      <trkpt lat="54.0082738" lon="11.0275975">
        <time>2026-07-15T06:25:49Z</time>
      </trkpt>
      <trkpt lat="54.0098609" lon="11.0311177">
        <time>2026-07-15T06:27:03Z</time>
      </trkpt>
      <trkpt lat="54.0104015" lon="11.0327130">
        <time>2026-07-15T06:27:33Z</time>
      </trkpt>
      <trkpt lat="54.0109028" lon="11.0347068">
        <time>2026-07-15T06:28:10Z</time>
      </trkpt>
      <trkpt lat="54.0112682" lon="11.0367678">
        <time>2026-07-15T06:28:46Z</time>
      </trkpt>
      <trkpt lat="54.0122693" lon="11.0408032">
        <time>2026-07-15T06:30:00Z</time>
      </trkpt>
      <trkpt lat="54.0126125" lon="11.0425135">
        <time>2026-07-15T06:30:30Z</time>
      </trkpt>
      <trkpt lat="54.0132928" lon="11.0449880">
        <time>2026-07-15T06:31:16Z</time>
      </trkpt>
      <trkpt lat="54.0136885" lon="11.0470070">
        <time>2026-07-15T06:31:52Z</time>
      </trkpt>
      <trkpt lat="54.0143723" lon="11.0494759">
        <time>2026-07-15T06:32:38Z</time>
      </trkpt>
      <trkpt lat="54.0151220" lon="11.0512616">
        <time>2026-07-15T06:33:15Z</time>
      </trkpt>
      <trkpt lat="54.0161744" lon="11.0532895">
        <time>2026-07-15T06:34:01Z</time>
      </trkpt>
      <trkpt lat="54.0174270" lon="11.0553331">
        <time>2026-07-15T06:34:51Z</time>
      </trkpt>
      <trkpt lat="54.0186199" lon="11.0582697">
        <time>2026-07-15T06:35:52Z</time>
      </trkpt>
      <trkpt lat="54.0191280" lon="11.0600791">
        <time>2026-07-15T06:36:26Z</time>
      </trkpt>
      <trkpt lat="54.0196812" lon="11.0640777">
        <time>2026-07-15T06:37:36Z</time>
      </trkpt>
      <trkpt lat="54.0201992" lon="11.0662552">
        <time>2026-07-15T06:38:16Z</time>
      </trkpt>
      <trkpt lat="54.0206034" lon="11.0686058">
        <time>2026-07-15T06:38:58Z</time>
      </trkpt>
      <trkpt lat="54.0211705" lon="11.0699581">
        <time>2026-07-15T06:39:28Z</time>
      </trkpt>
      <trkpt lat="54.0220807" lon="11.0725628">
        <time>2026-07-15T06:40:20Z</time>
      </trkpt>
      <trkpt lat="54.0225052" lon="11.0741718">
        <time>2026-07-15T06:40:50Z</time>
      </trkpt>
      <trkpt lat="54.0227755" lon="11.0757536">
        <time>2026-07-15T06:41:18Z</time>
      </trkpt>
      <trkpt lat="54.0228655" lon="11.0770382">
        <time>2026-07-15T06:41:40Z</time>
      </trkpt>
      <trkpt lat="54.0232533" lon="11.0783175">
        <time>2026-07-15T06:42:07Z</time>
      </trkpt>
      <trkpt lat="54.0240704" lon="11.0803742">
        <time>2026-07-15T06:42:49Z</time>
      </trkpt>
      <trkpt lat="54.0254187" lon="11.0833026">
        <time>2026-07-15T06:43:55Z</time>
      </trkpt>
      <trkpt lat="54.0261192" lon="11.0849895">
        <time>2026-07-15T06:44:31Z</time>
      </trkpt>
      <trkpt lat="54.0266697" lon="11.0859843">
        <time>2026-07-15T06:44:55Z</time>
      </trkpt>
      <trkpt lat="54.0276895" lon="11.0876492">
        <time>2026-07-15T06:45:37Z</time>
      </trkpt>
      <trkpt lat="54.0283795" lon="11.0889162">
        <time>2026-07-15T06:46:07Z</time>
      </trkpt>
      <trkpt lat="54.0303001" lon="11.0931312">
        <time>2026-07-15T06:47:42Z</time>
      </trkpt>
      <trkpt lat="54.0314790" lon="11.0950160">
        <time>2026-07-15T06:48:32Z</time>
      </trkpt>
      <trkpt lat="54.0324810" lon="11.0967201">
        <time>2026-07-15T06:49:16Z</time>
      </trkpt>
      <trkpt lat="54.0353392" lon="11.1003456">
        <time>2026-07-15T06:51:06Z</time>
      </trkpt>
      <trkpt lat="54.0359663" lon="11.1012325">
        <time>2026-07-15T06:51:31Z</time>
      </trkpt>
      <trkpt lat="54.0365643" lon="11.1022488">
        <time>2026-07-15T06:51:57Z</time>
      </trkpt>
      <trkpt lat="54.0370683" lon="11.1032817">
        <time>2026-07-15T06:52:21Z</time>
      </trkpt>
      <trkpt lat="54.0375786" lon="11.1047400">
        <time>2026-07-15T06:52:51Z</time>
      </trkpt>
      <trkpt lat="54.0389618" lon="11.1075655">
        <time>2026-07-15T06:53:57Z</time>
      </trkpt>
      <trkpt lat="54.0404116" lon="11.1121162">
        <time>2026-07-15T06:55:27Z</time>
      </trkpt>
      <trkpt lat="54.0410343" lon="11.1155272">
        <time>2026-07-15T06:56:29Z</time>
      </trkpt>
      <trkpt lat="54.0413176" lon="11.1170138">
        <time>2026-07-15T06:56:56Z</time>
      </trkpt>
      <trkpt lat="54.0417312" lon="11.1188106">
        <time>2026-07-15T06:57:30Z</time>
      </trkpt>
      <trkpt lat="54.0423673" lon="11.1221965">
        <time>2026-07-15T06:58:32Z</time>
      </trkpt>
      <trkpt lat="54.0432352" lon="11.1254153">
        <time>2026-07-15T06:59:34Z</time>
      </trkpt>
      <trkpt lat="54.0440590" lon="11.1290585">
        <time>2026-07-15T07:00:42Z</time>
      </trkpt>
      <trkpt lat="54.0448001" lon="11.1327974">
        <time>2026-07-15T07:01:51Z</time>
      </trkpt>
      <trkpt lat="54.0452768" lon="11.1348537">
        <time>2026-07-15T07:02:29Z</time>
      </trkpt>
      <trkpt lat="54.0460567" lon="11.1387566">
        <time>2026-07-15T07:03:41Z</time>
      </trkpt>
      <trkpt lat="54.0466422" lon="11.1413107">
        <time>2026-07-15T07:04:29Z</time>
      </trkpt>
      <trkpt lat="54.0472328" lon="11.1429453">
        <time>2026-07-15T07:05:03Z</time>
      </trkpt>
      <trkpt lat="54.0488463" lon="11.1459990">
        <time>2026-07-15T07:06:15Z</time>
      </trkpt>
      <trkpt lat="54.0496419" lon="11.1481502">
        <time>2026-07-15T07:07:00Z</time>
      </trkpt>
      <trkpt lat="54.0499615" lon="11.1493872">
        <time>2026-07-15T07:07:22Z</time>
      </trkpt>
      <trkpt lat="54.0502817" lon="11.1513767">
        <time>2026-07-15T07:07:58Z</time>
      </trkpt>
      <trkpt lat="54.0505651" lon="11.1527092">
        <time>2026-07-15T07:08:22Z</time>
      </trkpt>
      <trkpt lat="54.0510177" lon="11.1541518">
        <time>2026-07-15T07:08:50Z</time>
      </trkpt>
      <trkpt lat="54.0520215" lon="11.1579748">
        <time>2026-07-15T07:10:02Z</time>
      </trkpt>
      <trkpt lat="54.0533710" lon="11.1620902">
        <time>2026-07-15T07:11:23Z</time>
      </trkpt>
      <trkpt lat="54.0548655" lon="11.1659774">
        <time>2026-07-15T07:12:43Z</time>
      </trkpt>
      <trkpt lat="54.0556792" lon="11.1684965">
        <time>2026-07-15T07:13:33Z</time>
      </trkpt>
      <trkpt lat="54.0565242" lon="11.1705453">
        <time>2026-07-15T07:14:17Z</time>
      </trkpt>
      <trkpt lat="54.0577168" lon="11.1729580">
        <time>2026-07-15T07:15:12Z</time>
      </trkpt>
      <trkpt lat="54.0583228" lon="11.1744184">
        <time>2026-07-15T07:15:44Z</time>
      </trkpt>
      <trkpt lat="54.0587808" lon="11.1762688">
        <time>2026-07-15T07:16:20Z</time>
      </trkpt>
      <trkpt lat="54.0602733" lon="11.1800176">
        <time>2026-07-15T07:17:40Z</time>
      </trkpt>
      <trkpt lat="54.0613723" lon="11.1824635">
        <time>2026-07-15T07:18:34Z</time>
      </trkpt>
      <trkpt lat="54.0621276" lon="11.1846155">
        <time>2026-07-15T07:19:18Z</time>
      </trkpt>
      <trkpt lat="54.0625680" lon="11.1865635">
        <time>2026-07-15T07:19:54Z</time>
      </trkpt>
      <trkpt lat="54.0632225" lon="11.1891061">
        <time>2026-07-15T07:20:43Z</time>
      </trkpt>
      <trkpt lat="54.0655242" lon="11.1957206">
        <time>2026-07-15T07:22:59Z</time>
      </trkpt>
      <trkpt lat="54.0662688" lon="11.1981882">
        <time>2026-07-15T07:23:47Z</time>
      </trkpt>
      <trkpt lat="54.0667819" lon="11.2003060">
        <time>2026-07-15T07:24:27Z</time>
      </trkpt>
      <trkpt lat="54.0673370" lon="11.2021169">
        <time>2026-07-15T07:25:03Z</time>
      </trkpt>
      <trkpt lat="54.0676930" lon="11.2035225">
        <time>2026-07-15T07:25:29Z</time>
      </trkpt>
      <trkpt lat="54.0689492" lon="11.2080225">
        <time>2026-07-15T07:26:58Z</time>
      </trkpt>
      <trkpt lat="54.0697351" lon="11.2096585">
        <time>2026-07-15T07:27:34Z</time>
      </trkpt>
      <trkpt lat="54.0704650" lon="11.2108285">
        <time>2026-07-15T07:28:04Z</time>
      </trkpt>
      <trkpt lat="54.0709735" lon="11.2118664">
        <time>2026-07-15T07:28:28Z</time>
      </trkpt>
      <trkpt lat="54.0721073" lon="11.2150653">
        <time>2026-07-15T07:29:34Z</time>
      </trkpt>
      <trkpt lat="54.0724820" lon="11.2163094">
        <time>2026-07-15T07:29:58Z</time>
      </trkpt>
      <trkpt lat="54.0727767" lon="11.2177049">
        <time>2026-07-15T07:30:24Z</time>
      </trkpt>
      <trkpt lat="54.0730851" lon="11.2188502">
        <time>2026-07-15T07:30:46Z</time>
      </trkpt>
      <trkpt lat="54.0738729" lon="11.2206586">
        <time>2026-07-15T07:31:26Z</time>
      </trkpt>
      <trkpt lat="54.0746192" lon="11.2219620">
        <time>2026-07-15T07:31:58Z</time>
      </trkpt>
      <trkpt lat="54.0756960" lon="11.2242912">
        <time>2026-07-15T07:32:51Z</time>
      </trkpt>
      <trkpt lat="54.0761901" lon="11.2255569">
        <time>2026-07-15T07:33:17Z</time>
      </trkpt>
      <trkpt lat="54.0770251" lon="11.2284349">
        <time>2026-07-15T07:34:13Z</time>
      </trkpt>
      <trkpt lat="54.0773902" lon="11.2300552">
        <time>2026-07-15T07:34:43Z</time>
      </trkpt>
      <trkpt lat="54.0777684" lon="11.2313912">
        <time>2026-07-15T07:35:09Z</time>
      </trkpt>
      <trkpt lat="54.0782795" lon="11.2329775">
        <time>2026-07-15T07:35:41Z</time>
      </trkpt>
      <trkpt lat="54.0789945" lon="11.2358085">
        <time>2026-07-15T07:36:37Z</time>
      </trkpt>
      <trkpt lat="54.0793435" lon="11.2368916">
        <time>2026-07-15T07:36:59Z</time>
      </trkpt>
      <trkpt lat="54.0800458" lon="11.2384652">
        <time>2026-07-15T07:37:35Z</time>
      </trkpt>
      <trkpt lat="54.0813155" lon="11.2403207">
        <time>2026-07-15T07:38:27Z</time>
      </trkpt>
      <trkpt lat="54.0819860" lon="11.2414930">
        <time>2026-07-15T07:38:55Z</time>
      </trkpt>
      <trkpt lat="54.0825675" lon="11.2431558">
        <time>2026-07-15T07:39:32Z</time>
      </trkpt>
      <trkpt lat="54.0831018" lon="11.2454687">
        <time>2026-07-15T07:40:16Z</time>
      </trkpt>
      <trkpt lat="54.0838135" lon="11.2473995">
        <time>2026-07-15T07:40:58Z</time>
      </trkpt>
      <trkpt lat="54.0842124" lon="11.2487455">
        <time>2026-07-15T07:41:26Z</time>
      </trkpt>
      <trkpt lat="54.0847464" lon="11.2509195">
        <time>2026-07-15T07:42:10Z</time>
      </trkpt>
      <trkpt lat="54.0857551" lon="11.2536439">
        <time>2026-07-15T07:43:10Z</time>
      </trkpt>
      <trkpt lat="54.0870420" lon="11.2558977">
        <time>2026-07-15T07:44:08Z</time>
      </trkpt>
      <trkpt lat="54.0878072" lon="11.2576613">
        <time>2026-07-15T07:44:48Z</time>
      </trkpt>
      <trkpt lat="54.0882892" lon="11.2600638">
        <time>2026-07-15T07:45:36Z</time>
      </trkpt>
      <trkpt lat="54.0890336" lon="11.2628837">
        <time>2026-07-15T07:46:33Z</time>
      </trkpt>
      <trkpt lat="54.0896752" lon="11.2660709">
        <time>2026-07-15T07:47:35Z</time>
      </trkpt>
      <trkpt lat="54.0899665" lon="11.2672697">
        <time>2026-07-15T07:47:59Z</time>
      </trkpt>
      <trkpt lat="54.0913022" lon="11.2711265">
        <time>2026-07-15T07:49:21Z</time>
      </trkpt>
      <trkpt lat="54.0920915" lon="11.2731418">
        <time>2026-07-15T07:50:05Z</time>
      </trkpt>
      <trkpt lat="54.0928923" lon="11.2757767">
        <time>2026-07-15T07:50:59Z</time>
      </trkpt>
      <trkpt lat="54.0937528" lon="11.2780122">
        <time>2026-07-15T07:51:49Z</time>
      </trkpt>
      <trkpt lat="54.0954897" lon="11.2817975">
        <time>2026-07-15T07:53:17Z</time>
      </trkpt>
      <trkpt lat="54.0959890" lon="11.2830610">
        <time>2026-07-15T07:53:43Z</time>
      </trkpt>
      <trkpt lat="54.0973330" lon="11.2879610">
        <time>2026-07-15T07:55:20Z</time>
      </trkpt>
      <trkpt lat="54.0984462" lon="11.2914278">
        <time>2026-07-15T07:56:30Z</time>
      </trkpt>
      <trkpt lat="54.0991048" lon="11.2942823">
        <time>2026-07-15T07:57:24Z</time>
      </trkpt>
      <trkpt lat="54.0997355" lon="11.2964055">
        <time>2026-07-15T07:58:06Z</time>
      </trkpt>
      <trkpt lat="54.1002540" lon="11.2984942">
        <time>2026-07-15T07:58:46Z</time>
      </trkpt>
      <trkpt lat="54.1022068" lon="11.3050800">
        <time>2026-07-15T08:00:56Z</time>
      </trkpt>
      <trkpt lat="54.1026872" lon="11.3065856">
        <time>2026-07-15T08:01:26Z</time>
      </trkpt>
      <trkpt lat="54.1036554" lon="11.3089855">
        <time>2026-07-15T08:02:16Z</time>
      </trkpt>
      <trkpt lat="54.1041926" lon="11.3104395">
        <time>2026-07-15T08:02:46Z</time>
      </trkpt>
      <trkpt lat="54.1049514" lon="11.3133697">
        <time>2026-07-15T08:03:43Z</time>
      </trkpt>
      <trkpt lat="54.1052788" lon="11.3145946">
        <time>2026-07-15T08:04:07Z</time>
      </trkpt>
      <trkpt lat="54.1058852" lon="11.3164415">
        <time>2026-07-15T08:04:45Z</time>
      </trkpt>
      <trkpt lat="54.1066518" lon="11.3182378">
        <time>2026-07-15T08:05:25Z</time>
      </trkpt>
      <trkpt lat="54.1077390" lon="11.3201873">
        <time>2026-07-15T08:06:13Z</time>
      </trkpt>
      <trkpt lat="54.1081968" lon="11.3211713">
        <time>2026-07-15T08:06:35Z</time>
      </trkpt>
      <trkpt lat="54.1087485" lon="11.3228410">
        <time>2026-07-15T08:07:09Z</time>
      </trkpt>
      <trkpt lat="54.1094072" lon="11.3244677">
        <time>2026-07-15T08:07:45Z</time>
      </trkpt>
      <trkpt lat="54.1112668" lon="11.3279950">
        <time>2026-07-15T08:09:10Z</time>
      </trkpt>
      <trkpt lat="54.1122274" lon="11.3301167">
        <time>2026-07-15T08:09:58Z</time>
      </trkpt>
      <trkpt lat="54.1129936" lon="11.3328891">
        <time>2026-07-15T08:10:52Z</time>
      </trkpt>
      <trkpt lat="54.1134103" lon="11.3341897">
        <time>2026-07-15T08:11:18Z</time>
      </trkpt>
      <trkpt lat="54.1150972" lon="11.3376294">
        <time>2026-07-15T08:12:38Z</time>
      </trkpt>
      <trkpt lat="54.1159524" lon="11.3395409">
        <time>2026-07-15T08:13:20Z</time>
      </trkpt>
      <trkpt lat="54.1164562" lon="11.3411815">
        <time>2026-07-15T08:13:52Z</time>
      </trkpt>
      <trkpt lat="54.1173634" lon="11.3454030">
        <time>2026-07-15T08:15:10Z</time>
      </trkpt>
      <trkpt lat="54.1188616" lon="11.3496592">
        <time>2026-07-15T08:16:36Z</time>
      </trkpt>
      <trkpt lat="54.1192778" lon="11.3513565">
        <time>2026-07-15T08:17:09Z</time>
      </trkpt>
      <trkpt lat="54.1195088" lon="11.3535673">
        <time>2026-07-15T08:17:47Z</time>
      </trkpt>
      <trkpt lat="54.1197830" lon="11.3552645">
        <time>2026-07-15T08:18:17Z</time>
      </trkpt>
      <trkpt lat="54.1200765" lon="11.3564653">
        <time>2026-07-15T08:18:39Z</time>
      </trkpt>
      <trkpt lat="54.1211061" lon="11.3591813">
        <time>2026-07-15T08:19:35Z</time>
      </trkpt>
      <trkpt lat="54.1217300" lon="11.3611608">
        <time>2026-07-15T08:20:13Z</time>
      </trkpt>
      <trkpt lat="54.1228601" lon="11.3643722">
        <time>2026-07-15T08:21:17Z</time>
      </trkpt>
      <trkpt lat="54.1236045" lon="11.3669913">
        <time>2026-07-15T08:22:07Z</time>
      </trkpt>
      <trkpt lat="54.1244128" lon="11.3691070">
        <time>2026-07-15T08:22:51Z</time>
      </trkpt>
      <trkpt lat="54.1250436" lon="11.3703157">
        <time>2026-07-15T08:23:20Z</time>
      </trkpt>
      <trkpt lat="54.1256948" lon="11.3714340">
        <time>2026-07-15T08:23:48Z</time>
      </trkpt>
      <trkpt lat="54.1266478" lon="11.3736192">
        <time>2026-07-15T08:24:36Z</time>
      </trkpt>
      <trkpt lat="54.1270575" lon="11.3750228">
        <time>2026-07-15T08:25:04Z</time>
      </trkpt>
      <trkpt lat="54.1280700" lon="11.3797468">
        <time>2026-07-15T08:26:32Z</time>
      </trkpt>
      <trkpt lat="54.1284484" lon="11.3813015">
        <time>2026-07-15T08:27:02Z</time>
      </trkpt>
      <trkpt lat="54.1296867" lon="11.3850620">
        <time>2026-07-15T08:28:18Z</time>
      </trkpt>
      <trkpt lat="54.1301902" lon="11.3869014">
        <time>2026-07-15T08:28:54Z</time>
      </trkpt>
      <trkpt lat="54.1307895" lon="11.3884037">
        <time>2026-07-15T08:29:26Z</time>
      </trkpt>
      <trkpt lat="54.1311750" lon="11.3895159">
        <time>2026-07-15T08:29:48Z</time>
      </trkpt>
      <trkpt lat="54.1320538" lon="11.3926208">
        <time>2026-07-15T08:30:49Z</time>
      </trkpt>
      <trkpt lat="54.1324386" lon="11.3938083">
        <time>2026-07-15T08:31:13Z</time>
      </trkpt>
      <trkpt lat="54.1328445" lon="11.3948507">
        <time>2026-07-15T08:31:35Z</time>
      </trkpt>
      <trkpt lat="54.1345365" lon="11.3983437">
        <time>2026-07-15T08:32:55Z</time>
      </trkpt>
      <trkpt lat="54.1350809" lon="11.3996412">
        <time>2026-07-15T08:33:23Z</time>
      </trkpt>
      <trkpt lat="54.1357165" lon="11.4015475">
        <time>2026-07-15T08:34:01Z</time>
      </trkpt>
      <trkpt lat="54.1365698" lon="11.4044889">
        <time>2026-07-15T08:34:59Z</time>
      </trkpt>
      <trkpt lat="54.1376260" lon="11.4075237">
        <time>2026-07-15T08:36:01Z</time>
      </trkpt>
      <trkpt lat="54.1381005" lon="11.4090309">
        <time>2026-07-15T08:36:31Z</time>
      </trkpt>
      <trkpt lat="54.1391531" lon="11.4119540">
        <time>2026-07-15T08:37:31Z</time>
      </trkpt>
      <trkpt lat="54.1396555" lon="11.4135715">
        <time>2026-07-15T08:38:03Z</time>
      </trkpt>
      <trkpt lat="54.1400990" lon="11.4153485">
        <time>2026-07-15T08:38:37Z</time>
      </trkpt>
      <trkpt lat="54.1404510" lon="11.4171952">
        <time>2026-07-15T08:39:12Z</time>
      </trkpt>
      <trkpt lat="54.1410975" lon="11.4188490">
        <time>2026-07-15T08:39:46Z</time>
      </trkpt>
      <trkpt lat="54.1428063" lon="11.4242402">
        <time>2026-07-15T08:41:32Z</time>
      </trkpt>
      <trkpt lat="54.1439561" lon="11.4282948">
        <time>2026-07-15T08:42:50Z</time>
      </trkpt>
      <trkpt lat="54.1456695" lon="11.4337947">
        <time>2026-07-15T08:44:38Z</time>
      </trkpt>
      <trkpt lat="54.1469802" lon="11.4373939">
        <time>2026-07-15T08:45:50Z</time>
      </trkpt>
      <trkpt lat="54.1483585" lon="11.4425725">
        <time>2026-07-15T08:47:31Z</time>
      </trkpt>
      <trkpt lat="54.1487947" lon="11.4440168">
        <time>2026-07-15T08:47:59Z</time>
      </trkpt>
      <trkpt lat="54.1500060" lon="11.4470550">
        <time>2026-07-15T08:49:03Z</time>
      </trkpt>
      <trkpt lat="54.1505092" lon="11.4485543">
        <time>2026-07-15T08:49:33Z</time>
      </trkpt>
      <trkpt lat="54.1507193" lon="11.4500145">
        <time>2026-07-15T08:49:59Z</time>
      </trkpt>
      <trkpt lat="54.1506463" lon="11.4513773">
        <time>2026-07-15T08:50:23Z</time>
      </trkpt>
      <trkpt lat="54.1515265" lon="11.4543407">
        <time>2026-07-15T08:51:23Z</time>
      </trkpt>
      <trkpt lat="54.1518860" lon="11.4554328">
        <time>2026-07-15T08:51:45Z</time>
      </trkpt>
      <trkpt lat="54.1528379" lon="11.4588600">
        <time>2026-07-15T08:52:51Z</time>
      </trkpt>
      <trkpt lat="54.1534849" lon="11.4607668">
        <time>2026-07-15T08:53:29Z</time>
      </trkpt>
      <trkpt lat="54.1540920" lon="11.4620140">
        <time>2026-07-15T08:53:57Z</time>
      </trkpt>
      <trkpt lat="54.1546563" lon="11.4630128">
        <time>2026-07-15T08:54:21Z</time>
      </trkpt>
      <trkpt lat="54.1558785" lon="11.4649005">
        <time>2026-07-15T08:55:09Z</time>
      </trkpt>
      <trkpt lat="54.1566620" lon="11.4661731">
        <time>2026-07-15T08:55:41Z</time>
      </trkpt>
      <trkpt lat="54.1580025" lon="11.4689643">
        <time>2026-07-15T08:56:43Z</time>
      </trkpt>
      <trkpt lat="54.1588730" lon="11.4706845">
        <time>2026-07-15T08:57:21Z</time>
      </trkpt>
      <trkpt lat="54.1595065" lon="11.4718037">
        <time>2026-07-15T08:57:47Z</time>
      </trkpt>
      <trkpt lat="54.1607927" lon="11.4739779">
        <time>2026-07-15T08:58:40Z</time>
      </trkpt>
      <trkpt lat="54.1612856" lon="11.4749840">
        <time>2026-07-15T08:59:02Z</time>
      </trkpt>
      <trkpt lat="54.1618012" lon="11.4764735">
        <time>2026-07-15T08:59:32Z</time>
      </trkpt>
      <trkpt lat="54.1623752" lon="11.4777880">
        <time>2026-07-15T08:59:58Z</time>
      </trkpt>
      <trkpt lat="54.1630494" lon="11.4796648">
        <time>2026-07-15T09:00:36Z</time>
      </trkpt>
      <trkpt lat="54.1641743" lon="11.4834040">
        <time>2026-07-15T09:01:48Z</time>
      </trkpt>
      <trkpt lat="54.1665263" lon="11.4901129">
        <time>2026-07-15T09:04:03Z</time>
      </trkpt>
      <trkpt lat="54.1671858" lon="11.4923589">
        <time>2026-07-15T09:04:45Z</time>
      </trkpt>
      <trkpt lat="54.1676895" lon="11.4949830">
        <time>2026-07-15T09:05:33Z</time>
      </trkpt>
      <trkpt lat="54.1681063" lon="11.4967900">
        <time>2026-07-15T09:06:07Z</time>
      </trkpt>
      <trkpt lat="54.1686257" lon="11.4981507">
        <time>2026-07-15T09:06:35Z</time>
      </trkpt>
      <trkpt lat="54.1690765" lon="11.4995828">
        <time>2026-07-15T09:07:03Z</time>
      </trkpt>
      <trkpt lat="54.1693275" lon="11.5011090">
        <time>2026-07-15T09:07:31Z</time>
      </trkpt>
      <trkpt lat="54.1707282" lon="11.5058184">
        <time>2026-07-15T09:09:05Z</time>
      </trkpt>
      <trkpt lat="54.1717867" lon="11.5094368">
        <time>2026-07-15T09:10:16Z</time>
      </trkpt>
      <trkpt lat="54.1737592" lon="11.5155853">
        <time>2026-07-15T09:12:20Z</time>
      </trkpt>
      <trkpt lat="54.1741763" lon="11.5169883">
        <time>2026-07-15T09:12:48Z</time>
      </trkpt>
      <trkpt lat="54.1745690" lon="11.5187915">
        <time>2026-07-15T09:13:22Z</time>
      </trkpt>
      <trkpt lat="54.1753791" lon="11.5210550">
        <time>2026-07-15T09:14:10Z</time>
      </trkpt>
      <trkpt lat="54.1759654" lon="11.5227590">
        <time>2026-07-15T09:14:47Z</time>
      </trkpt>
      <trkpt lat="54.1762520" lon="11.5249183">
        <time>2026-07-15T09:15:27Z</time>
      </trkpt>
      <trkpt lat="54.1768432" lon="11.5271434">
        <time>2026-07-15T09:16:13Z</time>
      </trkpt>
      <trkpt lat="54.1776039" lon="11.5302568">
        <time>2026-07-15T09:17:15Z</time>
      </trkpt>
      <trkpt lat="54.1779342" lon="11.5320442">
        <time>2026-07-15T09:17:51Z</time>
      </trkpt>
      <trkpt lat="54.1780521" lon="11.5335004">
        <time>2026-07-15T09:18:19Z</time>
      </trkpt>
      <trkpt lat="54.1783082" lon="11.5346512">
        <time>2026-07-15T09:18:43Z</time>
      </trkpt>
      <trkpt lat="54.1791958" lon="11.5366442">
        <time>2026-07-15T09:19:31Z</time>
      </trkpt>
      <trkpt lat="54.1799818" lon="11.5388789">
        <time>2026-07-15T09:20:23Z</time>
      </trkpt>
      <trkpt lat="54.1810315" lon="11.5411385">
        <time>2026-07-15T09:21:21Z</time>
      </trkpt>
      <trkpt lat="54.1817148" lon="11.5427546">
        <time>2026-07-15T09:22:01Z</time>
      </trkpt>
      <trkpt lat="54.1826273" lon="11.5447251">
        <time>2026-07-15T09:22:52Z</time>
      </trkpt>
      <trkpt lat="54.1832963" lon="11.5464302">
        <time>2026-07-15T09:23:34Z</time>
      </trkpt>
      <trkpt lat="54.1838368" lon="11.5481539">
        <time>2026-07-15T09:24:14Z</time>
      </trkpt>
      <trkpt lat="54.1841240" lon="11.5495261">
        <time>2026-07-15T09:24:44Z</time>
      </trkpt>
      <trkpt lat="54.1851414" lon="11.5531081">
        <time>2026-07-15T09:26:06Z</time>
      </trkpt>
      <trkpt lat="54.1856932" lon="11.5553170">
        <time>2026-07-15T09:26:54Z</time>
      </trkpt>
      <trkpt lat="54.1864344" lon="11.5587854">
        <time>2026-07-15T09:28:10Z</time>
      </trkpt>
      <trkpt lat="54.1873945" lon="11.5618360">
        <time>2026-07-15T09:29:21Z</time>
      </trkpt>
      <trkpt lat="54.1879387" lon="11.5632555">
        <time>2026-07-15T09:29:55Z</time>
      </trkpt>
      <trkpt lat="54.1891615" lon="11.5675233">
        <time>2026-07-15T09:31:33Z</time>
      </trkpt>
      <trkpt lat="54.1905220" lon="11.5712425">
        <time>2026-07-15T09:33:03Z</time>
      </trkpt>
      <trkpt lat="54.1912870" lon="11.5736244">
        <time>2026-07-15T09:33:59Z</time>
      </trkpt>
      <trkpt lat="54.1918663" lon="11.5755960">
        <time>2026-07-15T09:34:45Z</time>
      </trkpt>
      <trkpt lat="54.1922875" lon="11.5774162">
        <time>2026-07-15T09:35:26Z</time>
      </trkpt>
      <trkpt lat="54.1934555" lon="11.5809923">
        <time>2026-07-15T09:36:50Z</time>
      </trkpt>
      <trkpt lat="54.1938938" lon="11.5825852">
        <time>2026-07-15T09:37:26Z</time>
      </trkpt>
      <trkpt lat="54.1945805" lon="11.5840571">
        <time>2026-07-15T09:38:04Z</time>
      </trkpt>
      <trkpt lat="54.1963085" lon="11.5867715">
        <time>2026-07-15T09:39:23Z</time>
      </trkpt>
      <trkpt lat="54.1970030" lon="11.5879238">
        <time>2026-07-15T09:39:55Z</time>
      </trkpt>
      <trkpt lat="54.1977214" lon="11.5893962">
        <time>2026-07-15T09:40:33Z</time>
      </trkpt>
      <trkpt lat="54.1981628" lon="11.5909865">
        <time>2026-07-15T09:41:09Z</time>
      </trkpt>
      <trkpt lat="54.1983031" lon="11.5924578">
        <time>2026-07-15T09:41:41Z</time>
      </trkpt>
      <trkpt lat="54.1986080" lon="11.5943745">
        <time>2026-07-15T09:42:23Z</time>
      </trkpt>
      <trkpt lat="54.1991740" lon="11.5966340">
        <time>2026-07-15T09:43:13Z</time>
      </trkpt>
      <trkpt lat="54.1996462" lon="11.5984192">
        <time>2026-07-15T09:43:54Z</time>
      </trkpt>
      <trkpt lat="54.2003870" lon="11.6002186">
        <time>2026-07-15T09:44:38Z</time>
      </trkpt>
      <trkpt lat="54.2009314" lon="11.6017972">
        <time>2026-07-15T09:45:14Z</time>
      </trkpt>
      <trkpt lat="54.2013205" lon="11.6036130">
        <time>2026-07-15T09:45:54Z</time>
      </trkpt>
      <trkpt lat="54.2020281" lon="11.6060920">
        <time>2026-07-15T09:46:50Z</time>
      </trkpt>
      <trkpt lat="54.2040055" lon="11.6114847">
        <time>2026-07-15T09:48:58Z</time>
      </trkpt>
      <trkpt lat="54.2046232" lon="11.6138640">
        <time>2026-07-15T09:49:51Z</time>
      </trkpt>
      <trkpt lat="54.2057590" lon="11.6173557">
        <time>2026-07-15T09:51:11Z</time>
      </trkpt>
      <trkpt lat="54.2063620" lon="11.6195317">
        <time>2026-07-15T09:51:59Z</time>
      </trkpt>
      <trkpt lat="54.2068243" lon="11.6208165">
        <time>2026-07-15T09:52:29Z</time>
      </trkpt>
      <trkpt lat="54.2087441" lon="11.6240837">
        <time>2026-07-15T09:53:59Z</time>
      </trkpt>
      <trkpt lat="54.2093830" lon="11.6251983">
        <time>2026-07-15T09:54:29Z</time>
      </trkpt>
      <trkpt lat="54.2100630" lon="11.6267118">
        <time>2026-07-15T09:55:05Z</time>
      </trkpt>
      <trkpt lat="54.2108057" lon="11.6294743">
        <time>2026-07-15T09:56:08Z</time>
      </trkpt>
      <trkpt lat="54.2114672" lon="11.6313975">
        <time>2026-07-15T09:56:52Z</time>
      </trkpt>
      <trkpt lat="54.2122282" lon="11.6330955">
        <time>2026-07-15T09:57:34Z</time>
      </trkpt>
      <trkpt lat="54.2127268" lon="11.6340130">
        <time>2026-07-15T09:57:58Z</time>
      </trkpt>
      <trkpt lat="54.2141889" lon="11.6360792">
        <time>2026-07-15T09:59:00Z</time>
      </trkpt>
      <trkpt lat="54.2148352" lon="11.6372867">
        <time>2026-07-15T09:59:32Z</time>
      </trkpt>
      <trkpt lat="54.2153389" lon="11.6386395">
        <time>2026-07-15T10:00:04Z</time>
      </trkpt>
      <trkpt lat="54.2159950" lon="11.6411432">
        <time>2026-07-15T10:00:59Z</time>
      </trkpt>
      <trkpt lat="54.2172669" lon="11.6460580">
        <time>2026-07-15T10:02:47Z</time>
      </trkpt>
      <trkpt lat="54.2180424" lon="11.6482305">
        <time>2026-07-15T10:03:37Z</time>
      </trkpt>
      <trkpt lat="54.2198325" lon="11.6517171">
        <time>2026-07-15T10:05:05Z</time>
      </trkpt>
      <trkpt lat="54.2206847" lon="11.6535443">
        <time>2026-07-15T10:05:51Z</time>
      </trkpt>
      <trkpt lat="54.2211060" lon="11.6545555">
        <time>2026-07-15T10:06:16Z</time>
      </trkpt>
      <trkpt lat="54.2215085" lon="11.6556717">
        <time>2026-07-15T10:06:42Z</time>
      </trkpt>
      <trkpt lat="54.2219585" lon="11.6573234">
        <time>2026-07-15T10:07:18Z</time>
      </trkpt>
      <trkpt lat="54.2222745" lon="11.6595785">
        <time>2026-07-15T10:08:04Z</time>
      </trkpt>
      <trkpt lat="54.2225370" lon="11.6610253">
        <time>2026-07-15T10:08:34Z</time>
      </trkpt>
      <trkpt lat="54.2228645" lon="11.6625243">
        <time>2026-07-15T10:09:06Z</time>
      </trkpt>
      <trkpt lat="54.2234893" lon="11.6649165">
        <time>2026-07-15T10:09:58Z</time>
      </trkpt>
      <trkpt lat="54.2243333" lon="11.6672760">
        <time>2026-07-15T10:10:52Z</time>
      </trkpt>
      <trkpt lat="54.2247397" lon="11.6686275">
        <time>2026-07-15T10:11:22Z</time>
      </trkpt>
      <trkpt lat="54.2249335" lon="11.6698867">
        <time>2026-07-15T10:11:49Z</time>
      </trkpt>
      <trkpt lat="54.2252368" lon="11.6710781">
        <time>2026-07-15T10:12:15Z</time>
      </trkpt>
      <trkpt lat="54.2257235" lon="11.6722192">
        <time>2026-07-15T10:12:43Z</time>
      </trkpt>
      <trkpt lat="54.2263937" lon="11.6743553">
        <time>2026-07-15T10:13:31Z</time>
      </trkpt>
      <trkpt lat="54.2267314" lon="11.6760878">
        <time>2026-07-15T10:14:07Z</time>
      </trkpt>
      <trkpt lat="54.2270300" lon="11.6781467">
        <time>2026-07-15T10:14:49Z</time>
      </trkpt>
      <trkpt lat="54.2274251" lon="11.6802226">
        <time>2026-07-15T10:15:33Z</time>
      </trkpt>
      <trkpt lat="54.2281281" lon="11.6831912">
        <time>2026-07-15T10:16:35Z</time>
      </trkpt>
      <trkpt lat="54.2287548" lon="11.6850442">
        <time>2026-07-15T10:17:18Z</time>
      </trkpt>
      <trkpt lat="54.2295460" lon="11.6867339">
        <time>2026-07-15T10:18:00Z</time>
      </trkpt>
      <trkpt lat="54.2304763" lon="11.6882051">
        <time>2026-07-15T10:18:42Z</time>
      </trkpt>
      <trkpt lat="54.2322317" lon="11.6902920">
        <time>2026-07-15T10:19:50Z</time>
      </trkpt>
      <trkpt lat="54.2329857" lon="11.6913531">
        <time>2026-07-15T10:20:22Z</time>
      </trkpt>
      <trkpt lat="54.2336547" lon="11.6928221">
        <time>2026-07-15T10:20:58Z</time>
      </trkpt>
      <trkpt lat="54.2345267" lon="11.6962881">
        <time>2026-07-15T10:22:12Z</time>
      </trkpt>
      <trkpt lat="54.2348473" lon="11.6973887">
        <time>2026-07-15T10:22:36Z</time>
      </trkpt>
      <trkpt lat="54.2355338" lon="11.6990272">
        <time>2026-07-15T10:23:14Z</time>
      </trkpt>
      <trkpt lat="54.2367627" lon="11.7007965">
        <time>2026-07-15T10:24:07Z</time>
      </trkpt>
      <trkpt lat="54.2373025" lon="11.7016511">
        <time>2026-07-15T10:24:31Z</time>
      </trkpt>
      <trkpt lat="54.2378257" lon="11.7027377">
        <time>2026-07-15T10:24:59Z</time>
      </trkpt>
      <trkpt lat="54.2392287" lon="11.7069005">
        <time>2026-07-15T10:26:33Z</time>
      </trkpt>
      <trkpt lat="54.2397370" lon="11.7082857">
        <time>2026-07-15T10:27:05Z</time>
      </trkpt>
      <trkpt lat="54.2404200" lon="11.7099501">
        <time>2026-07-15T10:27:45Z</time>
      </trkpt>
      <trkpt lat="54.2413746" lon="11.7126432">
        <time>2026-07-15T10:28:47Z</time>
      </trkpt>
      <trkpt lat="54.2426740" lon="11.7157524">
        <time>2026-07-15T10:30:02Z</time>
      </trkpt>
      <trkpt lat="54.2431762" lon="11.7170322">
        <time>2026-07-15T10:30:32Z</time>
      </trkpt>
      <trkpt lat="54.2438155" lon="11.7193400">
        <time>2026-07-15T10:31:22Z</time>
      </trkpt>
      <trkpt lat="54.2441965" lon="11.7218918">
        <time>2026-07-15T10:32:14Z</time>
      </trkpt>
      <trkpt lat="54.2446843" lon="11.7251263">
        <time>2026-07-15T10:33:20Z</time>
      </trkpt>
      <trkpt lat="54.2449062" lon="11.7273078">
        <time>2026-07-15T10:34:02Z</time>
      </trkpt>
      <trkpt lat="54.2452797" lon="11.7294327">
        <time>2026-07-15T10:34:47Z</time>
      </trkpt>
      <trkpt lat="54.2457260" lon="11.7313307">
        <time>2026-07-15T10:35:27Z</time>
      </trkpt>
      <trkpt lat="54.2461102" lon="11.7327690">
        <time>2026-07-15T10:35:57Z</time>
      </trkpt>
      <trkpt lat="54.2480058" lon="11.7382305">
        <time>2026-07-15T10:37:57Z</time>
      </trkpt>
      <trkpt lat="54.2483968" lon="11.7395718">
        <time>2026-07-15T10:38:27Z</time>
      </trkpt>
      <trkpt lat="54.2490873" lon="11.7423265">
        <time>2026-07-15T10:39:28Z</time>
      </trkpt>
      <trkpt lat="54.2493541" lon="11.7435590">
        <time>2026-07-15T10:39:54Z</time>
      </trkpt>
      <trkpt lat="54.2500750" lon="11.7462705">
        <time>2026-07-15T10:40:52Z</time>
      </trkpt>
      <trkpt lat="54.2505636" lon="11.7484596">
        <time>2026-07-15T10:41:38Z</time>
      </trkpt>
      <trkpt lat="54.2512108" lon="11.7506090">
        <time>2026-07-15T10:42:24Z</time>
      </trkpt>
      <trkpt lat="54.2518917" lon="11.7530926">
        <time>2026-07-15T10:43:18Z</time>
      </trkpt>
      <trkpt lat="54.2523325" lon="11.7552525">
        <time>2026-07-15T10:44:04Z</time>
      </trkpt>
      <trkpt lat="54.2528253" lon="11.7573877">
        <time>2026-07-15T10:44:49Z</time>
      </trkpt>
      <trkpt lat="54.2533494" lon="11.7597675">
        <time>2026-07-15T10:45:39Z</time>
      </trkpt>
      <trkpt lat="54.2537217" lon="11.7609716">
        <time>2026-07-15T10:46:05Z</time>
      </trkpt>
      <trkpt lat="54.2543857" lon="11.7628463">
        <time>2026-07-15T10:46:47Z</time>
      </trkpt>
      <trkpt lat="54.2554133" lon="11.7655103">
        <time>2026-07-15T10:47:49Z</time>
      </trkpt>
      <trkpt lat="54.2558551" lon="11.7670447">
        <time>2026-07-15T10:48:23Z</time>
      </trkpt>
      <trkpt lat="54.2561658" lon="11.7685410">
        <time>2026-07-15T10:48:55Z</time>
      </trkpt>
      <trkpt lat="54.2568178" lon="11.7705660">
        <time>2026-07-15T10:49:39Z</time>
      </trkpt>
      <trkpt lat="54.2576800" lon="11.7723248">
        <time>2026-07-15T10:50:23Z</time>
      </trkpt>
      <trkpt lat="54.2589776" lon="11.7742062">
        <time>2026-07-15T10:51:18Z</time>
      </trkpt>
      <trkpt lat="54.2597701" lon="11.7757670">
        <time>2026-07-15T10:51:58Z</time>
      </trkpt>
      <trkpt lat="54.2601830" lon="11.7773526">
        <time>2026-07-15T10:52:32Z</time>
      </trkpt>
      <trkpt lat="54.2605001" lon="11.7797566">
        <time>2026-07-15T10:53:20Z</time>
      </trkpt>
      <trkpt lat="54.2608537" lon="11.7816965">
        <time>2026-07-15T10:54:00Z</time>
      </trkpt>
      <trkpt lat="54.2614007" lon="11.7834290">
        <time>2026-07-15T10:54:38Z</time>
      </trkpt>
      <trkpt lat="54.2618395" lon="11.7849905">
        <time>2026-07-15T10:55:12Z</time>
      </trkpt>
      <trkpt lat="54.2627345" lon="11.7877022">
        <time>2026-07-15T10:56:12Z</time>
      </trkpt>
      <trkpt lat="54.2631729" lon="11.7891549">
        <time>2026-07-15T10:56:44Z</time>
      </trkpt>
      <trkpt lat="54.2635387" lon="11.7905507">
        <time>2026-07-15T10:57:15Z</time>
      </trkpt>
      <trkpt lat="54.2639992" lon="11.7929394">
        <time>2026-07-15T10:58:05Z</time>
      </trkpt>
      <trkpt lat="54.2643650" lon="11.7943412">
        <time>2026-07-15T10:58:35Z</time>
      </trkpt>
      <trkpt lat="54.2652455" lon="11.7961993">
        <time>2026-07-15T10:59:21Z</time>
      </trkpt>
      <trkpt lat="54.2660420" lon="11.7989410">
        <time>2026-07-15T11:00:21Z</time>
      </trkpt>
      <trkpt lat="54.2665235" lon="11.8004200">
        <time>2026-07-15T11:00:55Z</time>
      </trkpt>
      <trkpt lat="54.2669825" lon="11.8014797">
        <time>2026-07-15T11:01:21Z</time>
      </trkpt>
      <trkpt lat="54.2680430" lon="11.8035628">
        <time>2026-07-15T11:02:13Z</time>
      </trkpt>
      <trkpt lat="54.2692240" lon="11.8056458">
        <time>2026-07-15T11:03:10Z</time>
      </trkpt>
      <trkpt lat="54.2700757" lon="11.8077172">
        <time>2026-07-15T11:04:00Z</time>
      </trkpt>
      <trkpt lat="54.2709121" lon="11.8100573">
        <time>2026-07-15T11:04:54Z</time>
      </trkpt>
      <trkpt lat="54.2718048" lon="11.8120103">
        <time>2026-07-15T11:05:42Z</time>
      </trkpt>
      <trkpt lat="54.2727313" lon="11.8154798">
        <time>2026-07-15T11:06:56Z</time>
      </trkpt>
      <trkpt lat="54.2740012" lon="11.8208512">
        <time>2026-07-15T11:08:53Z</time>
      </trkpt>
      <trkpt lat="54.2758326" lon="11.8265350">
        <time>2026-07-15T11:11:03Z</time>
      </trkpt>
      <trkpt lat="54.2765304" lon="11.8289470">
        <time>2026-07-15T11:11:57Z</time>
      </trkpt>
      <trkpt lat="54.2773023" lon="11.8321370">
        <time>2026-07-15T11:13:06Z</time>
      </trkpt>
      <trkpt lat="54.2776763" lon="11.8333530">
        <time>2026-07-15T11:13:34Z</time>
      </trkpt>
      <trkpt lat="54.2781631" lon="11.8347915">
        <time>2026-07-15T11:14:08Z</time>
      </trkpt>
      <trkpt lat="54.2793048" lon="11.8377828">
        <time>2026-07-15T11:15:20Z</time>
      </trkpt>
      <trkpt lat="54.2802700" lon="11.8400335">
        <time>2026-07-15T11:16:16Z</time>
      </trkpt>
      <trkpt lat="54.2811143" lon="11.8430620">
        <time>2026-07-15T11:17:22Z</time>
      </trkpt>
      <trkpt lat="54.2820107" lon="11.8454478">
        <time>2026-07-15T11:18:21Z</time>
      </trkpt>
      <trkpt lat="54.2825719" lon="11.8473282">
        <time>2026-07-15T11:19:03Z</time>
      </trkpt>
      <trkpt lat="54.2829148" lon="11.8490834">
        <time>2026-07-15T11:19:41Z</time>
      </trkpt>
      <trkpt lat="54.2832098" lon="11.8503523">
        <time>2026-07-15T11:20:09Z</time>
      </trkpt>
      <trkpt lat="54.2838690" lon="11.8527567">
        <time>2026-07-15T11:21:03Z</time>
      </trkpt>
      <trkpt lat="54.2844979" lon="11.8555530">
        <time>2026-07-15T11:22:05Z</time>
      </trkpt>
      <trkpt lat="54.2853162" lon="11.8579338">
        <time>2026-07-15T11:23:01Z</time>
      </trkpt>
      <trkpt lat="54.2871505" lon="11.8618517">
        <time>2026-07-15T11:24:44Z</time>
      </trkpt>
      <trkpt lat="54.2876907" lon="11.8631646">
        <time>2026-07-15T11:25:16Z</time>
      </trkpt>
      <trkpt lat="54.2879959" lon="11.8644252">
        <time>2026-07-15T11:25:44Z</time>
      </trkpt>
      <trkpt lat="54.2882753" lon="11.8673162">
        <time>2026-07-15T11:26:46Z</time>
      </trkpt>
      <trkpt lat="54.2885822" lon="11.8692208">
        <time>2026-07-15T11:27:26Z</time>
      </trkpt>
      <trkpt lat="54.2890847" lon="11.8710222">
        <time>2026-07-15T11:28:06Z</time>
      </trkpt>
      <trkpt lat="54.2896025" lon="11.8722855">
        <time>2026-07-15T11:28:38Z</time>
      </trkpt>
      <trkpt lat="54.2900256" lon="11.8734670">
        <time>2026-07-15T11:29:06Z</time>
      </trkpt>
      <trkpt lat="54.2905825" lon="11.8757058">
        <time>2026-07-15T11:29:56Z</time>
      </trkpt>
      <trkpt lat="54.2909142" lon="11.8768048">
        <time>2026-07-15T11:30:22Z</time>
      </trkpt>
      <trkpt lat="54.2916520" lon="11.8784557">
        <time>2026-07-15T11:31:05Z</time>
      </trkpt>
      <trkpt lat="54.2928550" lon="11.8804195">
        <time>2026-07-15T11:32:03Z</time>
      </trkpt>
      <trkpt lat="54.2933889" lon="11.8817822">
        <time>2026-07-15T11:32:37Z</time>
      </trkpt>
      <trkpt lat="54.2938105" lon="11.8834701">
        <time>2026-07-15T11:33:15Z</time>
      </trkpt>
      <trkpt lat="54.2943860" lon="11.8854752">
        <time>2026-07-15T11:34:01Z</time>
      </trkpt>
      <trkpt lat="54.2949637" lon="11.8872022">
        <time>2026-07-15T11:34:43Z</time>
      </trkpt>
      <trkpt lat="54.2954707" lon="11.8894054">
        <time>2026-07-15T11:35:33Z</time>
      </trkpt>
      <trkpt lat="54.2963840" lon="11.8926341">
        <time>2026-07-15T11:36:48Z</time>
      </trkpt>
      <trkpt lat="54.2967487" lon="11.8941237">
        <time>2026-07-15T11:37:22Z</time>
      </trkpt>
      <trkpt lat="54.2971223" lon="11.8960111">
        <time>2026-07-15T11:38:04Z</time>
      </trkpt>
      <trkpt lat="54.2974253" lon="11.8972263">
        <time>2026-07-15T11:38:32Z</time>
      </trkpt>
      <trkpt lat="54.2983202" lon="11.9003103">
        <time>2026-07-15T11:39:44Z</time>
      </trkpt>
      <trkpt lat="54.2988234" lon="11.9022148">
        <time>2026-07-15T11:40:28Z</time>
      </trkpt>
      <trkpt lat="54.2990540" lon="11.9035635">
        <time>2026-07-15T11:40:58Z</time>
      </trkpt>
      <trkpt lat="54.2992323" lon="11.9049662">
        <time>2026-07-15T11:41:28Z</time>
      </trkpt>
      <trkpt lat="54.2998565" lon="11.9065035">
        <time>2026-07-15T11:42:06Z</time>
      </trkpt>
      <trkpt lat="54.3009247" lon="11.9078942">
        <time>2026-07-15T11:42:52Z</time>
      </trkpt>
      <trkpt lat="54.3016913" lon="11.9090620">
        <time>2026-07-15T11:43:29Z</time>
      </trkpt>
      <trkpt lat="54.3021242" lon="11.9101118">
        <time>2026-07-15T11:43:55Z</time>
      </trkpt>
      <trkpt lat="54.3024314" lon="11.9120122">
        <time>2026-07-15T11:44:37Z</time>
      </trkpt>
      <trkpt lat="54.3028133" lon="11.9136372">
        <time>2026-07-15T11:45:13Z</time>
      </trkpt>
      <trkpt lat="54.3036615" lon="11.9155863">
        <time>2026-07-15T11:46:03Z</time>
      </trkpt>
      <trkpt lat="54.3041906" lon="11.9170200">
        <time>2026-07-15T11:46:39Z</time>
      </trkpt>
      <trkpt lat="54.3045897" lon="11.9193730">
        <time>2026-07-15T11:47:31Z</time>
      </trkpt>
      <trkpt lat="54.3051725" lon="11.9219850">
        <time>2026-07-15T11:48:27Z</time>
      </trkpt>
      <trkpt lat="54.3057857" lon="11.9242990">
        <time>2026-07-15T11:49:20Z</time>
      </trkpt>
      <trkpt lat="54.3061616" lon="11.9258790">
        <time>2026-07-15T11:49:56Z</time>
      </trkpt>
      <trkpt lat="54.3063180" lon="11.9282858">
        <time>2026-07-15T11:50:46Z</time>
      </trkpt>
      <trkpt lat="54.3063901" lon="11.9295542">
        <time>2026-07-15T11:51:12Z</time>
      </trkpt>
      <trkpt lat="54.3066366" lon="11.9312957">
        <time>2026-07-15T11:51:50Z</time>
      </trkpt>
      <trkpt lat="54.3071610" lon="11.9332544">
        <time>2026-07-15T11:52:34Z</time>
      </trkpt>
      <trkpt lat="54.3079343" lon="11.9352363">
        <time>2026-07-15T11:53:22Z</time>
      </trkpt>
      <trkpt lat="54.3086478" lon="11.9379245">
        <time>2026-07-15T11:54:24Z</time>
      </trkpt>
      <trkpt lat="54.3090685" lon="11.9396055">
        <time>2026-07-15T11:55:02Z</time>
      </trkpt>
      <trkpt lat="54.3096548" lon="11.9414075">
        <time>2026-07-15T11:55:45Z</time>
      </trkpt>
      <trkpt lat="54.3106326" lon="11.9439591">
        <time>2026-07-15T11:56:47Z</time>
      </trkpt>
      <trkpt lat="54.3113565" lon="11.9459547">
        <time>2026-07-15T11:57:35Z</time>
      </trkpt>
      <trkpt lat="54.3117097" lon="11.9470400">
        <time>2026-07-15T11:58:01Z</time>
      </trkpt>
      <trkpt lat="54.3123753" lon="11.9492803">
        <time>2026-07-15T11:58:53Z</time>
      </trkpt>
      <trkpt lat="54.3128366" lon="11.9504429">
        <time>2026-07-15T11:59:21Z</time>
      </trkpt>
      <trkpt lat="54.3136210" lon="11.9520540">
        <time>2026-07-15T12:00:03Z</time>
      </trkpt>
      <trkpt lat="54.3145180" lon="11.9547812">
        <time>2026-07-15T12:01:07Z</time>
      </trkpt>
      <trkpt lat="54.3152796" lon="11.9570070">
        <time>2026-07-15T12:02:02Z</time>
      </trkpt>
      <trkpt lat="54.3160650" lon="11.9592007">
        <time>2026-07-15T12:02:56Z</time>
      </trkpt>
      <trkpt lat="54.3166810" lon="11.9606758">
        <time>2026-07-15T12:03:34Z</time>
      </trkpt>
      <trkpt lat="54.3175300" lon="11.9630008">
        <time>2026-07-15T12:04:30Z</time>
      </trkpt>
      <trkpt lat="54.3182915" lon="11.9653750">
        <time>2026-07-15T12:05:26Z</time>
      </trkpt>
      <trkpt lat="54.3189555" lon="11.9668949">
        <time>2026-07-15T12:06:04Z</time>
      </trkpt>
      <trkpt lat="54.3196329" lon="11.9681388">
        <time>2026-07-15T12:06:38Z</time>
      </trkpt>
      <trkpt lat="54.3207080" lon="11.9715035">
        <time>2026-07-15T12:07:59Z</time>
      </trkpt>
      <trkpt lat="54.3212601" lon="11.9735870">
        <time>2026-07-15T12:08:47Z</time>
      </trkpt>
      <trkpt lat="54.3217567" lon="11.9749454">
        <time>2026-07-15T12:09:19Z</time>
      </trkpt>
      <trkpt lat="54.3222563" lon="11.9759374">
        <time>2026-07-15T12:09:45Z</time>
      </trkpt>
      <trkpt lat="54.3236563" lon="11.9780121">
        <time>2026-07-15T12:10:47Z</time>
      </trkpt>
      <trkpt lat="54.3241904" lon="11.9793742">
        <time>2026-07-15T12:11:21Z</time>
      </trkpt>
      <trkpt lat="54.3243499" lon="11.9808822">
        <time>2026-07-15T12:11:53Z</time>
      </trkpt>
      <trkpt lat="54.3253813" lon="11.9835383">
        <time>2026-07-15T12:13:00Z</time>
      </trkpt>
      <trkpt lat="54.3264487" lon="11.9855869">
        <time>2026-07-15T12:13:54Z</time>
      </trkpt>
      <trkpt lat="54.3269824" lon="11.9868522">
        <time>2026-07-15T12:14:26Z</time>
      </trkpt>
      <trkpt lat="54.3272822" lon="11.9881665">
        <time>2026-07-15T12:14:54Z</time>
      </trkpt>
      <trkpt lat="54.3274378" lon="11.9899815">
        <time>2026-07-15T12:15:32Z</time>
      </trkpt>
      <trkpt lat="54.3277592" lon="11.9916331">
        <time>2026-07-15T12:16:08Z</time>
      </trkpt>
      <trkpt lat="54.3285108" lon="11.9935207">
        <time>2026-07-15T12:16:54Z</time>
      </trkpt>
      <trkpt lat="54.3293878" lon="11.9949485">
        <time>2026-07-15T12:17:36Z</time>
      </trkpt>
      <trkpt lat="54.3306723" lon="11.9980994">
        <time>2026-07-15T12:18:55Z</time>
      </trkpt>
      <trkpt lat="54.3313463" lon="11.9998850">
        <time>2026-07-15T12:19:39Z</time>
      </trkpt>
      <trkpt lat="54.3319942" lon="12.0011433">
        <time>2026-07-15T12:20:13Z</time>
      </trkpt>
      <trkpt lat="54.3326695" lon="12.0027040">
        <time>2026-07-15T12:20:53Z</time>
      </trkpt>
      <trkpt lat="54.3330432" lon="12.0042783">
        <time>2026-07-15T12:21:29Z</time>
      </trkpt>
      <trkpt lat="54.3332229" lon="12.0055811">
        <time>2026-07-15T12:21:57Z</time>
      </trkpt>
      <trkpt lat="54.3335387" lon="12.0074588">
        <time>2026-07-15T12:22:38Z</time>
      </trkpt>
      <trkpt lat="54.3338689" lon="12.0089455">
        <time>2026-07-15T12:23:12Z</time>
      </trkpt>
      <trkpt lat="54.3348946" lon="12.0119272">
        <time>2026-07-15T12:24:24Z</time>
      </trkpt>
      <trkpt lat="54.3358176" lon="12.0140300">
        <time>2026-07-15T12:25:18Z</time>
      </trkpt>
      <trkpt lat="54.3371929" lon="12.0178014">
        <time>2026-07-15T12:26:52Z</time>
      </trkpt>
      <trkpt lat="54.3376672" lon="12.0198351">
        <time>2026-07-15T12:27:41Z</time>
      </trkpt>
      <trkpt lat="54.3382183" lon="12.0213642">
        <time>2026-07-15T12:28:19Z</time>
      </trkpt>
      <trkpt lat="54.3391209" lon="12.0228275">
        <time>2026-07-15T12:29:03Z</time>
      </trkpt>
      <trkpt lat="54.3396455" lon="12.0238668">
        <time>2026-07-15T12:29:31Z</time>
      </trkpt>
      <trkpt lat="54.3402015" lon="12.0268022">
        <time>2026-07-15T12:30:37Z</time>
      </trkpt>
      <trkpt lat="54.3405279" lon="12.0284485">
        <time>2026-07-15T12:31:15Z</time>
      </trkpt>
      <trkpt lat="54.3417777" lon="12.0322565">
        <time>2026-07-15T12:32:47Z</time>
      </trkpt>
      <trkpt lat="54.3424575" lon="12.0347395">
        <time>2026-07-15T12:33:45Z</time>
      </trkpt>
      <trkpt lat="54.3430960" lon="12.0364982">
        <time>2026-07-15T12:34:30Z</time>
      </trkpt>
      <trkpt lat="54.3443387" lon="12.0387723">
        <time>2026-07-15T12:35:36Z</time>
      </trkpt>
      <trkpt lat="54.3447795" lon="12.0398318">
        <time>2026-07-15T12:36:04Z</time>
      </trkpt>
      <trkpt lat="54.3449978" lon="12.0413978">
        <time>2026-07-15T12:36:38Z</time>
      </trkpt>
      <trkpt lat="54.3453808" lon="12.0429264">
        <time>2026-07-15T12:37:14Z</time>
      </trkpt>
      <trkpt lat="54.3462685" lon="12.0447548">
        <time>2026-07-15T12:38:04Z</time>
      </trkpt>
      <trkpt lat="54.3471602" lon="12.0472305">
        <time>2026-07-15T12:39:06Z</time>
      </trkpt>
      <trkpt lat="54.3491987" lon="12.0527720">
        <time>2026-07-15T12:41:22Z</time>
      </trkpt>
      <trkpt lat="54.3498128" lon="12.0549298">
        <time>2026-07-15T12:42:13Z</time>
      </trkpt>
      <trkpt lat="54.3506642" lon="12.0574317">
        <time>2026-07-15T12:43:13Z</time>
      </trkpt>
      <trkpt lat="54.3518505" lon="12.0603673">
        <time>2026-07-15T12:44:27Z</time>
      </trkpt>
      <trkpt lat="54.3524340" lon="12.0624785">
        <time>2026-07-15T12:45:15Z</time>
      </trkpt>
      <trkpt lat="54.3528280" lon="12.0635241">
        <time>2026-07-15T12:45:41Z</time>
      </trkpt>
      <trkpt lat="54.3536328" lon="12.0646498">
        <time>2026-07-15T12:46:17Z</time>
      </trkpt>
      <trkpt lat="54.3552168" lon="12.0675599">
        <time>2026-07-15T12:47:37Z</time>
      </trkpt>
      <trkpt lat="54.3567347" lon="12.0718931">
        <time>2026-07-15T12:49:22Z</time>
      </trkpt>
      <trkpt lat="54.3572627" lon="12.0738412">
        <time>2026-07-15T12:50:06Z</time>
      </trkpt>
      <trkpt lat="54.3582410" lon="12.0763805">
        <time>2026-07-15T12:51:08Z</time>
      </trkpt>
      <trkpt lat="54.3587769" lon="12.0782923">
        <time>2026-07-15T12:51:52Z</time>
      </trkpt>
      <trkpt lat="54.3590980" lon="12.0802945">
        <time>2026-07-15T12:52:34Z</time>
      </trkpt>
      <trkpt lat="54.3593840" lon="12.0836141">
        <time>2026-07-15T12:53:43Z</time>
      </trkpt>
      <trkpt lat="54.3600652" lon="12.0894400">
        <time>2026-07-15T12:55:45Z</time>
      </trkpt>
      <trkpt lat="54.3604879" lon="12.0915027">
        <time>2026-07-15T12:56:29Z</time>
      </trkpt>
      <trkpt lat="54.3612099" lon="12.0942465">
        <time>2026-07-15T12:57:29Z</time>
      </trkpt>
      <trkpt lat="54.3618673" lon="12.0963660">
        <time>2026-07-15T12:58:17Z</time>
      </trkpt>
      <trkpt lat="54.3623525" lon="12.0986032">
        <time>2026-07-15T12:59:05Z</time>
      </trkpt>
      <trkpt lat="54.3630243" lon="12.1009025">
        <time>2026-07-15T12:59:57Z</time>
      </trkpt>
      <trkpt lat="54.3637185" lon="12.1028573">
        <time>2026-07-15T13:00:44Z</time>
      </trkpt>
      <trkpt lat="54.3646650" lon="12.1052620">
        <time>2026-07-15T13:01:42Z</time>
      </trkpt>
      <trkpt lat="54.3652634" lon="12.1073660">
        <time>2026-07-15T13:02:28Z</time>
      </trkpt>
      <trkpt lat="54.3657980" lon="12.1092684">
        <time>2026-07-15T13:03:10Z</time>
      </trkpt>
      <trkpt lat="54.3667567" lon="12.1119274">
        <time>2026-07-15T13:04:12Z</time>
      </trkpt>
      <trkpt lat="54.3682785" lon="12.1166125">
        <time>2026-07-15T13:05:58Z</time>
      </trkpt>
      <trkpt lat="54.3686845" lon="12.1180860">
        <time>2026-07-15T13:06:30Z</time>
      </trkpt>
      <trkpt lat="54.3689488" lon="12.1196432">
        <time>2026-07-15T13:07:03Z</time>
      </trkpt>
      <trkpt lat="54.3689455" lon="12.1215745">
        <time>2026-07-15T13:07:41Z</time>
      </trkpt>
      <trkpt lat="54.3695680" lon="12.1234656">
        <time>2026-07-15T13:08:27Z</time>
      </trkpt>
      <trkpt lat="54.3703505" lon="12.1250888">
        <time>2026-07-15T13:09:09Z</time>
      </trkpt>
      <trkpt lat="54.3725440" lon="12.1281607">
        <time>2026-07-15T13:10:45Z</time>
      </trkpt>
      <trkpt lat="54.3732070" lon="12.1291891">
        <time>2026-07-15T13:11:13Z</time>
      </trkpt>
      <trkpt lat="54.3737315" lon="12.1302765">
        <time>2026-07-15T13:11:41Z</time>
      </trkpt>
      <trkpt lat="54.3761846" lon="12.1364650">
        <time>2026-07-15T13:14:10Z</time>
      </trkpt>
      <trkpt lat="54.3768193" lon="12.1384435">
        <time>2026-07-15T13:14:54Z</time>
      </trkpt>
      <trkpt lat="54.3770598" lon="12.1397060">
        <time>2026-07-15T13:15:20Z</time>
      </trkpt>
      <trkpt lat="54.3774798" lon="12.1411214">
        <time>2026-07-15T13:15:52Z</time>
      </trkpt>
      <trkpt lat="54.3779660" lon="12.1423823">
        <time>2026-07-15T13:16:22Z</time>
      </trkpt>
      <trkpt lat="54.3794795" lon="12.1455935">
        <time>2026-07-15T13:17:42Z</time>
      </trkpt>
      <trkpt lat="54.3801765" lon="12.1474848">
        <time>2026-07-15T13:18:27Z</time>
      </trkpt>
      <trkpt lat="54.3807551" lon="12.1497383">
        <time>2026-07-15T13:19:15Z</time>
      </trkpt>
      <trkpt lat="54.3812397" lon="12.1512422">
        <time>2026-07-15T13:19:49Z</time>
      </trkpt>
      <trkpt lat="54.3825809" lon="12.1540792">
        <time>2026-07-15T13:20:59Z</time>
      </trkpt>
      <trkpt lat="54.3832387" lon="12.1557128">
        <time>2026-07-15T13:21:39Z</time>
      </trkpt>
      <trkpt lat="54.3837157" lon="12.1574373">
        <time>2026-07-15T13:22:15Z</time>
      </trkpt>
      <trkpt lat="54.3840102" lon="12.1593388">
        <time>2026-07-15T13:22:54Z</time>
      </trkpt>
      <trkpt lat="54.3842552" lon="12.1605015">
        <time>2026-07-15T13:23:18Z</time>
      </trkpt>
      <trkpt lat="54.3848426" lon="12.1622560">
        <time>2026-07-15T13:23:58Z</time>
      </trkpt>
      <trkpt lat="54.3858019" lon="12.1640889">
        <time>2026-07-15T13:24:46Z</time>
      </trkpt>
      <trkpt lat="54.3868958" lon="12.1655015">
        <time>2026-07-15T13:25:30Z</time>
      </trkpt>
      <trkpt lat="54.3876533" lon="12.1671082">
        <time>2026-07-15T13:26:10Z</time>
      </trkpt>
      <trkpt lat="54.3884558" lon="12.1698648">
        <time>2026-07-15T13:27:11Z</time>
      </trkpt>
      <trkpt lat="54.3890410" lon="12.1717632">
        <time>2026-07-15T13:27:53Z</time>
      </trkpt>
      <trkpt lat="54.3893925" lon="12.1730599">
        <time>2026-07-15T13:28:21Z</time>
      </trkpt>
      <trkpt lat="54.3906088" lon="12.1764611">
        <time>2026-07-15T13:29:39Z</time>
      </trkpt>
      <trkpt lat="54.3914898" lon="12.1800738">
        <time>2026-07-15T13:30:55Z</time>
      </trkpt>
      <trkpt lat="54.3918932" lon="12.1821250">
        <time>2026-07-15T13:31:37Z</time>
      </trkpt>
      <trkpt lat="54.3929707" lon="12.1852173">
        <time>2026-07-15T13:32:47Z</time>
      </trkpt>
      <trkpt lat="54.3941513" lon="12.1895068">
        <time>2026-07-15T13:34:20Z</time>
      </trkpt>
      <trkpt lat="54.3947025" lon="12.1916305">
        <time>2026-07-15T13:35:06Z</time>
      </trkpt>
      <trkpt lat="54.3962232" lon="12.1952935">
        <time>2026-07-15T13:36:34Z</time>
      </trkpt>
      <trkpt lat="54.3967518" lon="12.1966459">
        <time>2026-07-15T13:37:06Z</time>
      </trkpt>
      <trkpt lat="54.3974575" lon="12.1989675">
        <time>2026-07-15T13:37:56Z</time>
      </trkpt>
      <trkpt lat="54.3977845" lon="12.2006423">
        <time>2026-07-15T13:38:31Z</time>
      </trkpt>
      <trkpt lat="54.3978504" lon="12.2023522">
        <time>2026-07-15T13:39:05Z</time>
      </trkpt>
      <trkpt lat="54.3982244" lon="12.2050894">
        <time>2026-07-15T13:40:03Z</time>
      </trkpt>
      <trkpt lat="54.3986503" lon="12.2064060">
        <time>2026-07-15T13:40:33Z</time>
      </trkpt>
      <trkpt lat="54.3990838" lon="12.2075698">
        <time>2026-07-15T13:41:01Z</time>
      </trkpt>
      <trkpt lat="54.3998266" lon="12.2090157">
        <time>2026-07-15T13:41:39Z</time>
      </trkpt>
      <trkpt lat="54.4010242" lon="12.2107033">
        <time>2026-07-15T13:42:31Z</time>
      </trkpt>
      <trkpt lat="54.4016780" lon="12.2114837">
        <time>2026-07-15T13:42:57Z</time>
      </trkpt>
      <trkpt lat="54.4023433" lon="12.2124532">
        <time>2026-07-15T13:43:27Z</time>
      </trkpt>
      <trkpt lat="54.4030435" lon="12.2138029">
        <time>2026-07-15T13:44:04Z</time>
      </trkpt>
      <trkpt lat="54.4034780" lon="12.2151677">
        <time>2026-07-15T13:44:34Z</time>
      </trkpt>
      <trkpt lat="54.4036165" lon="12.2164850">
        <time>2026-07-15T13:45:00Z</time>
      </trkpt>
      <trkpt lat="54.4044260" lon="12.2186914">
        <time>2026-07-15T13:45:54Z</time>
      </trkpt>
      <trkpt lat="54.4050913" lon="12.2200982">
        <time>2026-07-15T13:46:30Z</time>
      </trkpt>
      <trkpt lat="54.4063888" lon="12.2240010">
        <time>2026-07-15T13:47:58Z</time>
      </trkpt>
      <trkpt lat="54.4068040" lon="12.2255632">
        <time>2026-07-15T13:48:30Z</time>
      </trkpt>
      <trkpt lat="54.4078437" lon="12.2286290">
        <time>2026-07-15T13:49:40Z</time>
      </trkpt>
      <trkpt lat="54.4083981" lon="12.2307965">
        <time>2026-07-15T13:50:26Z</time>
      </trkpt>
      <trkpt lat="54.4090785" lon="12.2327160">
        <time>2026-07-15T13:51:11Z</time>
      </trkpt>
      <trkpt lat="54.4098485" lon="12.2343995">
        <time>2026-07-15T13:51:53Z</time>
      </trkpt>
      <trkpt lat="54.4107537" lon="12.2361568">
        <time>2026-07-15T13:52:39Z</time>
      </trkpt>
      <trkpt lat="54.4112122" lon="12.2371242">
        <time>2026-07-15T13:53:03Z</time>
      </trkpt>
      <trkpt lat="54.4117005" lon="12.2382777">
        <time>2026-07-15T13:53:31Z</time>
      </trkpt>
      <trkpt lat="54.4121970" lon="12.2398985">
        <time>2026-07-15T13:54:07Z</time>
      </trkpt>
      <trkpt lat="54.4124370" lon="12.2412852">
        <time>2026-07-15T13:54:35Z</time>
      </trkpt>
      <trkpt lat="54.4126813" lon="12.2424598">
        <time>2026-07-15T13:54:59Z</time>
      </trkpt>
      <trkpt lat="54.4131659" lon="12.2443067">
        <time>2026-07-15T13:55:37Z</time>
      </trkpt>
      <trkpt lat="54.4137928" lon="12.2461277">
        <time>2026-07-15T13:56:19Z</time>
      </trkpt>
      <trkpt lat="54.4147775" lon="12.2484047">
        <time>2026-07-15T13:57:15Z</time>
      </trkpt>
      <trkpt lat="54.4153168" lon="12.2500019">
        <time>2026-07-15T13:57:51Z</time>
      </trkpt>
      <trkpt lat="54.4167010" lon="12.2525430">
        <time>2026-07-15T13:59:00Z</time>
      </trkpt>
      <trkpt lat="54.4175488" lon="12.2543879">
        <time>2026-07-15T13:59:46Z</time>
      </trkpt>
      <trkpt lat="54.4180083" lon="12.2558423">
        <time>2026-07-15T14:00:18Z</time>
      </trkpt>
      <trkpt lat="54.4182567" lon="12.2580133">
        <time>2026-07-15T14:01:00Z</time>
      </trkpt>
      <trkpt lat="54.4189912" lon="12.2617261">
        <time>2026-07-15T14:02:16Z</time>
      </trkpt>
      <trkpt lat="54.4194575" lon="12.2635158">
        <time>2026-07-15T14:02:55Z</time>
      </trkpt>
      <trkpt lat="54.4202478" lon="12.2676677">
        <time>2026-07-15T14:04:19Z</time>
      </trkpt>
      <trkpt lat="54.4215595" lon="12.2715053">
        <time>2026-07-15T14:05:45Z</time>
      </trkpt>
      <trkpt lat="54.4220129" lon="12.2730695">
        <time>2026-07-15T14:06:19Z</time>
      </trkpt>
      <trkpt lat="54.4223201" lon="12.2746563">
        <time>2026-07-15T14:06:52Z</time>
      </trkpt>
      <trkpt lat="54.4227012" lon="12.2764062">
        <time>2026-07-15T14:07:28Z</time>
      </trkpt>
      <trkpt lat="54.4231111" lon="12.2777787">
        <time>2026-07-15T14:07:58Z</time>
      </trkpt>
      <trkpt lat="54.4238310" lon="12.2792654">
        <time>2026-07-15T14:08:36Z</time>
      </trkpt>
      <trkpt lat="54.4245098" lon="12.2814561">
        <time>2026-07-15T14:09:24Z</time>
      </trkpt>
      <trkpt lat="54.4251722" lon="12.2833015">
        <time>2026-07-15T14:10:06Z</time>
      </trkpt>
      <trkpt lat="54.4262323" lon="12.2870122">
        <time>2026-07-15T14:11:24Z</time>
      </trkpt>
      <trkpt lat="54.4266989" lon="12.2890553">
        <time>2026-07-15T14:12:07Z</time>
      </trkpt>
      <trkpt lat="54.4271076" lon="12.2903272">
        <time>2026-07-15T14:12:35Z</time>
      </trkpt>
      <trkpt lat="54.4275268" lon="12.2919520">
        <time>2026-07-15T14:13:09Z</time>
      </trkpt>
      <trkpt lat="54.4283515" lon="12.2945443">
        <time>2026-07-15T14:14:05Z</time>
      </trkpt>
      <trkpt lat="54.4290708" lon="12.2970621">
        <time>2026-07-15T14:14:59Z</time>
      </trkpt>
      <trkpt lat="54.4296381" lon="12.2985973">
        <time>2026-07-15T14:15:33Z</time>
      </trkpt>
      <trkpt lat="54.4301760" lon="12.2996953">
        <time>2026-07-15T14:16:01Z</time>
      </trkpt>
      <trkpt lat="54.4310102" lon="12.3027805">
        <time>2026-07-15T14:17:05Z</time>
      </trkpt>
      <trkpt lat="54.4314624" lon="12.3052925">
        <time>2026-07-15T14:17:55Z</time>
      </trkpt>
      <trkpt lat="54.4326840" lon="12.3088250">
        <time>2026-07-15T14:19:14Z</time>
      </trkpt>
      <trkpt lat="54.4330488" lon="12.3100220">
        <time>2026-07-15T14:19:40Z</time>
      </trkpt>
      <trkpt lat="54.4335304" lon="12.3124318">
        <time>2026-07-15T14:20:28Z</time>
      </trkpt>
      <trkpt lat="54.4340088" lon="12.3142746">
        <time>2026-07-15T14:21:06Z</time>
      </trkpt>
      <trkpt lat="54.4344337" lon="12.3165543">
        <time>2026-07-15T14:21:50Z</time>
      </trkpt>
      <trkpt lat="54.4349738" lon="12.3180763">
        <time>2026-07-15T14:22:24Z</time>
      </trkpt>
      <trkpt lat="54.4354040" lon="12.3194428">
        <time>2026-07-15T14:22:54Z</time>
      </trkpt>
      <trkpt lat="54.4358935" lon="12.3207837">
        <time>2026-07-15T14:23:25Z</time>
      </trkpt>
      <trkpt lat="54.4362374" lon="12.3222247">
        <time>2026-07-15T14:23:55Z</time>
      </trkpt>
      <trkpt lat="54.4367642" lon="12.3238695">
        <time>2026-07-15T14:24:31Z</time>
      </trkpt>
      <trkpt lat="54.4370990" lon="12.3253299">
        <time>2026-07-15T14:25:01Z</time>
      </trkpt>
      <trkpt lat="54.4377060" lon="12.3269888">
        <time>2026-07-15T14:25:39Z</time>
      </trkpt>
      <trkpt lat="54.4394663" lon="12.3308587">
        <time>2026-07-15T14:27:13Z</time>
      </trkpt>
      <trkpt lat="54.4403661" lon="12.3335495">
        <time>2026-07-15T14:28:13Z</time>
      </trkpt>
      <trkpt lat="54.4413267" lon="12.3358385">
        <time>2026-07-15T14:29:08Z</time>
      </trkpt>
      <trkpt lat="54.4421091" lon="12.3380122">
        <time>2026-07-15T14:29:58Z</time>
      </trkpt>
      <trkpt lat="54.4430290" lon="12.3414113">
        <time>2026-07-15T14:31:10Z</time>
      </trkpt>
      <trkpt lat="54.4436137" lon="12.3438765">
        <time>2026-07-15T14:32:02Z</time>
      </trkpt>
      <trkpt lat="54.4440913" lon="12.3451605">
        <time>2026-07-15T14:32:32Z</time>
      </trkpt>
      <trkpt lat="54.4450458" lon="12.3470105">
        <time>2026-07-15T14:33:18Z</time>
      </trkpt>
      <trkpt lat="54.4464727" lon="12.3508975">
        <time>2026-07-15T14:34:49Z</time>
      </trkpt>
      <trkpt lat="54.4468787" lon="12.3524990">
        <time>2026-07-15T14:35:23Z</time>
      </trkpt>
      <trkpt lat="54.4470283" lon="12.3537376">
        <time>2026-07-15T14:35:47Z</time>
      </trkpt>
      <trkpt lat="54.4473991" lon="12.3550098">
        <time>2026-07-15T14:36:15Z</time>
      </trkpt>
      <trkpt lat="54.4483284" lon="12.3569288">
        <time>2026-07-15T14:37:03Z</time>
      </trkpt>
      <trkpt lat="54.4487946" lon="12.3582210">
        <time>2026-07-15T14:37:33Z</time>
      </trkpt>
      <trkpt lat="54.4492760" lon="12.3594328">
        <time>2026-07-15T14:38:01Z</time>
      </trkpt>
      <trkpt lat="54.4501958" lon="12.3613277">
        <time>2026-07-15T14:38:47Z</time>
      </trkpt>
      <trkpt lat="54.4506793" lon="12.3626096">
        <time>2026-07-15T14:39:17Z</time>
      </trkpt>
      <trkpt lat="54.4515431" lon="12.3644610">
        <time>2026-07-15T14:40:03Z</time>
      </trkpt>
      <trkpt lat="54.4520350" lon="12.3658522">
        <time>2026-07-15T14:40:36Z</time>
      </trkpt>
      <trkpt lat="54.4524540" lon="12.3677721">
        <time>2026-07-15T14:41:16Z</time>
      </trkpt>
      <trkpt lat="54.4537123" lon="12.3704178">
        <time>2026-07-15T14:42:22Z</time>
      </trkpt>
      <trkpt lat="54.4544466" lon="12.3721170">
        <time>2026-07-15T14:43:04Z</time>
      </trkpt>
      <trkpt lat="54.4549185" lon="12.3736556">
        <time>2026-07-15T14:43:38Z</time>
      </trkpt>
      <trkpt lat="54.4554408" lon="12.3761032">
        <time>2026-07-15T14:44:28Z</time>
      </trkpt>
      <trkpt lat="54.4557588" lon="12.3772683">
        <time>2026-07-15T14:44:54Z</time>
      </trkpt>
      <trkpt lat="54.4564232" lon="12.3789845">
        <time>2026-07-15T14:45:34Z</time>
      </trkpt>
      <trkpt lat="54.4568024" lon="12.3803822">
        <time>2026-07-15T14:46:04Z</time>
      </trkpt>
      <trkpt lat="54.4570029" lon="12.3816467">
        <time>2026-07-15T14:46:31Z</time>
      </trkpt>
      <trkpt lat="54.4576292" lon="12.3832135">
        <time>2026-07-15T14:47:09Z</time>
      </trkpt>
      <trkpt lat="54.4582295" lon="12.3855518">
        <time>2026-07-15T14:47:59Z</time>
      </trkpt>
      <trkpt lat="54.4589262" lon="12.3872390">
        <time>2026-07-15T14:48:39Z</time>
      </trkpt>
      <trkpt lat="54.4600779" lon="12.3903510">
        <time>2026-07-15T14:49:51Z</time>
      </trkpt>
      <trkpt lat="54.4605630" lon="12.3922887">
        <time>2026-07-15T14:50:31Z</time>
      </trkpt>
      <trkpt lat="54.4607477" lon="12.3935068">
        <time>2026-07-15T14:50:55Z</time>
      </trkpt>
      <trkpt lat="54.4612837" lon="12.3954430">
        <time>2026-07-15T14:51:37Z</time>
      </trkpt>
      <trkpt lat="54.4632833" lon="12.4007905">
        <time>2026-07-15T14:53:42Z</time>
      </trkpt>
      <trkpt lat="54.4640090" lon="12.4025493">
        <time>2026-07-15T14:54:24Z</time>
      </trkpt>
      <trkpt lat="54.4644490" lon="12.4037717">
        <time>2026-07-15T14:54:52Z</time>
      </trkpt>
      <trkpt lat="54.4650223" lon="12.4059676">
        <time>2026-07-15T14:55:38Z</time>
      </trkpt>
      <trkpt lat="54.4654186" lon="12.4073070">
        <time>2026-07-15T14:56:06Z</time>
      </trkpt>
      <trkpt lat="54.4662130" lon="12.4094024">
        <time>2026-07-15T14:56:54Z</time>
      </trkpt>
      <trkpt lat="54.4666742" lon="12.4107272">
        <time>2026-07-15T14:57:24Z</time>
      </trkpt>
      <trkpt lat="54.4670527" lon="12.4122970">
        <time>2026-07-15T14:57:56Z</time>
      </trkpt>
      <trkpt lat="54.4672465" lon="12.4137750">
        <time>2026-07-15T14:58:25Z</time>
      </trkpt>
      <trkpt lat="54.4678997" lon="12.4157763">
        <time>2026-07-15T14:59:09Z</time>
      </trkpt>
      <trkpt lat="54.4684902" lon="12.4173807">
        <time>2026-07-15T14:59:45Z</time>
      </trkpt>
      <trkpt lat="54.4687955" lon="12.4191261">
        <time>2026-07-15T15:00:19Z</time>
      </trkpt>
      <trkpt lat="54.4692310" lon="12.4206172">
        <time>2026-07-15T15:00:51Z</time>
      </trkpt>
      <trkpt lat="54.4698953" lon="12.4223027">
        <time>2026-07-15T15:01:29Z</time>
      </trkpt>
      <trkpt lat="54.4707715" lon="12.4250997">
        <time>2026-07-15T15:02:27Z</time>
      </trkpt>
      <trkpt lat="54.4710198" lon="12.4263135">
        <time>2026-07-15T15:02:51Z</time>
      </trkpt>
      <trkpt lat="54.4717483" lon="12.4284365">
        <time>2026-07-15T15:03:38Z</time>
      </trkpt>
      <trkpt lat="54.4723213" lon="12.4307157">
        <time>2026-07-15T15:04:24Z</time>
      </trkpt>
      <trkpt lat="54.4725660" lon="12.4319224">
        <time>2026-07-15T15:04:48Z</time>
      </trkpt>
      <trkpt lat="54.4729524" lon="12.4331500">
        <time>2026-07-15T15:05:14Z</time>
      </trkpt>
      <trkpt lat="54.4732387" lon="12.4343748">
        <time>2026-07-15T15:05:38Z</time>
      </trkpt>
      <trkpt lat="54.4738155" lon="12.4364685">
        <time>2026-07-15T15:06:20Z</time>
      </trkpt>
      <trkpt lat="54.4741808" lon="12.4375897">
        <time>2026-07-15T15:06:44Z</time>
      </trkpt>
      <trkpt lat="54.4747793" lon="12.4391196">
        <time>2026-07-15T15:07:18Z</time>
      </trkpt>
      <trkpt lat="54.4751877" lon="12.4411397">
        <time>2026-07-15T15:07:58Z</time>
      </trkpt>
      <trkpt lat="54.4760419" lon="12.4438665">
        <time>2026-07-15T15:08:55Z</time>
      </trkpt>
      <trkpt lat="54.4765216" lon="12.4457995">
        <time>2026-07-15T15:09:33Z</time>
      </trkpt>
      <trkpt lat="54.4776812" lon="12.4494492">
        <time>2026-07-15T15:10:49Z</time>
      </trkpt>
      <trkpt lat="54.4781015" lon="12.4514207">
        <time>2026-07-15T15:11:27Z</time>
      </trkpt>
      <trkpt lat="54.4787850" lon="12.4540315">
        <time>2026-07-15T15:12:19Z</time>
      </trkpt>
      <trkpt lat="54.4794789" lon="12.4563989">
        <time>2026-07-15T15:13:07Z</time>
      </trkpt>
      <trkpt lat="54.4800755" lon="12.4581557">
        <time>2026-07-15T15:13:43Z</time>
      </trkpt>
      <trkpt lat="54.4807144" lon="12.4602177">
        <time>2026-07-15T15:14:26Z</time>
      </trkpt>
      <trkpt lat="54.4815182" lon="12.4632078">
        <time>2026-07-15T15:15:26Z</time>
      </trkpt>
      <trkpt lat="54.4818399" lon="12.4646405">
        <time>2026-07-15T15:15:54Z</time>
      </trkpt>
      <trkpt lat="54.4827703" lon="12.4674024">
        <time>2026-07-15T15:16:52Z</time>
      </trkpt>
      <trkpt lat="54.4830828" lon="12.4685713">
        <time>2026-07-15T15:17:16Z</time>
      </trkpt>
      <trkpt lat="54.4833245" lon="12.4701032">
        <time>2026-07-15T15:17:44Z</time>
      </trkpt>
      <trkpt lat="54.4839405" lon="12.4721095">
        <time>2026-07-15T15:18:26Z</time>
      </trkpt>
      <trkpt lat="54.4845645" lon="12.4736245">
        <time>2026-07-15T15:19:01Z</time>
      </trkpt>
      <trkpt lat="54.4850631" lon="12.4751512">
        <time>2026-07-15T15:19:33Z</time>
      </trkpt>
      <trkpt lat="54.4856857" lon="12.4762255">
        <time>2026-07-15T15:20:01Z</time>
      </trkpt>
      <trkpt lat="54.4862547" lon="12.4781360">
        <time>2026-07-15T15:20:41Z</time>
      </trkpt>
      <trkpt lat="54.4869948" lon="12.4805685">
        <time>2026-07-15T15:21:31Z</time>
      </trkpt>
      <trkpt lat="54.4873707" lon="12.4822020">
        <time>2026-07-15T15:22:03Z</time>
      </trkpt>
      <trkpt lat="54.4878457" lon="12.4839542">
        <time>2026-07-15T15:22:39Z</time>
      </trkpt>
      <trkpt lat="54.4881937" lon="12.4856529">
        <time>2026-07-15T15:23:11Z</time>
      </trkpt>
      <trkpt lat="54.4891458" lon="12.4888025">
        <time>2026-07-15T15:24:17Z</time>
      </trkpt>
      <trkpt lat="54.4896107" lon="12.4908950">
        <time>2026-07-15T15:24:59Z</time>
      </trkpt>
      <trkpt lat="54.4904025" lon="12.4932957">
        <time>2026-07-15T15:25:52Z</time>
      </trkpt>
      <trkpt lat="54.4908923" lon="12.4951852">
        <time>2026-07-15T15:26:30Z</time>
      </trkpt>
      <trkpt lat="54.4913210" lon="12.4974075">
        <time>2026-07-15T15:27:14Z</time>
      </trkpt>
      <trkpt lat="54.4916770" lon="12.4994442">
        <time>2026-07-15T15:27:54Z</time>
      </trkpt>
      <trkpt lat="54.4918086" lon="12.5009035">
        <time>2026-07-15T15:28:22Z</time>
      </trkpt>
      <trkpt lat="54.4921410" lon="12.5020968">
        <time>2026-07-15T15:28:46Z</time>
      </trkpt>
      <trkpt lat="54.4927052" lon="12.5032180">
        <time>2026-07-15T15:29:14Z</time>
      </trkpt>
      <trkpt lat="54.4931802" lon="12.5046690">
        <time>2026-07-15T15:29:46Z</time>
      </trkpt>
      <trkpt lat="54.4932745" lon="12.5059159">
        <time>2026-07-15T15:30:10Z</time>
      </trkpt>
      <trkpt lat="54.4939233" lon="12.5090738">
        <time>2026-07-15T15:31:21Z</time>
      </trkpt>
      <trkpt lat="54.4944415" lon="12.5117394">
        <time>2026-07-15T15:32:15Z</time>
      </trkpt>
      <trkpt lat="54.4946317" lon="12.5130452">
        <time>2026-07-15T15:32:41Z</time>
      </trkpt>
      <trkpt lat="54.4949112" lon="12.5142326">
        <time>2026-07-15T15:33:05Z</time>
      </trkpt>
      <trkpt lat="54.4955129" lon="12.5154223">
        <time>2026-07-15T15:33:35Z</time>
      </trkpt>
      <trkpt lat="54.4966825" lon="12.5165318">
        <time>2026-07-15T15:34:19Z</time>
      </trkpt>
      <trkpt lat="54.4973242" lon="12.5173236">
        <time>2026-07-15T15:34:45Z</time>
      </trkpt>
      <trkpt lat="54.4977063" lon="12.5184151">
        <time>2026-07-15T15:35:09Z</time>
      </trkpt>
      <trkpt lat="54.4979575" lon="12.5199000">
        <time>2026-07-15T15:35:39Z</time>
      </trkpt>
      <trkpt lat="54.4986853" lon="12.5224980">
        <time>2026-07-15T15:36:35Z</time>
      </trkpt>
      <trkpt lat="54.4990620" lon="12.5251092">
        <time>2026-07-15T15:37:27Z</time>
      </trkpt>
      <trkpt lat="54.4996058" lon="12.5273908">
        <time>2026-07-15T15:38:16Z</time>
      </trkpt>
      <trkpt lat="54.5000450" lon="12.5296390">
        <time>2026-07-15T15:39:02Z</time>
      </trkpt>
      <trkpt lat="54.5002376" lon="12.5312627">
        <time>2026-07-15T15:39:34Z</time>
      </trkpt>
      <trkpt lat="54.5008767" lon="12.5339668">
        <time>2026-07-15T15:40:32Z</time>
      </trkpt>
      <trkpt lat="54.5011794" lon="12.5353022">
        <time>2026-07-15T15:41:00Z</time>
      </trkpt>
      <trkpt lat="54.5017289" lon="12.5373075">
        <time>2026-07-15T15:41:42Z</time>
      </trkpt>
      <trkpt lat="54.5020792" lon="12.5387764">
        <time>2026-07-15T15:42:12Z</time>
      </trkpt>
      <trkpt lat="54.5024138" lon="12.5411400">
        <time>2026-07-15T15:43:00Z</time>
      </trkpt>
      <trkpt lat="54.5028340" lon="12.5430697">
        <time>2026-07-15T15:43:42Z</time>
      </trkpt>
      <trkpt lat="54.5039923" lon="12.5456722">
        <time>2026-07-15T15:44:47Z</time>
      </trkpt>
      <trkpt lat="54.5045042" lon="12.5470557">
        <time>2026-07-15T15:45:19Z</time>
      </trkpt>
      <trkpt lat="54.5055792" lon="12.5514350">
        <time>2026-07-15T15:46:53Z</time>
      </trkpt>
      <trkpt lat="54.5061673" lon="12.5539317">
        <time>2026-07-15T15:47:45Z</time>
      </trkpt>
      <trkpt lat="54.5067221" lon="12.5555056">
        <time>2026-07-15T15:48:21Z</time>
      </trkpt>
      <trkpt lat="54.5074075" lon="12.5569900">
        <time>2026-07-15T15:48:57Z</time>
      </trkpt>
      <trkpt lat="54.5079738" lon="12.5586207">
        <time>2026-07-15T15:49:33Z</time>
      </trkpt>
      <trkpt lat="54.5082326" lon="12.5612141">
        <time>2026-07-15T15:50:26Z</time>
      </trkpt>
      <trkpt lat="54.5090252" lon="12.5639852">
        <time>2026-07-15T15:51:26Z</time>
      </trkpt>
      <trkpt lat="54.5092925" lon="12.5662692">
        <time>2026-07-15T15:52:12Z</time>
      </trkpt>
      <trkpt lat="54.5099839" lon="12.5692127">
        <time>2026-07-15T15:53:14Z</time>
      </trkpt>
      <trkpt lat="54.5105272" lon="12.5713612">
        <time>2026-07-15T15:53:58Z</time>
      </trkpt>
      <trkpt lat="54.5108480" lon="12.5732034">
        <time>2026-07-15T15:54:34Z</time>
      </trkpt>
      <trkpt lat="54.5109355" lon="12.5748491">
        <time>2026-07-15T15:55:06Z</time>
      </trkpt>
      <trkpt lat="54.5113499" lon="12.5764399">
        <time>2026-07-15T15:55:40Z</time>
      </trkpt>
      <trkpt lat="54.5121603" lon="12.5779067">
        <time>2026-07-15T15:56:19Z</time>
      </trkpt>
      <trkpt lat="54.5127550" lon="12.5791523">
        <time>2026-07-15T15:56:49Z</time>
      </trkpt>
      <trkpt lat="54.5134702" lon="12.5809598">
        <time>2026-07-15T15:57:30Z</time>
      </trkpt>
      <trkpt lat="54.5140013" lon="12.5834137">
        <time>2026-07-15T15:58:20Z</time>
      </trkpt>
      <trkpt lat="54.5143866" lon="12.5851868">
        <time>2026-07-15T15:58:56Z</time>
      </trkpt>
      <trkpt lat="54.5151710" lon="12.5879442">
        <time>2026-07-15T15:59:54Z</time>
      </trkpt>
      <trkpt lat="54.5155474" lon="12.5890534">
        <time>2026-07-15T16:00:18Z</time>
      </trkpt>
      <trkpt lat="54.5159396" lon="12.5903965">
        <time>2026-07-15T16:00:46Z</time>
      </trkpt>
      <trkpt lat="54.5162976" lon="12.5922178">
        <time>2026-07-15T16:01:22Z</time>
      </trkpt>
      <trkpt lat="54.5169217" lon="12.5947052">
        <time>2026-07-15T16:02:12Z</time>
      </trkpt>
      <trkpt lat="54.5172055" lon="12.5960900">
        <time>2026-07-15T16:02:40Z</time>
      </trkpt>
      <trkpt lat="54.5175990" lon="12.5972733">
        <time>2026-07-15T16:03:06Z</time>
      </trkpt>
      <trkpt lat="54.5184452" lon="12.5988377">
        <time>2026-07-15T16:03:46Z</time>
      </trkpt>
      <trkpt lat="54.5188984" lon="12.6007304">
        <time>2026-07-15T16:04:27Z</time>
      </trkpt>
      <trkpt lat="54.5192662" lon="12.6021293">
        <time>2026-07-15T16:04:57Z</time>
      </trkpt>
      <trkpt lat="54.5198498" lon="12.6049265">
        <time>2026-07-15T16:05:55Z</time>
      </trkpt>
      <trkpt lat="54.5202352" lon="12.6060968">
        <time>2026-07-15T16:06:21Z</time>
      </trkpt>
      <trkpt lat="54.5206077" lon="12.6074864">
        <time>2026-07-15T16:06:51Z</time>
      </trkpt>
      <trkpt lat="54.5208752" lon="12.6089677">
        <time>2026-07-15T16:07:21Z</time>
      </trkpt>
      <trkpt lat="54.5214430" lon="12.6111142">
        <time>2026-07-15T16:08:07Z</time>
      </trkpt>
      <trkpt lat="54.5219257" lon="12.6133300">
        <time>2026-07-15T16:08:53Z</time>
      </trkpt>
      <trkpt lat="54.5222868" lon="12.6150547">
        <time>2026-07-15T16:09:29Z</time>
      </trkpt>
      <trkpt lat="54.5228815" lon="12.6169711">
        <time>2026-07-15T16:10:11Z</time>
      </trkpt>
      <trkpt lat="54.5231807" lon="12.6186907">
        <time>2026-07-15T16:10:45Z</time>
      </trkpt>
      <trkpt lat="54.5235238" lon="12.6202616">
        <time>2026-07-15T16:11:17Z</time>
      </trkpt>
      <trkpt lat="54.5238795" lon="12.6223577">
        <time>2026-07-15T16:12:00Z</time>
      </trkpt>
      <trkpt lat="54.5241340" lon="12.6235445">
        <time>2026-07-15T16:12:24Z</time>
      </trkpt>
      <trkpt lat="54.5244865" lon="12.6255447">
        <time>2026-07-15T16:13:04Z</time>
      </trkpt>
      <trkpt lat="54.5249421" lon="12.6271940">
        <time>2026-07-15T16:13:38Z</time>
      </trkpt>
      <trkpt lat="54.5258545" lon="12.6317183">
        <time>2026-07-15T16:15:08Z</time>
      </trkpt>
      <trkpt lat="54.5261138" lon="12.6331476">
        <time>2026-07-15T16:15:36Z</time>
      </trkpt>
      <trkpt lat="54.5263543" lon="12.6346917">
        <time>2026-07-15T16:16:06Z</time>
      </trkpt>
      <trkpt lat="54.5277880" lon="12.6390658">
        <time>2026-07-15T16:17:40Z</time>
      </trkpt>
      <trkpt lat="54.5284772" lon="12.6418550">
        <time>2026-07-15T16:18:36Z</time>
      </trkpt>
      <trkpt lat="54.5288327" lon="12.6432237">
        <time>2026-07-15T16:19:04Z</time>
      </trkpt>
      <trkpt lat="54.5299493" lon="12.6464605">
        <time>2026-07-15T16:20:15Z</time>
      </trkpt>
      <trkpt lat="54.5303413" lon="12.6477165">
        <time>2026-07-15T16:20:41Z</time>
      </trkpt>
      <trkpt lat="54.5308670" lon="12.6504890">
        <time>2026-07-15T16:21:35Z</time>
      </trkpt>
      <trkpt lat="54.5313615" lon="12.6525623">
        <time>2026-07-15T16:22:17Z</time>
      </trkpt>
      <trkpt lat="54.5318087" lon="12.6541330">
        <time>2026-07-15T16:22:49Z</time>
      </trkpt>
      <trkpt lat="54.5321812" lon="12.6559598">
        <time>2026-07-15T16:23:25Z</time>
      </trkpt>
      <trkpt lat="54.5323278" lon="12.6573272">
        <time>2026-07-15T16:23:51Z</time>
      </trkpt>
      <trkpt lat="54.5331710" lon="12.6621040">
        <time>2026-07-15T16:25:23Z</time>
      </trkpt>
      <trkpt lat="54.5334177" lon="12.6637500">
        <time>2026-07-15T16:25:55Z</time>
      </trkpt>
      <trkpt lat="54.5337078" lon="12.6649186">
        <time>2026-07-15T16:26:19Z</time>
      </trkpt>
      <trkpt lat="54.5347770" lon="12.6674557">
        <time>2026-07-15T16:27:17Z</time>
      </trkpt>
      <trkpt lat="54.5353130" lon="12.6696857">
        <time>2026-07-15T16:28:03Z</time>
      </trkpt>
      <trkpt lat="54.5357498" lon="12.6712902">
        <time>2026-07-15T16:28:38Z</time>
      </trkpt>
      <trkpt lat="54.5370948" lon="12.6745032">
        <time>2026-07-15T16:29:52Z</time>
      </trkpt>
      <trkpt lat="54.5375587" lon="12.6756402">
        <time>2026-07-15T16:30:18Z</time>
      </trkpt>
      <trkpt lat="54.5379178" lon="12.6767516">
        <time>2026-07-15T16:30:42Z</time>
      </trkpt>
      <trkpt lat="54.5381885" lon="12.6780088">
        <time>2026-07-15T16:31:08Z</time>
      </trkpt>
      <trkpt lat="54.5382438" lon="12.6794273">
        <time>2026-07-15T16:31:36Z</time>
      </trkpt>
      <trkpt lat="54.5381097" lon="12.6810256">
        <time>2026-07-15T16:32:08Z</time>
      </trkpt>
      <trkpt lat="54.5382362" lon="12.6823220">
        <time>2026-07-15T16:32:34Z</time>
      </trkpt>
      <trkpt lat="54.5386983" lon="12.6839903">
        <time>2026-07-15T16:33:10Z</time>
      </trkpt>
      <trkpt lat="54.5396330" lon="12.6863075">
        <time>2026-07-15T16:34:04Z</time>
      </trkpt>
      <trkpt lat="54.5404982" lon="12.6883128">
        <time>2026-07-15T16:34:52Z</time>
      </trkpt>
      <trkpt lat="54.5411870" lon="12.6898175">
        <time>2026-07-15T16:35:28Z</time>
      </trkpt>
      <trkpt lat="54.5427419" lon="12.6929168">
        <time>2026-07-15T16:36:47Z</time>
      </trkpt>
      <trkpt lat="54.5432088" lon="12.6941608">
        <time>2026-07-15T16:37:15Z</time>
      </trkpt>
      <trkpt lat="54.5436730" lon="12.6961612">
        <time>2026-07-15T16:37:57Z</time>
      </trkpt>
      <trkpt lat="54.5439266" lon="12.6975051">
        <time>2026-07-15T16:38:25Z</time>
      </trkpt>
      <trkpt lat="54.5447093" lon="12.7002995">
        <time>2026-07-15T16:39:25Z</time>
      </trkpt>
      <trkpt lat="54.5453973" lon="12.7040274">
        <time>2026-07-15T16:40:41Z</time>
      </trkpt>
      <trkpt lat="54.5460448" lon="12.7066950">
        <time>2026-07-15T16:41:37Z</time>
      </trkpt>
      <trkpt lat="54.5463470" lon="12.7089697">
        <time>2026-07-15T16:42:24Z</time>
      </trkpt>
      <trkpt lat="54.5467710" lon="12.7111145">
        <time>2026-07-15T16:43:08Z</time>
      </trkpt>
      <trkpt lat="54.5471206" lon="12.7134855">
        <time>2026-07-15T16:43:56Z</time>
      </trkpt>
      <trkpt lat="54.5482996" lon="12.7192073">
        <time>2026-07-15T16:45:54Z</time>
      </trkpt>
      <trkpt lat="54.5486016" lon="12.7210500">
        <time>2026-07-15T16:46:30Z</time>
      </trkpt>
      <trkpt lat="54.5490052" lon="12.7224628">
        <time>2026-07-15T16:47:00Z</time>
      </trkpt>
      <trkpt lat="54.5495335" lon="12.7236025">
        <time>2026-07-15T16:47:28Z</time>
      </trkpt>
      <trkpt lat="54.5499086" lon="12.7246880">
        <time>2026-07-15T16:47:53Z</time>
      </trkpt>
      <trkpt lat="54.5505642" lon="12.7286882">
        <time>2026-07-15T16:49:15Z</time>
      </trkpt>
      <trkpt lat="54.5511175" lon="12.7314920">
        <time>2026-07-15T16:50:13Z</time>
      </trkpt>
      <trkpt lat="54.5515048" lon="12.7327438">
        <time>2026-07-15T16:50:39Z</time>
      </trkpt>
      <trkpt lat="54.5523590" lon="12.7349025">
        <time>2026-07-15T16:51:29Z</time>
      </trkpt>
      <trkpt lat="54.5527794" lon="12.7360685">
        <time>2026-07-15T16:51:55Z</time>
      </trkpt>
      <trkpt lat="54.5537618" lon="12.7399082">
        <time>2026-07-15T16:53:20Z</time>
      </trkpt>
      <trkpt lat="54.5541351" lon="12.7411848">
        <time>2026-07-15T16:53:48Z</time>
      </trkpt>
      <trkpt lat="54.5555937" lon="12.7451449">
        <time>2026-07-15T16:55:18Z</time>
      </trkpt>
      <trkpt lat="54.5561175" lon="12.7467859">
        <time>2026-07-15T16:55:54Z</time>
      </trkpt>
      <trkpt lat="54.5566305" lon="12.7492926">
        <time>2026-07-15T16:56:48Z</time>
      </trkpt>
      <trkpt lat="54.5571802" lon="12.7512050">
        <time>2026-07-15T16:57:30Z</time>
      </trkpt>
      <trkpt lat="54.5581822" lon="12.7535952">
        <time>2026-07-15T16:58:29Z</time>
      </trkpt>
      <trkpt lat="54.5594438" lon="12.7573893">
        <time>2026-07-15T16:59:55Z</time>
      </trkpt>
      <trkpt lat="54.5598876" lon="12.7592348">
        <time>2026-07-15T17:00:35Z</time>
      </trkpt>
      <trkpt lat="54.5600645" lon="12.7607777">
        <time>2026-07-15T17:01:07Z</time>
      </trkpt>
      <trkpt lat="54.5600253" lon="12.7622552">
        <time>2026-07-15T17:01:37Z</time>
      </trkpt>
      <trkpt lat="54.5602340" lon="12.7635748">
        <time>2026-07-15T17:02:05Z</time>
      </trkpt>
      <trkpt lat="54.5609005" lon="12.7657084">
        <time>2026-07-15T17:02:53Z</time>
      </trkpt>
      <trkpt lat="54.5612367" lon="12.7672132">
        <time>2026-07-15T17:03:25Z</time>
      </trkpt>
      <trkpt lat="54.5615343" lon="12.7696996">
        <time>2026-07-15T17:04:17Z</time>
      </trkpt>
      <trkpt lat="54.5618861" lon="12.7714555">
        <time>2026-07-15T17:04:56Z</time>
      </trkpt>
      <trkpt lat="54.5623735" lon="12.7731423">
        <time>2026-07-15T17:05:34Z</time>
      </trkpt>
      <trkpt lat="54.5630587" lon="12.7752594">
        <time>2026-07-15T17:06:22Z</time>
      </trkpt>
      <trkpt lat="54.5634099" lon="12.7768058">
        <time>2026-07-15T17:06:56Z</time>
      </trkpt>
      <trkpt lat="54.5641570" lon="12.7834584">
        <time>2026-07-15T17:09:14Z</time>
      </trkpt>
      <trkpt lat="54.5644763" lon="12.7851135">
        <time>2026-07-15T17:09:50Z</time>
      </trkpt>
      <trkpt lat="54.5651531" lon="12.7869830">
        <time>2026-07-15T17:10:34Z</time>
      </trkpt>
      <trkpt lat="54.5655413" lon="12.7885213">
        <time>2026-07-15T17:11:09Z</time>
      </trkpt>
      <trkpt lat="54.5654593" lon="12.7904918">
        <time>2026-07-15T17:11:51Z</time>
      </trkpt>
      <trkpt lat="54.5654927" lon="12.7919483">
        <time>2026-07-15T17:12:21Z</time>
      </trkpt>
      <trkpt lat="54.5658918" lon="12.7939803">
        <time>2026-07-15T17:13:05Z</time>
      </trkpt>
      <trkpt lat="54.5663378" lon="12.7955200">
        <time>2026-07-15T17:13:39Z</time>
      </trkpt>
      <trkpt lat="54.5667183" lon="12.7976400">
        <time>2026-07-15T17:14:23Z</time>
      </trkpt>
      <trkpt lat="54.5672629" lon="12.7997070">
        <time>2026-07-15T17:15:09Z</time>
      </trkpt>
      <trkpt lat="54.5675337" lon="12.8010935">
        <time>2026-07-15T17:15:39Z</time>
      </trkpt>
      <trkpt lat="54.5676826" lon="12.8027173">
        <time>2026-07-15T17:16:14Z</time>
      </trkpt>
      <trkpt lat="54.5679755" lon="12.8038850">
        <time>2026-07-15T17:16:40Z</time>
      </trkpt>
      <trkpt lat="54.5685325" lon="12.8054000">
        <time>2026-07-15T17:17:16Z</time>
      </trkpt>
      <trkpt lat="54.5688287" lon="12.8066638">
        <time>2026-07-15T17:17:44Z</time>
      </trkpt>
      <trkpt lat="54.5692375" lon="12.8093007">
        <time>2026-07-15T17:18:40Z</time>
      </trkpt>
      <trkpt lat="54.5696820" lon="12.8115901">
        <time>2026-07-15T17:19:30Z</time>
      </trkpt>
      <trkpt lat="54.5699757" lon="12.8136730">
        <time>2026-07-15T17:20:14Z</time>
      </trkpt>
      <trkpt lat="54.5703195" lon="12.8152837">
        <time>2026-07-15T17:20:50Z</time>
      </trkpt>
      <trkpt lat="54.5706895" lon="12.8164697">
        <time>2026-07-15T17:21:18Z</time>
      </trkpt>
      <trkpt lat="54.5714765" lon="12.8186071">
        <time>2026-07-15T17:22:10Z</time>
      </trkpt>
      <trkpt lat="54.5720077" lon="12.8207365">
        <time>2026-07-15T17:22:59Z</time>
      </trkpt>
      <trkpt lat="54.5723008" lon="12.8224714">
        <time>2026-07-15T17:23:37Z</time>
      </trkpt>
      <trkpt lat="54.5729122" lon="12.8254185">
        <time>2026-07-15T17:24:43Z</time>
      </trkpt>
      <trkpt lat="54.5732142" lon="12.8272540">
        <time>2026-07-15T17:25:23Z</time>
      </trkpt>
      <trkpt lat="54.5741411" lon="12.8308402">
        <time>2026-07-15T17:26:45Z</time>
      </trkpt>
      <trkpt lat="54.5746860" lon="12.8326269">
        <time>2026-07-15T17:27:27Z</time>
      </trkpt>
      <trkpt lat="54.5752110" lon="12.8354230">
        <time>2026-07-15T17:28:32Z</time>
      </trkpt>
      <trkpt lat="54.5759074" lon="12.8388446">
        <time>2026-07-15T17:29:50Z</time>
      </trkpt>
      <trkpt lat="54.5762416" lon="12.8401388">
        <time>2026-07-15T17:30:20Z</time>
      </trkpt>
      <trkpt lat="54.5767421" lon="12.8433425">
        <time>2026-07-15T17:31:32Z</time>
      </trkpt>
      <trkpt lat="54.5771823" lon="12.8457078">
        <time>2026-07-15T17:32:26Z</time>
      </trkpt>
      <trkpt lat="54.5774935" lon="12.8471773">
        <time>2026-07-15T17:33:00Z</time>
      </trkpt>
      <trkpt lat="54.5780961" lon="12.8501233">
        <time>2026-07-15T17:34:08Z</time>
      </trkpt>
      <trkpt lat="54.5790460" lon="12.8530307">
        <time>2026-07-15T17:35:21Z</time>
      </trkpt>
      <trkpt lat="54.5793741" lon="12.8541907">
        <time>2026-07-15T17:35:49Z</time>
      </trkpt>
      <trkpt lat="54.5805775" lon="12.8587797">
        <time>2026-07-15T17:37:39Z</time>
      </trkpt>
      <trkpt lat="54.5811539" lon="12.8606942">
        <time>2026-07-15T17:38:25Z</time>
      </trkpt>
      <trkpt lat="54.5814523" lon="12.8620784">
        <time>2026-07-15T17:38:57Z</time>
      </trkpt>
      <trkpt lat="54.5816958" lon="12.8657833">
        <time>2026-07-15T17:40:20Z</time>
      </trkpt>
      <trkpt lat="54.5816584" lon="12.8675152">
        <time>2026-07-15T17:40:58Z</time>
      </trkpt>
      <trkpt lat="54.5818355" lon="12.8694430">
        <time>2026-07-15T17:41:42Z</time>
      </trkpt>
      <trkpt lat="54.5823255" lon="12.8710116">
        <time>2026-07-15T17:42:20Z</time>
      </trkpt>
      <trkpt lat="54.5826809" lon="12.8725655">
        <time>2026-07-15T17:42:56Z</time>
      </trkpt>
      <trkpt lat="54.5830350" lon="12.8738097">
        <time>2026-07-15T17:43:26Z</time>
      </trkpt>
      <trkpt lat="54.5834171" lon="12.8749074">
        <time>2026-07-15T17:43:54Z</time>
      </trkpt>
      <trkpt lat="54.5838065" lon="12.8762626">
        <time>2026-07-15T17:44:26Z</time>
      </trkpt>
      <trkpt lat="54.5845789" lon="12.8798610">
        <time>2026-07-15T17:45:50Z</time>
      </trkpt>
      <trkpt lat="54.5849762" lon="12.8820124">
        <time>2026-07-15T17:46:41Z</time>
      </trkpt>
      <trkpt lat="54.5853593" lon="12.8835064">
        <time>2026-07-15T17:47:17Z</time>
      </trkpt>
      <trkpt lat="54.5860802" lon="12.8851400">
        <time>2026-07-15T17:48:01Z</time>
      </trkpt>
      <trkpt lat="54.5867077" lon="12.8864974">
        <time>2026-07-15T17:48:37Z</time>
      </trkpt>
      <trkpt lat="54.5871192" lon="12.8883308">
        <time>2026-07-15T17:49:21Z</time>
      </trkpt>
      <trkpt lat="54.5879190" lon="12.8905470">
        <time>2026-07-15T17:50:17Z</time>
      </trkpt>
      <trkpt lat="54.5886332" lon="12.8935450">
        <time>2026-07-15T17:51:29Z</time>
      </trkpt>
      <trkpt lat="54.5890945" lon="12.8952582">
        <time>2026-07-15T17:52:11Z</time>
      </trkpt>
      <trkpt lat="54.5895270" lon="12.8963272">
        <time>2026-07-15T17:52:39Z</time>
      </trkpt>
      <trkpt lat="54.5903695" lon="12.8980425">
        <time>2026-07-15T17:53:28Z</time>
      </trkpt>
      <trkpt lat="54.5908585" lon="12.8994210">
        <time>2026-07-15T17:54:04Z</time>
      </trkpt>
      <trkpt lat="54.5910715" lon="12.9013575">
        <time>2026-07-15T17:54:48Z</time>
      </trkpt>
      <trkpt lat="54.5916778" lon="12.9036498">
        <time>2026-07-15T17:55:44Z</time>
      </trkpt>
      <trkpt lat="54.5925272" lon="12.9069393">
        <time>2026-07-15T17:57:04Z</time>
      </trkpt>
      <trkpt lat="54.5928260" lon="12.9084415">
        <time>2026-07-15T17:57:38Z</time>
      </trkpt>
      <trkpt lat="54.5930425" lon="12.9107265">
        <time>2026-07-15T17:58:30Z</time>
      </trkpt>
      <trkpt lat="54.5934826" lon="12.9125508">
        <time>2026-07-15T17:59:14Z</time>
      </trkpt>
      <trkpt lat="54.5937565" lon="12.9141123">
        <time>2026-07-15T17:59:51Z</time>
      </trkpt>
      <trkpt lat="54.5941606" lon="12.9156665">
        <time>2026-07-15T18:00:29Z</time>
      </trkpt>
      <trkpt lat="54.5951477" lon="12.9175998">
        <time>2026-07-15T18:01:23Z</time>
      </trkpt>
      <trkpt lat="54.5957644" lon="12.9199248">
        <time>2026-07-15T18:02:21Z</time>
      </trkpt>
      <trkpt lat="54.5964579" lon="12.9222492">
        <time>2026-07-15T18:03:19Z</time>
      </trkpt>
      <trkpt lat="54.5967167" lon="12.9234800">
        <time>2026-07-15T18:03:47Z</time>
      </trkpt>
      <trkpt lat="54.5973740" lon="12.9257380">
        <time>2026-07-15T18:04:43Z</time>
      </trkpt>
      <trkpt lat="54.5976858" lon="12.9269983">
        <time>2026-07-15T18:05:13Z</time>
      </trkpt>
      <trkpt lat="54.5982767" lon="12.9297129">
        <time>2026-07-15T18:06:17Z</time>
      </trkpt>
      <trkpt lat="54.5989277" lon="12.9328754">
        <time>2026-07-15T18:07:32Z</time>
      </trkpt>
      <trkpt lat="54.5991523" lon="12.9343346">
        <time>2026-07-15T18:08:06Z</time>
      </trkpt>
      <trkpt lat="54.5996406" lon="12.9361348">
        <time>2026-07-15T18:08:50Z</time>
      </trkpt>
      <trkpt lat="54.6003229" lon="12.9376452">
        <time>2026-07-15T18:09:32Z</time>
      </trkpt>
      <trkpt lat="54.6011305" lon="12.9407621">
        <time>2026-07-15T18:10:46Z</time>
      </trkpt>
      <trkpt lat="54.6013885" lon="12.9423122">
        <time>2026-07-15T18:11:22Z</time>
      </trkpt>
      <trkpt lat="54.6018555" lon="12.9444456">
        <time>2026-07-15T18:12:12Z</time>
      </trkpt>
      <trkpt lat="54.6022632" lon="12.9466143">
        <time>2026-07-15T18:13:03Z</time>
      </trkpt>
      <trkpt lat="54.6028466" lon="12.9492580">
        <time>2026-07-15T18:14:05Z</time>
      </trkpt>
      <trkpt lat="54.6037008" lon="12.9525597">
        <time>2026-07-15T18:15:23Z</time>
      </trkpt>
      <trkpt lat="54.6045912" lon="12.9549345">
        <time>2026-07-15T18:16:25Z</time>
      </trkpt>
      <trkpt lat="54.6051173" lon="12.9571578">
        <time>2026-07-15T18:17:17Z</time>
      </trkpt>
      <trkpt lat="54.6055010" lon="12.9587430">
        <time>2026-07-15T18:17:55Z</time>
      </trkpt>
      <trkpt lat="54.6058030" lon="12.9605692">
        <time>2026-07-15T18:18:38Z</time>
      </trkpt>
      <trkpt lat="54.6063976" lon="12.9627263">
        <time>2026-07-15T18:19:30Z</time>
      </trkpt>
      <trkpt lat="54.6068500" lon="12.9654212">
        <time>2026-07-15T18:20:32Z</time>
      </trkpt>
      <trkpt lat="54.6073046" lon="12.9672970">
        <time>2026-07-15T18:21:16Z</time>
      </trkpt>
      <trkpt lat="54.6078823" lon="12.9692007">
        <time>2026-07-15T18:22:02Z</time>
      </trkpt>
      <trkpt lat="54.6083303" lon="12.9713425">
        <time>2026-07-15T18:22:52Z</time>
      </trkpt>
      <trkpt lat="54.6089485" lon="12.9733584">
        <time>2026-07-15T18:23:42Z</time>
      </trkpt>
      <trkpt lat="54.6093724" lon="12.9754879">
        <time>2026-07-15T18:24:32Z</time>
      </trkpt>
      <trkpt lat="54.6099071" lon="12.9773717">
        <time>2026-07-15T18:25:19Z</time>
      </trkpt>
      <trkpt lat="54.6106033" lon="12.9792295">
        <time>2026-07-15T18:26:07Z</time>
      </trkpt>
      <trkpt lat="54.6113445" lon="12.9819597">
        <time>2026-07-15T18:27:13Z</time>
      </trkpt>
      <trkpt lat="54.6118869" lon="12.9836547">
        <time>2026-07-15T18:27:55Z</time>
      </trkpt>
      <trkpt lat="54.6123910" lon="12.9859178">
        <time>2026-07-15T18:28:47Z</time>
      </trkpt>
      <trkpt lat="54.6126873" lon="12.9880115">
        <time>2026-07-15T18:29:35Z</time>
      </trkpt>
      <trkpt lat="54.6130804" lon="12.9897343">
        <time>2026-07-15T18:30:15Z</time>
      </trkpt>
      <trkpt lat="54.6138465" lon="12.9921147">
        <time>2026-07-15T18:31:15Z</time>
      </trkpt>
      <trkpt lat="54.6144397" lon="12.9950332">
        <time>2026-07-15T18:32:22Z</time>
      </trkpt>
      <trkpt lat="54.6146465" lon="12.9966408">
        <time>2026-07-15T18:32:58Z</time>
      </trkpt>
      <trkpt lat="54.6151172" lon="12.9993713">
        <time>2026-07-15T18:34:00Z</time>
      </trkpt>
      <trkpt lat="54.6160468" lon="13.0025837">
        <time>2026-07-15T18:35:18Z</time>
      </trkpt>
      <trkpt lat="54.6164398" lon="13.0039948">
        <time>2026-07-15T18:35:52Z</time>
      </trkpt>
      <trkpt lat="54.6167200" lon="13.0055480">
        <time>2026-07-15T18:36:29Z</time>
      </trkpt>
      <trkpt lat="54.6175412" lon="13.0084359">
        <time>2026-07-15T18:37:39Z</time>
      </trkpt>
      <trkpt lat="54.6178559" lon="13.0109677">
        <time>2026-07-15T18:38:35Z</time>
      </trkpt>
      <trkpt lat="54.6186533" lon="13.0134967">
        <time>2026-07-15T18:39:39Z</time>
      </trkpt>
      <trkpt lat="54.6193546" lon="13.0160763">
        <time>2026-07-15T18:40:41Z</time>
      </trkpt>
      <trkpt lat="54.6196710" lon="13.0176011">
        <time>2026-07-15T18:41:15Z</time>
      </trkpt>
      <trkpt lat="54.6197555" lon="13.0190710">
        <time>2026-07-15T18:41:47Z</time>
      </trkpt>
      <trkpt lat="54.6199303" lon="13.0205365">
        <time>2026-07-15T18:42:19Z</time>
      </trkpt>
      <trkpt lat="54.6204169" lon="13.0222313">
        <time>2026-07-15T18:43:01Z</time>
      </trkpt>
      <trkpt lat="54.6208342" lon="13.0241277">
        <time>2026-07-15T18:43:45Z</time>
      </trkpt>
      <trkpt lat="54.6211105" lon="13.0259802">
        <time>2026-07-15T18:44:28Z</time>
      </trkpt>
      <trkpt lat="54.6215917" lon="13.0286053">
        <time>2026-07-15T18:45:28Z</time>
      </trkpt>
      <trkpt lat="54.6220250" lon="13.0303888">
        <time>2026-07-15T18:46:10Z</time>
      </trkpt>
      <trkpt lat="54.6225307" lon="13.0321944">
        <time>2026-07-15T18:46:52Z</time>
      </trkpt>
      <trkpt lat="54.6234640" lon="13.0359930">
        <time>2026-07-15T18:48:20Z</time>
      </trkpt>
      <trkpt lat="54.6241228" lon="13.0387848">
        <time>2026-07-15T18:49:26Z</time>
      </trkpt>
      <trkpt lat="54.6247302" lon="13.0423640">
        <time>2026-07-15T18:50:49Z</time>
      </trkpt>
      <trkpt lat="54.6251003" lon="13.0442428">
        <time>2026-07-15T18:51:31Z</time>
      </trkpt>
      <trkpt lat="54.6254190" lon="13.0461714">
        <time>2026-07-15T18:52:13Z</time>
      </trkpt>
      <trkpt lat="54.6257971" lon="13.0473510">
        <time>2026-07-15T18:52:43Z</time>
      </trkpt>
      <trkpt lat="54.6264987" lon="13.0491178">
        <time>2026-07-15T18:53:31Z</time>
      </trkpt>
      <trkpt lat="54.6271808" lon="13.0510086">
        <time>2026-07-15T18:54:19Z</time>
      </trkpt>
      <trkpt lat="54.6275413" lon="13.0534629">
        <time>2026-07-15T18:55:13Z</time>
      </trkpt>
      <trkpt lat="54.6278777" lon="13.0556210">
        <time>2026-07-15T18:56:02Z</time>
      </trkpt>
      <trkpt lat="54.6280025" lon="13.0573015">
        <time>2026-07-15T18:56:38Z</time>
      </trkpt>
      <trkpt lat="54.6282551" lon="13.0592957">
        <time>2026-07-15T18:57:22Z</time>
      </trkpt>
      <trkpt lat="54.6288667" lon="13.0619288">
        <time>2026-07-15T18:58:22Z</time>
      </trkpt>
      <trkpt lat="54.6295375" lon="13.0637557">
        <time>2026-07-15T18:59:10Z</time>
      </trkpt>
      <trkpt lat="54.6302918" lon="13.0662381">
        <time>2026-07-15T19:00:10Z</time>
      </trkpt>
      <trkpt lat="54.6306762" lon="13.0680200">
        <time>2026-07-15T19:00:50Z</time>
      </trkpt>
      <trkpt lat="54.6314481" lon="13.0710576">
        <time>2026-07-15T19:02:03Z</time>
      </trkpt>
      <trkpt lat="54.6318915" lon="13.0739377">
        <time>2026-07-15T19:03:07Z</time>
      </trkpt>
      <trkpt lat="54.6321966" lon="13.0758195">
        <time>2026-07-15T19:03:49Z</time>
      </trkpt>
      <trkpt lat="54.6326011" lon="13.0777767">
        <time>2026-07-15T19:04:33Z</time>
      </trkpt>
      <trkpt lat="54.6328340" lon="13.0793671">
        <time>2026-07-15T19:05:09Z</time>
      </trkpt>
      <trkpt lat="54.6330736" lon="13.0806046">
        <time>2026-07-15T19:05:37Z</time>
      </trkpt>
      <trkpt lat="54.6336097" lon="13.0827048">
        <time>2026-07-15T19:06:27Z</time>
      </trkpt>
      <trkpt lat="54.6338948" lon="13.0840030">
        <time>2026-07-15T19:06:58Z</time>
      </trkpt>
      <trkpt lat="54.6341909" lon="13.0857010">
        <time>2026-07-15T19:07:36Z</time>
      </trkpt>
      <trkpt lat="54.6345060" lon="13.0870181">
        <time>2026-07-15T19:08:06Z</time>
      </trkpt>
      <trkpt lat="54.6348500" lon="13.0886920">
        <time>2026-07-15T19:08:44Z</time>
      </trkpt>
      <trkpt lat="54.6351158" lon="13.0903018">
        <time>2026-07-15T19:09:20Z</time>
      </trkpt>
      <trkpt lat="54.6355137" lon="13.0916855">
        <time>2026-07-15T19:09:54Z</time>
      </trkpt>
      <trkpt lat="54.6359670" lon="13.0927058">
        <time>2026-07-15T19:10:22Z</time>
      </trkpt>
      <trkpt lat="54.6363183" lon="13.0944121">
        <time>2026-07-15T19:11:00Z</time>
      </trkpt>
      <trkpt lat="54.6368290" lon="13.0962593">
        <time>2026-07-15T19:11:44Z</time>
      </trkpt>
      <trkpt lat="54.6376002" lon="13.0984075">
        <time>2026-07-15T19:12:38Z</time>
      </trkpt>
      <trkpt lat="54.6380774" lon="13.1001920">
        <time>2026-07-15T19:13:20Z</time>
      </trkpt>
      <trkpt lat="54.6386359" lon="13.1033270">
        <time>2026-07-15T19:14:30Z</time>
      </trkpt>
      <trkpt lat="54.6389814" lon="13.1059316">
        <time>2026-07-15T19:15:26Z</time>
      </trkpt>
      <trkpt lat="54.6393565" lon="13.1081036">
        <time>2026-07-15T19:16:15Z</time>
      </trkpt>
      <trkpt lat="54.6395013" lon="13.1101583">
        <time>2026-07-15T19:16:59Z</time>
      </trkpt>
      <trkpt lat="54.6393770" lon="13.1117782">
        <time>2026-07-15T19:17:33Z</time>
      </trkpt>
      <trkpt lat="54.6398690" lon="13.1146338">
        <time>2026-07-15T19:18:37Z</time>
      </trkpt>
      <trkpt lat="54.6405137" lon="13.1170750">
        <time>2026-07-15T19:19:33Z</time>
      </trkpt>
      <trkpt lat="54.6411827" lon="13.1200553">
        <time>2026-07-15T19:20:41Z</time>
      </trkpt>
      <trkpt lat="54.6417305" lon="13.1234481">
        <time>2026-07-15T19:21:56Z</time>
      </trkpt>
      <trkpt lat="54.6422056" lon="13.1268954">
        <time>2026-07-15T19:23:12Z</time>
      </trkpt>
      <trkpt lat="54.6429563" lon="13.1304418">
        <time>2026-07-15T19:24:32Z</time>
      </trkpt>
      <trkpt lat="54.6436316" lon="13.1326076">
        <time>2026-07-15T19:25:24Z</time>
      </trkpt>
      <trkpt lat="54.6439968" lon="13.1340097">
        <time>2026-07-15T19:25:56Z</time>
      </trkpt>
      <trkpt lat="54.6446968" lon="13.1385797">
        <time>2026-07-15T19:27:36Z</time>
      </trkpt>
      <trkpt lat="54.6451147" lon="13.1407633">
        <time>2026-07-15T19:28:24Z</time>
      </trkpt>
      <trkpt lat="54.6454972" lon="13.1428523">
        <time>2026-07-15T19:29:10Z</time>
      </trkpt>
      <trkpt lat="54.6462092" lon="13.1449370">
        <time>2026-07-15T19:30:03Z</time>
      </trkpt>
      <trkpt lat="54.6468010" lon="13.1475850">
        <time>2026-07-15T19:31:03Z</time>
      </trkpt>
      <trkpt lat="54.6474529" lon="13.1500624">
        <time>2026-07-15T19:32:01Z</time>
      </trkpt>
      <trkpt lat="54.6477612" lon="13.1517755">
        <time>2026-07-15T19:32:39Z</time>
      </trkpt>
      <trkpt lat="54.6480112" lon="13.1530025">
        <time>2026-07-15T19:33:05Z</time>
      </trkpt>
      <trkpt lat="54.6491022" lon="13.1562587">
        <time>2026-07-15T19:34:25Z</time>
      </trkpt>
      <trkpt lat="54.6496570" lon="13.1586086">
        <time>2026-07-15T19:35:19Z</time>
      </trkpt>
      <trkpt lat="54.6500805" lon="13.1602928">
        <time>2026-07-15T19:35:57Z</time>
      </trkpt>
      <trkpt lat="54.6506169" lon="13.1638105">
        <time>2026-07-15T19:37:13Z</time>
      </trkpt>
      <trkpt lat="54.6510970" lon="13.1659318">
        <time>2026-07-15T19:38:02Z</time>
      </trkpt>
      <trkpt lat="54.6520143" lon="13.1688678">
        <time>2026-07-15T19:39:12Z</time>
      </trkpt>
      <trkpt lat="54.6527415" lon="13.1719983">
        <time>2026-07-15T19:40:24Z</time>
      </trkpt>
      <trkpt lat="54.6531926" lon="13.1749137">
        <time>2026-07-15T19:41:26Z</time>
      </trkpt>
      <trkpt lat="54.6537120" lon="13.1773486">
        <time>2026-07-15T19:42:20Z</time>
      </trkpt>
      <trkpt lat="54.6540210" lon="13.1794862">
        <time>2026-07-15T19:43:06Z</time>
      </trkpt>
      <trkpt lat="54.6545770" lon="13.1822415">
        <time>2026-07-15T19:44:07Z</time>
      </trkpt>
      <trkpt lat="54.6549587" lon="13.1843360">
        <time>2026-07-15T19:44:53Z</time>
      </trkpt>
      <trkpt lat="54.6551142" lon="13.1860737">
        <time>2026-07-15T19:45:29Z</time>
      </trkpt>
      <trkpt lat="54.6560152" lon="13.1892255">
        <time>2026-07-15T19:46:43Z</time>
      </trkpt>
      <trkpt lat="54.6566370" lon="13.1922575">
        <time>2026-07-15T19:47:49Z</time>
      </trkpt>
      <trkpt lat="54.6569437" lon="13.1937160">
        <time>2026-07-15T19:48:21Z</time>
      </trkpt>
      <trkpt lat="54.6572355" lon="13.1954702">
        <time>2026-07-15T19:48:59Z</time>
      </trkpt>
      <trkpt lat="54.6579588" lon="13.1982970">
        <time>2026-07-15T19:50:04Z</time>
      </trkpt>
      <trkpt lat="54.6584433" lon="13.2010730">
        <time>2026-07-15T19:51:04Z</time>
      </trkpt>
      <trkpt lat="54.6587569" lon="13.2023450">
        <time>2026-07-15T19:51:32Z</time>
      </trkpt>
      <trkpt lat="54.6594815" lon="13.2055510">
        <time>2026-07-15T19:52:42Z</time>
      </trkpt>
      <trkpt lat="54.6600273" lon="13.2088275">
        <time>2026-07-15T19:53:52Z</time>
      </trkpt>
      <trkpt lat="54.6606860" lon="13.2123997">
        <time>2026-07-15T19:55:09Z</time>
      </trkpt>
      <trkpt lat="54.6609227" lon="13.2141503">
        <time>2026-07-15T19:55:45Z</time>
      </trkpt>
      <trkpt lat="54.6621622" lon="13.2203658">
        <time>2026-07-15T19:57:53Z</time>
      </trkpt>
      <trkpt lat="54.6623455" lon="13.2216612">
        <time>2026-07-15T19:58:19Z</time>
      </trkpt>
      <trkpt lat="54.6626080" lon="13.2230567">
        <time>2026-07-15T19:58:47Z</time>
      </trkpt>
      <trkpt lat="54.6641789" lon="13.2296678">
        <time>2026-07-15T20:01:03Z</time>
      </trkpt>
      <trkpt lat="54.6646723" lon="13.2329260">
        <time>2026-07-15T20:02:06Z</time>
      </trkpt>
      <trkpt lat="54.6649136" lon="13.2341870">
        <time>2026-07-15T20:02:30Z</time>
      </trkpt>
      <trkpt lat="54.6655940" lon="13.2370905">
        <time>2026-07-15T20:03:28Z</time>
      </trkpt>
      <trkpt lat="54.6659500" lon="13.2390912">
        <time>2026-07-15T20:04:06Z</time>
      </trkpt>
      <trkpt lat="54.6660702" lon="13.2403568">
        <time>2026-07-15T20:04:28Z</time>
      </trkpt>
      <trkpt lat="54.6664750" lon="13.2430470">
        <time>2026-07-15T20:05:19Z</time>
      </trkpt>
      <trkpt lat="54.6666147" lon="13.2449352">
        <time>2026-07-15T20:05:53Z</time>
      </trkpt>
      <trkpt lat="54.6671524" lon="13.2472802">
        <time>2026-07-15T20:06:39Z</time>
      </trkpt>
      <trkpt lat="54.6678788" lon="13.2493080">
        <time>2026-07-15T20:07:21Z</time>
      </trkpt>
      <trkpt lat="54.6683796" lon="13.2504590">
        <time>2026-07-15T20:07:47Z</time>
      </trkpt>
      <trkpt lat="54.6690271" lon="13.2522731">
        <time>2026-07-15T20:08:25Z</time>
      </trkpt>
      <trkpt lat="54.6700501" lon="13.2563805">
        <time>2026-07-15T20:09:43Z</time>
      </trkpt>
      <trkpt lat="54.6705946" lon="13.2579386">
        <time>2026-07-15T20:10:15Z</time>
      </trkpt>
      <trkpt lat="54.6712837" lon="13.2593543">
        <time>2026-07-15T20:10:47Z</time>
      </trkpt>
      <trkpt lat="54.6717495" lon="13.2606120">
        <time>2026-07-15T20:11:13Z</time>
      </trkpt>
      <trkpt lat="54.6719714" lon="13.2618386">
        <time>2026-07-15T20:11:35Z</time>
      </trkpt>
      <trkpt lat="54.6719200" lon="13.2635638">
        <time>2026-07-15T20:12:05Z</time>
      </trkpt>
      <trkpt lat="54.6723185" lon="13.2651588">
        <time>2026-07-15T20:12:38Z</time>
      </trkpt>
      <trkpt lat="54.6734158" lon="13.2668500">
        <time>2026-07-15T20:13:22Z</time>
      </trkpt>
      <trkpt lat="54.6740127" lon="13.2679615">
        <time>2026-07-15T20:13:48Z</time>
      </trkpt>
      <trkpt lat="54.6744785" lon="13.2697778">
        <time>2026-07-15T20:14:22Z</time>
      </trkpt>
      <trkpt lat="54.6750730" lon="13.2714824">
        <time>2026-07-15T20:14:56Z</time>
      </trkpt>
      <trkpt lat="54.6755986" lon="13.2724968">
        <time>2026-07-15T20:15:18Z</time>
      </trkpt>
      <trkpt lat="54.6761729" lon="13.2739700">
        <time>2026-07-15T20:15:48Z</time>
      </trkpt>
      <trkpt lat="54.6764921" lon="13.2754359">
        <time>2026-07-15T20:16:14Z</time>
      </trkpt>
      <trkpt lat="54.6772748" lon="13.2778140">
        <time>2026-07-15T20:17:00Z</time>
      </trkpt>
      <trkpt lat="54.6777762" lon="13.2796652">
        <time>2026-07-15T20:17:34Z</time>
      </trkpt>
      <trkpt lat="54.6779895" lon="13.2810899">
        <time>2026-07-15T20:17:58Z</time>
      </trkpt>
      <trkpt lat="54.6784810" lon="13.2838008">
        <time>2026-07-15T20:18:45Z</time>
      </trkpt>
      <trkpt lat="54.6788967" lon="13.2856174">
        <time>2026-07-15T20:19:17Z</time>
      </trkpt>
      <trkpt lat="54.6795108" lon="13.2887810">
        <time>2026-07-15T20:20:11Z</time>
      </trkpt>
      <trkpt lat="54.6798010" lon="13.2899557">
        <time>2026-07-15T20:20:31Z</time>
      </trkpt>
      <trkpt lat="54.6801325" lon="13.2926568">
        <time>2026-07-15T20:21:17Z</time>
      </trkpt>
      <trkpt lat="54.6806507" lon="13.2962452">
        <time>2026-07-15T20:22:15Z</time>
      </trkpt>
      <trkpt lat="54.6808645" lon="13.2974507">
        <time>2026-07-15T20:22:35Z</time>
      </trkpt>
      <trkpt lat="54.6812268" lon="13.2986526">
        <time>2026-07-15T20:22:57Z</time>
      </trkpt>
      <trkpt lat="54.6818352" lon="13.2998673">
        <time>2026-07-15T20:23:23Z</time>
      </trkpt>
      <trkpt lat="54.6824223" lon="13.3025022">
        <time>2026-07-15T20:24:10Z</time>
      </trkpt>
      <trkpt lat="54.6829190" lon="13.3051072">
        <time>2026-07-15T20:24:54Z</time>
      </trkpt>
      <trkpt lat="54.6832197" lon="13.3068962">
        <time>2026-07-15T20:25:24Z</time>
      </trkpt>
      <trkpt lat="54.6836401" lon="13.3102020">
        <time>2026-07-15T20:26:18Z</time>
      </trkpt>
      <trkpt lat="54.6842795" lon="13.3134073">
        <time>2026-07-15T20:27:12Z</time>
      </trkpt>
      <trkpt lat="54.6846950" lon="13.3160517">
        <time>2026-07-15T20:27:56Z</time>
      </trkpt>
      <trkpt lat="54.6848655" lon="13.3176592">
        <time>2026-07-15T20:28:22Z</time>
      </trkpt>
      <trkpt lat="54.6849719" lon="13.3194958">
        <time>2026-07-15T20:28:52Z</time>
      </trkpt>
      <trkpt lat="54.6852208" lon="13.3214205">
        <time>2026-07-15T20:29:25Z</time>
      </trkpt>
      <trkpt lat="54.6858808" lon="13.3245427">
        <time>2026-07-15T20:30:19Z</time>
      </trkpt>
      <trkpt lat="54.6871098" lon="13.3315903">
        <time>2026-07-15T20:32:15Z</time>
      </trkpt>
      <trkpt lat="54.6873140" lon="13.3329371">
        <time>2026-07-15T20:32:37Z</time>
      </trkpt>
      <trkpt lat="54.6874946" lon="13.3345440">
        <time>2026-07-15T20:33:03Z</time>
      </trkpt>
      <trkpt lat="54.6881393" lon="13.3390590">
        <time>2026-07-15T20:34:15Z</time>
      </trkpt>
      <trkpt lat="54.6883913" lon="13.3416627">
        <time>2026-07-15T20:34:59Z</time>
      </trkpt>
      <trkpt lat="54.6887220" lon="13.3439742">
        <time>2026-07-15T20:35:40Z</time>
      </trkpt>
      <trkpt lat="54.6892605" lon="13.3510767">
        <time>2026-07-15T20:37:40Z</time>
      </trkpt>
      <trkpt lat="54.6893781" lon="13.3535305">
        <time>2026-07-15T20:38:20Z</time>
      </trkpt>
      <trkpt lat="54.6893164" lon="13.3553700">
        <time>2026-07-15T20:38:52Z</time>
      </trkpt>
      <trkpt lat="54.6897337" lon="13.3582547">
        <time>2026-07-15T20:39:44Z</time>
      </trkpt>
      <trkpt lat="54.6899085" lon="13.3594939">
        <time>2026-07-15T20:40:06Z</time>
      </trkpt>
      <trkpt lat="54.6899970" lon="13.3619269">
        <time>2026-07-15T20:40:48Z</time>
      </trkpt>
      <trkpt lat="54.6902188" lon="13.3634966">
        <time>2026-07-15T20:41:16Z</time>
      </trkpt>
      <trkpt lat="54.6904600" lon="13.3663908">
        <time>2026-07-15T20:42:06Z</time>
      </trkpt>
      <trkpt lat="54.6906793" lon="13.3680802">
        <time>2026-07-15T20:42:36Z</time>
      </trkpt>
      <trkpt lat="54.6909741" lon="13.3707881">
        <time>2026-07-15T20:43:24Z</time>
      </trkpt>
      <trkpt lat="54.6911213" lon="13.3730741">
        <time>2026-07-15T20:44:04Z</time>
      </trkpt>
      <trkpt lat="54.6913734" lon="13.3760029">
        <time>2026-07-15T20:44:56Z</time>
      </trkpt>
      <trkpt lat="54.6916705" lon="13.3787089">
        <time>2026-07-15T20:45:45Z</time>
      </trkpt>
      <trkpt lat="54.6918091" lon="13.3808711">
        <time>2026-07-15T20:46:23Z</time>
      </trkpt>
      <trkpt lat="54.6919853" lon="13.3826420">
        <time>2026-07-15T20:46:55Z</time>
      </trkpt>
      <trkpt lat="54.6921838" lon="13.3863014">
        <time>2026-07-15T20:47:59Z</time>
      </trkpt>
      <trkpt lat="54.6921835" lon="13.3892720">
        <time>2026-07-15T20:48:53Z</time>
      </trkpt>
      <trkpt lat="54.6922142" lon="13.3907889">
        <time>2026-07-15T20:49:21Z</time>
      </trkpt>
      <trkpt lat="54.6923512" lon="13.3927535">
        <time>2026-07-15T20:49:57Z</time>
      </trkpt>
      <trkpt lat="54.6924349" lon="13.3956500">
        <time>2026-07-15T20:50:51Z</time>
      </trkpt>
      <trkpt lat="54.6923108" lon="13.4005193">
        <time>2026-07-15T20:52:24Z</time>
      </trkpt>
      <trkpt lat="54.6923138" lon="13.4024121">
        <time>2026-07-15T20:53:00Z</time>
      </trkpt>
      <trkpt lat="54.6921637" lon="13.4043858">
        <time>2026-07-15T20:53:38Z</time>
      </trkpt>
      <trkpt lat="54.6921777" lon="13.4059671">
        <time>2026-07-15T20:54:08Z</time>
      </trkpt>
      <trkpt lat="54.6924118" lon="13.4088108">
        <time>2026-07-15T20:55:02Z</time>
      </trkpt>
      <trkpt lat="54.6924172" lon="13.4105930">
        <time>2026-07-15T20:55:36Z</time>
      </trkpt>
      <trkpt lat="54.6925605" lon="13.4118360">
        <time>2026-07-15T20:56:00Z</time>
      </trkpt>
      <trkpt lat="54.6922238" lon="13.4156033">
        <time>2026-07-15T20:57:14Z</time>
      </trkpt>
      <trkpt lat="54.6920883" lon="13.4173199">
        <time>2026-07-15T20:57:48Z</time>
      </trkpt>
      <trkpt lat="54.6918525" lon="13.4185962">
        <time>2026-07-15T20:58:14Z</time>
      </trkpt>
      <trkpt lat="54.6919697" lon="13.4207268">
        <time>2026-07-15T20:58:56Z</time>
      </trkpt>
      <trkpt lat="54.6918852" lon="13.4231904">
        <time>2026-07-15T20:59:45Z</time>
      </trkpt>
      <trkpt lat="54.6916120" lon="13.4248895">
        <time>2026-07-15T21:00:19Z</time>
      </trkpt>
      <trkpt lat="54.6916297" lon="13.4263119">
        <time>2026-07-15T21:00:47Z</time>
      </trkpt>
      <trkpt lat="54.6914847" lon="13.4291077">
        <time>2026-07-15T21:01:41Z</time>
      </trkpt>
      <trkpt lat="54.6912437" lon="13.4315309">
        <time>2026-07-15T21:02:27Z</time>
      </trkpt>
      <trkpt lat="54.6912315" lon="13.4345038">
        <time>2026-07-15T21:03:23Z</time>
      </trkpt>
      <trkpt lat="54.6910078" lon="13.4358708">
        <time>2026-07-15T21:03:51Z</time>
      </trkpt>
      <trkpt lat="54.6905802" lon="13.4369597">
        <time>2026-07-15T21:04:17Z</time>
      </trkpt>
      <trkpt lat="54.6904538" lon="13.4386806">
        <time>2026-07-15T21:04:51Z</time>
      </trkpt>
      <trkpt lat="54.6903130" lon="13.4401808">
        <time>2026-07-15T21:05:23Z</time>
      </trkpt>
      <trkpt lat="54.6906358" lon="13.4419242">
        <time>2026-07-15T21:05:59Z</time>
      </trkpt>
      <trkpt lat="54.6909767" lon="13.4431110">
        <time>2026-07-15T21:06:25Z</time>
      </trkpt>
      <trkpt lat="54.6908245" lon="13.4448516">
        <time>2026-07-15T21:07:01Z</time>
      </trkpt>
      <trkpt lat="54.6905573" lon="13.4460435">
        <time>2026-07-15T21:07:28Z</time>
      </trkpt>
      <trkpt lat="54.6894962" lon="13.4480102">
        <time>2026-07-15T21:08:22Z</time>
      </trkpt>
      <trkpt lat="54.6887601" lon="13.4495130">
        <time>2026-07-15T21:09:02Z</time>
      </trkpt>
      <trkpt lat="54.6885814" lon="13.4528592">
        <time>2026-07-15T21:10:10Z</time>
      </trkpt>
      <trkpt lat="54.6882954" lon="13.4545748">
        <time>2026-07-15T21:10:46Z</time>
      </trkpt>
      <trkpt lat="54.6876310" lon="13.4557992">
        <time>2026-07-15T21:11:20Z</time>
      </trkpt>
      <trkpt lat="54.6870603" lon="13.4570888">
        <time>2026-07-15T21:11:52Z</time>
      </trkpt>
      <trkpt lat="54.6866497" lon="13.4585551">
        <time>2026-07-15T21:12:24Z</time>
      </trkpt>
      <trkpt lat="54.6863082" lon="13.4613002">
        <time>2026-07-15T21:13:18Z</time>
      </trkpt>
      <trkpt lat="54.6860418" lon="13.4627829">
        <time>2026-07-15T21:13:48Z</time>
      </trkpt>
      <trkpt lat="54.6855482" lon="13.4640216">
        <time>2026-07-15T21:14:17Z</time>
      </trkpt>
      <trkpt lat="54.6842615" lon="13.4674070">
        <time>2026-07-15T21:15:34Z</time>
      </trkpt>
      <trkpt lat="54.6836838" lon="13.4692908">
        <time>2026-07-15T21:16:14Z</time>
      </trkpt>
      <trkpt lat="54.6833958" lon="13.4705965">
        <time>2026-07-15T21:16:40Z</time>
      </trkpt>
      <trkpt lat="54.6831154" lon="13.4722240">
        <time>2026-07-15T21:17:12Z</time>
      </trkpt>
      <trkpt lat="54.6828305" lon="13.4743585">
        <time>2026-07-15T21:17:52Z</time>
      </trkpt>
      <trkpt lat="54.6823288" lon="13.4764210">
        <time>2026-07-15T21:18:32Z</time>
      </trkpt>
      <trkpt lat="54.6817878" lon="13.4780145">
        <time>2026-07-15T21:19:06Z</time>
      </trkpt>
      <trkpt lat="54.6809333" lon="13.4800534">
        <time>2026-07-15T21:19:52Z</time>
      </trkpt>
      <trkpt lat="54.6805538" lon="13.4813257">
        <time>2026-07-15T21:20:18Z</time>
      </trkpt>
      <trkpt lat="54.6797969" lon="13.4832358">
        <time>2026-07-15T21:21:00Z</time>
      </trkpt>
      <trkpt lat="54.6789140" lon="13.4849792">
        <time>2026-07-15T21:21:43Z</time>
      </trkpt>
      <trkpt lat="54.6783675" lon="13.4864482">
        <time>2026-07-15T21:22:15Z</time>
      </trkpt>
      <trkpt lat="54.6780605" lon="13.4877862">
        <time>2026-07-15T21:22:41Z</time>
      </trkpt>
      <trkpt lat="54.6775303" lon="13.4895361">
        <time>2026-07-15T21:23:17Z</time>
      </trkpt>
      <trkpt lat="54.6767024" lon="13.4908747">
        <time>2026-07-15T21:23:53Z</time>
      </trkpt>
      <trkpt lat="54.6761388" lon="13.4922288">
        <time>2026-07-15T21:24:23Z</time>
      </trkpt>
      <trkpt lat="54.6754950" lon="13.4947475">
        <time>2026-07-15T21:25:13Z</time>
      </trkpt>
      <trkpt lat="54.6751823" lon="13.4971396">
        <time>2026-07-15T21:25:57Z</time>
      </trkpt>
      <trkpt lat="54.6747850" lon="13.4995052">
        <time>2026-07-15T21:26:41Z</time>
      </trkpt>
      <trkpt lat="54.6746832" lon="13.5019134">
        <time>2026-07-15T21:27:25Z</time>
      </trkpt>
      <trkpt lat="54.6747780" lon="13.5033188">
        <time>2026-07-15T21:27:51Z</time>
      </trkpt>
      <trkpt lat="54.6746057" lon="13.5047267">
        <time>2026-07-15T21:28:18Z</time>
      </trkpt>
      <trkpt lat="54.6743242" lon="13.5060922">
        <time>2026-07-15T21:28:44Z</time>
      </trkpt>
      <trkpt lat="54.6733524" lon="13.5084643">
        <time>2026-07-15T21:29:36Z</time>
      </trkpt>
      <trkpt lat="54.6729790" lon="13.5095520">
        <time>2026-07-15T21:29:58Z</time>
      </trkpt>
      <trkpt lat="54.6722200" lon="13.5120634">
        <time>2026-07-15T21:30:48Z</time>
      </trkpt>
      <trkpt lat="54.6717748" lon="13.5132948">
        <time>2026-07-15T21:31:14Z</time>
      </trkpt>
      <trkpt lat="54.6713273" lon="13.5143775">
        <time>2026-07-15T21:31:38Z</time>
      </trkpt>
      <trkpt lat="54.6704765" lon="13.5164846">
        <time>2026-07-15T21:32:24Z</time>
      </trkpt>
      <trkpt lat="54.6697916" lon="13.5178236">
        <time>2026-07-15T21:32:56Z</time>
      </trkpt>
      <trkpt lat="54.6689135" lon="13.5202513">
        <time>2026-07-15T21:33:48Z</time>
      </trkpt>
      <trkpt lat="54.6680198" lon="13.5221852">
        <time>2026-07-15T21:34:33Z</time>
      </trkpt>
      <trkpt lat="54.6675217" lon="13.5233335">
        <time>2026-07-15T21:34:59Z</time>
      </trkpt>
      <trkpt lat="54.6663925" lon="13.5253703">
        <time>2026-07-15T21:35:49Z</time>
      </trkpt>
      <trkpt lat="54.6657211" lon="13.5267359">
        <time>2026-07-15T21:36:21Z</time>
      </trkpt>
      <trkpt lat="54.6650515" lon="13.5287542">
        <time>2026-07-15T21:37:03Z</time>
      </trkpt>
      <trkpt lat="54.6642723" lon="13.5306120">
        <time>2026-07-15T21:37:43Z</time>
      </trkpt>
      <trkpt lat="54.6633375" lon="13.5332862">
        <time>2026-07-15T21:38:39Z</time>
      </trkpt>
      <trkpt lat="54.6624342" lon="13.5353505">
        <time>2026-07-15T21:39:25Z</time>
      </trkpt>
      <trkpt lat="54.6617410" lon="13.5373609">
        <time>2026-07-15T21:40:07Z</time>
      </trkpt>
      <trkpt lat="54.6613144" lon="13.5389827">
        <time>2026-07-15T21:40:39Z</time>
      </trkpt>
      <trkpt lat="54.6608487" lon="13.5412380">
        <time>2026-07-15T21:41:22Z</time>
      </trkpt>
      <trkpt lat="54.6605213" lon="13.5425534">
        <time>2026-07-15T21:41:48Z</time>
      </trkpt>
      <trkpt lat="54.6601607" lon="13.5437470">
        <time>2026-07-15T21:42:12Z</time>
      </trkpt>
      <trkpt lat="54.6593225" lon="13.5458910">
        <time>2026-07-15T21:42:58Z</time>
      </trkpt>
      <trkpt lat="54.6583965" lon="13.5484748">
        <time>2026-07-15T21:43:52Z</time>
      </trkpt>
      <trkpt lat="54.6577185" lon="13.5512073">
        <time>2026-07-15T21:44:46Z</time>
      </trkpt>
      <trkpt lat="54.6568730" lon="13.5538490">
        <time>2026-07-15T21:45:40Z</time>
      </trkpt>
      <trkpt lat="54.6566095" lon="13.5552060">
        <time>2026-07-15T21:46:06Z</time>
      </trkpt>
      <trkpt lat="54.6563335" lon="13.5571570">
        <time>2026-07-15T21:46:42Z</time>
      </trkpt>
      <trkpt lat="54.6556000" lon="13.5601269">
        <time>2026-07-15T21:47:41Z</time>
      </trkpt>
      <trkpt lat="54.6550045" lon="13.5618578">
        <time>2026-07-15T21:48:17Z</time>
      </trkpt>
      <trkpt lat="54.6537615" lon="13.5661347">
        <time>2026-07-15T21:49:41Z</time>
      </trkpt>
      <trkpt lat="54.6525984" lon="13.5692771">
        <time>2026-07-15T21:50:47Z</time>
      </trkpt>
      <trkpt lat="54.6520657" lon="13.5710777">
        <time>2026-07-15T21:51:23Z</time>
      </trkpt>
      <trkpt lat="54.6514465" lon="13.5729197">
        <time>2026-07-15T21:52:01Z</time>
      </trkpt>
      <trkpt lat="54.6507475" lon="13.5745473">
        <time>2026-07-15T21:52:37Z</time>
      </trkpt>
      <trkpt lat="54.6499920" lon="13.5763760">
        <time>2026-07-15T21:53:17Z</time>
      </trkpt>
      <trkpt lat="54.6495330" lon="13.5777407">
        <time>2026-07-15T21:53:45Z</time>
      </trkpt>
      <trkpt lat="54.6484625" lon="13.5799817">
        <time>2026-07-15T21:54:38Z</time>
      </trkpt>
      <trkpt lat="54.6476048" lon="13.5818402">
        <time>2026-07-15T21:55:20Z</time>
      </trkpt>
      <trkpt lat="54.6465729" lon="13.5847965">
        <time>2026-07-15T21:56:20Z</time>
      </trkpt>
      <trkpt lat="54.6457343" lon="13.5872188">
        <time>2026-07-15T21:57:10Z</time>
      </trkpt>
      <trkpt lat="54.6451280" lon="13.5887053">
        <time>2026-07-15T21:57:42Z</time>
      </trkpt>
      <trkpt lat="54.6441491" lon="13.5909673">
        <time>2026-07-15T21:58:32Z</time>
      </trkpt>
      <trkpt lat="54.6431850" lon="13.5929473">
        <time>2026-07-15T21:59:18Z</time>
      </trkpt>
      <trkpt lat="54.6424998" lon="13.5949980">
        <time>2026-07-15T22:00:01Z</time>
      </trkpt>
      <trkpt lat="54.6420346" lon="13.5968823">
        <time>2026-07-15T22:00:37Z</time>
      </trkpt>
      <trkpt lat="54.6414692" lon="13.5982635">
        <time>2026-07-15T22:01:07Z</time>
      </trkpt>
      <trkpt lat="54.6406204" lon="13.5994520">
        <time>2026-07-15T22:01:39Z</time>
      </trkpt>
      <trkpt lat="54.6399058" lon="13.6008772">
        <time>2026-07-15T22:02:13Z</time>
      </trkpt>
      <trkpt lat="54.6386703" lon="13.6033412">
        <time>2026-07-15T22:03:11Z</time>
      </trkpt>
      <trkpt lat="54.6375623" lon="13.6054559">
        <time>2026-07-15T22:04:01Z</time>
      </trkpt>
      <trkpt lat="54.6368532" lon="13.6070959">
        <time>2026-07-15T22:04:37Z</time>
      </trkpt>
      <trkpt lat="54.6363458" lon="13.6087555">
        <time>2026-07-15T22:05:12Z</time>
      </trkpt>
      <trkpt lat="54.6351943" lon="13.6140668">
        <time>2026-07-15T22:06:52Z</time>
      </trkpt>
      <trkpt lat="54.6349130" lon="13.6152603">
        <time>2026-07-15T22:07:14Z</time>
      </trkpt>
      <trkpt lat="54.6345810" lon="13.6163775">
        <time>2026-07-15T22:07:36Z</time>
      </trkpt>
      <trkpt lat="54.6341059" lon="13.6175944">
        <time>2026-07-15T22:08:02Z</time>
      </trkpt>
      <trkpt lat="54.6330827" lon="13.6196298">
        <time>2026-07-15T22:08:50Z</time>
      </trkpt>
      <trkpt lat="54.6324809" lon="13.6214842">
        <time>2026-07-15T22:09:28Z</time>
      </trkpt>
      <trkpt lat="54.6318047" lon="13.6231633">
        <time>2026-07-15T22:10:04Z</time>
      </trkpt>
      <trkpt lat="54.6305488" lon="13.6254293">
        <time>2026-07-15T22:11:00Z</time>
      </trkpt>
      <trkpt lat="54.6299405" lon="13.6277759">
        <time>2026-07-15T22:11:47Z</time>
      </trkpt>
      <trkpt lat="54.6295867" lon="13.6289875">
        <time>2026-07-15T22:12:11Z</time>
      </trkpt>
      <trkpt lat="54.6288372" lon="13.6311615">
        <time>2026-07-15T22:12:55Z</time>
      </trkpt>
      <trkpt lat="54.6283223" lon="13.6323997">
        <time>2026-07-15T22:13:21Z</time>
      </trkpt>
      <trkpt lat="54.6276825" lon="13.6354623">
        <time>2026-07-15T22:14:19Z</time>
      </trkpt>
      <trkpt lat="54.6272035" lon="13.6373430">
        <time>2026-07-15T22:14:55Z</time>
      </trkpt>
      <trkpt lat="54.6266733" lon="13.6386472">
        <time>2026-07-15T22:15:23Z</time>
      </trkpt>
      <trkpt lat="54.6254946" lon="13.6403450">
        <time>2026-07-15T22:16:09Z</time>
      </trkpt>
      <trkpt lat="54.6248457" lon="13.6414558">
        <time>2026-07-15T22:16:37Z</time>
      </trkpt>
      <trkpt lat="54.6245015" lon="13.6430909">
        <time>2026-07-15T22:17:10Z</time>
      </trkpt>
      <trkpt lat="54.6241175" lon="13.6446609">
        <time>2026-07-15T22:17:40Z</time>
      </trkpt>
      <trkpt lat="54.6229120" lon="13.6472772">
        <time>2026-07-15T22:18:38Z</time>
      </trkpt>
      <trkpt lat="54.6216524" lon="13.6512189">
        <time>2026-07-15T22:19:58Z</time>
      </trkpt>
      <trkpt lat="54.6212376" lon="13.6525035">
        <time>2026-07-15T22:20:24Z</time>
      </trkpt>
      <trkpt lat="54.6204652" lon="13.6540988">
        <time>2026-07-15T22:21:00Z</time>
      </trkpt>
      <trkpt lat="54.6192985" lon="13.6553817">
        <time>2026-07-15T22:21:42Z</time>
      </trkpt>
      <trkpt lat="54.6183590" lon="13.6566498">
        <time>2026-07-15T22:22:18Z</time>
      </trkpt>
      <trkpt lat="54.6157432" lon="13.6600322">
        <time>2026-07-15T22:23:59Z</time>
      </trkpt>
      <trkpt lat="54.6144985" lon="13.6615495">
        <time>2026-07-15T22:24:45Z</time>
      </trkpt>
      <trkpt lat="54.6137567" lon="13.6626848">
        <time>2026-07-15T22:25:15Z</time>
      </trkpt>
      <trkpt lat="54.6132037" lon="13.6638507">
        <time>2026-07-15T22:25:41Z</time>
      </trkpt>
      <trkpt lat="54.6125475" lon="13.6653829">
        <time>2026-07-15T22:26:15Z</time>
      </trkpt>
      <trkpt lat="54.6117118" lon="13.6675468">
        <time>2026-07-15T22:27:01Z</time>
      </trkpt>
      <trkpt lat="54.6110897" lon="13.6690105">
        <time>2026-07-15T22:27:33Z</time>
      </trkpt>
      <trkpt lat="54.6102948" lon="13.6705528">
        <time>2026-07-15T22:28:09Z</time>
      </trkpt>
      <trkpt lat="54.6094690" lon="13.6718440">
        <time>2026-07-15T22:28:43Z</time>
      </trkpt>
      <trkpt lat="54.6089160" lon="13.6730469">
        <time>2026-07-15T22:29:12Z</time>
      </trkpt>
      <trkpt lat="54.6081592" lon="13.6761458">
        <time>2026-07-15T22:30:12Z</time>
      </trkpt>
      <trkpt lat="54.6073201" lon="13.6807533">
        <time>2026-07-15T22:31:36Z</time>
      </trkpt>
      <trkpt lat="54.6070285" lon="13.6818973">
        <time>2026-07-15T22:31:58Z</time>
      </trkpt>
      <trkpt lat="54.6064949" lon="13.6834442">
        <time>2026-07-15T22:32:30Z</time>
      </trkpt>
      <trkpt lat="54.6054277" lon="13.6851330">
        <time>2026-07-15T22:33:14Z</time>
      </trkpt>
      <trkpt lat="54.6048182" lon="13.6864382">
        <time>2026-07-15T22:33:44Z</time>
      </trkpt>
      <trkpt lat="54.6044084" lon="13.6877086">
        <time>2026-07-15T22:34:10Z</time>
      </trkpt>
      <trkpt lat="54.6040873" lon="13.6895559">
        <time>2026-07-15T22:34:44Z</time>
      </trkpt>
      <trkpt lat="54.6037612" lon="13.6907877">
        <time>2026-07-15T22:35:08Z</time>
      </trkpt>
      <trkpt lat="54.6025851" lon="13.6933762">
        <time>2026-07-15T22:36:07Z</time>
      </trkpt>
      <trkpt lat="54.6020831" lon="13.6945511">
        <time>2026-07-15T22:36:33Z</time>
      </trkpt>
      <trkpt lat="54.6013133" lon="13.6965827">
        <time>2026-07-15T22:37:15Z</time>
      </trkpt>
      <trkpt lat="54.6007392" lon="13.6979584">
        <time>2026-07-15T22:37:45Z</time>
      </trkpt>
      <trkpt lat="54.6002544" lon="13.6990231">
        <time>2026-07-15T22:38:09Z</time>
      </trkpt>
      <trkpt lat="54.5995292" lon="13.7003167">
        <time>2026-07-15T22:38:41Z</time>
      </trkpt>
      <trkpt lat="54.5989550" lon="13.7015465">
        <time>2026-07-15T22:39:09Z</time>
      </trkpt>
      <trkpt lat="54.5980519" lon="13.7043675">
        <time>2026-07-15T22:40:07Z</time>
      </trkpt>
      <trkpt lat="54.5976567" lon="13.7054588">
        <time>2026-07-15T22:40:29Z</time>
      </trkpt>
      <trkpt lat="54.5970880" lon="13.7067685">
        <time>2026-07-15T22:40:57Z</time>
      </trkpt>
      <trkpt lat="54.5960856" lon="13.7083940">
        <time>2026-07-15T22:41:39Z</time>
      </trkpt>
      <trkpt lat="54.5952845" lon="13.7100222">
        <time>2026-07-15T22:42:18Z</time>
      </trkpt>
      <trkpt lat="54.5946720" lon="13.7110468">
        <time>2026-07-15T22:42:44Z</time>
      </trkpt>
      <trkpt lat="54.5929578" lon="13.7146570">
        <time>2026-07-15T22:44:06Z</time>
      </trkpt>
      <trkpt lat="54.5922193" lon="13.7167458">
        <time>2026-07-15T22:44:50Z</time>
      </trkpt>
      <trkpt lat="54.5916470" lon="13.7187318">
        <time>2026-07-15T22:45:28Z</time>
      </trkpt>
      <trkpt lat="54.5912135" lon="13.7205423">
        <time>2026-07-15T22:46:02Z</time>
      </trkpt>
      <trkpt lat="54.5903213" lon="13.7248602">
        <time>2026-07-15T22:47:22Z</time>
      </trkpt>
      <trkpt lat="54.5898773" lon="13.7268936">
        <time>2026-07-15T22:48:00Z</time>
      </trkpt>
      <trkpt lat="54.5895959" lon="13.7280569">
        <time>2026-07-15T22:48:22Z</time>
      </trkpt>
      <trkpt lat="54.5891770" lon="13.7294853">
        <time>2026-07-15T22:48:50Z</time>
      </trkpt>
      <trkpt lat="54.5879766" lon="13.7320455">
        <time>2026-07-15T22:49:48Z</time>
      </trkpt>
      <trkpt lat="54.5875586" lon="13.7332062">
        <time>2026-07-15T22:50:12Z</time>
      </trkpt>
      <trkpt lat="54.5869450" lon="13.7343908">
        <time>2026-07-15T22:50:40Z</time>
      </trkpt>
      <trkpt lat="54.5862530" lon="13.7361463">
        <time>2026-07-15T22:51:18Z</time>
      </trkpt>
      <trkpt lat="54.5856795" lon="13.7372641">
        <time>2026-07-15T22:51:45Z</time>
      </trkpt>
      <trkpt lat="54.5852252" lon="13.7383993">
        <time>2026-07-15T22:52:09Z</time>
      </trkpt>
      <trkpt lat="54.5845270" lon="13.7404710">
        <time>2026-07-15T22:52:51Z</time>
      </trkpt>
      <trkpt lat="54.5838061" lon="13.7424160">
        <time>2026-07-15T22:53:31Z</time>
      </trkpt>
      <trkpt lat="54.5832353" lon="13.7438322">
        <time>2026-07-15T22:54:01Z</time>
      </trkpt>
      <trkpt lat="54.5824557" lon="13.7454543">
        <time>2026-07-15T22:54:37Z</time>
      </trkpt>
      <trkpt lat="54.5816843" lon="13.7465530">
        <time>2026-07-15T22:55:07Z</time>
      </trkpt>
      <trkpt lat="54.5810610" lon="13.7478952">
        <time>2026-07-15T22:55:39Z</time>
      </trkpt>
      <trkpt lat="54.5806767" lon="13.7496601">
        <time>2026-07-15T22:56:13Z</time>
      </trkpt>
      <trkpt lat="54.5809753" lon="13.7526510">
        <time>2026-07-15T22:57:07Z</time>
      </trkpt>
      <trkpt lat="54.5810175" lon="13.7541527">
        <time>2026-07-15T22:57:33Z</time>
      </trkpt>
      <trkpt lat="54.5808463" lon="13.7554830">
        <time>2026-07-15T22:57:57Z</time>
      </trkpt>
      <trkpt lat="54.5804870" lon="13.7566972">
        <time>2026-07-15T22:58:21Z</time>
      </trkpt>
      <trkpt lat="54.5799532" lon="13.7582727">
        <time>2026-07-15T22:58:53Z</time>
      </trkpt>
      <trkpt lat="54.5796336" lon="13.7595140">
        <time>2026-07-15T22:59:18Z</time>
      </trkpt>
      <trkpt lat="54.5793213" lon="13.7616188">
        <time>2026-07-15T22:59:56Z</time>
      </trkpt>
      <trkpt lat="54.5792018" lon="13.7637310">
        <time>2026-07-15T23:00:32Z</time>
      </trkpt>
      <trkpt lat="54.5794326" lon="13.7701205">
        <time>2026-07-15T23:02:24Z</time>
      </trkpt>
      <trkpt lat="54.5794645" lon="13.7718632">
        <time>2026-07-15T23:02:54Z</time>
      </trkpt>
      <trkpt lat="54.5794305" lon="13.7738228">
        <time>2026-07-15T23:03:28Z</time>
      </trkpt>
      <trkpt lat="54.5793503" lon="13.7754373">
        <time>2026-07-15T23:03:56Z</time>
      </trkpt>
      <trkpt lat="54.5792358" lon="13.7766826">
        <time>2026-07-15T23:04:18Z</time>
      </trkpt>
      <trkpt lat="54.5788922" lon="13.7786398">
        <time>2026-07-15T23:04:54Z</time>
      </trkpt>
      <trkpt lat="54.5784457" lon="13.7801760">
        <time>2026-07-15T23:05:24Z</time>
      </trkpt>
      <trkpt lat="54.5778545" lon="13.7814409">
        <time>2026-07-15T23:05:53Z</time>
      </trkpt>
      <trkpt lat="54.5769217" lon="13.7825501">
        <time>2026-07-15T23:06:27Z</time>
      </trkpt>
      <trkpt lat="54.5751058" lon="13.7858367">
        <time>2026-07-15T23:07:45Z</time>
      </trkpt>
      <trkpt lat="54.5746539" lon="13.7871919">
        <time>2026-07-15T23:08:13Z</time>
      </trkpt>
      <trkpt lat="54.5747707" lon="13.7897659">
        <time>2026-07-15T23:08:59Z</time>
      </trkpt>
      <trkpt lat="54.5749765" lon="13.7911164">
        <time>2026-07-15T23:09:23Z</time>
      </trkpt>
      <trkpt lat="54.5752355" lon="13.7924195">
        <time>2026-07-15T23:09:47Z</time>
      </trkpt>
      <trkpt lat="54.5758614" lon="13.7946985">
        <time>2026-07-15T23:10:31Z</time>
      </trkpt>
      <trkpt lat="54.5762825" lon="13.7958993">
        <time>2026-07-15T23:10:55Z</time>
      </trkpt>
      <trkpt lat="54.5765320" lon="13.7976857">
        <time>2026-07-15T23:11:27Z</time>
      </trkpt>
      <trkpt lat="54.5765635" lon="13.7990632">
        <time>2026-07-15T23:11:51Z</time>
      </trkpt>
      <trkpt lat="54.5763877" lon="13.8003820">
        <time>2026-07-15T23:12:16Z</time>
      </trkpt>
      <trkpt lat="54.5760860" lon="13.8015077">
        <time>2026-07-15T23:12:38Z</time>
      </trkpt>
      <trkpt lat="54.5754491" lon="13.8030259">
        <time>2026-07-15T23:13:10Z</time>
      </trkpt>
      <trkpt lat="54.5749335" lon="13.8041152">
        <time>2026-07-15T23:13:34Z</time>
      </trkpt>
      <trkpt lat="54.5743991" lon="13.8051300">
        <time>2026-07-15T23:13:58Z</time>
      </trkpt>
      <trkpt lat="54.5738388" lon="13.8060595">
        <time>2026-07-15T23:14:20Z</time>
      </trkpt>
      <trkpt lat="54.5728130" lon="13.8073421">
        <time>2026-07-15T23:14:58Z</time>
      </trkpt>
      <trkpt lat="54.5721428" lon="13.8078888">
        <time>2026-07-15T23:15:20Z</time>
      </trkpt>
      <trkpt lat="54.5711193" lon="13.8091504">
        <time>2026-07-15T23:15:58Z</time>
      </trkpt>
      <trkpt lat="54.5699131" lon="13.8108103">
        <time>2026-07-15T23:16:44Z</time>
      </trkpt>
      <trkpt lat="54.5689083" lon="13.8119508">
        <time>2026-07-15T23:17:20Z</time>
      </trkpt>
      <trkpt lat="54.5680900" lon="13.8131605">
        <time>2026-07-15T23:17:52Z</time>
      </trkpt>
      <trkpt lat="54.5672610" lon="13.8141503">
        <time>2026-07-15T23:18:22Z</time>
      </trkpt>
      <trkpt lat="54.5664896" lon="13.8147658">
        <time>2026-07-15T23:18:48Z</time>
      </trkpt>
      <trkpt lat="54.5659907" lon="13.8158062">
        <time>2026-07-15T23:19:13Z</time>
      </trkpt>
      <trkpt lat="54.5655794" lon="13.8176485">
        <time>2026-07-15T23:19:49Z</time>
      </trkpt>
      <trkpt lat="54.5651853" lon="13.8216332">
        <time>2026-07-15T23:20:59Z</time>
      </trkpt>
      <trkpt lat="54.5650407" lon="13.8228522">
        <time>2026-07-15T23:21:21Z</time>
      </trkpt>
      <trkpt lat="54.5642299" lon="13.8280255">
        <time>2026-07-15T23:22:55Z</time>
      </trkpt>
      <trkpt lat="54.5640038" lon="13.8292186">
        <time>2026-07-15T23:23:17Z</time>
      </trkpt>
      <trkpt lat="54.5637125" lon="13.8312083">
        <time>2026-07-15T23:23:53Z</time>
      </trkpt>
      <trkpt lat="54.5632222" lon="13.8333042">
        <time>2026-07-15T23:24:33Z</time>
      </trkpt>
      <trkpt lat="54.5628050" lon="13.8353590">
        <time>2026-07-15T23:25:11Z</time>
      </trkpt>
      <trkpt lat="54.5624449" lon="13.8365762">
        <time>2026-07-15T23:25:36Z</time>
      </trkpt>
      <trkpt lat="54.5618989" lon="13.8379795">
        <time>2026-07-15T23:26:06Z</time>
      </trkpt>
      <trkpt lat="54.5611826" lon="13.8415027">
        <time>2026-07-15T23:27:12Z</time>
      </trkpt>
      <trkpt lat="54.5608811" lon="13.8426705">
        <time>2026-07-15T23:27:34Z</time>
      </trkpt>
      <trkpt lat="54.5602589" lon="13.8445952">
        <time>2026-07-15T23:28:14Z</time>
      </trkpt>
      <trkpt lat="54.5598772" lon="13.8463272">
        <time>2026-07-15T23:28:46Z</time>
      </trkpt>
      <trkpt lat="54.5597415" lon="13.8482110">
        <time>2026-07-15T23:29:20Z</time>
      </trkpt>
      <trkpt lat="54.5597078" lon="13.8504559">
        <time>2026-07-15T23:30:00Z</time>
      </trkpt>
      <trkpt lat="54.5595177" lon="13.8517570">
        <time>2026-07-15T23:30:24Z</time>
      </trkpt>
      <trkpt lat="54.5586495" lon="13.8540175">
        <time>2026-07-15T23:31:12Z</time>
      </trkpt>
      <trkpt lat="54.5583078" lon="13.8553125">
        <time>2026-07-15T23:31:38Z</time>
      </trkpt>
      <trkpt lat="54.5576052" lon="13.8569244">
        <time>2026-07-15T23:32:14Z</time>
      </trkpt>
      <trkpt lat="54.5574998" lon="13.8610306">
        <time>2026-07-15T23:33:33Z</time>
      </trkpt>
      <trkpt lat="54.5578125" lon="13.8641050">
        <time>2026-07-15T23:34:29Z</time>
      </trkpt>
      <trkpt lat="54.5579311" lon="13.8659542">
        <time>2026-07-15T23:35:01Z</time>
      </trkpt>
      <trkpt lat="54.5579028" lon="13.8687614">
        <time>2026-07-15T23:35:51Z</time>
      </trkpt>
      <trkpt lat="54.5579750" lon="13.8704287">
        <time>2026-07-15T23:36:21Z</time>
      </trkpt>
      <trkpt lat="54.5577585" lon="13.8736478">
        <time>2026-07-15T23:37:19Z</time>
      </trkpt>
      <trkpt lat="54.5576295" lon="13.8755332">
        <time>2026-07-15T23:37:53Z</time>
      </trkpt>
      <trkpt lat="54.5573868" lon="13.8777484">
        <time>2026-07-15T23:38:33Z</time>
      </trkpt>
      <trkpt lat="54.5575748" lon="13.8803710">
        <time>2026-07-15T23:39:21Z</time>
      </trkpt>
      <trkpt lat="54.5576488" lon="13.8820442">
        <time>2026-07-15T23:39:51Z</time>
      </trkpt>
      <trkpt lat="54.5574808" lon="13.8839310">
        <time>2026-07-15T23:40:26Z</time>
      </trkpt>
      <trkpt lat="54.5573382" lon="13.8868300">
        <time>2026-07-15T23:41:18Z</time>
      </trkpt>
      <trkpt lat="54.5574082" lon="13.8890005">
        <time>2026-07-15T23:41:56Z</time>
      </trkpt>
      <trkpt lat="54.5576822" lon="13.8914908">
        <time>2026-07-15T23:42:42Z</time>
      </trkpt>
      <trkpt lat="54.5579743" lon="13.8932912">
        <time>2026-07-15T23:43:14Z</time>
      </trkpt>
      <trkpt lat="54.5582648" lon="13.8946655">
        <time>2026-07-15T23:43:40Z</time>
      </trkpt>
      <trkpt lat="54.5583558" lon="13.8967990">
        <time>2026-07-15T23:44:18Z</time>
      </trkpt>
      <trkpt lat="54.5584855" lon="13.8983500">
        <time>2026-07-15T23:44:46Z</time>
      </trkpt>
      <trkpt lat="54.5588398" lon="13.9009670">
        <time>2026-07-15T23:45:34Z</time>
      </trkpt>
      <trkpt lat="54.5591400" lon="13.9026123">
        <time>2026-07-15T23:46:04Z</time>
      </trkpt>
      <trkpt lat="54.5592359" lon="13.9039529">
        <time>2026-07-15T23:46:28Z</time>
      </trkpt>
      <trkpt lat="54.5591607" lon="13.9055157">
        <time>2026-07-15T23:46:56Z</time>
      </trkpt>
      <trkpt lat="54.5589505" lon="13.9070589">
        <time>2026-07-15T23:47:24Z</time>
      </trkpt>
      <trkpt lat="54.5586165" lon="13.9081683">
        <time>2026-07-15T23:47:46Z</time>
      </trkpt>
      <trkpt lat="54.5581157" lon="13.9090707">
        <time>2026-07-15T23:48:08Z</time>
      </trkpt>
      <trkpt lat="54.5573453" lon="13.9096838">
        <time>2026-07-15T23:48:35Z</time>
      </trkpt>
      <trkpt lat="54.5564764" lon="13.9108600">
        <time>2026-07-15T23:49:09Z</time>
      </trkpt>
      <trkpt lat="54.5554876" lon="13.9118536">
        <time>2026-07-15T23:49:43Z</time>
      </trkpt>
      <trkpt lat="54.5544583" lon="13.9131891">
        <time>2026-07-15T23:50:23Z</time>
      </trkpt>
      <trkpt lat="54.5536471" lon="13.9147265">
        <time>2026-07-15T23:50:59Z</time>
      </trkpt>
      <trkpt lat="54.5531475" lon="13.9162865">
        <time>2026-07-15T23:51:31Z</time>
      </trkpt>
      <trkpt lat="54.5528780" lon="13.9177915">
        <time>2026-07-15T23:51:59Z</time>
      </trkpt>
      <trkpt lat="54.5528397" lon="13.9195678">
        <time>2026-07-15T23:52:31Z</time>
      </trkpt>
      <trkpt lat="54.5534565" lon="13.9230897">
        <time>2026-07-15T23:53:37Z</time>
      </trkpt>
      <trkpt lat="54.5536957" lon="13.9248625">
        <time>2026-07-15T23:54:09Z</time>
      </trkpt>
      <trkpt lat="54.5537120" lon="13.9264232">
        <time>2026-07-15T23:54:38Z</time>
      </trkpt>
      <trkpt lat="54.5535161" lon="13.9277357">
        <time>2026-07-15T23:55:02Z</time>
      </trkpt>
      <trkpt lat="54.5525110" lon="13.9296047">
        <time>2026-07-15T23:55:48Z</time>
      </trkpt>
      <trkpt lat="54.5515225" lon="13.9316966">
        <time>2026-07-15T23:56:36Z</time>
      </trkpt>
      <trkpt lat="54.5508560" lon="13.9329940">
        <time>2026-07-15T23:57:06Z</time>
      </trkpt>
      <trkpt lat="54.5501850" lon="13.9338332">
        <time>2026-07-15T23:57:32Z</time>
      </trkpt>
      <trkpt lat="54.5492299" lon="13.9361075">
        <time>2026-07-15T23:58:22Z</time>
      </trkpt>
      <trkpt lat="54.5486357" lon="13.9374540">
        <time>2026-07-15T23:58:52Z</time>
      </trkpt>
      <trkpt lat="54.5474172" lon="13.9394880">
        <time>2026-07-15T23:59:44Z</time>
      </trkpt>
      <trkpt lat="54.5468588" lon="13.9407055">
        <time>2026-07-16T00:00:12Z</time>
      </trkpt>
      <trkpt lat="54.5463478" lon="13.9423592">
        <time>2026-07-16T00:00:46Z</time>
      </trkpt>
      <trkpt lat="54.5460551" lon="13.9439545">
        <time>2026-07-16T00:01:16Z</time>
      </trkpt>
      <trkpt lat="54.5459666" lon="13.9457201">
        <time>2026-07-16T00:01:48Z</time>
      </trkpt>
      <trkpt lat="54.5461275" lon="13.9473340">
        <time>2026-07-16T00:02:19Z</time>
      </trkpt>
      <trkpt lat="54.5465665" lon="13.9489398">
        <time>2026-07-16T00:02:51Z</time>
      </trkpt>
      <trkpt lat="54.5472672" lon="13.9503780">
        <time>2026-07-16T00:03:23Z</time>
      </trkpt>
      <trkpt lat="54.5476820" lon="13.9515057">
        <time>2026-07-16T00:03:47Z</time>
      </trkpt>
      <trkpt lat="54.5478793" lon="13.9532255">
        <time>2026-07-16T00:04:19Z</time>
      </trkpt>
      <trkpt lat="54.5479391" lon="13.9546900">
        <time>2026-07-16T00:04:45Z</time>
      </trkpt>
      <trkpt lat="54.5477658" lon="13.9565525">
        <time>2026-07-16T00:05:19Z</time>
      </trkpt>
      <trkpt lat="54.5473702" lon="13.9578234">
        <time>2026-07-16T00:05:45Z</time>
      </trkpt>
      <trkpt lat="54.5465985" lon="13.9590493">
        <time>2026-07-16T00:06:17Z</time>
      </trkpt>
      <trkpt lat="54.5458470" lon="13.9607172">
        <time>2026-07-16T00:06:55Z</time>
      </trkpt>
      <trkpt lat="54.5449867" lon="13.9623173">
        <time>2026-07-16T00:07:33Z</time>
      </trkpt>
      <trkpt lat="54.5446222" lon="13.9645982">
        <time>2026-07-16T00:08:19Z</time>
      </trkpt>
      <trkpt lat="54.5445512" lon="13.9666969">
        <time>2026-07-16T00:08:58Z</time>
      </trkpt>
      <trkpt lat="54.5443180" lon="13.9686552">
        <time>2026-07-16T00:09:34Z</time>
      </trkpt>
      <trkpt lat="54.5438968" lon="13.9704060">
        <time>2026-07-16T00:10:08Z</time>
      </trkpt>
      <trkpt lat="54.5433636" lon="13.9717585">
        <time>2026-07-16T00:10:36Z</time>
      </trkpt>
      <trkpt lat="54.5428507" lon="13.9741641">
        <time>2026-07-16T00:11:24Z</time>
      </trkpt>
      <trkpt lat="54.5422853" lon="13.9764563">
        <time>2026-07-16T00:12:08Z</time>
      </trkpt>
      <trkpt lat="54.5418197" lon="13.9777835">
        <time>2026-07-16T00:12:36Z</time>
      </trkpt>
      <trkpt lat="54.5415054" lon="13.9810880">
        <time>2026-07-16T00:13:38Z</time>
      </trkpt>
      <trkpt lat="54.5412707" lon="13.9827882">
        <time>2026-07-16T00:14:10Z</time>
      </trkpt>
      <trkpt lat="54.5407621" lon="13.9845590">
        <time>2026-07-16T00:14:46Z</time>
      </trkpt>
      <trkpt lat="54.5404890" lon="13.9861315">
        <time>2026-07-16T00:15:16Z</time>
      </trkpt>
      <trkpt lat="54.5402731" lon="13.9877220">
        <time>2026-07-16T00:15:46Z</time>
      </trkpt>
      <trkpt lat="54.5401542" lon="13.9892678">
        <time>2026-07-16T00:16:14Z</time>
      </trkpt>
      <trkpt lat="54.5400758" lon="13.9914738">
        <time>2026-07-16T00:16:55Z</time>
      </trkpt>
      <trkpt lat="54.5399330" lon="13.9946726">
        <time>2026-07-16T00:17:53Z</time>
      </trkpt>
      <trkpt lat="54.5399107" lon="13.9959902">
        <time>2026-07-16T00:18:17Z</time>
      </trkpt>
      <trkpt lat="54.5398861" lon="13.9977557">
        <time>2026-07-16T00:18:49Z</time>
      </trkpt>
      <trkpt lat="54.5396192" lon="13.9990817">
        <time>2026-07-16T00:19:15Z</time>
      </trkpt>
      <trkpt lat="54.5388068" lon="14.0014699">
        <time>2026-07-16T00:20:05Z</time>
      </trkpt>
      <trkpt lat="54.5383810" lon="14.0033942">
        <time>2026-07-16T00:20:43Z</time>
      </trkpt>
      <trkpt lat="54.5381982" lon="14.0054230">
        <time>2026-07-16T00:21:21Z</time>
      </trkpt>
      <trkpt lat="54.5376727" lon="14.0080737">
        <time>2026-07-16T00:22:11Z</time>
      </trkpt>
      <trkpt lat="54.5370480" lon="14.0129315">
        <time>2026-07-16T00:23:41Z</time>
      </trkpt>
      <trkpt lat="54.5367155" lon="14.0145838">
        <time>2026-07-16T00:24:14Z</time>
      </trkpt>
      <trkpt lat="54.5365302" lon="14.0158585">
        <time>2026-07-16T00:24:38Z</time>
      </trkpt>
      <trkpt lat="54.5361865" lon="14.0175470">
        <time>2026-07-16T00:25:10Z</time>
      </trkpt>
      <trkpt lat="54.5359878" lon="14.0190198">
        <time>2026-07-16T00:25:38Z</time>
      </trkpt>
      <trkpt lat="54.5358166" lon="14.0214730">
        <time>2026-07-16T00:26:22Z</time>
      </trkpt>
      <trkpt lat="54.5357618" lon="14.0234635">
        <time>2026-07-16T00:26:58Z</time>
      </trkpt>
      <trkpt lat="54.5351887" lon="14.0258960">
        <time>2026-07-16T00:27:46Z</time>
      </trkpt>
      <trkpt lat="54.5347963" lon="14.0274245">
        <time>2026-07-16T00:28:16Z</time>
      </trkpt>
      <trkpt lat="54.5341727" lon="14.0289868">
        <time>2026-07-16T00:28:50Z</time>
      </trkpt>
      <trkpt lat="54.5337653" lon="14.0295580">
        <time>2026-07-16T00:29:07Z</time>
      </trkpt>
      <trkpt lat="54.4907503" lon="14.1585773">
        <time>2026-07-16T01:19:34Z</time>
      </trkpt>
      <trkpt lat="54.4901225" lon="14.1596983">
        <time>2026-07-16T01:20:02Z</time>
      </trkpt>
      <trkpt lat="54.4892439" lon="14.1605623">
        <time>2026-07-16T01:20:32Z</time>
      </trkpt>
      <trkpt lat="54.4872658" lon="14.1637790">
        <time>2026-07-16T01:21:58Z</time>
      </trkpt>
      <trkpt lat="54.4865717" lon="14.1653945">
        <time>2026-07-16T01:22:34Z</time>
      </trkpt>
      <trkpt lat="54.4859985" lon="14.1674083">
        <time>2026-07-16T01:23:14Z</time>
      </trkpt>
      <trkpt lat="54.4853892" lon="14.1690905">
        <time>2026-07-16T01:23:50Z</time>
      </trkpt>
      <trkpt lat="54.4846368" lon="14.1704415">
        <time>2026-07-16T01:24:24Z</time>
      </trkpt>
      <trkpt lat="54.4841770" lon="14.1722427">
        <time>2026-07-16T01:25:02Z</time>
      </trkpt>
      <trkpt lat="54.4838652" lon="14.1733580">
        <time>2026-07-16T01:25:25Z</time>
      </trkpt>
      <trkpt lat="54.4831467" lon="14.1746050">
        <time>2026-07-16T01:25:57Z</time>
      </trkpt>
      <trkpt lat="54.4824057" lon="14.1754237">
        <time>2026-07-16T01:26:25Z</time>
      </trkpt>
      <trkpt lat="54.4815447" lon="14.1765437">
        <time>2026-07-16T01:26:59Z</time>
      </trkpt>
      <trkpt lat="54.4809122" lon="14.1777765">
        <time>2026-07-16T01:27:29Z</time>
      </trkpt>
      <trkpt lat="54.4804228" lon="14.1792915">
        <time>2026-07-16T01:28:01Z</time>
      </trkpt>
      <trkpt lat="54.4802114" lon="14.1805998">
        <time>2026-07-16T01:28:27Z</time>
      </trkpt>
      <trkpt lat="54.4802170" lon="14.1820072">
        <time>2026-07-16T01:28:53Z</time>
      </trkpt>
      <trkpt lat="54.4804557" lon="14.1839545">
        <time>2026-07-16T01:29:29Z</time>
      </trkpt>
      <trkpt lat="54.4803212" lon="14.1856490">
        <time>2026-07-16T01:30:01Z</time>
      </trkpt>
      <trkpt lat="54.4796555" lon="14.1870085">
        <time>2026-07-16T01:30:35Z</time>
      </trkpt>
      <trkpt lat="54.4787683" lon="14.1897555">
        <time>2026-07-16T01:31:35Z</time>
      </trkpt>
      <trkpt lat="54.4780817" lon="14.1912387">
        <time>2026-07-16T01:32:09Z</time>
      </trkpt>
      <trkpt lat="54.4775308" lon="14.1920968">
        <time>2026-07-16T01:32:33Z</time>
      </trkpt>
      <trkpt lat="54.4761422" lon="14.1944107">
        <time>2026-07-16T01:33:33Z</time>
      </trkpt>
      <trkpt lat="54.4751140" lon="14.1961816">
        <time>2026-07-16T01:34:19Z</time>
      </trkpt>
      <trkpt lat="54.4745008" lon="14.1974452">
        <time>2026-07-16T01:34:49Z</time>
      </trkpt>
      <trkpt lat="54.4733957" lon="14.2009775">
        <time>2026-07-16T01:36:03Z</time>
      </trkpt>
      <trkpt lat="54.4724350" lon="14.2050819">
        <time>2026-07-16T01:37:23Z</time>
      </trkpt>
      <trkpt lat="54.4719027" lon="14.2071393">
        <time>2026-07-16T01:38:03Z</time>
      </trkpt>
      <trkpt lat="54.4706922" lon="14.2100405">
        <time>2026-07-16T01:39:09Z</time>
      </trkpt>
      <trkpt lat="54.4701400" lon="14.2116374">
        <time>2026-07-16T01:39:44Z</time>
      </trkpt>
      <trkpt lat="54.4698137" lon="14.2131883">
        <time>2026-07-16T01:40:16Z</time>
      </trkpt>
      <trkpt lat="54.4697024" lon="14.2148071">
        <time>2026-07-16T01:40:46Z</time>
      </trkpt>
      <trkpt lat="54.4699183" lon="14.2167719">
        <time>2026-07-16T01:41:22Z</time>
      </trkpt>
      <trkpt lat="54.4701172" lon="14.2188365">
        <time>2026-07-16T01:42:00Z</time>
      </trkpt>
      <trkpt lat="54.4699523" lon="14.2207684">
        <time>2026-07-16T01:42:36Z</time>
      </trkpt>
      <trkpt lat="54.4693990" lon="14.2221040">
        <time>2026-07-16T01:43:06Z</time>
      </trkpt>
      <trkpt lat="54.4685976" lon="14.2227937">
        <time>2026-07-16T01:43:34Z</time>
      </trkpt>
      <trkpt lat="54.4677615" lon="14.2238228">
        <time>2026-07-16T01:44:06Z</time>
      </trkpt>
      <trkpt lat="54.4669959" lon="14.2244052">
        <time>2026-07-16T01:44:32Z</time>
      </trkpt>
      <trkpt lat="54.4664968" lon="14.2261251">
        <time>2026-07-16T01:45:12Z</time>
      </trkpt>
      <trkpt lat="54.4656501" lon="14.2286675">
        <time>2026-07-16T01:46:06Z</time>
      </trkpt>
      <trkpt lat="54.4650102" lon="14.2302919">
        <time>2026-07-16T01:46:42Z</time>
      </trkpt>
      <trkpt lat="54.4644582" lon="14.2312300">
        <time>2026-07-16T01:47:06Z</time>
      </trkpt>
      <trkpt lat="54.4638676" lon="14.2320558">
        <time>2026-07-16T01:47:30Z</time>
      </trkpt>
      <trkpt lat="54.4633905" lon="14.2330342">
        <time>2026-07-16T01:47:54Z</time>
      </trkpt>
      <trkpt lat="54.4631687" lon="14.2348782">
        <time>2026-07-16T01:48:30Z</time>
      </trkpt>
      <trkpt lat="54.4622696" lon="14.2372625">
        <time>2026-07-16T01:49:25Z</time>
      </trkpt>
      <trkpt lat="54.4619233" lon="14.2384027">
        <time>2026-07-16T01:49:49Z</time>
      </trkpt>
      <trkpt lat="54.4618415" lon="14.2397876">
        <time>2026-07-16T01:50:15Z</time>
      </trkpt>
      <trkpt lat="54.4616285" lon="14.2413843">
        <time>2026-07-16T01:50:45Z</time>
      </trkpt>
      <trkpt lat="54.4609502" lon="14.2435386">
        <time>2026-07-16T01:51:29Z</time>
      </trkpt>
      <trkpt lat="54.4604390" lon="14.2455385">
        <time>2026-07-16T01:52:09Z</time>
      </trkpt>
      <trkpt lat="54.4599863" lon="14.2467630">
        <time>2026-07-16T01:52:35Z</time>
      </trkpt>
      <trkpt lat="54.4588543" lon="14.2485775">
        <time>2026-07-16T01:53:23Z</time>
      </trkpt>
      <trkpt lat="54.4583298" lon="14.2495002">
        <time>2026-07-16T01:53:47Z</time>
      </trkpt>
      <trkpt lat="54.4575801" lon="14.2509195">
        <time>2026-07-16T01:54:23Z</time>
      </trkpt>
      <trkpt lat="54.4571500" lon="14.2520173">
        <time>2026-07-16T01:54:49Z</time>
      </trkpt>
      <trkpt lat="54.4558950" lon="14.2584937">
        <time>2026-07-16T01:56:55Z</time>
      </trkpt>
      <trkpt lat="54.4551858" lon="14.2618280">
        <time>2026-07-16T01:58:01Z</time>
      </trkpt>
      <trkpt lat="54.4547997" lon="14.2641847">
        <time>2026-07-16T01:58:47Z</time>
      </trkpt>
      <trkpt lat="54.4538700" lon="14.2677777">
        <time>2026-07-16T01:59:59Z</time>
      </trkpt>
      <trkpt lat="54.4534888" lon="14.2693960">
        <time>2026-07-16T02:00:31Z</time>
      </trkpt>
      <trkpt lat="54.4532073" lon="14.2717401">
        <time>2026-07-16T02:01:16Z</time>
      </trkpt>
      <trkpt lat="54.4529651" lon="14.2735398">
        <time>2026-07-16T02:01:50Z</time>
      </trkpt>
      <trkpt lat="54.4525304" lon="14.2760369">
        <time>2026-07-16T02:02:38Z</time>
      </trkpt>
      <trkpt lat="54.4523297" lon="14.2773992">
        <time>2026-07-16T02:03:04Z</time>
      </trkpt>
      <trkpt lat="54.4521232" lon="14.2793633">
        <time>2026-07-16T02:03:40Z</time>
      </trkpt>
      <trkpt lat="54.4518995" lon="14.2809378">
        <time>2026-07-16T02:04:10Z</time>
      </trkpt>
      <trkpt lat="54.4513512" lon="14.2835589">
        <time>2026-07-16T02:05:02Z</time>
      </trkpt>
      <trkpt lat="54.4509615" lon="14.2855225">
        <time>2026-07-16T02:05:40Z</time>
      </trkpt>
      <trkpt lat="54.4506747" lon="14.2874220">
        <time>2026-07-16T02:06:16Z</time>
      </trkpt>
      <trkpt lat="54.4505705" lon="14.2901035">
        <time>2026-07-16T02:07:06Z</time>
      </trkpt>
      <trkpt lat="54.4503714" lon="14.2918365">
        <time>2026-07-16T02:07:38Z</time>
      </trkpt>
      <trkpt lat="54.4501080" lon="14.2931618">
        <time>2026-07-16T02:08:04Z</time>
      </trkpt>
      <trkpt lat="54.4497264" lon="14.2946505">
        <time>2026-07-16T02:08:34Z</time>
      </trkpt>
      <trkpt lat="54.4492592" lon="14.2973308">
        <time>2026-07-16T02:09:24Z</time>
      </trkpt>
      <trkpt lat="54.4490858" lon="14.3003860">
        <time>2026-07-16T02:10:20Z</time>
      </trkpt>
      <trkpt lat="54.4486627" lon="14.3030066">
        <time>2026-07-16T02:11:10Z</time>
      </trkpt>
      <trkpt lat="54.4483532" lon="14.3053090">
        <time>2026-07-16T02:11:54Z</time>
      </trkpt>
      <trkpt lat="54.4481631" lon="14.3066402">
        <time>2026-07-16T02:12:20Z</time>
      </trkpt>
      <trkpt lat="54.4477353" lon="14.3084310">
        <time>2026-07-16T02:12:56Z</time>
      </trkpt>
      <trkpt lat="54.4467405" lon="14.3114367">
        <time>2026-07-16T02:14:00Z</time>
      </trkpt>
      <trkpt lat="54.4464210" lon="14.3125978">
        <time>2026-07-16T02:14:24Z</time>
      </trkpt>
      <trkpt lat="54.4461289" lon="14.3144530">
        <time>2026-07-16T02:15:00Z</time>
      </trkpt>
      <trkpt lat="54.4458992" lon="14.3180808">
        <time>2026-07-16T02:16:06Z</time>
      </trkpt>
      <trkpt lat="54.4455586" lon="14.3210209">
        <time>2026-07-16T02:17:00Z</time>
      </trkpt>
      <trkpt lat="54.4447472" lon="14.3249700">
        <time>2026-07-16T02:18:19Z</time>
      </trkpt>
      <trkpt lat="54.4441220" lon="14.3271810">
        <time>2026-07-16T02:19:05Z</time>
      </trkpt>
      <trkpt lat="54.4436030" lon="14.3294167">
        <time>2026-07-16T02:19:49Z</time>
      </trkpt>
      <trkpt lat="54.4432306" lon="14.3311734">
        <time>2026-07-16T02:20:23Z</time>
      </trkpt>
      <trkpt lat="54.4429546" lon="14.3331063">
        <time>2026-07-16T02:20:59Z</time>
      </trkpt>
      <trkpt lat="54.4428270" lon="14.3351675">
        <time>2026-07-16T02:21:37Z</time>
      </trkpt>
      <trkpt lat="54.4426774" lon="14.3365468">
        <time>2026-07-16T02:22:03Z</time>
      </trkpt>
      <trkpt lat="54.4423948" lon="14.3386680">
        <time>2026-07-16T02:22:43Z</time>
      </trkpt>
      <trkpt lat="54.4420068" lon="14.3408520">
        <time>2026-07-16T02:23:25Z</time>
      </trkpt>
      <trkpt lat="54.4417292" lon="14.3429296">
        <time>2026-07-16T02:24:03Z</time>
      </trkpt>
      <trkpt lat="54.4416137" lon="14.3447895">
        <time>2026-07-16T02:24:37Z</time>
      </trkpt>
      <trkpt lat="54.4415678" lon="14.3464383">
        <time>2026-07-16T02:25:07Z</time>
      </trkpt>
      <trkpt lat="54.4410089" lon="14.3503292">
        <time>2026-07-16T02:26:21Z</time>
      </trkpt>
      <trkpt lat="54.4405037" lon="14.3530520">
        <time>2026-07-16T02:27:13Z</time>
      </trkpt>
      <trkpt lat="54.4402477" lon="14.3553961">
        <time>2026-07-16T02:27:57Z</time>
      </trkpt>
      <trkpt lat="54.4400165" lon="14.3568638">
        <time>2026-07-16T02:28:25Z</time>
      </trkpt>
      <trkpt lat="54.4396331" lon="14.3587992">
        <time>2026-07-16T02:29:03Z</time>
      </trkpt>
      <trkpt lat="54.4393999" lon="14.3607144">
        <time>2026-07-16T02:29:39Z</time>
      </trkpt>
      <trkpt lat="54.4391854" lon="14.3634108">
        <time>2026-07-16T02:30:30Z</time>
      </trkpt>
      <trkpt lat="54.4387312" lon="14.3661138">
        <time>2026-07-16T02:31:22Z</time>
      </trkpt>
      <trkpt lat="54.4383802" lon="14.3676287">
        <time>2026-07-16T02:31:52Z</time>
      </trkpt>
      <trkpt lat="54.4377053" lon="14.3693183">
        <time>2026-07-16T02:32:30Z</time>
      </trkpt>
      <trkpt lat="54.4371171" lon="14.3704101">
        <time>2026-07-16T02:32:58Z</time>
      </trkpt>
      <trkpt lat="54.4366348" lon="14.3719469">
        <time>2026-07-16T02:33:30Z</time>
      </trkpt>
      <trkpt lat="54.4364388" lon="14.3749325">
        <time>2026-07-16T02:34:26Z</time>
      </trkpt>
      <trkpt lat="54.4361658" lon="14.3774586">
        <time>2026-07-16T02:35:14Z</time>
      </trkpt>
      <trkpt lat="54.4358668" lon="14.3789899">
        <time>2026-07-16T02:35:44Z</time>
      </trkpt>
      <trkpt lat="54.4342033" lon="14.3846702">
        <time>2026-07-16T02:37:43Z</time>
      </trkpt>
      <trkpt lat="54.4334612" lon="14.3892267">
        <time>2026-07-16T02:39:11Z</time>
      </trkpt>
      <trkpt lat="54.4327187" lon="14.3935053">
        <time>2026-07-16T02:40:35Z</time>
      </trkpt>
      <trkpt lat="54.4317890" lon="14.3979203">
        <time>2026-07-16T02:42:03Z</time>
      </trkpt>
      <trkpt lat="54.4303960" lon="14.4023625">
        <time>2026-07-16T02:43:37Z</time>
      </trkpt>
      <trkpt lat="54.4293675" lon="14.4059248">
        <time>2026-07-16T02:44:51Z</time>
      </trkpt>
      <trkpt lat="54.4284090" lon="14.4099193">
        <time>2026-07-16T02:46:11Z</time>
      </trkpt>
      <trkpt lat="54.4279644" lon="14.4113966">
        <time>2026-07-16T02:46:43Z</time>
      </trkpt>
      <trkpt lat="54.4273717" lon="14.4138377">
        <time>2026-07-16T02:47:33Z</time>
      </trkpt>
      <trkpt lat="54.4269707" lon="14.4151123">
        <time>2026-07-16T02:48:01Z</time>
      </trkpt>
      <trkpt lat="54.4265984" lon="14.4164839">
        <time>2026-07-16T02:48:29Z</time>
      </trkpt>
      <trkpt lat="54.4262559" lon="14.4180718">
        <time>2026-07-16T02:49:02Z</time>
      </trkpt>
      <trkpt lat="54.4255846" lon="14.4209321">
        <time>2026-07-16T02:50:00Z</time>
      </trkpt>
      <trkpt lat="54.4245727" lon="14.4243607">
        <time>2026-07-16T02:51:14Z</time>
      </trkpt>
      <trkpt lat="54.4242020" lon="14.4260590">
        <time>2026-07-16T02:51:48Z</time>
      </trkpt>
      <trkpt lat="54.4239618" lon="14.4281708">
        <time>2026-07-16T02:52:28Z</time>
      </trkpt>
      <trkpt lat="54.4237348" lon="14.4296881">
        <time>2026-07-16T02:52:58Z</time>
      </trkpt>
      <trkpt lat="54.4228725" lon="14.4336078">
        <time>2026-07-16T02:54:14Z</time>
      </trkpt>
      <trkpt lat="54.4226090" lon="14.4350973">
        <time>2026-07-16T02:54:44Z</time>
      </trkpt>
      <trkpt lat="54.4222635" lon="14.4377581">
        <time>2026-07-16T02:55:36Z</time>
      </trkpt>
      <trkpt lat="54.4212403" lon="14.4428515">
        <time>2026-07-16T02:57:14Z</time>
      </trkpt>
      <trkpt lat="54.4206343" lon="14.4460012">
        <time>2026-07-16T02:58:16Z</time>
      </trkpt>
      <trkpt lat="54.4203894" lon="14.4475622">
        <time>2026-07-16T02:58:46Z</time>
      </trkpt>
      <trkpt lat="54.4200090" lon="14.4508900">
        <time>2026-07-16T02:59:48Z</time>
      </trkpt>
      <trkpt lat="54.4193573" lon="14.4542452">
        <time>2026-07-16T03:00:54Z</time>
      </trkpt>
      <trkpt lat="54.4191654" lon="14.4554724">
        <time>2026-07-16T03:01:18Z</time>
      </trkpt>
      <trkpt lat="54.4189023" lon="14.4578992">
        <time>2026-07-16T03:02:04Z</time>
      </trkpt>
      <trkpt lat="54.4186658" lon="14.4596110">
        <time>2026-07-16T03:02:36Z</time>
      </trkpt>
      <trkpt lat="54.4184285" lon="14.4608615">
        <time>2026-07-16T03:03:00Z</time>
      </trkpt>
      <trkpt lat="54.4179990" lon="14.4627929">
        <time>2026-07-16T03:03:39Z</time>
      </trkpt>
      <trkpt lat="54.4177298" lon="14.4652600">
        <time>2026-07-16T03:04:27Z</time>
      </trkpt>
      <trkpt lat="54.4176495" lon="14.4671585">
        <time>2026-07-16T03:05:03Z</time>
      </trkpt>
      <trkpt lat="54.4175038" lon="14.4687700">
        <time>2026-07-16T03:05:33Z</time>
      </trkpt>
      <trkpt lat="54.4164900" lon="14.4727618">
        <time>2026-07-16T03:06:53Z</time>
      </trkpt>
      <trkpt lat="54.4155343" lon="14.4766746">
        <time>2026-07-16T03:08:11Z</time>
      </trkpt>
      <trkpt lat="54.4150442" lon="14.4782639">
        <time>2026-07-16T03:08:45Z</time>
      </trkpt>
      <trkpt lat="54.4147015" lon="14.4799334">
        <time>2026-07-16T03:09:19Z</time>
      </trkpt>
      <trkpt lat="54.4142500" lon="14.4839636">
        <time>2026-07-16T03:10:35Z</time>
      </trkpt>
      <trkpt lat="54.4140432" lon="14.4881393">
        <time>2026-07-16T03:11:51Z</time>
      </trkpt>
      <trkpt lat="54.4138490" lon="14.4900778">
        <time>2026-07-16T03:12:27Z</time>
      </trkpt>
      <trkpt lat="54.4132679" lon="14.4928828">
        <time>2026-07-16T03:13:23Z</time>
      </trkpt>
      <trkpt lat="54.4128108" lon="14.4948760">
        <time>2026-07-16T03:14:03Z</time>
      </trkpt>
      <trkpt lat="54.4122263" lon="14.4969705">
        <time>2026-07-16T03:14:47Z</time>
      </trkpt>
      <trkpt lat="54.4118555" lon="14.4986417">
        <time>2026-07-16T03:15:21Z</time>
      </trkpt>
      <trkpt lat="54.4115943" lon="14.5000544">
        <time>2026-07-16T03:15:50Z</time>
      </trkpt>
      <trkpt lat="54.4110520" lon="14.5035100">
        <time>2026-07-16T03:16:58Z</time>
      </trkpt>
      <trkpt lat="54.4098169" lon="14.5086185">
        <time>2026-07-16T03:18:40Z</time>
      </trkpt>
      <trkpt lat="54.4093896" lon="14.5100658">
        <time>2026-07-16T03:19:12Z</time>
      </trkpt>
      <trkpt lat="54.4090908" lon="14.5112077">
        <time>2026-07-16T03:19:34Z</time>
      </trkpt>
      <trkpt lat="54.4084157" lon="14.5143360">
        <time>2026-07-16T03:20:36Z</time>
      </trkpt>
      <trkpt lat="54.4078247" lon="14.5166858">
        <time>2026-07-16T03:21:24Z</time>
      </trkpt>
      <trkpt lat="54.4072420" lon="14.5184916">
        <time>2026-07-16T03:22:04Z</time>
      </trkpt>
      <trkpt lat="54.4067078" lon="14.5206978">
        <time>2026-07-16T03:22:50Z</time>
      </trkpt>
      <trkpt lat="54.4064400" lon="14.5225579">
        <time>2026-07-16T03:23:26Z</time>
      </trkpt>
      <trkpt lat="54.4061698" lon="14.5240011">
        <time>2026-07-16T03:23:54Z</time>
      </trkpt>
      <trkpt lat="54.4057060" lon="14.5253877">
        <time>2026-07-16T03:24:24Z</time>
      </trkpt>
      <trkpt lat="54.4039951" lon="14.5281703">
        <time>2026-07-16T03:25:40Z</time>
      </trkpt>
      <trkpt lat="54.4034666" lon="14.5292283">
        <time>2026-07-16T03:26:06Z</time>
      </trkpt>
      <trkpt lat="54.4030000" lon="14.5307057">
        <time>2026-07-16T03:26:41Z</time>
      </trkpt>
      <trkpt lat="54.4027470" lon="14.5333208">
        <time>2026-07-16T03:27:33Z</time>
      </trkpt>
      <trkpt lat="54.4024443" lon="14.5353048">
        <time>2026-07-16T03:28:13Z</time>
      </trkpt>
      <trkpt lat="54.4020477" lon="14.5367380">
        <time>2026-07-16T03:28:43Z</time>
      </trkpt>
      <trkpt lat="54.4015257" lon="14.5383897">
        <time>2026-07-16T03:29:19Z</time>
      </trkpt>
      <trkpt lat="54.4011685" lon="14.5397707">
        <time>2026-07-16T03:29:47Z</time>
      </trkpt>
      <trkpt lat="54.4007178" lon="14.5418263">
        <time>2026-07-16T03:30:29Z</time>
      </trkpt>
      <trkpt lat="54.4004280" lon="14.5433600">
        <time>2026-07-16T03:30:59Z</time>
      </trkpt>
      <trkpt lat="54.4000600" lon="14.5457647">
        <time>2026-07-16T03:31:46Z</time>
      </trkpt>
      <trkpt lat="54.3992258" lon="14.5496367">
        <time>2026-07-16T03:33:04Z</time>
      </trkpt>
      <trkpt lat="54.3988405" lon="14.5518053">
        <time>2026-07-16T03:33:46Z</time>
      </trkpt>
      <trkpt lat="54.3980660" lon="14.5553853">
        <time>2026-07-16T03:34:58Z</time>
      </trkpt>
      <trkpt lat="54.3977551" lon="14.5566279">
        <time>2026-07-16T03:35:24Z</time>
      </trkpt>
      <trkpt lat="54.3971732" lon="14.5586173">
        <time>2026-07-16T03:36:06Z</time>
      </trkpt>
      <trkpt lat="54.3968122" lon="14.5596946">
        <time>2026-07-16T03:36:30Z</time>
      </trkpt>
      <trkpt lat="54.3964302" lon="14.5613862">
        <time>2026-07-16T03:37:04Z</time>
      </trkpt>
      <trkpt lat="54.3962707" lon="14.5631722">
        <time>2026-07-16T03:37:38Z</time>
      </trkpt>
      <trkpt lat="54.3956392" lon="14.5661688">
        <time>2026-07-16T03:38:40Z</time>
      </trkpt>
      <trkpt lat="54.3953858" lon="14.5675173">
        <time>2026-07-16T03:39:06Z</time>
      </trkpt>
      <trkpt lat="54.3950895" lon="14.5703330">
        <time>2026-07-16T03:40:00Z</time>
      </trkpt>
      <trkpt lat="54.3948887" lon="14.5715790">
        <time>2026-07-16T03:40:24Z</time>
      </trkpt>
      <trkpt lat="54.3943623" lon="14.5731525">
        <time>2026-07-16T03:40:58Z</time>
      </trkpt>
      <trkpt lat="54.3938596" lon="14.5750215">
        <time>2026-07-16T03:41:36Z</time>
      </trkpt>
      <trkpt lat="54.3936200" lon="14.5762473">
        <time>2026-07-16T03:42:00Z</time>
      </trkpt>
      <trkpt lat="54.3930728" lon="14.5801315">
        <time>2026-07-16T03:43:14Z</time>
      </trkpt>
      <trkpt lat="54.3926452" lon="14.5844751">
        <time>2026-07-16T03:44:37Z</time>
      </trkpt>
      <trkpt lat="54.3924289" lon="14.5861580">
        <time>2026-07-16T03:45:09Z</time>
      </trkpt>
      <trkpt lat="54.3916622" lon="14.5908647">
        <time>2026-07-16T03:46:39Z</time>
      </trkpt>
      <trkpt lat="54.3910695" lon="14.5940418">
        <time>2026-07-16T03:47:41Z</time>
      </trkpt>
      <trkpt lat="54.3906833" lon="14.5957783">
        <time>2026-07-16T03:48:15Z</time>
      </trkpt>
      <trkpt lat="54.3902395" lon="14.5980597">
        <time>2026-07-16T03:49:01Z</time>
      </trkpt>
      <trkpt lat="54.3893647" lon="14.6015770">
        <time>2026-07-16T03:50:13Z</time>
      </trkpt>
      <trkpt lat="54.3890649" lon="14.6032927">
        <time>2026-07-16T03:50:47Z</time>
      </trkpt>
      <trkpt lat="54.3886743" lon="14.6068651">
        <time>2026-07-16T03:51:56Z</time>
      </trkpt>
      <trkpt lat="54.3883361" lon="14.6085788">
        <time>2026-07-16T03:52:30Z</time>
      </trkpt>
      <trkpt lat="54.3878584" lon="14.6119425">
        <time>2026-07-16T03:53:34Z</time>
      </trkpt>
      <trkpt lat="54.3876550" lon="14.6142520">
        <time>2026-07-16T03:54:18Z</time>
      </trkpt>
      <trkpt lat="54.3872819" lon="14.6169308">
        <time>2026-07-16T03:55:10Z</time>
      </trkpt>
      <trkpt lat="54.3867657" lon="14.6194377">
        <time>2026-07-16T03:56:00Z</time>
      </trkpt>
      <trkpt lat="54.3864710" lon="14.6210810">
        <time>2026-07-16T03:56:32Z</time>
      </trkpt>
      <trkpt lat="54.3859742" lon="14.6230482">
        <time>2026-07-16T03:57:12Z</time>
      </trkpt>
      <trkpt lat="54.3856150" lon="14.6248503">
        <time>2026-07-16T03:57:48Z</time>
      </trkpt>
      <trkpt lat="54.3849410" lon="14.6283280">
        <time>2026-07-16T03:58:56Z</time>
      </trkpt>
      <trkpt lat="54.3845660" lon="14.6302118">
        <time>2026-07-16T03:59:32Z</time>
      </trkpt>
      <trkpt lat="54.3839620" lon="14.6324729">
        <time>2026-07-16T04:00:18Z</time>
      </trkpt>
      <trkpt lat="54.3836173" lon="14.6343175">
        <time>2026-07-16T04:00:54Z</time>
      </trkpt>
      <trkpt lat="54.3829455" lon="14.6372323">
        <time>2026-07-16T04:01:54Z</time>
      </trkpt>
      <trkpt lat="54.3825524" lon="14.6386957">
        <time>2026-07-16T04:02:24Z</time>
      </trkpt>
      <trkpt lat="54.3822108" lon="14.6403805">
        <time>2026-07-16T04:02:59Z</time>
      </trkpt>
      <trkpt lat="54.3817510" lon="14.6421136">
        <time>2026-07-16T04:03:35Z</time>
      </trkpt>
      <trkpt lat="54.3813092" lon="14.6444412">
        <time>2026-07-16T04:04:21Z</time>
      </trkpt>
      <trkpt lat="54.3807680" lon="14.6464763">
        <time>2026-07-16T04:05:03Z</time>
      </trkpt>
      <trkpt lat="54.3800685" lon="14.6495658">
        <time>2026-07-16T04:06:05Z</time>
      </trkpt>
      <trkpt lat="54.3797200" lon="14.6515807">
        <time>2026-07-16T04:06:45Z</time>
      </trkpt>
      <trkpt lat="54.3791586" lon="14.6536210">
        <time>2026-07-16T04:07:27Z</time>
      </trkpt>
      <trkpt lat="54.3777835" lon="14.6603407">
        <time>2026-07-16T04:09:39Z</time>
      </trkpt>
      <trkpt lat="54.3770990" lon="14.6632797">
        <time>2026-07-16T04:10:37Z</time>
      </trkpt>
      <trkpt lat="54.3767195" lon="14.6665272">
        <time>2026-07-16T04:11:37Z</time>
      </trkpt>
      <trkpt lat="54.3761905" lon="14.6691385">
        <time>2026-07-16T04:12:29Z</time>
      </trkpt>
      <trkpt lat="54.3758764" lon="14.6706330">
        <time>2026-07-16T04:12:59Z</time>
      </trkpt>
      <trkpt lat="54.3755427" lon="14.6727736">
        <time>2026-07-16T04:13:41Z</time>
      </trkpt>
      <trkpt lat="54.3750142" lon="14.6753188">
        <time>2026-07-16T04:14:31Z</time>
      </trkpt>
      <trkpt lat="54.3747583" lon="14.6769235">
        <time>2026-07-16T04:15:03Z</time>
      </trkpt>
      <trkpt lat="54.3740504" lon="14.6793520">
        <time>2026-07-16T04:15:56Z</time>
      </trkpt>
      <trkpt lat="54.3737137" lon="14.6805659">
        <time>2026-07-16T04:16:22Z</time>
      </trkpt>
      <trkpt lat="54.3732356" lon="14.6837169">
        <time>2026-07-16T04:17:24Z</time>
      </trkpt>
      <trkpt lat="54.3724840" lon="14.6870875">
        <time>2026-07-16T04:18:32Z</time>
      </trkpt>
      <trkpt lat="54.3721622" lon="14.6882553">
        <time>2026-07-16T04:18:56Z</time>
      </trkpt>
      <trkpt lat="54.3718287" lon="14.6901778">
        <time>2026-07-16T04:19:34Z</time>
      </trkpt>
      <trkpt lat="54.3710100" lon="14.6933007">
        <time>2026-07-16T04:20:38Z</time>
      </trkpt>
      <trkpt lat="54.3702377" lon="14.6970103">
        <time>2026-07-16T04:21:52Z</time>
      </trkpt>
      <trkpt lat="54.3694868" lon="14.6997204">
        <time>2026-07-16T04:22:51Z</time>
      </trkpt>
      <trkpt lat="54.3690715" lon="14.7019205">
        <time>2026-07-16T04:23:35Z</time>
      </trkpt>
      <trkpt lat="54.3686812" lon="14.7037371">
        <time>2026-07-16T04:24:11Z</time>
      </trkpt>
      <trkpt lat="54.3684461" lon="14.7052220">
        <time>2026-07-16T04:24:39Z</time>
      </trkpt>
      <trkpt lat="54.3679694" lon="14.7076648">
        <time>2026-07-16T04:25:27Z</time>
      </trkpt>
      <trkpt lat="54.3675799" lon="14.7093505">
        <time>2026-07-16T04:26:01Z</time>
      </trkpt>
      <trkpt lat="54.3669688" lon="14.7133578">
        <time>2026-07-16T04:27:19Z</time>
      </trkpt>
      <trkpt lat="54.3666243" lon="14.7150865">
        <time>2026-07-16T04:27:53Z</time>
      </trkpt>
      <trkpt lat="54.3660575" lon="14.7172249">
        <time>2026-07-16T04:28:38Z</time>
      </trkpt>
      <trkpt lat="54.3657208" lon="14.7190369">
        <time>2026-07-16T04:29:14Z</time>
      </trkpt>
      <trkpt lat="54.3652872" lon="14.7209427">
        <time>2026-07-16T04:29:52Z</time>
      </trkpt>
      <trkpt lat="54.3648390" lon="14.7235105">
        <time>2026-07-16T04:30:42Z</time>
      </trkpt>
      <trkpt lat="54.3643597" lon="14.7257743">
        <time>2026-07-16T04:31:26Z</time>
      </trkpt>
      <trkpt lat="54.3637573" lon="14.7290392">
        <time>2026-07-16T04:32:30Z</time>
      </trkpt>
      <trkpt lat="54.3630649" lon="14.7314355">
        <time>2026-07-16T04:33:20Z</time>
      </trkpt>
      <trkpt lat="54.3626907" lon="14.7330139">
        <time>2026-07-16T04:33:52Z</time>
      </trkpt>
      <trkpt lat="54.3624967" lon="14.7348145">
        <time>2026-07-16T04:34:26Z</time>
      </trkpt>
      <trkpt lat="54.3620577" lon="14.7380268">
        <time>2026-07-16T04:35:29Z</time>
      </trkpt>
      <trkpt lat="54.3613502" lon="14.7417362">
        <time>2026-07-16T04:36:41Z</time>
      </trkpt>
      <trkpt lat="54.3608238" lon="14.7438582">
        <time>2026-07-16T04:37:23Z</time>
      </trkpt>
      <trkpt lat="54.3604330" lon="14.7459800">
        <time>2026-07-16T04:38:05Z</time>
      </trkpt>
      <trkpt lat="54.3600606" lon="14.7475922">
        <time>2026-07-16T04:38:37Z</time>
      </trkpt>
      <trkpt lat="54.3596775" lon="14.7507705">
        <time>2026-07-16T04:39:37Z</time>
      </trkpt>
      <trkpt lat="54.3588128" lon="14.7557302">
        <time>2026-07-16T04:41:13Z</time>
      </trkpt>
      <trkpt lat="54.3581645" lon="14.7581342">
        <time>2026-07-16T04:42:04Z</time>
      </trkpt>
      <trkpt lat="54.3577977" lon="14.7597985">
        <time>2026-07-16T04:42:38Z</time>
      </trkpt>
      <trkpt lat="54.3569323" lon="14.7632839">
        <time>2026-07-16T04:43:48Z</time>
      </trkpt>
      <trkpt lat="54.3564877" lon="14.7659007">
        <time>2026-07-16T04:44:38Z</time>
      </trkpt>
      <trkpt lat="54.3560513" lon="14.7676302">
        <time>2026-07-16T04:45:14Z</time>
      </trkpt>
      <trkpt lat="54.3557522" lon="14.7699708">
        <time>2026-07-16T04:45:58Z</time>
      </trkpt>
      <trkpt lat="54.3551655" lon="14.7726722">
        <time>2026-07-16T04:46:52Z</time>
      </trkpt>
      <trkpt lat="54.3547698" lon="14.7761430">
        <time>2026-07-16T04:47:56Z</time>
      </trkpt>
      <trkpt lat="54.3543897" lon="14.7780802">
        <time>2026-07-16T04:48:34Z</time>
      </trkpt>
      <trkpt lat="54.3537722" lon="14.7817652">
        <time>2026-07-16T04:49:44Z</time>
      </trkpt>
      <trkpt lat="54.3535930" lon="14.7830610">
        <time>2026-07-16T04:50:08Z</time>
      </trkpt>
      <trkpt lat="54.3532710" lon="14.7846694">
        <time>2026-07-16T04:50:40Z</time>
      </trkpt>
      <trkpt lat="54.3529835" lon="14.7864010">
        <time>2026-07-16T04:51:14Z</time>
      </trkpt>
      <trkpt lat="54.3526146" lon="14.7881647">
        <time>2026-07-16T04:51:48Z</time>
      </trkpt>
      <trkpt lat="54.3523850" lon="14.7896479">
        <time>2026-07-16T04:52:16Z</time>
      </trkpt>
      <trkpt lat="54.3522098" lon="14.7910377">
        <time>2026-07-16T04:52:42Z</time>
      </trkpt>
      <trkpt lat="54.3520629" lon="14.7926659">
        <time>2026-07-16T04:53:13Z</time>
      </trkpt>
      <trkpt lat="54.3517345" lon="14.7947153">
        <time>2026-07-16T04:53:53Z</time>
      </trkpt>
      <trkpt lat="54.3512157" lon="14.7967787">
        <time>2026-07-16T04:54:35Z</time>
      </trkpt>
      <trkpt lat="54.3504925" lon="14.7986150">
        <time>2026-07-16T04:55:17Z</time>
      </trkpt>
      <trkpt lat="54.3499420" lon="14.8004543">
        <time>2026-07-16T04:55:57Z</time>
      </trkpt>
      <trkpt lat="54.3496729" lon="14.8021100">
        <time>2026-07-16T04:56:29Z</time>
      </trkpt>
      <trkpt lat="54.3494351" lon="14.8033072">
        <time>2026-07-16T04:56:53Z</time>
      </trkpt>
      <trkpt lat="54.3489845" lon="14.8048319">
        <time>2026-07-16T04:57:25Z</time>
      </trkpt>
      <trkpt lat="54.3483303" lon="14.8062855">
        <time>2026-07-16T04:57:59Z</time>
      </trkpt>
      <trkpt lat="54.3479831" lon="14.8079753">
        <time>2026-07-16T04:58:33Z</time>
      </trkpt>
      <trkpt lat="54.3477117" lon="14.8103513">
        <time>2026-07-16T04:59:19Z</time>
      </trkpt>
      <trkpt lat="54.3474749" lon="14.8118980">
        <time>2026-07-16T04:59:49Z</time>
      </trkpt>
      <trkpt lat="54.3472620" lon="14.8141509">
        <time>2026-07-16T05:00:31Z</time>
      </trkpt>
      <trkpt lat="54.3465897" lon="14.8172995">
        <time>2026-07-16T05:01:35Z</time>
      </trkpt>
      <trkpt lat="54.3462126" lon="14.8186315">
        <time>2026-07-16T05:02:03Z</time>
      </trkpt>
      <trkpt lat="54.3457313" lon="14.8210023">
        <time>2026-07-16T05:02:51Z</time>
      </trkpt>
      <trkpt lat="54.3451675" lon="14.8232652">
        <time>2026-07-16T05:03:37Z</time>
      </trkpt>
      <trkpt lat="54.3442517" lon="14.8275279">
        <time>2026-07-16T05:05:04Z</time>
      </trkpt>
      <trkpt lat="54.3436806" lon="14.8302687">
        <time>2026-07-16T05:06:00Z</time>
      </trkpt>
      <trkpt lat="54.3432665" lon="14.8319053">
        <time>2026-07-16T05:06:32Z</time>
      </trkpt>
      <trkpt lat="54.3429825" lon="14.8336025">
        <time>2026-07-16T05:07:06Z</time>
      </trkpt>
      <trkpt lat="54.3428783" lon="14.8350795">
        <time>2026-07-16T05:07:34Z</time>
      </trkpt>
      <trkpt lat="54.3419627" lon="14.8398519">
        <time>2026-07-16T05:09:10Z</time>
      </trkpt>
      <trkpt lat="54.3416105" lon="14.8418784">
        <time>2026-07-16T05:09:50Z</time>
      </trkpt>
      <trkpt lat="54.3410609" lon="14.8444441">
        <time>2026-07-16T05:10:42Z</time>
      </trkpt>
      <trkpt lat="54.3407440" lon="14.8457003">
        <time>2026-07-16T05:11:08Z</time>
      </trkpt>
      <trkpt lat="54.3402205" lon="14.8489310">
        <time>2026-07-16T05:12:12Z</time>
      </trkpt>
      <trkpt lat="54.3400048" lon="14.8501407">
        <time>2026-07-16T05:12:37Z</time>
      </trkpt>
      <trkpt lat="54.3395364" lon="14.8518602">
        <time>2026-07-16T05:13:13Z</time>
      </trkpt>
      <trkpt lat="54.3389216" lon="14.8552296">
        <time>2026-07-16T05:14:21Z</time>
      </trkpt>
      <trkpt lat="54.3382372" lon="14.8577090">
        <time>2026-07-16T05:15:13Z</time>
      </trkpt>
      <trkpt lat="54.3373903" lon="14.8611087">
        <time>2026-07-16T05:16:23Z</time>
      </trkpt>
      <trkpt lat="54.3371160" lon="14.8627545">
        <time>2026-07-16T05:16:57Z</time>
      </trkpt>
      <trkpt lat="54.3358778" lon="14.8675148">
        <time>2026-07-16T05:18:37Z</time>
      </trkpt>
      <trkpt lat="54.3355537" lon="14.8694433">
        <time>2026-07-16T05:19:15Z</time>
      </trkpt>
      <trkpt lat="54.3354860" lon="14.8713330">
        <time>2026-07-16T05:19:51Z</time>
      </trkpt>
      <trkpt lat="54.3353659" lon="14.8726544">
        <time>2026-07-16T05:20:17Z</time>
      </trkpt>
      <trkpt lat="54.3347693" lon="14.8754410">
        <time>2026-07-16T05:21:15Z</time>
      </trkpt>
      <trkpt lat="54.3344843" lon="14.8766153">
        <time>2026-07-16T05:21:39Z</time>
      </trkpt>
      <trkpt lat="54.3340655" lon="14.8778737">
        <time>2026-07-16T05:22:07Z</time>
      </trkpt>
      <trkpt lat="54.3333468" lon="14.8793481">
        <time>2026-07-16T05:22:45Z</time>
      </trkpt>
      <trkpt lat="54.3328976" lon="14.8806690">
        <time>2026-07-16T05:23:15Z</time>
      </trkpt>
      <trkpt lat="54.3323177" lon="14.8830219">
        <time>2026-07-16T05:24:05Z</time>
      </trkpt>
      <trkpt lat="54.3314455" lon="14.8869825">
        <time>2026-07-16T05:25:27Z</time>
      </trkpt>
      <trkpt lat="54.3309910" lon="14.8898987">
        <time>2026-07-16T05:26:26Z</time>
      </trkpt>
      <trkpt lat="54.3294225" lon="14.8971880">
        <time>2026-07-16T05:28:56Z</time>
      </trkpt>
      <trkpt lat="54.3290438" lon="14.8998231">
        <time>2026-07-16T05:29:48Z</time>
      </trkpt>
      <trkpt lat="54.3286930" lon="14.9014402">
        <time>2026-07-16T05:30:22Z</time>
      </trkpt>
      <trkpt lat="54.3284573" lon="14.9034604">
        <time>2026-07-16T05:31:02Z</time>
      </trkpt>
      <trkpt lat="54.3280725" lon="14.9056277">
        <time>2026-07-16T05:31:46Z</time>
      </trkpt>
      <trkpt lat="54.3274537" lon="14.9071583">
        <time>2026-07-16T05:32:22Z</time>
      </trkpt>
      <trkpt lat="54.3270409" lon="14.9087357">
        <time>2026-07-16T05:32:56Z</time>
      </trkpt>
      <trkpt lat="54.3270457" lon="14.9116310">
        <time>2026-07-16T05:33:52Z</time>
      </trkpt>
      <trkpt lat="54.3269745" lon="14.9129838">
        <time>2026-07-16T05:34:18Z</time>
      </trkpt>
      <trkpt lat="54.3267536" lon="14.9145093">
        <time>2026-07-16T05:34:48Z</time>
      </trkpt>
      <trkpt lat="54.3261660" lon="14.9173718">
        <time>2026-07-16T05:35:46Z</time>
      </trkpt>
      <trkpt lat="54.3257372" lon="14.9189887">
        <time>2026-07-16T05:36:21Z</time>
      </trkpt>
      <trkpt lat="54.3247728" lon="14.9213757">
        <time>2026-07-16T05:37:17Z</time>
      </trkpt>
      <trkpt lat="54.3233350" lon="14.9259688">
        <time>2026-07-16T05:38:57Z</time>
      </trkpt>
      <trkpt lat="54.3222533" lon="14.9303835">
        <time>2026-07-16T05:40:29Z</time>
      </trkpt>
      <trkpt lat="54.3218619" lon="14.9317325">
        <time>2026-07-16T05:40:57Z</time>
      </trkpt>
      <trkpt lat="54.3207967" lon="14.9362277">
        <time>2026-07-16T05:42:29Z</time>
      </trkpt>
      <trkpt lat="54.3201010" lon="14.9384085">
        <time>2026-07-16T05:43:17Z</time>
      </trkpt>
      <trkpt lat="54.3195095" lon="14.9409347">
        <time>2026-07-16T05:44:09Z</time>
      </trkpt>
      <trkpt lat="54.3190453" lon="14.9428753">
        <time>2026-07-16T05:44:50Z</time>
      </trkpt>
      <trkpt lat="54.3185925" lon="14.9443604">
        <time>2026-07-16T05:45:22Z</time>
      </trkpt>
      <trkpt lat="54.3177155" lon="14.9479077">
        <time>2026-07-16T05:46:36Z</time>
      </trkpt>
      <trkpt lat="54.3173335" lon="14.9499283">
        <time>2026-07-16T05:47:16Z</time>
      </trkpt>
      <trkpt lat="54.3168525" lon="14.9520703">
        <time>2026-07-16T05:48:00Z</time>
      </trkpt>
      <trkpt lat="54.3162073" lon="14.9542315">
        <time>2026-07-16T05:48:46Z</time>
      </trkpt>
      <trkpt lat="54.3155215" lon="14.9559929">
        <time>2026-07-16T05:49:26Z</time>
      </trkpt>
      <trkpt lat="54.3151950" lon="14.9571793">
        <time>2026-07-16T05:49:52Z</time>
      </trkpt>
      <trkpt lat="54.3149700" lon="14.9595479">
        <time>2026-07-16T05:50:38Z</time>
      </trkpt>
      <trkpt lat="54.3147928" lon="14.9608505">
        <time>2026-07-16T05:51:05Z</time>
      </trkpt>
      <trkpt lat="54.3144078" lon="14.9622826">
        <time>2026-07-16T05:51:35Z</time>
      </trkpt>
      <trkpt lat="54.3141440" lon="14.9639820">
        <time>2026-07-16T05:52:09Z</time>
      </trkpt>
      <trkpt lat="54.3141195" lon="14.9656955">
        <time>2026-07-16T05:52:41Z</time>
      </trkpt>
      <trkpt lat="54.3138942" lon="14.9673674">
        <time>2026-07-16T05:53:15Z</time>
      </trkpt>
      <trkpt lat="54.3134794" lon="14.9688182">
        <time>2026-07-16T05:53:45Z</time>
      </trkpt>
      <trkpt lat="54.3130764" lon="14.9705922">
        <time>2026-07-16T05:54:21Z</time>
      </trkpt>
      <trkpt lat="54.3125308" lon="14.9723508">
        <time>2026-07-16T05:54:59Z</time>
      </trkpt>
      <trkpt lat="54.3119775" lon="14.9743174">
        <time>2026-07-16T05:55:41Z</time>
      </trkpt>
      <trkpt lat="54.3116003" lon="14.9762095">
        <time>2026-07-16T05:56:19Z</time>
      </trkpt>
      <trkpt lat="54.3114025" lon="14.9779390">
        <time>2026-07-16T05:56:53Z</time>
      </trkpt>
      <trkpt lat="54.3110885" lon="14.9797757">
        <time>2026-07-16T05:57:29Z</time>
      </trkpt>
      <trkpt lat="54.3106882" lon="14.9811980">
        <time>2026-07-16T05:57:59Z</time>
      </trkpt>
      <trkpt lat="54.3104110" lon="14.9823844">
        <time>2026-07-16T05:58:23Z</time>
      </trkpt>
      <trkpt lat="54.3099935" lon="14.9846963">
        <time>2026-07-16T05:59:09Z</time>
      </trkpt>
      <trkpt lat="54.3093769" lon="14.9870910">
        <time>2026-07-16T06:00:00Z</time>
      </trkpt>
      <trkpt lat="54.3089172" lon="14.9882293">
        <time>2026-07-16T06:00:26Z</time>
      </trkpt>
      <trkpt lat="54.3083233" lon="14.9892088">
        <time>2026-07-16T06:00:52Z</time>
      </trkpt>
      <trkpt lat="54.3078762" lon="14.9903065">
        <time>2026-07-16T06:01:18Z</time>
      </trkpt>
      <trkpt lat="54.3076485" lon="14.9921902">
        <time>2026-07-16T06:01:56Z</time>
      </trkpt>
      <trkpt lat="54.3074517" lon="14.9934404">
        <time>2026-07-16T06:02:20Z</time>
      </trkpt>
      <trkpt lat="54.3068162" lon="14.9959517">
        <time>2026-07-16T06:03:12Z</time>
      </trkpt>
      <trkpt lat="54.3065205" lon="14.9974662">
        <time>2026-07-16T06:03:52Z</time>
      </trkpt>
      <trkpt lat="54.3062920" lon="14.9994089">
        <time>2026-07-16T06:05:02Z</time>
      </trkpt>
      <trkpt lat="54.3059082" lon="15.0013291">
        <time>2026-07-16T06:06:14Z</time>
      </trkpt>
      <trkpt lat="54.3053035" lon="15.0029027">
        <time>2026-07-16T06:07:28Z</time>
      </trkpt>
      <trkpt lat="54.3048985" lon="15.0043896">
        <time>2026-07-16T06:08:56Z</time>
      </trkpt>
      <trkpt lat="54.3048535" lon="15.0063306">
        <time>2026-07-16T06:10:34Z</time>
      </trkpt>
      <trkpt lat="54.3046170" lon="15.0075934">
        <time>2026-07-16T06:11:39Z</time>
      </trkpt>
      <trkpt lat="54.3039018" lon="15.0093287">
        <time>2026-07-16T06:13:11Z</time>
      </trkpt>
      <trkpt lat="54.3033322" lon="15.0118369">
        <time>2026-07-16T06:15:11Z</time>
      </trkpt>
      <trkpt lat="54.3031907" lon="15.0130518">
        <time>2026-07-16T06:15:47Z</time>
      </trkpt>
      <trkpt lat="54.3033612" lon="15.0143428">
        <time>2026-07-16T06:16:17Z</time>
      </trkpt>
      <trkpt lat="54.3031315" lon="15.0159300">
        <time>2026-07-16T06:16:51Z</time>
      </trkpt>
      <trkpt lat="54.3022672" lon="15.0185713">
        <time>2026-07-16T06:17:51Z</time>
      </trkpt>
      <trkpt lat="54.3013343" lon="15.0212726">
        <time>2026-07-16T06:18:53Z</time>
      </trkpt>
      <trkpt lat="54.3006074" lon="15.0245010">
        <time>2026-07-16T06:20:01Z</time>
      </trkpt>
      <trkpt lat="54.2999872" lon="15.0270453">
        <time>2026-07-16T06:20:57Z</time>
      </trkpt>
      <trkpt lat="54.2992517" lon="15.0293612">
        <time>2026-07-16T06:21:49Z</time>
      </trkpt>
      <trkpt lat="54.2988342" lon="15.0312691">
        <time>2026-07-16T06:22:29Z</time>
      </trkpt>
      <trkpt lat="54.2986183" lon="15.0335613">
        <time>2026-07-16T06:23:15Z</time>
      </trkpt>
      <trkpt lat="54.2982505" lon="15.0353649">
        <time>2026-07-16T06:23:53Z</time>
      </trkpt>
      <trkpt lat="54.2976445" lon="15.0369294">
        <time>2026-07-16T06:24:29Z</time>
      </trkpt>
      <trkpt lat="54.2969692" lon="15.0388309">
        <time>2026-07-16T06:25:13Z</time>
      </trkpt>
      <trkpt lat="54.2967084" lon="15.0401716">
        <time>2026-07-16T06:25:41Z</time>
      </trkpt>
      <trkpt lat="54.2966698" lon="15.0419845">
        <time>2026-07-16T06:26:17Z</time>
      </trkpt>
      <trkpt lat="54.2960634" lon="15.0461750">
        <time>2026-07-16T06:27:42Z</time>
      </trkpt>
      <trkpt lat="54.2943302" lon="15.0529065">
        <time>2026-07-16T06:30:04Z</time>
      </trkpt>
      <trkpt lat="54.2938241" lon="15.0552045">
        <time>2026-07-16T06:30:52Z</time>
      </trkpt>
      <trkpt lat="54.2935476" lon="15.0568205">
        <time>2026-07-16T06:31:24Z</time>
      </trkpt>
      <trkpt lat="54.2932227" lon="15.0582682">
        <time>2026-07-16T06:31:54Z</time>
      </trkpt>
      <trkpt lat="54.2928657" lon="15.0594908">
        <time>2026-07-16T06:32:20Z</time>
      </trkpt>
      <trkpt lat="54.2922377" lon="15.0622865">
        <time>2026-07-16T06:33:18Z</time>
      </trkpt>
      <trkpt lat="54.2917288" lon="15.0639705">
        <time>2026-07-16T06:33:54Z</time>
      </trkpt>
      <trkpt lat="54.2914195" lon="15.0652093">
        <time>2026-07-16T06:34:20Z</time>
      </trkpt>
      <trkpt lat="54.2911485" lon="15.0669174">
        <time>2026-07-16T06:34:54Z</time>
      </trkpt>
      <trkpt lat="54.2906134" lon="15.0692017">
        <time>2026-07-16T06:35:42Z</time>
      </trkpt>
      <trkpt lat="54.2901971" lon="15.0712786">
        <time>2026-07-16T06:36:24Z</time>
      </trkpt>
      <trkpt lat="54.2894781" lon="15.0741038">
        <time>2026-07-16T06:37:22Z</time>
      </trkpt>
      <trkpt lat="54.2890243" lon="15.0756775">
        <time>2026-07-16T06:37:56Z</time>
      </trkpt>
      <trkpt lat="54.2882932" lon="15.0787090">
        <time>2026-07-16T06:39:00Z</time>
      </trkpt>
      <trkpt lat="54.2878846" lon="15.0807794">
        <time>2026-07-16T06:39:42Z</time>
      </trkpt>
      <trkpt lat="54.2873990" lon="15.0827045">
        <time>2026-07-16T06:40:22Z</time>
      </trkpt>
      <trkpt lat="54.2869496" lon="15.0856534">
        <time>2026-07-16T06:41:23Z</time>
      </trkpt>
      <trkpt lat="54.2858338" lon="15.0899705">
        <time>2026-07-16T06:42:53Z</time>
      </trkpt>
      <trkpt lat="54.2854795" lon="15.0910692">
        <time>2026-07-16T06:43:17Z</time>
      </trkpt>
      <trkpt lat="54.2851780" lon="15.0932111">
        <time>2026-07-16T06:43:59Z</time>
      </trkpt>
      <trkpt lat="54.2847046" lon="15.0964472">
        <time>2026-07-16T06:45:03Z</time>
      </trkpt>
      <trkpt lat="54.2844372" lon="15.0978519">
        <time>2026-07-16T06:45:31Z</time>
      </trkpt>
      <trkpt lat="54.2841472" lon="15.1019452">
        <time>2026-07-16T06:46:51Z</time>
      </trkpt>
      <trkpt lat="54.2838399" lon="15.1041128">
        <time>2026-07-16T06:47:33Z</time>
      </trkpt>
      <trkpt lat="54.2827196" lon="15.1086393">
        <time>2026-07-16T06:49:07Z</time>
      </trkpt>
      <trkpt lat="54.2819505" lon="15.1122882">
        <time>2026-07-16T06:50:22Z</time>
      </trkpt>
      <trkpt lat="54.2815224" lon="15.1146688">
        <time>2026-07-16T06:51:10Z</time>
      </trkpt>
      <trkpt lat="54.2811492" lon="15.1164503">
        <time>2026-07-16T06:51:46Z</time>
      </trkpt>
      <trkpt lat="54.2808435" lon="15.1175939">
        <time>2026-07-16T06:52:10Z</time>
      </trkpt>
      <trkpt lat="54.2805710" lon="15.1194037">
        <time>2026-07-16T06:52:46Z</time>
      </trkpt>
      <trkpt lat="54.2805068" lon="15.1210832">
        <time>2026-07-16T06:53:18Z</time>
      </trkpt>
      <trkpt lat="54.2802623" lon="15.1234253">
        <time>2026-07-16T06:54:04Z</time>
      </trkpt>
      <trkpt lat="54.2801134" lon="15.1255568">
        <time>2026-07-16T06:54:44Z</time>
      </trkpt>
      <trkpt lat="54.2796738" lon="15.1280797">
        <time>2026-07-16T06:55:34Z</time>
      </trkpt>
      <trkpt lat="54.2791640" lon="15.1314038">
        <time>2026-07-16T06:56:40Z</time>
      </trkpt>
      <trkpt lat="54.2788526" lon="15.1326998">
        <time>2026-07-16T06:57:06Z</time>
      </trkpt>
      <trkpt lat="54.2783346" lon="15.1366855">
        <time>2026-07-16T06:58:24Z</time>
      </trkpt>
      <trkpt lat="54.2780792" lon="15.1382300">
        <time>2026-07-16T06:58:54Z</time>
      </trkpt>
      <trkpt lat="54.2773240" lon="15.1400481">
        <time>2026-07-16T06:59:36Z</time>
      </trkpt>
      <trkpt lat="54.2768838" lon="15.1412258">
        <time>2026-07-16T07:00:02Z</time>
      </trkpt>
      <trkpt lat="54.2766508" lon="15.1424847">
        <time>2026-07-16T07:00:28Z</time>
      </trkpt>
      <trkpt lat="54.2767050" lon="15.1449850">
        <time>2026-07-16T07:01:16Z</time>
      </trkpt>
      <trkpt lat="54.2766992" lon="15.1466445">
        <time>2026-07-16T07:01:48Z</time>
      </trkpt>
      <trkpt lat="54.2764397" lon="15.1482694">
        <time>2026-07-16T07:02:20Z</time>
      </trkpt>
      <trkpt lat="54.2760318" lon="15.1515285">
        <time>2026-07-16T07:03:23Z</time>
      </trkpt>
      <trkpt lat="54.2757277" lon="15.1530398">
        <time>2026-07-16T07:03:53Z</time>
      </trkpt>
      <trkpt lat="54.2753623" lon="15.1544992">
        <time>2026-07-16T07:04:23Z</time>
      </trkpt>
      <trkpt lat="54.2747735" lon="15.1576520">
        <time>2026-07-16T07:05:25Z</time>
      </trkpt>
      <trkpt lat="54.2745175" lon="15.1589129">
        <time>2026-07-16T07:05:49Z</time>
      </trkpt>
      <trkpt lat="54.2741653" lon="15.1601495">
        <time>2026-07-16T07:06:15Z</time>
      </trkpt>
      <trkpt lat="54.2737512" lon="15.1630777">
        <time>2026-07-16T07:07:13Z</time>
      </trkpt>
      <trkpt lat="54.2728952" lon="15.1666312">
        <time>2026-07-16T07:08:25Z</time>
      </trkpt>
      <trkpt lat="54.2726342" lon="15.1677898">
        <time>2026-07-16T07:08:49Z</time>
      </trkpt>
      <trkpt lat="54.2721428" lon="15.1706123">
        <time>2026-07-16T07:09:46Z</time>
      </trkpt>
      <trkpt lat="54.2718195" lon="15.1717617">
        <time>2026-07-16T07:10:10Z</time>
      </trkpt>
      <trkpt lat="54.2710866" lon="15.1734374">
        <time>2026-07-16T07:10:48Z</time>
      </trkpt>
      <trkpt lat="54.2706790" lon="15.1754853">
        <time>2026-07-16T07:11:30Z</time>
      </trkpt>
      <trkpt lat="54.2701837" lon="15.1787351">
        <time>2026-07-16T07:12:34Z</time>
      </trkpt>
      <trkpt lat="54.2699781" lon="15.1805999">
        <time>2026-07-16T07:13:10Z</time>
      </trkpt>
      <trkpt lat="54.2696923" lon="15.1823267">
        <time>2026-07-16T07:13:44Z</time>
      </trkpt>
      <trkpt lat="54.2693992" lon="15.1838509">
        <time>2026-07-16T07:14:14Z</time>
      </trkpt>
      <trkpt lat="54.2690735" lon="15.1850217">
        <time>2026-07-16T07:14:38Z</time>
      </trkpt>
      <trkpt lat="54.2687580" lon="15.1868068">
        <time>2026-07-16T07:15:14Z</time>
      </trkpt>
      <trkpt lat="54.2686949" lon="15.1880344">
        <time>2026-07-16T07:15:38Z</time>
      </trkpt>
      <trkpt lat="54.2687539" lon="15.1893985">
        <time>2026-07-16T07:16:04Z</time>
      </trkpt>
      <trkpt lat="54.2686430" lon="15.1907420">
        <time>2026-07-16T07:16:30Z</time>
      </trkpt>
      <trkpt lat="54.2682017" lon="15.1918749">
        <time>2026-07-16T07:16:56Z</time>
      </trkpt>
      <trkpt lat="54.2673424" lon="15.1925917">
        <time>2026-07-16T07:17:26Z</time>
      </trkpt>
      <trkpt lat="54.2668814" lon="15.1937963">
        <time>2026-07-16T07:17:54Z</time>
      </trkpt>
      <trkpt lat="54.2666158" lon="15.1952000">
        <time>2026-07-16T07:18:22Z</time>
      </trkpt>
      <trkpt lat="54.2662111" lon="15.1983385">
        <time>2026-07-16T07:19:24Z</time>
      </trkpt>
      <trkpt lat="54.2658676" lon="15.2000694">
        <time>2026-07-16T07:19:58Z</time>
      </trkpt>
      <trkpt lat="54.2654915" lon="15.2012870">
        <time>2026-07-16T07:20:24Z</time>
      </trkpt>
      <trkpt lat="54.2649792" lon="15.2036768">
        <time>2026-07-16T07:21:12Z</time>
      </trkpt>
      <trkpt lat="54.2643628" lon="15.2075163">
        <time>2026-07-16T07:22:28Z</time>
      </trkpt>
      <trkpt lat="54.2640713" lon="15.2102870">
        <time>2026-07-16T07:23:23Z</time>
      </trkpt>
      <trkpt lat="54.2637205" lon="15.2121140">
        <time>2026-07-16T07:23:59Z</time>
      </trkpt>
      <trkpt lat="54.2631852" lon="15.2135510">
        <time>2026-07-16T07:24:29Z</time>
      </trkpt>
      <trkpt lat="54.2627915" lon="15.2149715">
        <time>2026-07-16T07:24:59Z</time>
      </trkpt>
      <trkpt lat="54.2622618" lon="15.2174535">
        <time>2026-07-16T07:25:49Z</time>
      </trkpt>
      <trkpt lat="54.2617925" lon="15.2192041">
        <time>2026-07-16T07:26:25Z</time>
      </trkpt>
      <trkpt lat="54.2612889" lon="15.2221533">
        <time>2026-07-16T07:27:23Z</time>
      </trkpt>
      <trkpt lat="54.2609608" lon="15.2236330">
        <time>2026-07-16T07:27:53Z</time>
      </trkpt>
      <trkpt lat="54.2606840" lon="15.2252588">
        <time>2026-07-16T07:28:25Z</time>
      </trkpt>
      <trkpt lat="54.2603725" lon="15.2266588">
        <time>2026-07-16T07:28:54Z</time>
      </trkpt>
      <trkpt lat="54.2599070" lon="15.2295625">
        <time>2026-07-16T07:29:50Z</time>
      </trkpt>
      <trkpt lat="54.2595182" lon="15.2311177">
        <time>2026-07-16T07:30:22Z</time>
      </trkpt>
      <trkpt lat="54.2592661" lon="15.2324097">
        <time>2026-07-16T07:30:48Z</time>
      </trkpt>
      <trkpt lat="54.2590014" lon="15.2343717">
        <time>2026-07-16T07:31:26Z</time>
      </trkpt>
      <trkpt lat="54.2584532" lon="15.2366144">
        <time>2026-07-16T07:32:12Z</time>
      </trkpt>
      <trkpt lat="54.2577121" lon="15.2397887">
        <time>2026-07-16T07:33:16Z</time>
      </trkpt>
      <trkpt lat="54.2573948" lon="15.2417210">
        <time>2026-07-16T07:33:54Z</time>
      </trkpt>
      <trkpt lat="54.2571762" lon="15.2437967">
        <time>2026-07-16T07:34:34Z</time>
      </trkpt>
      <trkpt lat="54.2568439" lon="15.2452787">
        <time>2026-07-16T07:35:04Z</time>
      </trkpt>
      <trkpt lat="54.2563705" lon="15.2480953">
        <time>2026-07-16T07:36:00Z</time>
      </trkpt>
      <trkpt lat="54.2562060" lon="15.2496638">
        <time>2026-07-16T07:36:30Z</time>
      </trkpt>
      <trkpt lat="54.2555266" lon="15.2523371">
        <time>2026-07-16T07:37:24Z</time>
      </trkpt>
      <trkpt lat="54.2546510" lon="15.2557940">
        <time>2026-07-16T07:38:34Z</time>
      </trkpt>
      <trkpt lat="54.2537937" lon="15.2598363">
        <time>2026-07-16T07:39:55Z</time>
      </trkpt>
      <trkpt lat="54.2536084" lon="15.2614947">
        <time>2026-07-16T07:40:27Z</time>
      </trkpt>
      <trkpt lat="54.2532178" lon="15.2632245">
        <time>2026-07-16T07:41:01Z</time>
      </trkpt>
      <trkpt lat="54.2525898" lon="15.2650025">
        <time>2026-07-16T07:41:39Z</time>
      </trkpt>
      <trkpt lat="54.2522078" lon="15.2670071">
        <time>2026-07-16T07:42:17Z</time>
      </trkpt>
      <trkpt lat="54.2514470" lon="15.2700818">
        <time>2026-07-16T07:43:19Z</time>
      </trkpt>
      <trkpt lat="54.2508604" lon="15.2723797">
        <time>2026-07-16T07:44:05Z</time>
      </trkpt>
      <trkpt lat="54.2503491" lon="15.2752586">
        <time>2026-07-16T07:45:01Z</time>
      </trkpt>
      <trkpt lat="54.2497613" lon="15.2772150">
        <time>2026-07-16T07:45:41Z</time>
      </trkpt>
      <trkpt lat="54.2484558" lon="15.2818092">
        <time>2026-07-16T07:47:15Z</time>
      </trkpt>
      <trkpt lat="54.2477301" lon="15.2856367">
        <time>2026-07-16T07:48:32Z</time>
      </trkpt>
      <trkpt lat="54.2473947" lon="15.2868076">
        <time>2026-07-16T07:48:56Z</time>
      </trkpt>
      <trkpt lat="54.2470863" lon="15.2881062">
        <time>2026-07-16T07:49:22Z</time>
      </trkpt>
      <trkpt lat="54.2465177" lon="15.2913887">
        <time>2026-07-16T07:50:26Z</time>
      </trkpt>
      <trkpt lat="54.2460012" lon="15.2935730">
        <time>2026-07-16T07:51:08Z</time>
      </trkpt>
      <trkpt lat="54.2450015" lon="15.2971046">
        <time>2026-07-16T07:52:20Z</time>
      </trkpt>
      <trkpt lat="54.2447546" lon="15.2991730">
        <time>2026-07-16T07:53:00Z</time>
      </trkpt>
      <trkpt lat="54.2446893" lon="15.3013077">
        <time>2026-07-16T07:53:41Z</time>
      </trkpt>
      <trkpt lat="54.2444890" lon="15.3033302">
        <time>2026-07-16T07:54:19Z</time>
      </trkpt>
      <trkpt lat="54.2441877" lon="15.3044615">
        <time>2026-07-16T07:54:41Z</time>
      </trkpt>
      <trkpt lat="54.2437196" lon="15.3056525">
        <time>2026-07-16T07:55:09Z</time>
      </trkpt>
      <trkpt lat="54.2432192" lon="15.3077875">
        <time>2026-07-16T07:55:51Z</time>
      </trkpt>
      <trkpt lat="54.2429087" lon="15.3101930">
        <time>2026-07-16T07:56:37Z</time>
      </trkpt>
      <trkpt lat="54.2422155" lon="15.3125801">
        <time>2026-07-16T07:57:27Z</time>
      </trkpt>
      <trkpt lat="54.2418925" lon="15.3137450">
        <time>2026-07-16T07:57:51Z</time>
      </trkpt>
      <trkpt lat="54.2416766" lon="15.3149698">
        <time>2026-07-16T07:58:15Z</time>
      </trkpt>
      <trkpt lat="54.2413840" lon="15.3168070">
        <time>2026-07-16T07:58:52Z</time>
      </trkpt>
      <trkpt lat="54.2410905" lon="15.3199475">
        <time>2026-07-16T07:59:52Z</time>
      </trkpt>
      <trkpt lat="54.2406225" lon="15.3224142">
        <time>2026-07-16T08:00:40Z</time>
      </trkpt>
      <trkpt lat="54.2403818" lon="15.3239482">
        <time>2026-07-16T08:01:10Z</time>
      </trkpt>
      <trkpt lat="54.2398337" lon="15.3264512">
        <time>2026-07-16T08:02:00Z</time>
      </trkpt>
      <trkpt lat="54.2391802" lon="15.3297393">
        <time>2026-07-16T08:03:06Z</time>
      </trkpt>
      <trkpt lat="54.2387249" lon="15.3318998">
        <time>2026-07-16T08:03:50Z</time>
      </trkpt>
      <trkpt lat="54.2384057" lon="15.3335898">
        <time>2026-07-16T08:04:24Z</time>
      </trkpt>
      <trkpt lat="54.2376014" lon="15.3368858">
        <time>2026-07-16T08:05:32Z</time>
      </trkpt>
      <trkpt lat="54.2365940" lon="15.3406325">
        <time>2026-07-16T08:06:50Z</time>
      </trkpt>
      <trkpt lat="54.2360160" lon="15.3435140">
        <time>2026-07-16T08:07:48Z</time>
      </trkpt>
      <trkpt lat="54.2353869" lon="15.3460030">
        <time>2026-07-16T08:08:41Z</time>
      </trkpt>
      <trkpt lat="54.2345265" lon="15.3497097">
        <time>2026-07-16T08:09:57Z</time>
      </trkpt>
      <trkpt lat="54.2340172" lon="15.3512909">
        <time>2026-07-16T08:10:31Z</time>
      </trkpt>
      <trkpt lat="54.2334918" lon="15.3523305">
        <time>2026-07-16T08:10:57Z</time>
      </trkpt>
      <trkpt lat="54.2325527" lon="15.3555103">
        <time>2026-07-16T08:12:05Z</time>
      </trkpt>
      <trkpt lat="54.2314492" lon="15.3599290">
        <time>2026-07-16T08:13:37Z</time>
      </trkpt>
      <trkpt lat="54.2307967" lon="15.3628365">
        <time>2026-07-16T08:14:37Z</time>
      </trkpt>
      <trkpt lat="54.2304399" lon="15.3647492">
        <time>2026-07-16T08:15:15Z</time>
      </trkpt>
      <trkpt lat="54.2299733" lon="15.3665563">
        <time>2026-07-16T08:15:53Z</time>
      </trkpt>
      <trkpt lat="54.2295406" lon="15.3689111">
        <time>2026-07-16T08:16:41Z</time>
      </trkpt>
      <trkpt lat="54.2291567" lon="15.3704707">
        <time>2026-07-16T08:17:13Z</time>
      </trkpt>
      <trkpt lat="54.2289183" lon="15.3716465">
        <time>2026-07-16T08:17:37Z</time>
      </trkpt>
      <trkpt lat="54.2284525" lon="15.3736718">
        <time>2026-07-16T08:18:19Z</time>
      </trkpt>
      <trkpt lat="54.2282545" lon="15.3751788">
        <time>2026-07-16T08:18:50Z</time>
      </trkpt>
      <trkpt lat="54.2279173" lon="15.3769480">
        <time>2026-07-16T08:19:26Z</time>
      </trkpt>
      <trkpt lat="54.2275942" lon="15.3794742">
        <time>2026-07-16T08:20:16Z</time>
      </trkpt>
      <trkpt lat="54.2270680" lon="15.3819696">
        <time>2026-07-16T08:21:06Z</time>
      </trkpt>
      <trkpt lat="54.2265903" lon="15.3843352">
        <time>2026-07-16T08:21:54Z</time>
      </trkpt>
      <trkpt lat="54.2256959" lon="15.3884017">
        <time>2026-07-16T08:23:18Z</time>
      </trkpt>
      <trkpt lat="54.2251673" lon="15.3910593">
        <time>2026-07-16T08:24:12Z</time>
      </trkpt>
      <trkpt lat="54.2247498" lon="15.3939805">
        <time>2026-07-16T08:25:11Z</time>
      </trkpt>
      <trkpt lat="54.2242292" lon="15.3973345">
        <time>2026-07-16T08:26:17Z</time>
      </trkpt>
      <trkpt lat="54.2239495" lon="15.3988030">
        <time>2026-07-16T08:26:47Z</time>
      </trkpt>
      <trkpt lat="54.2236208" lon="15.3999471">
        <time>2026-07-16T08:27:11Z</time>
      </trkpt>
      <trkpt lat="54.2229427" lon="15.4031587">
        <time>2026-07-16T08:28:17Z</time>
      </trkpt>
      <trkpt lat="54.2224852" lon="15.4048963">
        <time>2026-07-16T08:28:53Z</time>
      </trkpt>
      <trkpt lat="54.2219980" lon="15.4063601">
        <time>2026-07-16T08:29:25Z</time>
      </trkpt>
      <trkpt lat="54.2213593" lon="15.4095648">
        <time>2026-07-16T08:30:31Z</time>
      </trkpt>
      <trkpt lat="54.2209318" lon="15.4112715">
        <time>2026-07-16T08:31:08Z</time>
      </trkpt>
      <trkpt lat="54.2201481" lon="15.4146620">
        <time>2026-07-16T08:32:18Z</time>
      </trkpt>
      <trkpt lat="54.2196972" lon="15.4169866">
        <time>2026-07-16T08:33:04Z</time>
      </trkpt>
      <trkpt lat="54.2191716" lon="15.4191753">
        <time>2026-07-16T08:33:50Z</time>
      </trkpt>
      <trkpt lat="54.2182252" lon="15.4238220">
        <time>2026-07-16T08:35:22Z</time>
      </trkpt>
      <trkpt lat="54.2174600" lon="15.4267924">
        <time>2026-07-16T08:36:22Z</time>
      </trkpt>
      <trkpt lat="54.2167725" lon="15.4298399">
        <time>2026-07-16T08:37:24Z</time>
      </trkpt>
      <trkpt lat="54.2164455" lon="15.4310622">
        <time>2026-07-16T08:37:50Z</time>
      </trkpt>
      <trkpt lat="54.2160470" lon="15.4331489">
        <time>2026-07-16T08:38:32Z</time>
      </trkpt>
      <trkpt lat="54.2154670" lon="15.4355573">
        <time>2026-07-16T08:39:22Z</time>
      </trkpt>
      <trkpt lat="54.2147505" lon="15.4395636">
        <time>2026-07-16T08:40:43Z</time>
      </trkpt>
      <trkpt lat="54.2145145" lon="15.4424532">
        <time>2026-07-16T08:41:39Z</time>
      </trkpt>
      <trkpt lat="54.2142637" lon="15.4437467">
        <time>2026-07-16T08:42:05Z</time>
      </trkpt>
      <trkpt lat="54.2136460" lon="15.4454041">
        <time>2026-07-16T08:42:43Z</time>
      </trkpt>
      <trkpt lat="54.2113528" lon="15.4537067">
        <time>2026-07-16T08:45:42Z</time>
      </trkpt>
      <trkpt lat="54.2108600" lon="15.4557102">
        <time>2026-07-16T08:46:24Z</time>
      </trkpt>
      <trkpt lat="54.2101904" lon="15.4582056">
        <time>2026-07-16T08:47:16Z</time>
      </trkpt>
      <trkpt lat="54.2096022" lon="15.4599345">
        <time>2026-07-16T08:47:54Z</time>
      </trkpt>
      <trkpt lat="54.2092606" lon="15.4611440">
        <time>2026-07-16T08:48:20Z</time>
      </trkpt>
      <trkpt lat="54.2088112" lon="15.4630430">
        <time>2026-07-16T08:49:00Z</time>
      </trkpt>
      <trkpt lat="54.2079796" lon="15.4659013">
        <time>2026-07-16T08:50:02Z</time>
      </trkpt>
      <trkpt lat="54.2074263" lon="15.4676152">
        <time>2026-07-16T08:50:40Z</time>
      </trkpt>
      <trkpt lat="54.2070911" lon="15.4688208">
        <time>2026-07-16T08:51:06Z</time>
      </trkpt>
      <trkpt lat="54.2065197" lon="15.4715093">
        <time>2026-07-16T08:52:02Z</time>
      </trkpt>
      <trkpt lat="54.2060804" lon="15.4733584">
        <time>2026-07-16T08:52:42Z</time>
      </trkpt>
      <trkpt lat="54.2055061" lon="15.4755503">
        <time>2026-07-16T08:53:30Z</time>
      </trkpt>
      <trkpt lat="54.2049102" lon="15.4774505">
        <time>2026-07-16T08:54:12Z</time>
      </trkpt>
      <trkpt lat="54.2043483" lon="15.4801108">
        <time>2026-07-16T08:55:08Z</time>
      </trkpt>
      <trkpt lat="54.2038605" lon="15.4820803">
        <time>2026-07-16T08:55:50Z</time>
      </trkpt>
      <trkpt lat="54.2028778" lon="15.4868278">
        <time>2026-07-16T08:57:29Z</time>
      </trkpt>
      <trkpt lat="54.2021406" lon="15.4895533">
        <time>2026-07-16T08:58:27Z</time>
      </trkpt>
      <trkpt lat="54.2013878" lon="15.4915644">
        <time>2026-07-16T08:59:13Z</time>
      </trkpt>
      <trkpt lat="54.2008340" lon="15.4934215">
        <time>2026-07-16T08:59:53Z</time>
      </trkpt>
      <trkpt lat="54.1995903" lon="15.4982118">
        <time>2026-07-16T09:01:33Z</time>
      </trkpt>
      <trkpt lat="54.1984980" lon="15.5017356">
        <time>2026-07-16T09:02:49Z</time>
      </trkpt>
      <trkpt lat="54.1979570" lon="15.5043772">
        <time>2026-07-16T09:03:41Z</time>
      </trkpt>
      <trkpt lat="54.1974988" lon="15.5057955">
        <time>2026-07-16T09:04:11Z</time>
      </trkpt>
      <trkpt lat="54.1968027" lon="15.5091612">
        <time>2026-07-16T09:05:17Z</time>
      </trkpt>
      <trkpt lat="54.1960375" lon="15.5123572">
        <time>2026-07-16T09:06:22Z</time>
      </trkpt>
      <trkpt lat="54.1956670" lon="15.5136632">
        <time>2026-07-16T09:06:48Z</time>
      </trkpt>
      <trkpt lat="54.1950344" lon="15.5162500">
        <time>2026-07-16T09:07:40Z</time>
      </trkpt>
      <trkpt lat="54.1946890" lon="15.5173924">
        <time>2026-07-16T09:08:04Z</time>
      </trkpt>
      <trkpt lat="54.1941687" lon="15.5193568">
        <time>2026-07-16T09:08:44Z</time>
      </trkpt>
      <trkpt lat="54.1933860" lon="15.5226927">
        <time>2026-07-16T09:09:50Z</time>
      </trkpt>
      <trkpt lat="54.1931344" lon="15.5239290">
        <time>2026-07-16T09:10:14Z</time>
      </trkpt>
      <trkpt lat="54.1928455" lon="15.5258418">
        <time>2026-07-16T09:10:50Z</time>
      </trkpt>
      <trkpt lat="54.1921870" lon="15.5294845">
        <time>2026-07-16T09:12:00Z</time>
      </trkpt>
      <trkpt lat="54.1917903" lon="15.5320225">
        <time>2026-07-16T09:12:49Z</time>
      </trkpt>
      <trkpt lat="54.1911622" lon="15.5361815">
        <time>2026-07-16T09:14:07Z</time>
      </trkpt>
      <trkpt lat="54.1904773" lon="15.5387668">
        <time>2026-07-16T09:14:57Z</time>
      </trkpt>
      <trkpt lat="54.1901950" lon="15.5405343">
        <time>2026-07-16T09:15:31Z</time>
      </trkpt>
      <trkpt lat="54.1899372" lon="15.5461150">
        <time>2026-07-16T09:17:11Z</time>
      </trkpt>
      <trkpt lat="54.1898466" lon="15.5474406">
        <time>2026-07-16T09:17:35Z</time>
      </trkpt>
      <trkpt lat="54.1897513" lon="15.5482295">
        <time>2026-07-16T09:17:51Z</time>
      </trkpt>
      <trkpt lat="54.1896555" lon="15.5486547">
        <time>2026-07-16T09:18:01Z</time>
      </trkpt>
      <trkpt lat="54.1894372" lon="15.5493263">
        <time>2026-07-16T09:18:19Z</time>
      </trkpt>
      <trkpt lat="54.1890836" lon="15.5501940">
        <time>2026-07-16T09:18:43Z</time>
      </trkpt>
      <trkpt lat="54.1887088" lon="15.5509325">
        <time>2026-07-16T09:19:05Z</time>
      </trkpt>
      <trkpt lat="54.1883098" lon="15.5515445">
        <time>2026-07-16T09:19:25Z</time>
      </trkpt>
      <trkpt lat="54.1878667" lon="15.5520379">
        <time>2026-07-16T09:19:45Z</time>
      </trkpt>
      <trkpt lat="54.1873296" lon="15.5524428">
        <time>2026-07-16T09:20:08Z</time>
      </trkpt>
      <trkpt lat="54.1868268" lon="15.5527265">
        <time>2026-07-16T09:20:28Z</time>
      </trkpt>
      <trkpt lat="54.1860737" lon="15.5529673">
        <time>2026-07-16T09:20:58Z</time>
      </trkpt>
      <trkpt lat="54.1856082" lon="15.5530550">
        <time>2026-07-16T09:21:16Z</time>
      </trkpt>
      <trkpt lat="54.1849275" lon="15.5530512">
        <time>2026-07-16T09:21:42Z</time>
      </trkpt>
      <trkpt lat="54.1841635" lon="15.5529878">
        <time>2026-07-16T09:22:10Z</time>
      </trkpt>
      <trkpt lat="54.1833967" lon="15.5527947">
        <time>2026-07-16T09:22:38Z</time>
      </trkpt>
      <trkpt lat="54.1828239" lon="15.5527350">
        <time>2026-07-16T09:23:00Z</time>
      </trkpt>
      <trkpt lat="54.1818668" lon="15.5528451">
        <time>2026-07-16T09:23:36Z</time>
      </trkpt>
      <trkpt lat="54.1815850" lon="15.5529190">
        <time>2026-07-16T09:23:46Z</time>
      </trkpt>
      <trkpt lat="54.1810240" lon="15.5532579">
        <time>2026-07-16T09:24:08Z</time>
      </trkpt>
      <trkpt lat="54.1801843" lon="15.5541535">
        <time>2026-07-16T09:24:52Z</time>
      </trkpt>
      <trkpt lat="54.1790310" lon="15.5557055">
        <time>2026-07-16T09:26:06Z</time>
      </trkpt>
      <trkpt lat="54.1787969" lon="15.5561701">
        <time>2026-07-16T09:26:38Z</time>
      </trkpt>
      <trkpt lat="54.1785240" lon="15.5568483">
        <time>2026-07-16T09:27:26Z</time>
      </trkpt>
      <trkpt lat="54.1784162" lon="15.5572333">
        <time>2026-07-16T09:27:54Z</time>
      </trkpt>
      <trkpt lat="54.1782910" lon="15.5581680">
        <time>2026-07-16T09:30:07Z</time>
      </trkpt>
      <trkpt lat="54.1783253" lon="15.5582725">
        <time>2026-07-16T09:30:41Z</time>
      </trkpt>
      <trkpt lat="54.1783111" lon="15.5585937">
        <time>2026-07-16T09:31:23Z</time>
      </trkpt>
      <trkpt lat="54.1781804" lon="15.5594046">
        <time>2026-07-16T09:32:33Z</time>
      </trkpt>
      <trkpt lat="54.1781838" lon="15.5592715">
        <time>2026-07-16T09:34:57Z</time>
      </trkpt>
      <trkpt lat="54.1782325" lon="15.5592255">
        <time>2026-07-16T09:36:09Z</time>
      </trkpt>
      <trkpt lat="54.1782025" lon="15.5592140">
        <time>2026-07-16T09:38:05Z</time>
      </trkpt>
      <trkpt lat="54.1782297" lon="15.5591534">
        <time>2026-07-16T09:38:57Z</time>
      </trkpt>
      <trkpt lat="54.1781944" lon="15.5593287">
        <time>2026-07-16T09:40:59Z</time>
      </trkpt>
      <trkpt lat="54.1782789" lon="15.5594159">
        <time>2026-07-16T09:42:43Z</time>
      </trkpt>
    </trkseg>
  </trk>

  <trk>
    <name>20260716</name>
    <extensions>
      <gpxx:TrackExtension xmlns:gpxx="http://www.garmin.com/xmlschemas/GpxExtensions/v3">
        <gpxx:DisplayColor>White</gpxx:DisplayColor>
      </gpxx:TrackExtension>
    </extensions>
    <trkseg>
      <trkpt lat="54.1782836" lon="15.5597599">
        <time>2026-07-16T11:29:20Z</time>
      </trkpt>
      <trkpt lat="54.1782477" lon="15.5597302">
        <time>2026-07-16T11:34:44Z</time>
      </trkpt>
      <trkpt lat="54.1781915" lon="15.5597040">
        <time>2026-07-16T11:36:10Z</time>
      </trkpt>
      <trkpt lat="54.1781733" lon="15.5589280">
        <time>2026-07-16T11:37:28Z</time>
      </trkpt>
      <trkpt lat="54.1782753" lon="15.5575848">
        <time>2026-07-16T11:38:06Z</time>
      </trkpt>
      <trkpt lat="54.1783403" lon="15.5572190">
        <time>2026-07-16T11:38:16Z</time>
      </trkpt>
      <trkpt lat="54.1785163" lon="15.5566608">
        <time>2026-07-16T11:38:32Z</time>
      </trkpt>
      <trkpt lat="54.1791765" lon="15.5557545">
        <time>2026-07-16T11:39:08Z</time>
      </trkpt>
      <trkpt lat="54.1799759" lon="15.5544825">
        <time>2026-07-16T11:39:52Z</time>
      </trkpt>
      <trkpt lat="54.1803396" lon="15.5540088">
        <time>2026-07-16T11:40:10Z</time>
      </trkpt>
      <trkpt lat="54.1806534" lon="15.5537029">
        <time>2026-07-16T11:40:24Z</time>
      </trkpt>
      <trkpt lat="54.1811125" lon="15.5533656">
        <time>2026-07-16T11:40:45Z</time>
      </trkpt>
      <trkpt lat="54.1818877" lon="15.5529538">
        <time>2026-07-16T11:41:17Z</time>
      </trkpt>
      <trkpt lat="54.1821703" lon="15.5528492">
        <time>2026-07-16T11:41:29Z</time>
      </trkpt>
      <trkpt lat="54.1831175" lon="15.5527193">
        <time>2026-07-16T11:42:07Z</time>
      </trkpt>
      <trkpt lat="54.1837750" lon="15.5526735">
        <time>2026-07-16T11:42:33Z</time>
      </trkpt>
      <trkpt lat="54.1845841" lon="15.5527284">
        <time>2026-07-16T11:43:03Z</time>
      </trkpt>
      <trkpt lat="54.1855552" lon="15.5529120">
        <time>2026-07-16T11:43:41Z</time>
      </trkpt>
      <trkpt lat="54.1861255" lon="15.5529775">
        <time>2026-07-16T11:44:03Z</time>
      </trkpt>
      <trkpt lat="54.1863868" lon="15.5529697">
        <time>2026-07-16T11:44:13Z</time>
      </trkpt>
      <trkpt lat="54.1868595" lon="15.5528513">
        <time>2026-07-16T11:44:31Z</time>
      </trkpt>
      <trkpt lat="54.1875232" lon="15.5525590">
        <time>2026-07-16T11:44:57Z</time>
      </trkpt>
      <trkpt lat="54.1878150" lon="15.5523680">
        <time>2026-07-16T11:45:09Z</time>
      </trkpt>
      <trkpt lat="54.1881427" lon="15.5520509">
        <time>2026-07-16T11:45:23Z</time>
      </trkpt>
      <trkpt lat="54.1884987" lon="15.5515625">
        <time>2026-07-16T11:45:39Z</time>
      </trkpt>
      <trkpt lat="54.1887883" lon="15.5510820">
        <time>2026-07-16T11:45:53Z</time>
      </trkpt>
      <trkpt lat="54.1893830" lon="15.5499268">
        <time>2026-07-16T11:46:23Z</time>
      </trkpt>
      <trkpt lat="54.1902442" lon="15.5479878">
        <time>2026-07-16T11:47:03Z</time>
      </trkpt>
      <trkpt lat="54.1904910" lon="15.5475639">
        <time>2026-07-16T11:47:13Z</time>
      </trkpt>
      <trkpt lat="54.1907290" lon="15.5473350">
        <time>2026-07-16T11:47:21Z</time>
      </trkpt>
      <trkpt lat="54.1909813" lon="15.5472308">
        <time>2026-07-16T11:47:29Z</time>
      </trkpt>
      <trkpt lat="54.1914458" lon="15.5471853">
        <time>2026-07-16T11:47:43Z</time>
      </trkpt>
      <trkpt lat="54.1920488" lon="15.5472533">
        <time>2026-07-16T11:48:01Z</time>
      </trkpt>
      <trkpt lat="54.1925105" lon="15.5474133">
        <time>2026-07-16T11:48:15Z</time>
      </trkpt>
      <trkpt lat="54.1929510" lon="15.5476618">
        <time>2026-07-16T11:48:29Z</time>
      </trkpt>
      <trkpt lat="54.1932507" lon="15.5478973">
        <time>2026-07-16T11:48:39Z</time>
      </trkpt>
      <trkpt lat="54.1935200" lon="15.5481988">
        <time>2026-07-16T11:48:49Z</time>
      </trkpt>
      <trkpt lat="54.1939429" lon="15.5489567">
        <time>2026-07-16T11:49:10Z</time>
      </trkpt>
      <trkpt lat="54.1945032" lon="15.5503544">
        <time>2026-07-16T11:49:42Z</time>
      </trkpt>
      <trkpt lat="54.1949863" lon="15.5515257">
        <time>2026-07-16T11:50:10Z</time>
      </trkpt>
      <trkpt lat="54.1960730" lon="15.5533361">
        <time>2026-07-16T11:51:00Z</time>
      </trkpt>
      <trkpt lat="54.1978615" lon="15.5571200">
        <time>2026-07-16T11:52:34Z</time>
      </trkpt>
      <trkpt lat="54.1983606" lon="15.5583893">
        <time>2026-07-16T11:53:04Z</time>
      </trkpt>
      <trkpt lat="54.1995023" lon="15.5608622">
        <time>2026-07-16T11:54:06Z</time>
      </trkpt>
      <trkpt lat="54.2002473" lon="15.5630250">
        <time>2026-07-16T11:54:56Z</time>
      </trkpt>
      <trkpt lat="54.2009700" lon="15.5648676">
        <time>2026-07-16T11:55:40Z</time>
      </trkpt>
      <trkpt lat="54.2014240" lon="15.5663875">
        <time>2026-07-16T11:56:15Z</time>
      </trkpt>
      <trkpt lat="54.2020580" lon="15.5679202">
        <time>2026-07-16T11:56:53Z</time>
      </trkpt>
      <trkpt lat="54.2032395" lon="15.5707305">
        <time>2026-07-16T11:58:01Z</time>
      </trkpt>
      <trkpt lat="54.2040740" lon="15.5727977">
        <time>2026-07-16T11:58:51Z</time>
      </trkpt>
      <trkpt lat="54.2046702" lon="15.5745486">
        <time>2026-07-16T11:59:31Z</time>
      </trkpt>
      <trkpt lat="54.2054887" lon="15.5767532">
        <time>2026-07-16T12:00:23Z</time>
      </trkpt>
      <trkpt lat="54.2059645" lon="15.5779047">
        <time>2026-07-16T12:00:51Z</time>
      </trkpt>
      <trkpt lat="54.2063760" lon="15.5789985">
        <time>2026-07-16T12:01:17Z</time>
      </trkpt>
      <trkpt lat="54.2075130" lon="15.5819312">
        <time>2026-07-16T12:02:27Z</time>
      </trkpt>
      <trkpt lat="54.2084183" lon="15.5842897">
        <time>2026-07-16T12:03:23Z</time>
      </trkpt>
      <trkpt lat="54.2092999" lon="15.5870104">
        <time>2026-07-16T12:04:25Z</time>
      </trkpt>
      <trkpt lat="54.2101039" lon="15.5887418">
        <time>2026-07-16T12:05:10Z</time>
      </trkpt>
      <trkpt lat="54.2107980" lon="15.5903793">
        <time>2026-07-16T12:05:50Z</time>
      </trkpt>
      <trkpt lat="54.2112987" lon="15.5917412">
        <time>2026-07-16T12:06:22Z</time>
      </trkpt>
      <trkpt lat="54.2117852" lon="15.5933405">
        <time>2026-07-16T12:06:58Z</time>
      </trkpt>
      <trkpt lat="54.2122003" lon="15.5945065">
        <time>2026-07-16T12:07:24Z</time>
      </trkpt>
      <trkpt lat="54.2127325" lon="15.5957987">
        <time>2026-07-16T12:07:56Z</time>
      </trkpt>
      <trkpt lat="54.2132213" lon="15.5972183">
        <time>2026-07-16T12:08:28Z</time>
      </trkpt>
      <trkpt lat="54.2136201" lon="15.5991044">
        <time>2026-07-16T12:09:08Z</time>
      </trkpt>
      <trkpt lat="54.2141376" lon="15.6004258">
        <time>2026-07-16T12:09:40Z</time>
      </trkpt>
      <trkpt lat="54.2147804" lon="15.6021333">
        <time>2026-07-16T12:10:20Z</time>
      </trkpt>
      <trkpt lat="54.2154367" lon="15.6045923">
        <time>2026-07-16T12:11:14Z</time>
      </trkpt>
      <trkpt lat="54.2163965" lon="15.6072585">
        <time>2026-07-16T12:12:16Z</time>
      </trkpt>
      <trkpt lat="54.2168225" lon="15.6089940">
        <time>2026-07-16T12:12:54Z</time>
      </trkpt>
      <trkpt lat="54.2173515" lon="15.6107812">
        <time>2026-07-16T12:13:34Z</time>
      </trkpt>
      <trkpt lat="54.2178318" lon="15.6118174">
        <time>2026-07-16T12:14:01Z</time>
      </trkpt>
      <trkpt lat="54.2183340" lon="15.6127510">
        <time>2026-07-16T12:14:25Z</time>
      </trkpt>
      <trkpt lat="54.2188525" lon="15.6140816">
        <time>2026-07-16T12:14:57Z</time>
      </trkpt>
      <trkpt lat="54.2196950" lon="15.6158080">
        <time>2026-07-16T12:15:41Z</time>
      </trkpt>
      <trkpt lat="54.2205024" lon="15.6177105">
        <time>2026-07-16T12:16:27Z</time>
      </trkpt>
      <trkpt lat="54.2214660" lon="15.6206624">
        <time>2026-07-16T12:17:35Z</time>
      </trkpt>
      <trkpt lat="54.2225683" lon="15.6235500">
        <time>2026-07-16T12:18:43Z</time>
      </trkpt>
      <trkpt lat="54.2230233" lon="15.6252028">
        <time>2026-07-16T12:19:19Z</time>
      </trkpt>
      <trkpt lat="54.2230742" lon="15.6270850">
        <time>2026-07-16T12:19:57Z</time>
      </trkpt>
      <trkpt lat="54.2234197" lon="15.6291722">
        <time>2026-07-16T12:20:41Z</time>
      </trkpt>
      <trkpt lat="54.2243945" lon="15.6319307">
        <time>2026-07-16T12:21:45Z</time>
      </trkpt>
      <trkpt lat="54.2248773" lon="15.6335225">
        <time>2026-07-16T12:22:21Z</time>
      </trkpt>
      <trkpt lat="54.2250900" lon="15.6348908">
        <time>2026-07-16T12:22:50Z</time>
      </trkpt>
      <trkpt lat="54.2254261" lon="15.6361725">
        <time>2026-07-16T12:23:18Z</time>
      </trkpt>
      <trkpt lat="54.2262311" lon="15.6380207">
        <time>2026-07-16T12:24:02Z</time>
      </trkpt>
      <trkpt lat="54.2267145" lon="15.6395035">
        <time>2026-07-16T12:24:36Z</time>
      </trkpt>
      <trkpt lat="54.2269907" lon="15.6409355">
        <time>2026-07-16T12:25:06Z</time>
      </trkpt>
      <trkpt lat="54.2275187" lon="15.6425153">
        <time>2026-07-16T12:25:42Z</time>
      </trkpt>
      <trkpt lat="54.2284355" lon="15.6440350">
        <time>2026-07-16T12:26:26Z</time>
      </trkpt>
      <trkpt lat="54.2296065" lon="15.6465543">
        <time>2026-07-16T12:27:28Z</time>
      </trkpt>
      <trkpt lat="54.2303622" lon="15.6481518">
        <time>2026-07-16T12:28:08Z</time>
      </trkpt>
      <trkpt lat="54.2310361" lon="15.6500638">
        <time>2026-07-16T12:28:52Z</time>
      </trkpt>
      <trkpt lat="54.2320482" lon="15.6519175">
        <time>2026-07-16T12:29:42Z</time>
      </trkpt>
      <trkpt lat="54.2339485" lon="15.6571858">
        <time>2026-07-16T12:31:44Z</time>
      </trkpt>
      <trkpt lat="54.2353835" lon="15.6604719">
        <time>2026-07-16T12:33:04Z</time>
      </trkpt>
      <trkpt lat="54.2368202" lon="15.6649171">
        <time>2026-07-16T12:34:44Z</time>
      </trkpt>
      <trkpt lat="54.2374122" lon="15.6664524">
        <time>2026-07-16T12:35:20Z</time>
      </trkpt>
      <trkpt lat="54.2382490" lon="15.6680470">
        <time>2026-07-16T12:36:02Z</time>
      </trkpt>
      <trkpt lat="54.2389912" lon="15.6692461">
        <time>2026-07-16T12:36:36Z</time>
      </trkpt>
      <trkpt lat="54.2400925" lon="15.6715807">
        <time>2026-07-16T12:37:35Z</time>
      </trkpt>
      <trkpt lat="54.2414320" lon="15.6753928">
        <time>2026-07-16T12:39:03Z</time>
      </trkpt>
      <trkpt lat="54.2420177" lon="15.6768050">
        <time>2026-07-16T12:39:37Z</time>
      </trkpt>
      <trkpt lat="54.2429789" lon="15.6790050">
        <time>2026-07-16T12:40:31Z</time>
      </trkpt>
      <trkpt lat="54.2442155" lon="15.6831742">
        <time>2026-07-16T12:42:03Z</time>
      </trkpt>
      <trkpt lat="54.2447442" lon="15.6842945">
        <time>2026-07-16T12:42:32Z</time>
      </trkpt>
      <trkpt lat="54.2455023" lon="15.6852280">
        <time>2026-07-16T12:43:02Z</time>
      </trkpt>
      <trkpt lat="54.2462312" lon="15.6857834">
        <time>2026-07-16T12:43:28Z</time>
      </trkpt>
      <trkpt lat="54.2469970" lon="15.6865983">
        <time>2026-07-16T12:43:58Z</time>
      </trkpt>
      <trkpt lat="54.2477550" lon="15.6880090">
        <time>2026-07-16T12:44:36Z</time>
      </trkpt>
      <trkpt lat="54.2486257" lon="15.6892946">
        <time>2026-07-16T12:45:14Z</time>
      </trkpt>
      <trkpt lat="54.2494647" lon="15.6903250">
        <time>2026-07-16T12:45:48Z</time>
      </trkpt>
      <trkpt lat="54.2501429" lon="15.6914373">
        <time>2026-07-16T12:46:20Z</time>
      </trkpt>
      <trkpt lat="54.2506555" lon="15.6931216">
        <time>2026-07-16T12:46:58Z</time>
      </trkpt>
      <trkpt lat="54.2510523" lon="15.6943975">
        <time>2026-07-16T12:47:26Z</time>
      </trkpt>
      <trkpt lat="54.2516985" lon="15.6959787">
        <time>2026-07-16T12:48:04Z</time>
      </trkpt>
      <trkpt lat="54.2523630" lon="15.6972842">
        <time>2026-07-16T12:48:39Z</time>
      </trkpt>
      <trkpt lat="54.2528810" lon="15.6984737">
        <time>2026-07-16T12:49:07Z</time>
      </trkpt>
      <trkpt lat="54.2534913" lon="15.7008425">
        <time>2026-07-16T12:49:59Z</time>
      </trkpt>
      <trkpt lat="54.2540705" lon="15.7025755">
        <time>2026-07-16T12:50:37Z</time>
      </trkpt>
      <trkpt lat="54.2547523" lon="15.7041708">
        <time>2026-07-16T12:51:15Z</time>
      </trkpt>
      <trkpt lat="54.2557748" lon="15.7069635">
        <time>2026-07-16T12:52:19Z</time>
      </trkpt>
      <trkpt lat="54.2563347" lon="15.7090667">
        <time>2026-07-16T12:53:05Z</time>
      </trkpt>
      <trkpt lat="54.2580426" lon="15.7135683">
        <time>2026-07-16T12:54:49Z</time>
      </trkpt>
      <trkpt lat="54.2587852" lon="15.7148565">
        <time>2026-07-16T12:55:25Z</time>
      </trkpt>
      <trkpt lat="54.2603433" lon="15.7168048">
        <time>2026-07-16T12:56:29Z</time>
      </trkpt>
      <trkpt lat="54.2612651" lon="15.7184235">
        <time>2026-07-16T12:57:13Z</time>
      </trkpt>
      <trkpt lat="54.2624824" lon="15.7214073">
        <time>2026-07-16T12:58:25Z</time>
      </trkpt>
      <trkpt lat="54.2632174" lon="15.7235902">
        <time>2026-07-16T12:59:15Z</time>
      </trkpt>
      <trkpt lat="54.2645612" lon="15.7267077">
        <time>2026-07-16T13:00:31Z</time>
      </trkpt>
      <trkpt lat="54.2650142" lon="15.7281246">
        <time>2026-07-16T13:01:04Z</time>
      </trkpt>
      <trkpt lat="54.2650731" lon="15.7302059">
        <time>2026-07-16T13:01:44Z</time>
      </trkpt>
      <trkpt lat="54.2652398" lon="15.7318892">
        <time>2026-07-16T13:02:18Z</time>
      </trkpt>
      <trkpt lat="54.2667288" lon="15.7342668">
        <time>2026-07-16T13:03:28Z</time>
      </trkpt>
      <trkpt lat="54.2673442" lon="15.7354891">
        <time>2026-07-16T13:04:00Z</time>
      </trkpt>
      <trkpt lat="54.2682039" lon="15.7381720">
        <time>2026-07-16T13:05:00Z</time>
      </trkpt>
      <trkpt lat="54.2685838" lon="15.7401253">
        <time>2026-07-16T13:05:40Z</time>
      </trkpt>
      <trkpt lat="54.2686588" lon="15.7413504">
        <time>2026-07-16T13:06:04Z</time>
      </trkpt>
      <trkpt lat="54.2687710" lon="15.7426373">
        <time>2026-07-16T13:06:30Z</time>
      </trkpt>
      <trkpt lat="54.2693124" lon="15.7451187">
        <time>2026-07-16T13:07:22Z</time>
      </trkpt>
      <trkpt lat="54.2696562" lon="15.7470905">
        <time>2026-07-16T13:08:02Z</time>
      </trkpt>
      <trkpt lat="54.2702907" lon="15.7501392">
        <time>2026-07-16T13:09:06Z</time>
      </trkpt>
      <trkpt lat="54.2706843" lon="15.7514164">
        <time>2026-07-16T13:09:34Z</time>
      </trkpt>
      <trkpt lat="54.2713868" lon="15.7529603">
        <time>2026-07-16T13:10:12Z</time>
      </trkpt>
      <trkpt lat="54.2727900" lon="15.7566340">
        <time>2026-07-16T13:11:39Z</time>
      </trkpt>
      <trkpt lat="54.2731358" lon="15.7578185">
        <time>2026-07-16T13:12:05Z</time>
      </trkpt>
      <trkpt lat="54.2735443" lon="15.7589922">
        <time>2026-07-16T13:12:31Z</time>
      </trkpt>
      <trkpt lat="54.2742957" lon="15.7605530">
        <time>2026-07-16T13:13:11Z</time>
      </trkpt>
      <trkpt lat="54.2747475" lon="15.7619547">
        <time>2026-07-16T13:13:43Z</time>
      </trkpt>
      <trkpt lat="54.2748753" lon="15.7632568">
        <time>2026-07-16T13:14:09Z</time>
      </trkpt>
      <trkpt lat="54.2752353" lon="15.7648629">
        <time>2026-07-16T13:14:43Z</time>
      </trkpt>
      <trkpt lat="54.2757606" lon="15.7663351">
        <time>2026-07-16T13:15:17Z</time>
      </trkpt>
      <trkpt lat="54.2763113" lon="15.7681458">
        <time>2026-07-16T13:15:57Z</time>
      </trkpt>
      <trkpt lat="54.2769696" lon="15.7697487">
        <time>2026-07-16T13:16:35Z</time>
      </trkpt>
      <trkpt lat="54.2775027" lon="15.7707157">
        <time>2026-07-16T13:17:01Z</time>
      </trkpt>
      <trkpt lat="54.2780055" lon="15.7719720">
        <time>2026-07-16T13:17:31Z</time>
      </trkpt>
      <trkpt lat="54.2784005" lon="15.7744144">
        <time>2026-07-16T13:18:21Z</time>
      </trkpt>
      <trkpt lat="54.2785285" lon="15.7762468">
        <time>2026-07-16T13:18:57Z</time>
      </trkpt>
      <trkpt lat="54.2792815" lon="15.7781125">
        <time>2026-07-16T13:19:43Z</time>
      </trkpt>
      <trkpt lat="54.2797758" lon="15.7792478">
        <time>2026-07-16T13:20:11Z</time>
      </trkpt>
      <trkpt lat="54.2803515" lon="15.7807775">
        <time>2026-07-16T13:20:47Z</time>
      </trkpt>
      <trkpt lat="54.2809175" lon="15.7819770">
        <time>2026-07-16T13:21:17Z</time>
      </trkpt>
      <trkpt lat="54.2814465" lon="15.7833353">
        <time>2026-07-16T13:21:49Z</time>
      </trkpt>
      <trkpt lat="54.2819945" lon="15.7859231">
        <time>2026-07-16T13:22:42Z</time>
      </trkpt>
      <trkpt lat="54.2825987" lon="15.7878142">
        <time>2026-07-16T13:23:24Z</time>
      </trkpt>
      <trkpt lat="54.2832862" lon="15.7892630">
        <time>2026-07-16T13:24:00Z</time>
      </trkpt>
      <trkpt lat="54.2839475" lon="15.7910983">
        <time>2026-07-16T13:24:42Z</time>
      </trkpt>
      <trkpt lat="54.2842227" lon="15.7922477">
        <time>2026-07-16T13:25:06Z</time>
      </trkpt>
      <trkpt lat="54.2850910" lon="15.7954182">
        <time>2026-07-16T13:26:14Z</time>
      </trkpt>
      <trkpt lat="54.2855845" lon="15.7969742">
        <time>2026-07-16T13:26:48Z</time>
      </trkpt>
      <trkpt lat="54.2873965" lon="15.8015111">
        <time>2026-07-16T13:28:34Z</time>
      </trkpt>
      <trkpt lat="54.2878900" lon="15.8030548">
        <time>2026-07-16T13:29:08Z</time>
      </trkpt>
      <trkpt lat="54.2881015" lon="15.8045699">
        <time>2026-07-16T13:29:38Z</time>
      </trkpt>
      <trkpt lat="54.2884065" lon="15.8061428">
        <time>2026-07-16T13:30:10Z</time>
      </trkpt>
      <trkpt lat="54.2889362" lon="15.8076204">
        <time>2026-07-16T13:30:44Z</time>
      </trkpt>
      <trkpt lat="54.2897610" lon="15.8088490">
        <time>2026-07-16T13:31:20Z</time>
      </trkpt>
      <trkpt lat="54.2913739" lon="15.8106503">
        <time>2026-07-16T13:32:22Z</time>
      </trkpt>
      <trkpt lat="54.2921907" lon="15.8119639">
        <time>2026-07-16T13:33:00Z</time>
      </trkpt>
      <trkpt lat="54.2927392" lon="15.8129370">
        <time>2026-07-16T13:33:26Z</time>
      </trkpt>
      <trkpt lat="54.2931798" lon="15.8140091">
        <time>2026-07-16T13:33:52Z</time>
      </trkpt>
      <trkpt lat="54.2934887" lon="15.8152028">
        <time>2026-07-16T13:34:18Z</time>
      </trkpt>
      <trkpt lat="54.2938634" lon="15.8163560">
        <time>2026-07-16T13:34:44Z</time>
      </trkpt>
      <trkpt lat="54.2951018" lon="15.8206363">
        <time>2026-07-16T13:36:18Z</time>
      </trkpt>
      <trkpt lat="54.2956845" lon="15.8220508">
        <time>2026-07-16T13:36:52Z</time>
      </trkpt>
      <trkpt lat="54.2965558" lon="15.8234740">
        <time>2026-07-16T13:37:32Z</time>
      </trkpt>
      <trkpt lat="54.2970458" lon="15.8245015">
        <time>2026-07-16T13:37:58Z</time>
      </trkpt>
      <trkpt lat="54.2974618" lon="15.8259407">
        <time>2026-07-16T13:38:30Z</time>
      </trkpt>
      <trkpt lat="54.2983233" lon="15.8280146">
        <time>2026-07-16T13:39:20Z</time>
      </trkpt>
      <trkpt lat="54.2998447" lon="15.8325212">
        <time>2026-07-16T13:41:03Z</time>
      </trkpt>
      <trkpt lat="54.3009077" lon="15.8348210">
        <time>2026-07-16T13:42:01Z</time>
      </trkpt>
      <trkpt lat="54.3014881" lon="15.8363535">
        <time>2026-07-16T13:42:37Z</time>
      </trkpt>
      <trkpt lat="54.3019628" lon="15.8382077">
        <time>2026-07-16T13:43:17Z</time>
      </trkpt>
      <trkpt lat="54.3024825" lon="15.8397835">
        <time>2026-07-16T13:43:53Z</time>
      </trkpt>
      <trkpt lat="54.3035903" lon="15.8418670">
        <time>2026-07-16T13:44:47Z</time>
      </trkpt>
      <trkpt lat="54.3040761" lon="15.8431404">
        <time>2026-07-16T13:45:17Z</time>
      </trkpt>
      <trkpt lat="54.3044029" lon="15.8449763">
        <time>2026-07-16T13:45:55Z</time>
      </trkpt>
      <trkpt lat="54.3053885" lon="15.8471357">
        <time>2026-07-16T13:46:49Z</time>
      </trkpt>
      <trkpt lat="54.3062758" lon="15.8491865">
        <time>2026-07-16T13:47:39Z</time>
      </trkpt>
      <trkpt lat="54.3070075" lon="15.8514561">
        <time>2026-07-16T13:48:32Z</time>
      </trkpt>
      <trkpt lat="54.3076915" lon="15.8534037">
        <time>2026-07-16T13:49:16Z</time>
      </trkpt>
      <trkpt lat="54.3085073" lon="15.8551895">
        <time>2026-07-16T13:50:00Z</time>
      </trkpt>
      <trkpt lat="54.3096687" lon="15.8568737">
        <time>2026-07-16T13:50:50Z</time>
      </trkpt>
      <trkpt lat="54.3101572" lon="15.8577728">
        <time>2026-07-16T13:51:14Z</time>
      </trkpt>
      <trkpt lat="54.3104193" lon="15.8592034">
        <time>2026-07-16T13:51:44Z</time>
      </trkpt>
      <trkpt lat="54.3103712" lon="15.8605768">
        <time>2026-07-16T13:52:12Z</time>
      </trkpt>
      <trkpt lat="54.3108164" lon="15.8620448">
        <time>2026-07-16T13:52:46Z</time>
      </trkpt>
      <trkpt lat="54.3119276" lon="15.8639546">
        <time>2026-07-16T13:53:38Z</time>
      </trkpt>
      <trkpt lat="54.3124580" lon="15.8649673">
        <time>2026-07-16T13:54:05Z</time>
      </trkpt>
      <trkpt lat="54.3131019" lon="15.8666674">
        <time>2026-07-16T13:54:45Z</time>
      </trkpt>
      <trkpt lat="54.3135800" lon="15.8685711">
        <time>2026-07-16T13:55:25Z</time>
      </trkpt>
      <trkpt lat="54.3142192" lon="15.8699518">
        <time>2026-07-16T13:56:01Z</time>
      </trkpt>
      <trkpt lat="54.3150066" lon="15.8705478">
        <time>2026-07-16T13:56:29Z</time>
      </trkpt>
      <trkpt lat="54.3156125" lon="15.8712303">
        <time>2026-07-16T13:56:53Z</time>
      </trkpt>
      <trkpt lat="54.3163200" lon="15.8724877">
        <time>2026-07-16T13:57:27Z</time>
      </trkpt>
      <trkpt lat="54.3172788" lon="15.8744499">
        <time>2026-07-16T13:58:17Z</time>
      </trkpt>
      <trkpt lat="54.3189282" lon="15.8772677">
        <time>2026-07-16T13:59:35Z</time>
      </trkpt>
      <trkpt lat="54.3194395" lon="15.8786158">
        <time>2026-07-16T14:00:07Z</time>
      </trkpt>
      <trkpt lat="54.3197597" lon="15.8802393">
        <time>2026-07-16T14:00:41Z</time>
      </trkpt>
      <trkpt lat="54.3198951" lon="15.8815131">
        <time>2026-07-16T14:01:07Z</time>
      </trkpt>
      <trkpt lat="54.3206748" lon="15.8835170">
        <time>2026-07-16T14:01:55Z</time>
      </trkpt>
      <trkpt lat="54.3212938" lon="15.8859472">
        <time>2026-07-16T14:02:47Z</time>
      </trkpt>
      <trkpt lat="54.3217781" lon="15.8874595">
        <time>2026-07-16T14:03:21Z</time>
      </trkpt>
      <trkpt lat="54.3223949" lon="15.8887203">
        <time>2026-07-16T14:03:54Z</time>
      </trkpt>
      <trkpt lat="54.3228893" lon="15.8900445">
        <time>2026-07-16T14:04:25Z</time>
      </trkpt>
      <trkpt lat="54.3231690" lon="15.8924205">
        <time>2026-07-16T14:05:13Z</time>
      </trkpt>
      <trkpt lat="54.3241806" lon="15.8942940">
        <time>2026-07-16T14:06:05Z</time>
      </trkpt>
      <trkpt lat="54.3250559" lon="15.8958553">
        <time>2026-07-16T14:06:47Z</time>
      </trkpt>
      <trkpt lat="54.3266048" lon="15.8996147">
        <time>2026-07-16T14:08:17Z</time>
      </trkpt>
      <trkpt lat="54.3271748" lon="15.9014087">
        <time>2026-07-16T14:08:58Z</time>
      </trkpt>
      <trkpt lat="54.3275763" lon="15.9033827">
        <time>2026-07-16T14:09:38Z</time>
      </trkpt>
      <trkpt lat="54.3279056" lon="15.9048023">
        <time>2026-07-16T14:10:08Z</time>
      </trkpt>
      <trkpt lat="54.3287976" lon="15.9071192">
        <time>2026-07-16T14:11:02Z</time>
      </trkpt>
      <trkpt lat="54.3291654" lon="15.9084080">
        <time>2026-07-16T14:11:30Z</time>
      </trkpt>
      <trkpt lat="54.3296225" lon="15.9115710">
        <time>2026-07-16T14:12:34Z</time>
      </trkpt>
      <trkpt lat="54.3303157" lon="15.9137342">
        <time>2026-07-16T14:13:22Z</time>
      </trkpt>
      <trkpt lat="54.3306474" lon="15.9149385">
        <time>2026-07-16T14:13:48Z</time>
      </trkpt>
      <trkpt lat="54.3310367" lon="15.9170800">
        <time>2026-07-16T14:14:32Z</time>
      </trkpt>
      <trkpt lat="54.3320031" lon="15.9194878">
        <time>2026-07-16T14:15:30Z</time>
      </trkpt>
      <trkpt lat="54.3333517" lon="15.9243312">
        <time>2026-07-16T14:17:17Z</time>
      </trkpt>
      <trkpt lat="54.3339195" lon="15.9260199">
        <time>2026-07-16T14:17:55Z</time>
      </trkpt>
      <trkpt lat="54.3346532" lon="15.9279024">
        <time>2026-07-16T14:18:39Z</time>
      </trkpt>
      <trkpt lat="54.3353937" lon="15.9304288">
        <time>2026-07-16T14:19:35Z</time>
      </trkpt>
      <trkpt lat="54.3361338" lon="15.9323314">
        <time>2026-07-16T14:20:19Z</time>
      </trkpt>
      <trkpt lat="54.3367890" lon="15.9336535">
        <time>2026-07-16T14:20:53Z</time>
      </trkpt>
      <trkpt lat="54.3372942" lon="15.9351509">
        <time>2026-07-16T14:21:27Z</time>
      </trkpt>
      <trkpt lat="54.3375105" lon="15.9371365">
        <time>2026-07-16T14:22:07Z</time>
      </trkpt>
      <trkpt lat="54.3374583" lon="15.9383705">
        <time>2026-07-16T14:22:31Z</time>
      </trkpt>
      <trkpt lat="54.3373147" lon="15.9396370">
        <time>2026-07-16T14:22:57Z</time>
      </trkpt>
      <trkpt lat="54.3376964" lon="15.9410803">
        <time>2026-07-16T14:23:29Z</time>
      </trkpt>
      <trkpt lat="54.3385130" lon="15.9432199">
        <time>2026-07-16T14:24:19Z</time>
      </trkpt>
      <trkpt lat="54.3392035" lon="15.9455550">
        <time>2026-07-16T14:25:11Z</time>
      </trkpt>
      <trkpt lat="54.3398705" lon="15.9472479">
        <time>2026-07-16T14:25:51Z</time>
      </trkpt>
      <trkpt lat="54.3406345" lon="15.9494862">
        <time>2026-07-16T14:26:44Z</time>
      </trkpt>
      <trkpt lat="54.3410645" lon="15.9505073">
        <time>2026-07-16T14:27:08Z</time>
      </trkpt>
      <trkpt lat="54.3418590" lon="15.9517739">
        <time>2026-07-16T14:27:46Z</time>
      </trkpt>
      <trkpt lat="54.3430628" lon="15.9531257">
        <time>2026-07-16T14:28:34Z</time>
      </trkpt>
      <trkpt lat="54.3455349" lon="15.9575562">
        <time>2026-07-16T14:30:34Z</time>
      </trkpt>
      <trkpt lat="54.3465615" lon="15.9592613">
        <time>2026-07-16T14:31:22Z</time>
      </trkpt>
      <trkpt lat="54.3472175" lon="15.9606940">
        <time>2026-07-16T14:31:58Z</time>
      </trkpt>
      <trkpt lat="54.3480313" lon="15.9625627">
        <time>2026-07-16T14:32:45Z</time>
      </trkpt>
      <trkpt lat="54.3490269" lon="15.9641766">
        <time>2026-07-16T14:33:31Z</time>
      </trkpt>
      <trkpt lat="54.3495478" lon="15.9651515">
        <time>2026-07-16T14:33:57Z</time>
      </trkpt>
      <trkpt lat="54.3500313" lon="15.9666115">
        <time>2026-07-16T14:34:29Z</time>
      </trkpt>
      <trkpt lat="54.3502381" lon="15.9679104">
        <time>2026-07-16T14:34:55Z</time>
      </trkpt>
      <trkpt lat="54.3505017" lon="15.9690968">
        <time>2026-07-16T14:35:21Z</time>
      </trkpt>
      <trkpt lat="54.3509203" lon="15.9704913">
        <time>2026-07-16T14:35:51Z</time>
      </trkpt>
      <trkpt lat="54.3516395" lon="15.9717113">
        <time>2026-07-16T14:36:25Z</time>
      </trkpt>
      <trkpt lat="54.3525988" lon="15.9734317">
        <time>2026-07-16T14:37:11Z</time>
      </trkpt>
      <trkpt lat="54.3533598" lon="15.9746443">
        <time>2026-07-16T14:37:45Z</time>
      </trkpt>
      <trkpt lat="54.3540339" lon="15.9758349">
        <time>2026-07-16T14:38:17Z</time>
      </trkpt>
      <trkpt lat="54.3548418" lon="15.9770181">
        <time>2026-07-16T14:38:53Z</time>
      </trkpt>
      <trkpt lat="54.3559538" lon="15.9784400">
        <time>2026-07-16T14:39:39Z</time>
      </trkpt>
      <trkpt lat="54.3565976" lon="15.9795005">
        <time>2026-07-16T14:40:09Z</time>
      </trkpt>
      <trkpt lat="54.3570254" lon="15.9808122">
        <time>2026-07-16T14:40:39Z</time>
      </trkpt>
      <trkpt lat="54.3588135" lon="15.9851559">
        <time>2026-07-16T14:42:23Z</time>
      </trkpt>
      <trkpt lat="54.3597963" lon="15.9866428">
        <time>2026-07-16T14:43:07Z</time>
      </trkpt>
      <trkpt lat="54.3608115" lon="15.9877765">
        <time>2026-07-16T14:43:47Z</time>
      </trkpt>
      <trkpt lat="54.3615080" lon="15.9887625">
        <time>2026-07-16T14:44:17Z</time>
      </trkpt>
      <trkpt lat="54.3621048" lon="15.9901150">
        <time>2026-07-16T14:44:51Z</time>
      </trkpt>
      <trkpt lat="54.3628675" lon="15.9911423">
        <time>2026-07-16T14:45:23Z</time>
      </trkpt>
      <trkpt lat="54.3636125" lon="15.9924590">
        <time>2026-07-16T14:45:59Z</time>
      </trkpt>
      <trkpt lat="54.3642365" lon="15.9934237">
        <time>2026-07-16T14:46:27Z</time>
      </trkpt>
      <trkpt lat="54.3649410" lon="15.9943800">
        <time>2026-07-16T14:46:58Z</time>
      </trkpt>
      <trkpt lat="54.3656975" lon="15.9955998">
        <time>2026-07-16T14:47:32Z</time>
      </trkpt>
      <trkpt lat="54.3663267" lon="15.9971939">
        <time>2026-07-16T14:48:10Z</time>
      </trkpt>
      <trkpt lat="54.3673903" lon="15.9991245">
        <time>2026-07-16T14:49:02Z</time>
      </trkpt>
      <trkpt lat="54.3679480" lon="16.0011263">
        <time>2026-07-16T14:49:46Z</time>
      </trkpt>
      <trkpt lat="54.3684574" lon="16.0025722">
        <time>2026-07-16T14:50:20Z</time>
      </trkpt>
      <trkpt lat="54.3690433" lon="16.0036380">
        <time>2026-07-16T14:50:50Z</time>
      </trkpt>
      <trkpt lat="54.3701407" lon="16.0069316">
        <time>2026-07-16T14:52:04Z</time>
      </trkpt>
      <trkpt lat="54.3711091" lon="16.0089043">
        <time>2026-07-16T14:52:55Z</time>
      </trkpt>
      <trkpt lat="54.3716403" lon="16.0101995">
        <time>2026-07-16T14:53:25Z</time>
      </trkpt>
      <trkpt lat="54.3720861" lon="16.0120798">
        <time>2026-07-16T14:54:05Z</time>
      </trkpt>
      <trkpt lat="54.3725753" lon="16.0132298">
        <time>2026-07-16T14:54:33Z</time>
      </trkpt>
      <trkpt lat="54.3737475" lon="16.0149487">
        <time>2026-07-16T14:55:25Z</time>
      </trkpt>
      <trkpt lat="54.3749313" lon="16.0174362">
        <time>2026-07-16T14:56:27Z</time>
      </trkpt>
      <trkpt lat="54.3759138" lon="16.0189782">
        <time>2026-07-16T14:57:11Z</time>
      </trkpt>
      <trkpt lat="54.3764535" lon="16.0200387">
        <time>2026-07-16T14:57:40Z</time>
      </trkpt>
      <trkpt lat="54.3771442" lon="16.0218570">
        <time>2026-07-16T14:58:22Z</time>
      </trkpt>
      <trkpt lat="54.3781612" lon="16.0237136">
        <time>2026-07-16T14:59:12Z</time>
      </trkpt>
      <trkpt lat="54.3786840" lon="16.0248283">
        <time>2026-07-16T14:59:40Z</time>
      </trkpt>
      <trkpt lat="54.3789218" lon="16.0263927">
        <time>2026-07-16T15:00:12Z</time>
      </trkpt>
      <trkpt lat="54.3793060" lon="16.0277392">
        <time>2026-07-16T15:00:42Z</time>
      </trkpt>
      <trkpt lat="54.3798167" lon="16.0288708">
        <time>2026-07-16T15:01:10Z</time>
      </trkpt>
      <trkpt lat="54.3810030" lon="16.0309897">
        <time>2026-07-16T15:02:09Z</time>
      </trkpt>
      <trkpt lat="54.3814968" lon="16.0321519">
        <time>2026-07-16T15:02:37Z</time>
      </trkpt>
      <trkpt lat="54.3819164" lon="16.0346569">
        <time>2026-07-16T15:03:27Z</time>
      </trkpt>
      <trkpt lat="54.3823919" lon="16.0364175">
        <time>2026-07-16T15:04:05Z</time>
      </trkpt>
      <trkpt lat="54.3828384" lon="16.0376277">
        <time>2026-07-16T15:04:33Z</time>
      </trkpt>
      <trkpt lat="54.3835378" lon="16.0387008">
        <time>2026-07-16T15:05:05Z</time>
      </trkpt>
      <trkpt lat="54.3846877" lon="16.0397661">
        <time>2026-07-16T15:05:49Z</time>
      </trkpt>
      <trkpt lat="54.3852232" lon="16.0405978">
        <time>2026-07-16T15:06:13Z</time>
      </trkpt>
      <trkpt lat="54.3858393" lon="16.0423897">
        <time>2026-07-16T15:06:53Z</time>
      </trkpt>
      <trkpt lat="54.3860770" lon="16.0436638">
        <time>2026-07-16T15:07:19Z</time>
      </trkpt>
      <trkpt lat="54.3867545" lon="16.0459356">
        <time>2026-07-16T15:08:09Z</time>
      </trkpt>
      <trkpt lat="54.3878503" lon="16.0485958">
        <time>2026-07-16T15:09:13Z</time>
      </trkpt>
      <trkpt lat="54.3885597" lon="16.0508717">
        <time>2026-07-16T15:10:04Z</time>
      </trkpt>
      <trkpt lat="54.3891515" lon="16.0522750">
        <time>2026-07-16T15:10:38Z</time>
      </trkpt>
      <trkpt lat="54.3898790" lon="16.0535534">
        <time>2026-07-16T15:11:12Z</time>
      </trkpt>
      <trkpt lat="54.3903289" lon="16.0546651">
        <time>2026-07-16T15:11:38Z</time>
      </trkpt>
      <trkpt lat="54.3912962" lon="16.0567245">
        <time>2026-07-16T15:12:30Z</time>
      </trkpt>
      <trkpt lat="54.3919003" lon="16.0583458">
        <time>2026-07-16T15:13:08Z</time>
      </trkpt>
      <trkpt lat="54.3922255" lon="16.0602114">
        <time>2026-07-16T15:13:46Z</time>
      </trkpt>
      <trkpt lat="54.3925277" lon="16.0614528">
        <time>2026-07-16T15:14:12Z</time>
      </trkpt>
      <trkpt lat="54.3930303" lon="16.0637425">
        <time>2026-07-16T15:15:00Z</time>
      </trkpt>
      <trkpt lat="54.3932745" lon="16.0649046">
        <time>2026-07-16T15:15:24Z</time>
      </trkpt>
      <trkpt lat="54.3935406" lon="16.0664912">
        <time>2026-07-16T15:15:56Z</time>
      </trkpt>
      <trkpt lat="54.3941994" lon="16.0683925">
        <time>2026-07-16T15:16:40Z</time>
      </trkpt>
      <trkpt lat="54.3948030" lon="16.0701786">
        <time>2026-07-16T15:17:20Z</time>
      </trkpt>
      <trkpt lat="54.3954096" lon="16.0717142">
        <time>2026-07-16T15:17:56Z</time>
      </trkpt>
      <trkpt lat="54.3957855" lon="16.0728002">
        <time>2026-07-16T15:18:21Z</time>
      </trkpt>
      <trkpt lat="54.3960593" lon="16.0741805">
        <time>2026-07-16T15:18:49Z</time>
      </trkpt>
      <trkpt lat="54.3967403" lon="16.0765484">
        <time>2026-07-16T15:19:39Z</time>
      </trkpt>
      <trkpt lat="54.3970393" lon="16.0780813">
        <time>2026-07-16T15:20:11Z</time>
      </trkpt>
      <trkpt lat="54.3976802" lon="16.0800280">
        <time>2026-07-16T15:20:53Z</time>
      </trkpt>
      <trkpt lat="54.3981605" lon="16.0817898">
        <time>2026-07-16T15:21:31Z</time>
      </trkpt>
      <trkpt lat="54.3984792" lon="16.0837212">
        <time>2026-07-16T15:22:09Z</time>
      </trkpt>
      <trkpt lat="54.3988563" lon="16.0850058">
        <time>2026-07-16T15:22:37Z</time>
      </trkpt>
      <trkpt lat="54.3995520" lon="16.0866845">
        <time>2026-07-16T15:23:17Z</time>
      </trkpt>
      <trkpt lat="54.4001512" lon="16.0882583">
        <time>2026-07-16T15:23:53Z</time>
      </trkpt>
      <trkpt lat="54.4009365" lon="16.0905502">
        <time>2026-07-16T15:24:45Z</time>
      </trkpt>
      <trkpt lat="54.4020443" lon="16.0933916">
        <time>2026-07-16T15:25:51Z</time>
      </trkpt>
      <trkpt lat="54.4025598" lon="16.0947955">
        <time>2026-07-16T15:26:23Z</time>
      </trkpt>
      <trkpt lat="54.4029280" lon="16.0959641">
        <time>2026-07-16T15:26:49Z</time>
      </trkpt>
      <trkpt lat="54.4035587" lon="16.0976165">
        <time>2026-07-16T15:27:27Z</time>
      </trkpt>
      <trkpt lat="54.4049152" lon="16.1016872">
        <time>2026-07-16T15:28:57Z</time>
      </trkpt>
      <trkpt lat="54.4063858" lon="16.1056006">
        <time>2026-07-16T15:30:27Z</time>
      </trkpt>
      <trkpt lat="54.4070352" lon="16.1071003">
        <time>2026-07-16T15:31:03Z</time>
      </trkpt>
      <trkpt lat="54.4082838" lon="16.1105267">
        <time>2026-07-16T15:32:22Z</time>
      </trkpt>
      <trkpt lat="54.4089825" lon="16.1121419">
        <time>2026-07-16T15:33:00Z</time>
      </trkpt>
      <trkpt lat="54.4098812" lon="16.1143232">
        <time>2026-07-16T15:33:50Z</time>
      </trkpt>
      <trkpt lat="54.4106286" lon="16.1158468">
        <time>2026-07-16T15:34:28Z</time>
      </trkpt>
      <trkpt lat="54.4110568" lon="16.1169744">
        <time>2026-07-16T15:34:54Z</time>
      </trkpt>
      <trkpt lat="54.4125100" lon="16.1201973">
        <time>2026-07-16T15:36:12Z</time>
      </trkpt>
      <trkpt lat="54.4132122" lon="16.1223197">
        <time>2026-07-16T15:37:00Z</time>
      </trkpt>
      <trkpt lat="54.4146044" lon="16.1264917">
        <time>2026-07-16T15:38:32Z</time>
      </trkpt>
      <trkpt lat="54.4160038" lon="16.1299543">
        <time>2026-07-16T15:39:51Z</time>
      </trkpt>
      <trkpt lat="54.4167015" lon="16.1313863">
        <time>2026-07-16T15:40:27Z</time>
      </trkpt>
      <trkpt lat="54.4178595" lon="16.1339480">
        <time>2026-07-16T15:41:29Z</time>
      </trkpt>
      <trkpt lat="54.4184537" lon="16.1354969">
        <time>2026-07-16T15:42:05Z</time>
      </trkpt>
      <trkpt lat="54.4189961" lon="16.1370990">
        <time>2026-07-16T15:42:42Z</time>
      </trkpt>
      <trkpt lat="54.4198471" lon="16.1392880">
        <time>2026-07-16T15:43:32Z</time>
      </trkpt>
      <trkpt lat="54.4203427" lon="16.1407135">
        <time>2026-07-16T15:44:04Z</time>
      </trkpt>
      <trkpt lat="54.4215988" lon="16.1436732">
        <time>2026-07-16T15:45:14Z</time>
      </trkpt>
      <trkpt lat="54.4223523" lon="16.1453287">
        <time>2026-07-16T15:45:54Z</time>
      </trkpt>
      <trkpt lat="54.4232263" lon="16.1475120">
        <time>2026-07-16T15:46:46Z</time>
      </trkpt>
      <trkpt lat="54.4238409" lon="16.1493452">
        <time>2026-07-16T15:47:28Z</time>
      </trkpt>
      <trkpt lat="54.4246510" lon="16.1513849">
        <time>2026-07-16T15:48:16Z</time>
      </trkpt>
      <trkpt lat="54.4257527" lon="16.1545214">
        <time>2026-07-16T15:49:28Z</time>
      </trkpt>
      <trkpt lat="54.4270127" lon="16.1579048">
        <time>2026-07-16T15:50:46Z</time>
      </trkpt>
      <trkpt lat="54.4279337" lon="16.1600798">
        <time>2026-07-16T15:51:39Z</time>
      </trkpt>
      <trkpt lat="54.4284866" lon="16.1616250">
        <time>2026-07-16T15:52:13Z</time>
      </trkpt>
      <trkpt lat="54.4291513" lon="16.1630955">
        <time>2026-07-16T15:52:49Z</time>
      </trkpt>
      <trkpt lat="54.4297492" lon="16.1646243">
        <time>2026-07-16T15:53:25Z</time>
      </trkpt>
      <trkpt lat="54.4302965" lon="16.1662601">
        <time>2026-07-16T15:54:01Z</time>
      </trkpt>
      <trkpt lat="54.4310903" lon="16.1683168">
        <time>2026-07-16T15:54:47Z</time>
      </trkpt>
      <trkpt lat="54.4317887" lon="16.1703995">
        <time>2026-07-16T15:55:33Z</time>
      </trkpt>
      <trkpt lat="54.4321690" lon="16.1718573">
        <time>2026-07-16T15:56:03Z</time>
      </trkpt>
      <trkpt lat="54.4331408" lon="16.1747078">
        <time>2026-07-16T15:57:05Z</time>
      </trkpt>
      <trkpt lat="54.4337042" lon="16.1764747">
        <time>2026-07-16T15:57:43Z</time>
      </trkpt>
      <trkpt lat="54.4344773" lon="16.1783866">
        <time>2026-07-16T15:58:27Z</time>
      </trkpt>
      <trkpt lat="54.4354395" lon="16.1814594">
        <time>2026-07-16T15:59:34Z</time>
      </trkpt>
      <trkpt lat="54.4365551" lon="16.1845878">
        <time>2026-07-16T16:00:44Z</time>
      </trkpt>
      <trkpt lat="54.4376915" lon="16.1868698">
        <time>2026-07-16T16:01:40Z</time>
      </trkpt>
      <trkpt lat="54.4383453" lon="16.1883698">
        <time>2026-07-16T16:02:16Z</time>
      </trkpt>
      <trkpt lat="54.4390190" lon="16.1897394">
        <time>2026-07-16T16:02:50Z</time>
      </trkpt>
      <trkpt lat="54.4399469" lon="16.1926622">
        <time>2026-07-16T16:03:54Z</time>
      </trkpt>
      <trkpt lat="54.4407103" lon="16.1946640">
        <time>2026-07-16T16:04:40Z</time>
      </trkpt>
      <trkpt lat="54.4421042" lon="16.1988120">
        <time>2026-07-16T16:06:12Z</time>
      </trkpt>
      <trkpt lat="54.4428059" lon="16.2007700">
        <time>2026-07-16T16:06:56Z</time>
      </trkpt>
      <trkpt lat="54.4434233" lon="16.2028565">
        <time>2026-07-16T16:07:41Z</time>
      </trkpt>
      <trkpt lat="54.4443110" lon="16.2049498">
        <time>2026-07-16T16:08:31Z</time>
      </trkpt>
      <trkpt lat="54.4454390" lon="16.2083840">
        <time>2026-07-16T16:09:47Z</time>
      </trkpt>
      <trkpt lat="54.4465283" lon="16.2115419">
        <time>2026-07-16T16:10:57Z</time>
      </trkpt>
      <trkpt lat="54.4478591" lon="16.2151465">
        <time>2026-07-16T16:12:19Z</time>
      </trkpt>
      <trkpt lat="54.4490494" lon="16.2177906">
        <time>2026-07-16T16:13:23Z</time>
      </trkpt>
      <trkpt lat="54.4496659" lon="16.2193225">
        <time>2026-07-16T16:13:59Z</time>
      </trkpt>
      <trkpt lat="54.4516148" lon="16.2257229">
        <time>2026-07-16T16:16:19Z</time>
      </trkpt>
      <trkpt lat="54.4524527" lon="16.2278935">
        <time>2026-07-16T16:17:09Z</time>
      </trkpt>
      <trkpt lat="54.4528475" lon="16.2290373">
        <time>2026-07-16T16:17:36Z</time>
      </trkpt>
      <trkpt lat="54.4553587" lon="16.2352267">
        <time>2026-07-16T16:20:00Z</time>
      </trkpt>
      <trkpt lat="54.4560853" lon="16.2369093">
        <time>2026-07-16T16:20:40Z</time>
      </trkpt>
      <trkpt lat="54.4566476" lon="16.2380233">
        <time>2026-07-16T16:21:08Z</time>
      </trkpt>
      <trkpt lat="54.4570802" lon="16.2390182">
        <time>2026-07-16T16:21:32Z</time>
      </trkpt>
      <trkpt lat="54.4582520" lon="16.2414308">
        <time>2026-07-16T16:22:32Z</time>
      </trkpt>
      <trkpt lat="54.4591198" lon="16.2430524">
        <time>2026-07-16T16:23:14Z</time>
      </trkpt>
      <trkpt lat="54.4595376" lon="16.2440645">
        <time>2026-07-16T16:23:38Z</time>
      </trkpt>
      <trkpt lat="54.4602690" lon="16.2468410">
        <time>2026-07-16T16:24:36Z</time>
      </trkpt>
      <trkpt lat="54.4614218" lon="16.2505327">
        <time>2026-07-16T16:25:57Z</time>
      </trkpt>
      <trkpt lat="54.4635103" lon="16.2562389">
        <time>2026-07-16T16:28:05Z</time>
      </trkpt>
      <trkpt lat="54.4654035" lon="16.2615808">
        <time>2026-07-16T16:30:03Z</time>
      </trkpt>
      <trkpt lat="54.4664505" lon="16.2646800">
        <time>2026-07-16T16:31:11Z</time>
      </trkpt>
      <trkpt lat="54.4677255" lon="16.2679130">
        <time>2026-07-16T16:32:25Z</time>
      </trkpt>
      <trkpt lat="54.4689768" lon="16.2715151">
        <time>2026-07-16T16:33:46Z</time>
      </trkpt>
      <trkpt lat="54.4704339" lon="16.2752972">
        <time>2026-07-16T16:35:12Z</time>
      </trkpt>
      <trkpt lat="54.4713488" lon="16.2774887">
        <time>2026-07-16T16:36:02Z</time>
      </trkpt>
      <trkpt lat="54.4721798" lon="16.2795870">
        <time>2026-07-16T16:36:50Z</time>
      </trkpt>
      <trkpt lat="54.4731089" lon="16.2821153">
        <time>2026-07-16T16:37:46Z</time>
      </trkpt>
      <trkpt lat="54.4740589" lon="16.2839669">
        <time>2026-07-16T16:38:32Z</time>
      </trkpt>
      <trkpt lat="54.4745102" lon="16.2849713">
        <time>2026-07-16T16:38:56Z</time>
      </trkpt>
      <trkpt lat="54.4751115" lon="16.2865643">
        <time>2026-07-16T16:39:32Z</time>
      </trkpt>
      <trkpt lat="54.4772177" lon="16.2921758">
        <time>2026-07-16T16:41:38Z</time>
      </trkpt>
      <trkpt lat="54.4779627" lon="16.2939064">
        <time>2026-07-16T16:42:19Z</time>
      </trkpt>
      <trkpt lat="54.4789066" lon="16.2967278">
        <time>2026-07-16T16:43:21Z</time>
      </trkpt>
      <trkpt lat="54.4793845" lon="16.2979210">
        <time>2026-07-16T16:43:47Z</time>
      </trkpt>
      <trkpt lat="54.4801020" lon="16.3001155">
        <time>2026-07-16T16:44:35Z</time>
      </trkpt>
      <trkpt lat="54.4809740" lon="16.3022309">
        <time>2026-07-16T16:45:23Z</time>
      </trkpt>
      <trkpt lat="54.4815131" lon="16.3038766">
        <time>2026-07-16T16:45:59Z</time>
      </trkpt>
      <trkpt lat="54.4824087" lon="16.3061865">
        <time>2026-07-16T16:46:51Z</time>
      </trkpt>
      <trkpt lat="54.4834245" lon="16.3083980">
        <time>2026-07-16T16:47:44Z</time>
      </trkpt>
      <trkpt lat="54.4842525" lon="16.3108636">
        <time>2026-07-16T16:48:38Z</time>
      </trkpt>
      <trkpt lat="54.4852376" lon="16.3133190">
        <time>2026-07-16T16:49:34Z</time>
      </trkpt>
      <trkpt lat="54.4858940" lon="16.3152570">
        <time>2026-07-16T16:50:16Z</time>
      </trkpt>
      <trkpt lat="54.4866500" lon="16.3170710">
        <time>2026-07-16T16:50:58Z</time>
      </trkpt>
      <trkpt lat="54.4870462" lon="16.3181538">
        <time>2026-07-16T16:51:22Z</time>
      </trkpt>
      <trkpt lat="54.4883141" lon="16.3207435">
        <time>2026-07-16T16:52:26Z</time>
      </trkpt>
      <trkpt lat="54.4893108" lon="16.3234495">
        <time>2026-07-16T16:53:26Z</time>
      </trkpt>
      <trkpt lat="54.4907120" lon="16.3262133">
        <time>2026-07-16T16:54:36Z</time>
      </trkpt>
      <trkpt lat="54.4916769" lon="16.3286327">
        <time>2026-07-16T16:55:32Z</time>
      </trkpt>
      <trkpt lat="54.4927441" lon="16.3309497">
        <time>2026-07-16T16:56:29Z</time>
      </trkpt>
      <trkpt lat="54.4934203" lon="16.3326833">
        <time>2026-07-16T16:57:07Z</time>
      </trkpt>
      <trkpt lat="54.4945357" lon="16.3350386">
        <time>2026-07-16T16:58:05Z</time>
      </trkpt>
      <trkpt lat="54.4951606" lon="16.3366378">
        <time>2026-07-16T16:58:41Z</time>
      </trkpt>
      <trkpt lat="54.4955598" lon="16.3387289">
        <time>2026-07-16T16:59:23Z</time>
      </trkpt>
      <trkpt lat="54.4967123" lon="16.3415205">
        <time>2026-07-16T17:00:29Z</time>
      </trkpt>
      <trkpt lat="54.4974805" lon="16.3435945">
        <time>2026-07-16T17:01:15Z</time>
      </trkpt>
      <trkpt lat="54.4982562" lon="16.3454997">
        <time>2026-07-16T17:01:59Z</time>
      </trkpt>
      <trkpt lat="54.4992945" lon="16.3486861">
        <time>2026-07-16T17:03:07Z</time>
      </trkpt>
      <trkpt lat="54.4997456" lon="16.3503883">
        <time>2026-07-16T17:03:43Z</time>
      </trkpt>
      <trkpt lat="54.5011635" lon="16.3538913">
        <time>2026-07-16T17:05:05Z</time>
      </trkpt>
      <trkpt lat="54.5021050" lon="16.3558513">
        <time>2026-07-16T17:05:53Z</time>
      </trkpt>
      <trkpt lat="54.5029064" lon="16.3581923">
        <time>2026-07-16T17:06:45Z</time>
      </trkpt>
      <trkpt lat="54.5034900" lon="16.3596549">
        <time>2026-07-16T17:07:20Z</time>
      </trkpt>
      <trkpt lat="54.5040432" lon="16.3606257">
        <time>2026-07-16T17:07:46Z</time>
      </trkpt>
      <trkpt lat="54.5047347" lon="16.3616721">
        <time>2026-07-16T17:08:16Z</time>
      </trkpt>
      <trkpt lat="54.5053600" lon="16.3629308">
        <time>2026-07-16T17:08:46Z</time>
      </trkpt>
      <trkpt lat="54.5058208" lon="16.3643168">
        <time>2026-07-16T17:09:16Z</time>
      </trkpt>
      <trkpt lat="54.5067740" lon="16.3662180">
        <time>2026-07-16T17:10:04Z</time>
      </trkpt>
      <trkpt lat="54.5076981" lon="16.3683018">
        <time>2026-07-16T17:10:54Z</time>
      </trkpt>
      <trkpt lat="54.5081427" lon="16.3696821">
        <time>2026-07-16T17:11:24Z</time>
      </trkpt>
      <trkpt lat="54.5087807" lon="16.3709299">
        <time>2026-07-16T17:11:56Z</time>
      </trkpt>
      <trkpt lat="54.5094907" lon="16.3730383">
        <time>2026-07-16T17:12:42Z</time>
      </trkpt>
      <trkpt lat="54.5099949" lon="16.3746129">
        <time>2026-07-16T17:13:16Z</time>
      </trkpt>
      <trkpt lat="54.5106597" lon="16.3761243">
        <time>2026-07-16T17:13:52Z</time>
      </trkpt>
      <trkpt lat="54.5112315" lon="16.3770702">
        <time>2026-07-16T17:14:18Z</time>
      </trkpt>
      <trkpt lat="54.5119981" lon="16.3786308">
        <time>2026-07-16T17:14:56Z</time>
      </trkpt>
      <trkpt lat="54.5125540" lon="16.3798646">
        <time>2026-07-16T17:15:26Z</time>
      </trkpt>
      <trkpt lat="54.5131270" lon="16.3814900">
        <time>2026-07-16T17:16:02Z</time>
      </trkpt>
      <trkpt lat="54.5142942" lon="16.3835210">
        <time>2026-07-16T17:16:56Z</time>
      </trkpt>
      <trkpt lat="54.5148305" lon="16.3845214">
        <time>2026-07-16T17:17:22Z</time>
      </trkpt>
      <trkpt lat="54.5153080" lon="16.3857485">
        <time>2026-07-16T17:17:50Z</time>
      </trkpt>
      <trkpt lat="54.5157260" lon="16.3872620">
        <time>2026-07-16T17:18:22Z</time>
      </trkpt>
      <trkpt lat="54.5161431" lon="16.3882911">
        <time>2026-07-16T17:18:46Z</time>
      </trkpt>
      <trkpt lat="54.5172710" lon="16.3903688">
        <time>2026-07-16T17:19:40Z</time>
      </trkpt>
      <trkpt lat="54.5178313" lon="16.3915008">
        <time>2026-07-16T17:20:09Z</time>
      </trkpt>
      <trkpt lat="54.5184082" lon="16.3932380">
        <time>2026-07-16T17:20:47Z</time>
      </trkpt>
      <trkpt lat="54.5190973" lon="16.3947371">
        <time>2026-07-16T17:21:23Z</time>
      </trkpt>
      <trkpt lat="54.5196735" lon="16.3957001">
        <time>2026-07-16T17:21:49Z</time>
      </trkpt>
      <trkpt lat="54.5203087" lon="16.3969965">
        <time>2026-07-16T17:22:21Z</time>
      </trkpt>
      <trkpt lat="54.5206878" lon="16.3980835">
        <time>2026-07-16T17:22:45Z</time>
      </trkpt>
      <trkpt lat="54.5214185" lon="16.3996334">
        <time>2026-07-16T17:23:23Z</time>
      </trkpt>
      <trkpt lat="54.5221225" lon="16.4008165">
        <time>2026-07-16T17:23:55Z</time>
      </trkpt>
      <trkpt lat="54.5226856" lon="16.4019435">
        <time>2026-07-16T17:24:23Z</time>
      </trkpt>
      <trkpt lat="54.5233808" lon="16.4041522">
        <time>2026-07-16T17:25:11Z</time>
      </trkpt>
      <trkpt lat="54.5239235" lon="16.4055460">
        <time>2026-07-16T17:25:43Z</time>
      </trkpt>
      <trkpt lat="54.5255072" lon="16.4082082">
        <time>2026-07-16T17:26:55Z</time>
      </trkpt>
      <trkpt lat="54.5260921" lon="16.4094245">
        <time>2026-07-16T17:27:25Z</time>
      </trkpt>
      <trkpt lat="54.5265422" lon="16.4112232">
        <time>2026-07-16T17:28:03Z</time>
      </trkpt>
      <trkpt lat="54.5269814" lon="16.4125710">
        <time>2026-07-16T17:28:33Z</time>
      </trkpt>
      <trkpt lat="54.5288705" lon="16.4158722">
        <time>2026-07-16T17:30:01Z</time>
      </trkpt>
      <trkpt lat="54.5297075" lon="16.4181700">
        <time>2026-07-16T17:30:54Z</time>
      </trkpt>
      <trkpt lat="54.5302773" lon="16.4195203">
        <time>2026-07-16T17:31:26Z</time>
      </trkpt>
      <trkpt lat="54.5312362" lon="16.4209840">
        <time>2026-07-16T17:32:08Z</time>
      </trkpt>
      <trkpt lat="54.5322685" lon="16.4232875">
        <time>2026-07-16T17:33:04Z</time>
      </trkpt>
      <trkpt lat="54.5330215" lon="16.4255634">
        <time>2026-07-16T17:33:54Z</time>
      </trkpt>
      <trkpt lat="54.5337264" lon="16.4281065">
        <time>2026-07-16T17:34:48Z</time>
      </trkpt>
      <trkpt lat="54.5340985" lon="16.4292879">
        <time>2026-07-16T17:35:14Z</time>
      </trkpt>
      <trkpt lat="54.5347350" lon="16.4310670">
        <time>2026-07-16T17:35:54Z</time>
      </trkpt>
      <trkpt lat="54.5359370" lon="16.4348245">
        <time>2026-07-16T17:37:16Z</time>
      </trkpt>
      <trkpt lat="54.5363797" lon="16.4365740">
        <time>2026-07-16T17:37:52Z</time>
      </trkpt>
      <trkpt lat="54.5370085" lon="16.4382521">
        <time>2026-07-16T17:38:30Z</time>
      </trkpt>
      <trkpt lat="54.5374976" lon="16.4403008">
        <time>2026-07-16T17:39:13Z</time>
      </trkpt>
      <trkpt lat="54.5381758" lon="16.4426185">
        <time>2026-07-16T17:40:01Z</time>
      </trkpt>
      <trkpt lat="54.5388874" lon="16.4454544">
        <time>2026-07-16T17:40:59Z</time>
      </trkpt>
      <trkpt lat="54.5393253" lon="16.4475385">
        <time>2026-07-16T17:41:41Z</time>
      </trkpt>
      <trkpt lat="54.5402834" lon="16.4512017">
        <time>2026-07-16T17:42:57Z</time>
      </trkpt>
      <trkpt lat="54.5406456" lon="16.4524290">
        <time>2026-07-16T17:43:23Z</time>
      </trkpt>
      <trkpt lat="54.5415147" lon="16.4548906">
        <time>2026-07-16T17:44:17Z</time>
      </trkpt>
      <trkpt lat="54.5420252" lon="16.4569837">
        <time>2026-07-16T17:44:59Z</time>
      </trkpt>
      <trkpt lat="54.5424242" lon="16.4581682">
        <time>2026-07-16T17:45:25Z</time>
      </trkpt>
      <trkpt lat="54.5433080" lon="16.4595015">
        <time>2026-07-16T17:46:03Z</time>
      </trkpt>
      <trkpt lat="54.5438467" lon="16.4605193">
        <time>2026-07-16T17:46:29Z</time>
      </trkpt>
      <trkpt lat="54.5442495" lon="16.4617940">
        <time>2026-07-16T17:46:55Z</time>
      </trkpt>
      <trkpt lat="54.5450491" lon="16.4639740">
        <time>2026-07-16T17:47:44Z</time>
      </trkpt>
      <trkpt lat="54.5454870" lon="16.4653958">
        <time>2026-07-16T17:48:14Z</time>
      </trkpt>
      <trkpt lat="54.5457971" lon="16.4672433">
        <time>2026-07-16T17:48:50Z</time>
      </trkpt>
      <trkpt lat="54.5462405" lon="16.4688967">
        <time>2026-07-16T17:49:24Z</time>
      </trkpt>
      <trkpt lat="54.5469410" lon="16.4706821">
        <time>2026-07-16T17:50:04Z</time>
      </trkpt>
      <trkpt lat="54.5474946" lon="16.4723757">
        <time>2026-07-16T17:50:40Z</time>
      </trkpt>
      <trkpt lat="54.5479883" lon="16.4736363">
        <time>2026-07-16T17:51:08Z</time>
      </trkpt>
      <trkpt lat="54.5485482" lon="16.4757817">
        <time>2026-07-16T17:51:52Z</time>
      </trkpt>
      <trkpt lat="54.5492258" lon="16.4785662">
        <time>2026-07-16T17:52:48Z</time>
      </trkpt>
      <trkpt lat="54.5499821" lon="16.4810312">
        <time>2026-07-16T17:53:40Z</time>
      </trkpt>
      <trkpt lat="54.5507235" lon="16.4844060">
        <time>2026-07-16T17:54:48Z</time>
      </trkpt>
      <trkpt lat="54.5509563" lon="16.4858420">
        <time>2026-07-16T17:55:16Z</time>
      </trkpt>
      <trkpt lat="54.5516943" lon="16.4885834">
        <time>2026-07-16T17:56:12Z</time>
      </trkpt>
      <trkpt lat="54.5526177" lon="16.4923706">
        <time>2026-07-16T17:57:28Z</time>
      </trkpt>
      <trkpt lat="54.5535201" lon="16.4952003">
        <time>2026-07-16T17:58:29Z</time>
      </trkpt>
      <trkpt lat="54.5540206" lon="16.4971016">
        <time>2026-07-16T17:59:07Z</time>
      </trkpt>
      <trkpt lat="54.5545872" lon="16.4987227">
        <time>2026-07-16T17:59:43Z</time>
      </trkpt>
      <trkpt lat="54.5548998" lon="16.4999385">
        <time>2026-07-16T18:00:07Z</time>
      </trkpt>
      <trkpt lat="54.5556393" lon="16.5034397">
        <time>2026-07-16T18:01:17Z</time>
      </trkpt>
      <trkpt lat="54.5564516" lon="16.5064905">
        <time>2026-07-16T18:02:19Z</time>
      </trkpt>
      <trkpt lat="54.5568175" lon="16.5085139">
        <time>2026-07-16T18:02:59Z</time>
      </trkpt>
      <trkpt lat="54.5572042" lon="16.5101772">
        <time>2026-07-16T18:03:33Z</time>
      </trkpt>
      <trkpt lat="54.5580657" lon="16.5127825">
        <time>2026-07-16T18:04:29Z</time>
      </trkpt>
      <trkpt lat="54.5583970" lon="16.5142778">
        <time>2026-07-16T18:04:59Z</time>
      </trkpt>
      <trkpt lat="54.5584660" lon="16.5158415">
        <time>2026-07-16T18:05:29Z</time>
      </trkpt>
      <trkpt lat="54.5585882" lon="16.5172045">
        <time>2026-07-16T18:05:55Z</time>
      </trkpt>
      <trkpt lat="54.5596134" lon="16.5207728">
        <time>2026-07-16T18:07:09Z</time>
      </trkpt>
      <trkpt lat="54.5601045" lon="16.5221582">
        <time>2026-07-16T18:07:39Z</time>
      </trkpt>
      <trkpt lat="54.5617150" lon="16.5273834">
        <time>2026-07-16T18:09:30Z</time>
      </trkpt>
      <trkpt lat="54.5621348" lon="16.5301403">
        <time>2026-07-16T18:10:24Z</time>
      </trkpt>
      <trkpt lat="54.5625842" lon="16.5317183">
        <time>2026-07-16T18:10:58Z</time>
      </trkpt>
      <trkpt lat="54.5631538" lon="16.5326914">
        <time>2026-07-16T18:11:24Z</time>
      </trkpt>
      <trkpt lat="54.5636967" lon="16.5338627">
        <time>2026-07-16T18:11:52Z</time>
      </trkpt>
      <trkpt lat="54.5646215" lon="16.5373789">
        <time>2026-07-16T18:13:04Z</time>
      </trkpt>
      <trkpt lat="54.5651580" lon="16.5398032">
        <time>2026-07-16T18:13:52Z</time>
      </trkpt>
      <trkpt lat="54.5660842" lon="16.5427835">
        <time>2026-07-16T18:14:54Z</time>
      </trkpt>
      <trkpt lat="54.5669533" lon="16.5464822">
        <time>2026-07-16T18:16:08Z</time>
      </trkpt>
      <trkpt lat="54.5677437" lon="16.5496127">
        <time>2026-07-16T18:17:11Z</time>
      </trkpt>
      <trkpt lat="54.5680278" lon="16.5513442">
        <time>2026-07-16T18:17:45Z</time>
      </trkpt>
      <trkpt lat="54.5683275" lon="16.5525528">
        <time>2026-07-16T18:18:09Z</time>
      </trkpt>
      <trkpt lat="54.5691943" lon="16.5546647">
        <time>2026-07-16T18:18:57Z</time>
      </trkpt>
      <trkpt lat="54.5699312" lon="16.5568935">
        <time>2026-07-16T18:19:45Z</time>
      </trkpt>
      <trkpt lat="54.5704923" lon="16.5593291">
        <time>2026-07-16T18:20:33Z</time>
      </trkpt>
      <trkpt lat="54.5714107" lon="16.5623715">
        <time>2026-07-16T18:21:37Z</time>
      </trkpt>
      <trkpt lat="54.5724278" lon="16.5666210">
        <time>2026-07-16T18:23:01Z</time>
      </trkpt>
      <trkpt lat="54.5726895" lon="16.5679239">
        <time>2026-07-16T18:23:27Z</time>
      </trkpt>
      <trkpt lat="54.5734056" lon="16.5700095">
        <time>2026-07-16T18:24:13Z</time>
      </trkpt>
      <trkpt lat="54.5742013" lon="16.5716335">
        <time>2026-07-16T18:24:53Z</time>
      </trkpt>
      <trkpt lat="54.5746102" lon="16.5728215">
        <time>2026-07-16T18:25:19Z</time>
      </trkpt>
      <trkpt lat="54.5753518" lon="16.5781335">
        <time>2026-07-16T18:27:01Z</time>
      </trkpt>
      <trkpt lat="54.5757293" lon="16.5798530">
        <time>2026-07-16T18:27:36Z</time>
      </trkpt>
      <trkpt lat="54.5763069" lon="16.5815228">
        <time>2026-07-16T18:28:12Z</time>
      </trkpt>
      <trkpt lat="54.5768667" lon="16.5840201">
        <time>2026-07-16T18:29:02Z</time>
      </trkpt>
      <trkpt lat="54.5775860" lon="16.5863828">
        <time>2026-07-16T18:29:52Z</time>
      </trkpt>
      <trkpt lat="54.5781872" lon="16.5887194">
        <time>2026-07-16T18:30:40Z</time>
      </trkpt>
      <trkpt lat="54.5785765" lon="16.5900738">
        <time>2026-07-16T18:31:08Z</time>
      </trkpt>
      <trkpt lat="54.5791682" lon="16.5916967">
        <time>2026-07-16T18:31:44Z</time>
      </trkpt>
      <trkpt lat="54.5799395" lon="16.5940358">
        <time>2026-07-16T18:32:34Z</time>
      </trkpt>
      <trkpt lat="54.5804052" lon="16.5958890">
        <time>2026-07-16T18:33:12Z</time>
      </trkpt>
      <trkpt lat="54.5811485" lon="16.5982298">
        <time>2026-07-16T18:34:02Z</time>
      </trkpt>
      <trkpt lat="54.5815333" lon="16.5998170">
        <time>2026-07-16T18:34:34Z</time>
      </trkpt>
      <trkpt lat="54.5831399" lon="16.6045379">
        <time>2026-07-16T18:36:16Z</time>
      </trkpt>
      <trkpt lat="54.5839034" lon="16.6078993">
        <time>2026-07-16T18:37:24Z</time>
      </trkpt>
      <trkpt lat="54.5843189" lon="16.6095530">
        <time>2026-07-16T18:37:58Z</time>
      </trkpt>
      <trkpt lat="54.5849193" lon="16.6112404">
        <time>2026-07-16T18:38:36Z</time>
      </trkpt>
      <trkpt lat="54.5853095" lon="16.6124919">
        <time>2026-07-16T18:39:03Z</time>
      </trkpt>
      <trkpt lat="54.5860600" lon="16.6144567">
        <time>2026-07-16T18:39:47Z</time>
      </trkpt>
      <trkpt lat="54.5865925" lon="16.6162422">
        <time>2026-07-16T18:40:25Z</time>
      </trkpt>
      <trkpt lat="54.5871810" lon="16.6179886">
        <time>2026-07-16T18:41:03Z</time>
      </trkpt>
      <trkpt lat="54.5879473" lon="16.6208773">
        <time>2026-07-16T18:42:05Z</time>
      </trkpt>
      <trkpt lat="54.5884615" lon="16.6227275">
        <time>2026-07-16T18:42:46Z</time>
      </trkpt>
      <trkpt lat="54.5887511" lon="16.6239643">
        <time>2026-07-16T18:43:12Z</time>
      </trkpt>
      <trkpt lat="54.5893571" lon="16.6260240">
        <time>2026-07-16T18:43:56Z</time>
      </trkpt>
      <trkpt lat="54.5899082" lon="16.6282925">
        <time>2026-07-16T18:44:44Z</time>
      </trkpt>
      <trkpt lat="54.5905475" lon="16.6305097">
        <time>2026-07-16T18:45:32Z</time>
      </trkpt>
      <trkpt lat="54.5909267" lon="16.6320330">
        <time>2026-07-16T18:46:04Z</time>
      </trkpt>
      <trkpt lat="54.5917458" lon="16.6346052">
        <time>2026-07-16T18:47:00Z</time>
      </trkpt>
      <trkpt lat="54.5922154" lon="16.6363997">
        <time>2026-07-16T18:47:41Z</time>
      </trkpt>
      <trkpt lat="54.5929823" lon="16.6384443">
        <time>2026-07-16T18:48:27Z</time>
      </trkpt>
      <trkpt lat="54.5938866" lon="16.6413517">
        <time>2026-07-16T18:49:31Z</time>
      </trkpt>
      <trkpt lat="54.5944124" lon="16.6436657">
        <time>2026-07-16T18:50:21Z</time>
      </trkpt>
      <trkpt lat="54.5957628" lon="16.6464135">
        <time>2026-07-16T18:51:33Z</time>
      </trkpt>
      <trkpt lat="54.5966480" lon="16.6484722">
        <time>2026-07-16T18:52:23Z</time>
      </trkpt>
      <trkpt lat="54.5974128" lon="16.6499848">
        <time>2026-07-16T18:53:03Z</time>
      </trkpt>
      <trkpt lat="54.5978691" lon="16.6509732">
        <time>2026-07-16T18:53:27Z</time>
      </trkpt>
      <trkpt lat="54.5983003" lon="16.6522630">
        <time>2026-07-16T18:53:57Z</time>
      </trkpt>
      <trkpt lat="54.5985730" lon="16.6541960">
        <time>2026-07-16T18:54:37Z</time>
      </trkpt>
      <trkpt lat="54.5988967" lon="16.6557580">
        <time>2026-07-16T18:55:11Z</time>
      </trkpt>
      <trkpt lat="54.5994510" lon="16.6582716">
        <time>2026-07-16T18:56:05Z</time>
      </trkpt>
      <trkpt lat="54.5995987" lon="16.6596403">
        <time>2026-07-16T18:56:33Z</time>
      </trkpt>
      <trkpt lat="54.6000473" lon="16.6615093">
        <time>2026-07-16T18:57:13Z</time>
      </trkpt>
      <trkpt lat="54.6004630" lon="16.6627247">
        <time>2026-07-16T18:57:42Z</time>
      </trkpt>
      <trkpt lat="54.6011285" lon="16.6650124">
        <time>2026-07-16T18:58:34Z</time>
      </trkpt>
      <trkpt lat="54.6016632" lon="16.6666288">
        <time>2026-07-16T18:59:10Z</time>
      </trkpt>
      <trkpt lat="54.6020500" lon="16.6680027">
        <time>2026-07-16T18:59:40Z</time>
      </trkpt>
      <trkpt lat="54.6029355" lon="16.6706774">
        <time>2026-07-16T19:00:40Z</time>
      </trkpt>
      <trkpt lat="54.6035398" lon="16.6735778">
        <time>2026-07-16T19:01:42Z</time>
      </trkpt>
      <trkpt lat="54.6044809" lon="16.6769835">
        <time>2026-07-16T19:02:57Z</time>
      </trkpt>
      <trkpt lat="54.6047957" lon="16.6781627">
        <time>2026-07-16T19:03:23Z</time>
      </trkpt>
      <trkpt lat="54.6062767" lon="16.6817912">
        <time>2026-07-16T19:04:47Z</time>
      </trkpt>
      <trkpt lat="54.6066677" lon="16.6828425">
        <time>2026-07-16T19:05:11Z</time>
      </trkpt>
      <trkpt lat="54.6083707" lon="16.6898765">
        <time>2026-07-16T19:07:39Z</time>
      </trkpt>
      <trkpt lat="54.6088728" lon="16.6914350">
        <time>2026-07-16T19:08:13Z</time>
      </trkpt>
      <trkpt lat="54.6099457" lon="16.6937700">
        <time>2026-07-16T19:09:09Z</time>
      </trkpt>
      <trkpt lat="54.6106625" lon="16.6958165">
        <time>2026-07-16T19:09:55Z</time>
      </trkpt>
      <trkpt lat="54.6111785" lon="16.6972140">
        <time>2026-07-16T19:10:27Z</time>
      </trkpt>
      <trkpt lat="54.6119815" lon="16.6990281">
        <time>2026-07-16T19:11:11Z</time>
      </trkpt>
      <trkpt lat="54.6131878" lon="16.7024407">
        <time>2026-07-16T19:12:26Z</time>
      </trkpt>
      <trkpt lat="54.6143380" lon="16.7067545">
        <time>2026-07-16T19:13:56Z</time>
      </trkpt>
      <trkpt lat="54.6147925" lon="16.7080375">
        <time>2026-07-16T19:14:26Z</time>
      </trkpt>
      <trkpt lat="54.6161312" lon="16.7106035">
        <time>2026-07-16T19:15:30Z</time>
      </trkpt>
      <trkpt lat="54.6170322" lon="16.7128348">
        <time>2026-07-16T19:16:22Z</time>
      </trkpt>
      <trkpt lat="54.6179175" lon="16.7147277">
        <time>2026-07-16T19:17:08Z</time>
      </trkpt>
      <trkpt lat="54.6183348" lon="16.7157993">
        <time>2026-07-16T19:17:33Z</time>
      </trkpt>
      <trkpt lat="54.6189511" lon="16.7179349">
        <time>2026-07-16T19:18:17Z</time>
      </trkpt>
      <trkpt lat="54.6195123" lon="16.7201717">
        <time>2026-07-16T19:19:03Z</time>
      </trkpt>
      <trkpt lat="54.6198617" lon="16.7212817">
        <time>2026-07-16T19:19:27Z</time>
      </trkpt>
      <trkpt lat="54.6201935" lon="16.7225525">
        <time>2026-07-16T19:19:53Z</time>
      </trkpt>
      <trkpt lat="54.6209725" lon="16.7248430">
        <time>2026-07-16T19:20:43Z</time>
      </trkpt>
      <trkpt lat="54.6215794" lon="16.7271581">
        <time>2026-07-16T19:21:31Z</time>
      </trkpt>
      <trkpt lat="54.6221925" lon="16.7293674">
        <time>2026-07-16T19:22:17Z</time>
      </trkpt>
      <trkpt lat="54.6226205" lon="16.7310427">
        <time>2026-07-16T19:22:51Z</time>
      </trkpt>
      <trkpt lat="54.6230177" lon="16.7321311">
        <time>2026-07-16T19:23:15Z</time>
      </trkpt>
      <trkpt lat="54.6241140" lon="16.7346906">
        <time>2026-07-16T19:24:13Z</time>
      </trkpt>
      <trkpt lat="54.6245140" lon="16.7359965">
        <time>2026-07-16T19:24:41Z</time>
      </trkpt>
      <trkpt lat="54.6247838" lon="16.7374983">
        <time>2026-07-16T19:25:12Z</time>
      </trkpt>
      <trkpt lat="54.6251822" lon="16.7393442">
        <time>2026-07-16T19:25:48Z</time>
      </trkpt>
      <trkpt lat="54.6254347" lon="16.7407867">
        <time>2026-07-16T19:26:16Z</time>
      </trkpt>
      <trkpt lat="54.6264288" lon="16.7440364">
        <time>2026-07-16T19:27:24Z</time>
      </trkpt>
      <trkpt lat="54.6271548" lon="16.7468847">
        <time>2026-07-16T19:28:22Z</time>
      </trkpt>
      <trkpt lat="54.6277137" lon="16.7489601">
        <time>2026-07-16T19:29:04Z</time>
      </trkpt>
      <trkpt lat="54.6280268" lon="16.7503330">
        <time>2026-07-16T19:29:32Z</time>
      </trkpt>
      <trkpt lat="54.6291370" lon="16.7542560">
        <time>2026-07-16T19:30:52Z</time>
      </trkpt>
      <trkpt lat="54.6296007" lon="16.7553988">
        <time>2026-07-16T19:31:18Z</time>
      </trkpt>
      <trkpt lat="54.6306171" lon="16.7566837">
        <time>2026-07-16T19:31:58Z</time>
      </trkpt>
      <trkpt lat="54.6311945" lon="16.7584060">
        <time>2026-07-16T19:32:36Z</time>
      </trkpt>
      <trkpt lat="54.6316007" lon="16.7596358">
        <time>2026-07-16T19:33:02Z</time>
      </trkpt>
      <trkpt lat="54.6320385" lon="16.7606617">
        <time>2026-07-16T19:33:26Z</time>
      </trkpt>
      <trkpt lat="54.6329313" lon="16.7624535">
        <time>2026-07-16T19:34:08Z</time>
      </trkpt>
      <trkpt lat="54.6343627" lon="16.7659743">
        <time>2026-07-16T19:35:26Z</time>
      </trkpt>
      <trkpt lat="54.6350850" lon="16.7683218">
        <time>2026-07-16T19:36:16Z</time>
      </trkpt>
      <trkpt lat="54.6366613" lon="16.7717049">
        <time>2026-07-16T19:37:35Z</time>
      </trkpt>
      <trkpt lat="54.6379515" lon="16.7762775">
        <time>2026-07-16T19:39:09Z</time>
      </trkpt>
      <trkpt lat="54.6383717" lon="16.7782376">
        <time>2026-07-16T19:39:47Z</time>
      </trkpt>
      <trkpt lat="54.6392127" lon="16.7810160">
        <time>2026-07-16T19:40:45Z</time>
      </trkpt>
      <trkpt lat="54.6399343" lon="16.7841014">
        <time>2026-07-16T19:41:46Z</time>
      </trkpt>
      <trkpt lat="54.6404022" lon="16.7858886">
        <time>2026-07-16T19:42:22Z</time>
      </trkpt>
      <trkpt lat="54.6406770" lon="16.7876699">
        <time>2026-07-16T19:42:56Z</time>
      </trkpt>
      <trkpt lat="54.6412455" lon="16.7889558">
        <time>2026-07-16T19:43:28Z</time>
      </trkpt>
      <trkpt lat="54.6419336" lon="16.7897067">
        <time>2026-07-16T19:43:54Z</time>
      </trkpt>
      <trkpt lat="54.6428215" lon="16.7903370">
        <time>2026-07-16T19:44:24Z</time>
      </trkpt>
      <trkpt lat="54.6436142" lon="16.7923284">
        <time>2026-07-16T19:45:10Z</time>
      </trkpt>
      <trkpt lat="54.6443496" lon="16.7939804">
        <time>2026-07-16T19:45:48Z</time>
      </trkpt>
      <trkpt lat="54.6449096" lon="16.7955823">
        <time>2026-07-16T19:46:22Z</time>
      </trkpt>
      <trkpt lat="54.6456254" lon="16.7984762">
        <time>2026-07-16T19:47:20Z</time>
      </trkpt>
      <trkpt lat="54.6464211" lon="16.8007171">
        <time>2026-07-16T19:48:08Z</time>
      </trkpt>
      <trkpt lat="54.6468212" lon="16.8019546">
        <time>2026-07-16T19:48:34Z</time>
      </trkpt>
      <trkpt lat="54.6473677" lon="16.8033312">
        <time>2026-07-16T19:49:04Z</time>
      </trkpt>
      <trkpt lat="54.6483852" lon="16.8060713">
        <time>2026-07-16T19:50:04Z</time>
      </trkpt>
      <trkpt lat="54.6490500" lon="16.8085140">
        <time>2026-07-16T19:50:55Z</time>
      </trkpt>
      <trkpt lat="54.6493578" lon="16.8096425">
        <time>2026-07-16T19:51:17Z</time>
      </trkpt>
      <trkpt lat="54.6497897" lon="16.8109917">
        <time>2026-07-16T19:51:45Z</time>
      </trkpt>
      <trkpt lat="54.6504217" lon="16.8136137">
        <time>2026-07-16T19:52:37Z</time>
      </trkpt>
      <trkpt lat="54.6514430" lon="16.8169285">
        <time>2026-07-16T19:53:45Z</time>
      </trkpt>
      <trkpt lat="54.6519450" lon="16.8194075">
        <time>2026-07-16T19:54:33Z</time>
      </trkpt>
      <trkpt lat="54.6522783" lon="16.8206867">
        <time>2026-07-16T19:54:59Z</time>
      </trkpt>
      <trkpt lat="54.6527543" lon="16.8217198">
        <time>2026-07-16T19:55:23Z</time>
      </trkpt>
      <trkpt lat="54.6534934" lon="16.8227879">
        <time>2026-07-16T19:55:53Z</time>
      </trkpt>
      <trkpt lat="54.6541578" lon="16.8239985">
        <time>2026-07-16T19:56:23Z</time>
      </trkpt>
      <trkpt lat="54.6549309" lon="16.8259797">
        <time>2026-07-16T19:57:06Z</time>
      </trkpt>
      <trkpt lat="54.6553698" lon="16.8273450">
        <time>2026-07-16T19:57:34Z</time>
      </trkpt>
      <trkpt lat="54.6564495" lon="16.8292185">
        <time>2026-07-16T19:58:22Z</time>
      </trkpt>
      <trkpt lat="54.6573042" lon="16.8308920">
        <time>2026-07-16T19:59:02Z</time>
      </trkpt>
      <trkpt lat="54.6579509" lon="16.8333734">
        <time>2026-07-16T19:59:52Z</time>
      </trkpt>
      <trkpt lat="54.6583143" lon="16.8346094">
        <time>2026-07-16T20:00:17Z</time>
      </trkpt>
      <trkpt lat="54.6605273" lon="16.8401778">
        <time>2026-07-16T20:02:19Z</time>
      </trkpt>
      <trkpt lat="54.6617366" lon="16.8420855">
        <time>2026-07-16T20:03:11Z</time>
      </trkpt>
      <trkpt lat="54.6623986" lon="16.8433217">
        <time>2026-07-16T20:03:41Z</time>
      </trkpt>
      <trkpt lat="54.6635607" lon="16.8464595">
        <time>2026-07-16T20:04:49Z</time>
      </trkpt>
      <trkpt lat="54.6642831" lon="16.8492361">
        <time>2026-07-16T20:05:45Z</time>
      </trkpt>
      <trkpt lat="54.6645978" lon="16.8508032">
        <time>2026-07-16T20:06:15Z</time>
      </trkpt>
      <trkpt lat="54.6656462" lon="16.8534742">
        <time>2026-07-16T20:07:14Z</time>
      </trkpt>
      <trkpt lat="54.6663722" lon="16.8559526">
        <time>2026-07-16T20:08:04Z</time>
      </trkpt>
      <trkpt lat="54.6672530" lon="16.8587385">
        <time>2026-07-16T20:09:02Z</time>
      </trkpt>
      <trkpt lat="54.6676170" lon="16.8600458">
        <time>2026-07-16T20:09:28Z</time>
      </trkpt>
      <trkpt lat="54.6682998" lon="16.8622060">
        <time>2026-07-16T20:10:12Z</time>
      </trkpt>
      <trkpt lat="54.6702520" lon="16.8689952">
        <time>2026-07-16T20:12:29Z</time>
      </trkpt>
      <trkpt lat="54.6708015" lon="16.8706403">
        <time>2026-07-16T20:13:03Z</time>
      </trkpt>
      <trkpt lat="54.6716287" lon="16.8732905">
        <time>2026-07-16T20:13:57Z</time>
      </trkpt>
      <trkpt lat="54.6724310" lon="16.8760557">
        <time>2026-07-16T20:14:53Z</time>
      </trkpt>
      <trkpt lat="54.6728298" lon="16.8775954">
        <time>2026-07-16T20:15:23Z</time>
      </trkpt>
      <trkpt lat="54.6738282" lon="16.8806950">
        <time>2026-07-16T20:16:27Z</time>
      </trkpt>
      <trkpt lat="54.6744672" lon="16.8836976">
        <time>2026-07-16T20:17:25Z</time>
      </trkpt>
      <trkpt lat="54.6749502" lon="16.8854014">
        <time>2026-07-16T20:17:59Z</time>
      </trkpt>
      <trkpt lat="54.6758182" lon="16.8872262">
        <time>2026-07-16T20:18:41Z</time>
      </trkpt>
      <trkpt lat="54.6762596" lon="16.8882470">
        <time>2026-07-16T20:19:03Z</time>
      </trkpt>
      <trkpt lat="54.6768428" lon="16.8905868">
        <time>2026-07-16T20:19:50Z</time>
      </trkpt>
      <trkpt lat="54.6774280" lon="16.8928074">
        <time>2026-07-16T20:20:34Z</time>
      </trkpt>
      <trkpt lat="54.6777123" lon="16.8941793">
        <time>2026-07-16T20:21:00Z</time>
      </trkpt>
      <trkpt lat="54.6778664" lon="16.8955965">
        <time>2026-07-16T20:21:26Z</time>
      </trkpt>
      <trkpt lat="54.6777547" lon="16.8972436">
        <time>2026-07-16T20:21:56Z</time>
      </trkpt>
      <trkpt lat="54.6780135" lon="16.8989820">
        <time>2026-07-16T20:22:30Z</time>
      </trkpt>
      <trkpt lat="54.6784473" lon="16.9003675">
        <time>2026-07-16T20:22:58Z</time>
      </trkpt>
      <trkpt lat="54.6790730" lon="16.9017741">
        <time>2026-07-16T20:23:30Z</time>
      </trkpt>
      <trkpt lat="54.6797812" lon="16.9037983">
        <time>2026-07-16T20:24:12Z</time>
      </trkpt>
      <trkpt lat="54.6811815" lon="16.9066925">
        <time>2026-07-16T20:25:20Z</time>
      </trkpt>
      <trkpt lat="54.6817393" lon="16.9083107">
        <time>2026-07-16T20:25:54Z</time>
      </trkpt>
      <trkpt lat="54.6823539" lon="16.9110496">
        <time>2026-07-16T20:26:46Z</time>
      </trkpt>
      <trkpt lat="54.6833702" lon="16.9147375">
        <time>2026-07-16T20:27:59Z</time>
      </trkpt>
      <trkpt lat="54.6844733" lon="16.9173595">
        <time>2026-07-16T20:28:57Z</time>
      </trkpt>
      <trkpt lat="54.6848963" lon="16.9184961">
        <time>2026-07-16T20:29:21Z</time>
      </trkpt>
      <trkpt lat="54.6855059" lon="16.9203712">
        <time>2026-07-16T20:29:59Z</time>
      </trkpt>
      <trkpt lat="54.6860732" lon="16.9218972">
        <time>2026-07-16T20:30:31Z</time>
      </trkpt>
      <trkpt lat="54.6864262" lon="16.9229935">
        <time>2026-07-16T20:30:53Z</time>
      </trkpt>
      <trkpt lat="54.6873093" lon="16.9272570">
        <time>2026-07-16T20:32:14Z</time>
      </trkpt>
      <trkpt lat="54.6876083" lon="16.9286393">
        <time>2026-07-16T20:32:40Z</time>
      </trkpt>
      <trkpt lat="54.6883415" lon="16.9315244">
        <time>2026-07-16T20:33:36Z</time>
      </trkpt>
      <trkpt lat="54.6890720" lon="16.9340404">
        <time>2026-07-16T20:34:26Z</time>
      </trkpt>
      <trkpt lat="54.6895105" lon="16.9357990">
        <time>2026-07-16T20:35:00Z</time>
      </trkpt>
      <trkpt lat="54.6901700" lon="16.9381317">
        <time>2026-07-16T20:35:46Z</time>
      </trkpt>
      <trkpt lat="54.6905307" lon="16.9395858">
        <time>2026-07-16T20:36:14Z</time>
      </trkpt>
      <trkpt lat="54.6913461" lon="16.9435243">
        <time>2026-07-16T20:37:28Z</time>
      </trkpt>
      <trkpt lat="54.6920282" lon="16.9458843">
        <time>2026-07-16T20:38:14Z</time>
      </trkpt>
      <trkpt lat="54.6926493" lon="16.9483157">
        <time>2026-07-16T20:39:00Z</time>
      </trkpt>
      <trkpt lat="54.6930655" lon="16.9503993">
        <time>2026-07-16T20:39:41Z</time>
      </trkpt>
      <trkpt lat="54.6935257" lon="16.9516895">
        <time>2026-07-16T20:40:07Z</time>
      </trkpt>
      <trkpt lat="54.6940655" lon="16.9536285">
        <time>2026-07-16T20:40:45Z</time>
      </trkpt>
      <trkpt lat="54.6944624" lon="16.9557870">
        <time>2026-07-16T20:41:25Z</time>
      </trkpt>
      <trkpt lat="54.6949551" lon="16.9577630">
        <time>2026-07-16T20:42:03Z</time>
      </trkpt>
      <trkpt lat="54.6962573" lon="16.9642943">
        <time>2026-07-16T20:44:05Z</time>
      </trkpt>
      <trkpt lat="54.6969935" lon="16.9669515">
        <time>2026-07-16T20:44:57Z</time>
      </trkpt>
      <trkpt lat="54.6973244" lon="16.9683038">
        <time>2026-07-16T20:45:23Z</time>
      </trkpt>
      <trkpt lat="54.6977397" lon="16.9703750">
        <time>2026-07-16T20:46:01Z</time>
      </trkpt>
      <trkpt lat="54.6991291" lon="16.9764588">
        <time>2026-07-16T20:47:58Z</time>
      </trkpt>
      <trkpt lat="54.6994554" lon="16.9780475">
        <time>2026-07-16T20:48:28Z</time>
      </trkpt>
      <trkpt lat="54.7004358" lon="16.9808243">
        <time>2026-07-16T20:49:26Z</time>
      </trkpt>
      <trkpt lat="54.7008577" lon="16.9822277">
        <time>2026-07-16T20:49:54Z</time>
      </trkpt>
      <trkpt lat="54.7011362" lon="16.9840875">
        <time>2026-07-16T20:50:28Z</time>
      </trkpt>
      <trkpt lat="54.7019068" lon="16.9879237">
        <time>2026-07-16T20:51:40Z</time>
      </trkpt>
      <trkpt lat="54.7025485" lon="16.9908765">
        <time>2026-07-16T20:52:36Z</time>
      </trkpt>
      <trkpt lat="54.7027845" lon="16.9922778">
        <time>2026-07-16T20:53:02Z</time>
      </trkpt>
      <trkpt lat="54.7031930" lon="16.9939480">
        <time>2026-07-16T20:53:34Z</time>
      </trkpt>
      <trkpt lat="54.7036740" lon="16.9953433">
        <time>2026-07-16T20:54:02Z</time>
      </trkpt>
      <trkpt lat="54.7043405" lon="16.9970263">
        <time>2026-07-16T20:54:38Z</time>
      </trkpt>
      <trkpt lat="54.7047853" lon="16.9984270">
        <time>2026-07-16T20:55:07Z</time>
      </trkpt>
      <trkpt lat="54.7052718" lon="17.0015735">
        <time>2026-07-16T20:56:05Z</time>
      </trkpt>
      <trkpt lat="54.7055773" lon="17.0031920">
        <time>2026-07-16T20:56:35Z</time>
      </trkpt>
      <trkpt lat="54.7061709" lon="17.0057029">
        <time>2026-07-16T20:57:23Z</time>
      </trkpt>
      <trkpt lat="54.7066635" lon="17.0089920">
        <time>2026-07-16T20:58:23Z</time>
      </trkpt>
      <trkpt lat="54.7068874" lon="17.0101815">
        <time>2026-07-16T20:58:45Z</time>
      </trkpt>
      <trkpt lat="54.7077625" lon="17.0133684">
        <time>2026-07-16T20:59:47Z</time>
      </trkpt>
      <trkpt lat="54.7081316" lon="17.0148182">
        <time>2026-07-16T21:00:15Z</time>
      </trkpt>
      <trkpt lat="54.7084387" lon="17.0165485">
        <time>2026-07-16T21:00:47Z</time>
      </trkpt>
      <trkpt lat="54.7087363" lon="17.0191062">
        <time>2026-07-16T21:01:33Z</time>
      </trkpt>
      <trkpt lat="54.7093078" lon="17.0229895">
        <time>2026-07-16T21:02:43Z</time>
      </trkpt>
      <trkpt lat="54.7096285" lon="17.0243410">
        <time>2026-07-16T21:03:09Z</time>
      </trkpt>
      <trkpt lat="54.7101446" lon="17.0255096">
        <time>2026-07-16T21:03:35Z</time>
      </trkpt>
      <trkpt lat="54.7107950" lon="17.0263907">
        <time>2026-07-16T21:03:59Z</time>
      </trkpt>
      <trkpt lat="54.7114673" lon="17.0269985">
        <time>2026-07-16T21:04:24Z</time>
      </trkpt>
      <trkpt lat="54.7122680" lon="17.0279800">
        <time>2026-07-16T21:04:52Z</time>
      </trkpt>
      <trkpt lat="54.7127942" lon="17.0292975">
        <time>2026-07-16T21:05:20Z</time>
      </trkpt>
      <trkpt lat="54.7132309" lon="17.0316800">
        <time>2026-07-16T21:06:04Z</time>
      </trkpt>
      <trkpt lat="54.7139275" lon="17.0360575">
        <time>2026-07-16T21:07:24Z</time>
      </trkpt>
      <trkpt lat="54.7148282" lon="17.0403332">
        <time>2026-07-16T21:08:44Z</time>
      </trkpt>
      <trkpt lat="54.7156334" lon="17.0433153">
        <time>2026-07-16T21:09:42Z</time>
      </trkpt>
      <trkpt lat="54.7160835" lon="17.0460332">
        <time>2026-07-16T21:10:32Z</time>
      </trkpt>
      <trkpt lat="54.7164733" lon="17.0478647">
        <time>2026-07-16T21:11:06Z</time>
      </trkpt>
      <trkpt lat="54.7168979" lon="17.0491470">
        <time>2026-07-16T21:11:32Z</time>
      </trkpt>
      <trkpt lat="54.7176390" lon="17.0511075">
        <time>2026-07-16T21:12:12Z</time>
      </trkpt>
      <trkpt lat="54.7180820" lon="17.0527166">
        <time>2026-07-16T21:12:45Z</time>
      </trkpt>
      <trkpt lat="54.7182934" lon="17.0546932">
        <time>2026-07-16T21:13:19Z</time>
      </trkpt>
      <trkpt lat="54.7185792" lon="17.0564575">
        <time>2026-07-16T21:13:51Z</time>
      </trkpt>
      <trkpt lat="54.7194631" lon="17.0595444">
        <time>2026-07-16T21:14:51Z</time>
      </trkpt>
      <trkpt lat="54.7206679" lon="17.0644091">
        <time>2026-07-16T21:16:23Z</time>
      </trkpt>
      <trkpt lat="54.7210293" lon="17.0661325">
        <time>2026-07-16T21:16:55Z</time>
      </trkpt>
      <trkpt lat="54.7213087" lon="17.0678127">
        <time>2026-07-16T21:17:25Z</time>
      </trkpt>
      <trkpt lat="54.7216440" lon="17.0690037">
        <time>2026-07-16T21:17:47Z</time>
      </trkpt>
      <trkpt lat="54.7223484" lon="17.0704051">
        <time>2026-07-16T21:18:20Z</time>
      </trkpt>
      <trkpt lat="54.7227115" lon="17.0717627">
        <time>2026-07-16T21:18:46Z</time>
      </trkpt>
      <trkpt lat="54.7231694" lon="17.0749123">
        <time>2026-07-16T21:19:42Z</time>
      </trkpt>
      <trkpt lat="54.7240449" lon="17.0768967">
        <time>2026-07-16T21:20:26Z</time>
      </trkpt>
      <trkpt lat="54.7244278" lon="17.0779708">
        <time>2026-07-16T21:20:48Z</time>
      </trkpt>
      <trkpt lat="54.7247246" lon="17.0792587">
        <time>2026-07-16T21:21:12Z</time>
      </trkpt>
      <trkpt lat="54.7251110" lon="17.0816040">
        <time>2026-07-16T21:21:54Z</time>
      </trkpt>
      <trkpt lat="54.7257258" lon="17.0840654">
        <time>2026-07-16T21:22:40Z</time>
      </trkpt>
      <trkpt lat="54.7262231" lon="17.0872341">
        <time>2026-07-16T21:23:36Z</time>
      </trkpt>
      <trkpt lat="54.7263525" lon="17.0886131">
        <time>2026-07-16T21:24:00Z</time>
      </trkpt>
      <trkpt lat="54.7270453" lon="17.0909597">
        <time>2026-07-16T21:24:46Z</time>
      </trkpt>
      <trkpt lat="54.7280818" lon="17.0961727">
        <time>2026-07-16T21:26:20Z</time>
      </trkpt>
      <trkpt lat="54.7285955" lon="17.0982424">
        <time>2026-07-16T21:26:58Z</time>
      </trkpt>
      <trkpt lat="54.7289230" lon="17.0998865">
        <time>2026-07-16T21:27:28Z</time>
      </trkpt>
      <trkpt lat="54.7297067" lon="17.1026206">
        <time>2026-07-16T21:28:20Z</time>
      </trkpt>
      <trkpt lat="54.7302650" lon="17.1053877">
        <time>2026-07-16T21:29:10Z</time>
      </trkpt>
      <trkpt lat="54.7307373" lon="17.1073437">
        <time>2026-07-16T21:29:46Z</time>
      </trkpt>
      <trkpt lat="54.7310645" lon="17.1091105">
        <time>2026-07-16T21:30:18Z</time>
      </trkpt>
      <trkpt lat="54.7315977" lon="17.1108021">
        <time>2026-07-16T21:30:50Z</time>
      </trkpt>
      <trkpt lat="54.7321517" lon="17.1121435">
        <time>2026-07-16T21:31:18Z</time>
      </trkpt>
      <trkpt lat="54.7326170" lon="17.1134295">
        <time>2026-07-16T21:31:44Z</time>
      </trkpt>
      <trkpt lat="54.7333893" lon="17.1173825">
        <time>2026-07-16T21:32:57Z</time>
      </trkpt>
      <trkpt lat="54.7341873" lon="17.1204951">
        <time>2026-07-16T21:33:55Z</time>
      </trkpt>
      <trkpt lat="54.7345038" lon="17.1223875">
        <time>2026-07-16T21:34:29Z</time>
      </trkpt>
      <trkpt lat="54.7345835" lon="17.1243828">
        <time>2026-07-16T21:35:03Z</time>
      </trkpt>
      <trkpt lat="54.7346845" lon="17.1257525">
        <time>2026-07-16T21:35:27Z</time>
      </trkpt>
      <trkpt lat="54.7349113" lon="17.1273099">
        <time>2026-07-16T21:35:55Z</time>
      </trkpt>
      <trkpt lat="54.7351396" lon="17.1286355">
        <time>2026-07-16T21:36:19Z</time>
      </trkpt>
      <trkpt lat="54.7356007" lon="17.1303272">
        <time>2026-07-16T21:36:51Z</time>
      </trkpt>
      <trkpt lat="54.7366640" lon="17.1326812">
        <time>2026-07-16T21:37:42Z</time>
      </trkpt>
      <trkpt lat="54.7381758" lon="17.1378030">
        <time>2026-07-16T21:39:20Z</time>
      </trkpt>
      <trkpt lat="54.7386820" lon="17.1398748">
        <time>2026-07-16T21:39:58Z</time>
      </trkpt>
      <trkpt lat="54.7395479" lon="17.1449660">
        <time>2026-07-16T21:41:28Z</time>
      </trkpt>
      <trkpt lat="54.7397990" lon="17.1470477">
        <time>2026-07-16T21:42:04Z</time>
      </trkpt>
      <trkpt lat="54.7401996" lon="17.1487703">
        <time>2026-07-16T21:42:36Z</time>
      </trkpt>
      <trkpt lat="54.7407606" lon="17.1503938">
        <time>2026-07-16T21:43:08Z</time>
      </trkpt>
      <trkpt lat="54.7415101" lon="17.1522428">
        <time>2026-07-16T21:43:46Z</time>
      </trkpt>
      <trkpt lat="54.7423102" lon="17.1546110">
        <time>2026-07-16T21:44:32Z</time>
      </trkpt>
      <trkpt lat="54.7426502" lon="17.1557767">
        <time>2026-07-16T21:44:54Z</time>
      </trkpt>
      <trkpt lat="54.7430533" lon="17.1574038">
        <time>2026-07-16T21:45:24Z</time>
      </trkpt>
      <trkpt lat="54.7434575" lon="17.1598990">
        <time>2026-07-16T21:46:08Z</time>
      </trkpt>
      <trkpt lat="54.7436050" lon="17.1612888">
        <time>2026-07-16T21:46:32Z</time>
      </trkpt>
      <trkpt lat="54.7438893" lon="17.1628817">
        <time>2026-07-16T21:47:00Z</time>
      </trkpt>
      <trkpt lat="54.7445750" lon="17.1647992">
        <time>2026-07-16T21:47:39Z</time>
      </trkpt>
      <trkpt lat="54.7453460" lon="17.1672920">
        <time>2026-07-16T21:48:27Z</time>
      </trkpt>
      <trkpt lat="54.7458250" lon="17.1692483">
        <time>2026-07-16T21:49:03Z</time>
      </trkpt>
      <trkpt lat="54.7461410" lon="17.1712938">
        <time>2026-07-16T21:49:39Z</time>
      </trkpt>
      <trkpt lat="54.7467087" lon="17.1732000">
        <time>2026-07-16T21:50:15Z</time>
      </trkpt>
      <trkpt lat="54.7474083" lon="17.1746500">
        <time>2026-07-16T21:50:47Z</time>
      </trkpt>
      <trkpt lat="54.7487625" lon="17.1765450">
        <time>2026-07-16T21:51:37Z</time>
      </trkpt>
      <trkpt lat="54.7493473" lon="17.1774151">
        <time>2026-07-16T21:51:59Z</time>
      </trkpt>
      <trkpt lat="54.7503371" lon="17.1794399">
        <time>2026-07-16T21:52:43Z</time>
      </trkpt>
      <trkpt lat="54.7508458" lon="17.1805646">
        <time>2026-07-16T21:53:07Z</time>
      </trkpt>
      <trkpt lat="54.7521935" lon="17.1837372">
        <time>2026-07-16T21:54:13Z</time>
      </trkpt>
      <trkpt lat="54.7529810" lon="17.1860979">
        <time>2026-07-16T21:54:59Z</time>
      </trkpt>
      <trkpt lat="54.7539860" lon="17.1889767">
        <time>2026-07-16T21:55:55Z</time>
      </trkpt>
      <trkpt lat="54.7545425" lon="17.1904060">
        <time>2026-07-16T21:56:24Z</time>
      </trkpt>
      <trkpt lat="54.7565885" lon="17.1978858">
        <time>2026-07-16T21:58:44Z</time>
      </trkpt>
      <trkpt lat="54.7570784" lon="17.1992685">
        <time>2026-07-16T21:59:12Z</time>
      </trkpt>
      <trkpt lat="54.7576549" lon="17.2004055">
        <time>2026-07-16T21:59:38Z</time>
      </trkpt>
      <trkpt lat="54.7582341" lon="17.2013620">
        <time>2026-07-16T22:00:01Z</time>
      </trkpt>
      <trkpt lat="54.7587368" lon="17.2021929">
        <time>2026-07-16T22:00:21Z</time>
      </trkpt>
      <trkpt lat="54.7592959" lon="17.2033731">
        <time>2026-07-16T22:00:47Z</time>
      </trkpt>
      <trkpt lat="54.7596384" lon="17.2045991">
        <time>2026-07-16T22:01:10Z</time>
      </trkpt>
      <trkpt lat="54.7602709" lon="17.2077973">
        <time>2026-07-16T22:02:08Z</time>
      </trkpt>
      <trkpt lat="54.7606081" lon="17.2093394">
        <time>2026-07-16T22:02:36Z</time>
      </trkpt>
      <trkpt lat="54.7608808" lon="17.2109182">
        <time>2026-07-16T22:03:04Z</time>
      </trkpt>
      <trkpt lat="54.7617185" lon="17.2146319">
        <time>2026-07-16T22:04:12Z</time>
      </trkpt>
      <trkpt lat="54.7621363" lon="17.2168767">
        <time>2026-07-16T22:04:52Z</time>
      </trkpt>
      <trkpt lat="54.7624120" lon="17.2181927">
        <time>2026-07-16T22:05:16Z</time>
      </trkpt>
      <trkpt lat="54.7637713" lon="17.2230791">
        <time>2026-07-16T22:06:48Z</time>
      </trkpt>
      <trkpt lat="54.7642620" lon="17.2246419">
        <time>2026-07-16T22:07:18Z</time>
      </trkpt>
      <trkpt lat="54.7646078" lon="17.2258805">
        <time>2026-07-16T22:07:42Z</time>
      </trkpt>
      <trkpt lat="54.7651457" lon="17.2286379">
        <time>2026-07-16T22:08:32Z</time>
      </trkpt>
      <trkpt lat="54.7653388" lon="17.2301246">
        <time>2026-07-16T22:08:58Z</time>
      </trkpt>
      <trkpt lat="54.7653655" lon="17.2320602">
        <time>2026-07-16T22:09:32Z</time>
      </trkpt>
      <trkpt lat="54.7654337" lon="17.2334448">
        <time>2026-07-16T22:09:56Z</time>
      </trkpt>
      <trkpt lat="54.7656514" lon="17.2347711">
        <time>2026-07-16T22:10:20Z</time>
      </trkpt>
      <trkpt lat="54.7666262" lon="17.2376205">
        <time>2026-07-16T22:11:17Z</time>
      </trkpt>
      <trkpt lat="54.7669778" lon="17.2387515">
        <time>2026-07-16T22:11:39Z</time>
      </trkpt>
      <trkpt lat="54.7671993" lon="17.2400963">
        <time>2026-07-16T22:12:03Z</time>
      </trkpt>
      <trkpt lat="54.7671025" lon="17.2423540">
        <time>2026-07-16T22:12:43Z</time>
      </trkpt>
      <trkpt lat="54.7667112" lon="17.2457035">
        <time>2026-07-16T22:13:43Z</time>
      </trkpt>
      <trkpt lat="54.7668965" lon="17.2472037">
        <time>2026-07-16T22:14:13Z</time>
      </trkpt>
      <trkpt lat="54.7678968" lon="17.2522674">
        <time>2026-07-16T22:15:46Z</time>
      </trkpt>
      <trkpt lat="54.7681858" lon="17.2542571">
        <time>2026-07-16T22:16:22Z</time>
      </trkpt>
      <trkpt lat="54.7686699" lon="17.2567893">
        <time>2026-07-16T22:17:08Z</time>
      </trkpt>
      <trkpt lat="54.7689750" lon="17.2586617">
        <time>2026-07-16T22:17:42Z</time>
      </trkpt>
      <trkpt lat="54.7694872" lon="17.2611357">
        <time>2026-07-16T22:18:28Z</time>
      </trkpt>
      <trkpt lat="54.7702057" lon="17.2638532">
        <time>2026-07-16T22:19:20Z</time>
      </trkpt>
      <trkpt lat="54.7704588" lon="17.2652677">
        <time>2026-07-16T22:19:46Z</time>
      </trkpt>
      <trkpt lat="54.7704888" lon="17.2678906">
        <time>2026-07-16T22:20:32Z</time>
      </trkpt>
      <trkpt lat="54.7703239" lon="17.2700165">
        <time>2026-07-16T22:21:10Z</time>
      </trkpt>
      <trkpt lat="54.7702812" lon="17.2716215">
        <time>2026-07-16T22:21:38Z</time>
      </trkpt>
      <trkpt lat="54.7703747" lon="17.2748336">
        <time>2026-07-16T22:22:37Z</time>
      </trkpt>
      <trkpt lat="54.7705370" lon="17.2765025">
        <time>2026-07-16T22:23:07Z</time>
      </trkpt>
      <trkpt lat="54.7710220" lon="17.2784870">
        <time>2026-07-16T22:23:45Z</time>
      </trkpt>
      <trkpt lat="54.7715545" lon="17.2800627">
        <time>2026-07-16T22:24:17Z</time>
      </trkpt>
      <trkpt lat="54.7718945" lon="17.2811872">
        <time>2026-07-16T22:24:39Z</time>
      </trkpt>
      <trkpt lat="54.7723317" lon="17.2834508">
        <time>2026-07-16T22:25:21Z</time>
      </trkpt>
      <trkpt lat="54.7729487" lon="17.2857250">
        <time>2026-07-16T22:26:03Z</time>
      </trkpt>
      <trkpt lat="54.7737821" lon="17.2902034">
        <time>2026-07-16T22:27:28Z</time>
      </trkpt>
      <trkpt lat="54.7739430" lon="17.2925691">
        <time>2026-07-16T22:28:10Z</time>
      </trkpt>
      <trkpt lat="54.7741965" lon="17.2950212">
        <time>2026-07-16T22:28:54Z</time>
      </trkpt>
      <trkpt lat="54.7743023" lon="17.2979375">
        <time>2026-07-16T22:29:46Z</time>
      </trkpt>
      <trkpt lat="54.7746695" lon="17.3020357">
        <time>2026-07-16T22:31:00Z</time>
      </trkpt>
      <trkpt lat="54.7747653" lon="17.3037219">
        <time>2026-07-16T22:31:30Z</time>
      </trkpt>
      <trkpt lat="54.7747617" lon="17.3051665">
        <time>2026-07-16T22:31:56Z</time>
      </trkpt>
      <trkpt lat="54.7748959" lon="17.3069367">
        <time>2026-07-16T22:32:28Z</time>
      </trkpt>
      <trkpt lat="54.7757648" lon="17.3107395">
        <time>2026-07-16T22:33:40Z</time>
      </trkpt>
      <trkpt lat="54.7760637" lon="17.3123443">
        <time>2026-07-16T22:34:10Z</time>
      </trkpt>
      <trkpt lat="54.7761652" lon="17.3143885">
        <time>2026-07-16T22:34:46Z</time>
      </trkpt>
      <trkpt lat="54.7768060" lon="17.3187268">
        <time>2026-07-16T22:36:06Z</time>
      </trkpt>
      <trkpt lat="54.7772404" lon="17.3231940">
        <time>2026-07-16T22:37:26Z</time>
      </trkpt>
      <trkpt lat="54.7772743" lon="17.3246383">
        <time>2026-07-16T22:37:52Z</time>
      </trkpt>
      <trkpt lat="54.7771367" lon="17.3262865">
        <time>2026-07-16T22:38:22Z</time>
      </trkpt>
      <trkpt lat="54.7772865" lon="17.3285480">
        <time>2026-07-16T22:39:02Z</time>
      </trkpt>
      <trkpt lat="54.7776734" lon="17.3299107">
        <time>2026-07-16T22:39:30Z</time>
      </trkpt>
      <trkpt lat="54.7781749" lon="17.3314615">
        <time>2026-07-16T22:40:02Z</time>
      </trkpt>
      <trkpt lat="54.7789115" lon="17.3363342">
        <time>2026-07-16T22:41:31Z</time>
      </trkpt>
      <trkpt lat="54.7793277" lon="17.3393155">
        <time>2026-07-16T22:42:25Z</time>
      </trkpt>
      <trkpt lat="54.7795397" lon="17.3418007">
        <time>2026-07-16T22:43:09Z</time>
      </trkpt>
      <trkpt lat="54.7797295" lon="17.3433690">
        <time>2026-07-16T22:43:37Z</time>
      </trkpt>
      <trkpt lat="54.7798250" lon="17.3448307">
        <time>2026-07-16T22:44:03Z</time>
      </trkpt>
      <trkpt lat="54.7797760" lon="17.3471930">
        <time>2026-07-16T22:44:45Z</time>
      </trkpt>
      <trkpt lat="54.7798552" lon="17.3494480">
        <time>2026-07-16T22:45:25Z</time>
      </trkpt>
      <trkpt lat="54.7803865" lon="17.3540097">
        <time>2026-07-16T22:46:47Z</time>
      </trkpt>
      <trkpt lat="54.7804660" lon="17.3572843">
        <time>2026-07-16T22:47:45Z</time>
      </trkpt>
      <trkpt lat="54.7807575" lon="17.3606170">
        <time>2026-07-16T22:48:43Z</time>
      </trkpt>
      <trkpt lat="54.7811305" lon="17.3624342">
        <time>2026-07-16T22:49:17Z</time>
      </trkpt>
      <trkpt lat="54.7817657" lon="17.3641922">
        <time>2026-07-16T22:49:53Z</time>
      </trkpt>
      <trkpt lat="54.7821953" lon="17.3654832">
        <time>2026-07-16T22:50:19Z</time>
      </trkpt>
      <trkpt lat="54.7826381" lon="17.3677057">
        <time>2026-07-16T22:51:01Z</time>
      </trkpt>
      <trkpt lat="54.7828200" lon="17.3691473">
        <time>2026-07-16T22:51:27Z</time>
      </trkpt>
      <trkpt lat="54.7832296" lon="17.3732532">
        <time>2026-07-16T22:52:40Z</time>
      </trkpt>
      <trkpt lat="54.7833097" lon="17.3745098">
        <time>2026-07-16T22:53:02Z</time>
      </trkpt>
      <trkpt lat="54.7833320" lon="17.3762443">
        <time>2026-07-16T22:53:32Z</time>
      </trkpt>
      <trkpt lat="54.7835301" lon="17.3782577">
        <time>2026-07-16T22:54:08Z</time>
      </trkpt>
      <trkpt lat="54.7837995" lon="17.3796743">
        <time>2026-07-16T22:54:34Z</time>
      </trkpt>
      <trkpt lat="54.7839857" lon="17.3810057">
        <time>2026-07-16T22:54:58Z</time>
      </trkpt>
      <trkpt lat="54.7840247" lon="17.3824905">
        <time>2026-07-16T22:55:24Z</time>
      </trkpt>
      <trkpt lat="54.7841363" lon="17.3838500">
        <time>2026-07-16T22:55:48Z</time>
      </trkpt>
      <trkpt lat="54.7845548" lon="17.3865200">
        <time>2026-07-16T22:56:36Z</time>
      </trkpt>
      <trkpt lat="54.7846680" lon="17.3889002">
        <time>2026-07-16T22:57:18Z</time>
      </trkpt>
      <trkpt lat="54.7848023" lon="17.3917484">
        <time>2026-07-16T22:58:08Z</time>
      </trkpt>
      <trkpt lat="54.7854180" lon="17.3960437">
        <time>2026-07-16T22:59:26Z</time>
      </trkpt>
      <trkpt lat="54.7865184" lon="17.4001467">
        <time>2026-07-16T23:00:44Z</time>
      </trkpt>
      <trkpt lat="54.7869872" lon="17.4025504">
        <time>2026-07-16T23:01:28Z</time>
      </trkpt>
      <trkpt lat="54.7873975" lon="17.4041945">
        <time>2026-07-16T23:01:58Z</time>
      </trkpt>
      <trkpt lat="54.7877858" lon="17.4053001">
        <time>2026-07-16T23:02:20Z</time>
      </trkpt>
      <trkpt lat="54.7883730" lon="17.4067413">
        <time>2026-07-16T23:02:51Z</time>
      </trkpt>
      <trkpt lat="54.7888025" lon="17.4080398">
        <time>2026-07-16T23:03:17Z</time>
      </trkpt>
      <trkpt lat="54.7890095" lon="17.4106258">
        <time>2026-07-16T23:04:03Z</time>
      </trkpt>
      <trkpt lat="54.7892531" lon="17.4135389">
        <time>2026-07-16T23:04:55Z</time>
      </trkpt>
      <trkpt lat="54.7893239" lon="17.4155970">
        <time>2026-07-16T23:05:31Z</time>
      </trkpt>
      <trkpt lat="54.7897207" lon="17.4190250">
        <time>2026-07-16T23:06:33Z</time>
      </trkpt>
      <trkpt lat="54.7899512" lon="17.4204674">
        <time>2026-07-16T23:06:59Z</time>
      </trkpt>
      <trkpt lat="54.7908510" lon="17.4239205">
        <time>2026-07-16T23:08:05Z</time>
      </trkpt>
      <trkpt lat="54.7912523" lon="17.4260983">
        <time>2026-07-16T23:08:45Z</time>
      </trkpt>
      <trkpt lat="54.7923398" lon="17.4296500">
        <time>2026-07-16T23:09:55Z</time>
      </trkpt>
      <trkpt lat="54.7927242" lon="17.4313645">
        <time>2026-07-16T23:10:27Z</time>
      </trkpt>
      <trkpt lat="54.7930840" lon="17.4337965">
        <time>2026-07-16T23:11:11Z</time>
      </trkpt>
      <trkpt lat="54.7933772" lon="17.4373131">
        <time>2026-07-16T23:12:13Z</time>
      </trkpt>
      <trkpt lat="54.7937718" lon="17.4409593">
        <time>2026-07-16T23:13:17Z</time>
      </trkpt>
      <trkpt lat="54.7942385" lon="17.4440542">
        <time>2026-07-16T23:14:13Z</time>
      </trkpt>
      <trkpt lat="54.7944725" lon="17.4467720">
        <time>2026-07-16T23:15:01Z</time>
      </trkpt>
      <trkpt lat="54.7952350" lon="17.4509439">
        <time>2026-07-16T23:16:18Z</time>
      </trkpt>
      <trkpt lat="54.7954582" lon="17.4523831">
        <time>2026-07-16T23:16:44Z</time>
      </trkpt>
      <trkpt lat="54.7954352" lon="17.4546687">
        <time>2026-07-16T23:17:24Z</time>
      </trkpt>
      <trkpt lat="54.7956089" lon="17.4572823">
        <time>2026-07-16T23:18:10Z</time>
      </trkpt>
      <trkpt lat="54.7958929" lon="17.4594280">
        <time>2026-07-16T23:18:48Z</time>
      </trkpt>
      <trkpt lat="54.7959718" lon="17.4610610">
        <time>2026-07-16T23:19:16Z</time>
      </trkpt>
      <trkpt lat="54.7959212" lon="17.4632698">
        <time>2026-07-16T23:19:54Z</time>
      </trkpt>
      <trkpt lat="54.7960428" lon="17.4646417">
        <time>2026-07-16T23:20:18Z</time>
      </trkpt>
      <trkpt lat="54.7969552" lon="17.4682257">
        <time>2026-07-16T23:21:24Z</time>
      </trkpt>
      <trkpt lat="54.7974345" lon="17.4713587">
        <time>2026-07-16T23:22:21Z</time>
      </trkpt>
      <trkpt lat="54.7976492" lon="17.4725652">
        <time>2026-07-16T23:22:43Z</time>
      </trkpt>
      <trkpt lat="54.7980053" lon="17.4741700">
        <time>2026-07-16T23:23:13Z</time>
      </trkpt>
      <trkpt lat="54.7982793" lon="17.4758388">
        <time>2026-07-16T23:23:43Z</time>
      </trkpt>
      <trkpt lat="54.7983680" lon="17.4773187">
        <time>2026-07-16T23:24:09Z</time>
      </trkpt>
      <trkpt lat="54.7987170" lon="17.4801630">
        <time>2026-07-16T23:24:59Z</time>
      </trkpt>
      <trkpt lat="54.7988173" lon="17.4826730">
        <time>2026-07-16T23:25:43Z</time>
      </trkpt>
      <trkpt lat="54.7990857" lon="17.4850360">
        <time>2026-07-16T23:26:26Z</time>
      </trkpt>
      <trkpt lat="54.7994573" lon="17.4871134">
        <time>2026-07-16T23:27:04Z</time>
      </trkpt>
      <trkpt lat="54.7995655" lon="17.4887020">
        <time>2026-07-16T23:27:32Z</time>
      </trkpt>
      <trkpt lat="54.7995650" lon="17.4905170">
        <time>2026-07-16T23:28:04Z</time>
      </trkpt>
      <trkpt lat="54.7998212" lon="17.4920285">
        <time>2026-07-16T23:28:32Z</time>
      </trkpt>
      <trkpt lat="54.8009818" lon="17.4952313">
        <time>2026-07-16T23:29:38Z</time>
      </trkpt>
      <trkpt lat="54.8014495" lon="17.4968803">
        <time>2026-07-16T23:30:10Z</time>
      </trkpt>
      <trkpt lat="54.8015837" lon="17.4989204">
        <time>2026-07-16T23:30:46Z</time>
      </trkpt>
      <trkpt lat="54.8018983" lon="17.5024905">
        <time>2026-07-16T23:31:49Z</time>
      </trkpt>
      <trkpt lat="54.8018843" lon="17.5044605">
        <time>2026-07-16T23:32:23Z</time>
      </trkpt>
      <trkpt lat="54.8019458" lon="17.5057082">
        <time>2026-07-16T23:32:45Z</time>
      </trkpt>
      <trkpt lat="54.8022116" lon="17.5085384">
        <time>2026-07-16T23:33:35Z</time>
      </trkpt>
      <trkpt lat="54.8022912" lon="17.5098023">
        <time>2026-07-16T23:33:57Z</time>
      </trkpt>
      <trkpt lat="54.8025545" lon="17.5115973">
        <time>2026-07-16T23:34:29Z</time>
      </trkpt>
      <trkpt lat="54.8031900" lon="17.5143787">
        <time>2026-07-16T23:35:21Z</time>
      </trkpt>
      <trkpt lat="54.8036982" lon="17.5182143">
        <time>2026-07-16T23:36:28Z</time>
      </trkpt>
      <trkpt lat="54.8038195" lon="17.5205018">
        <time>2026-07-16T23:37:08Z</time>
      </trkpt>
      <trkpt lat="54.8037123" lon="17.5218895">
        <time>2026-07-16T23:37:32Z</time>
      </trkpt>
      <trkpt lat="54.8036951" lon="17.5240715">
        <time>2026-07-16T23:38:10Z</time>
      </trkpt>
      <trkpt lat="54.8037710" lon="17.5255627">
        <time>2026-07-16T23:38:36Z</time>
      </trkpt>
      <trkpt lat="54.8037381" lon="17.5275410">
        <time>2026-07-16T23:39:10Z</time>
      </trkpt>
      <trkpt lat="54.8040497" lon="17.5314192">
        <time>2026-07-16T23:40:18Z</time>
      </trkpt>
      <trkpt lat="54.8041530" lon="17.5332633">
        <time>2026-07-16T23:40:50Z</time>
      </trkpt>
      <trkpt lat="54.8048156" lon="17.5375314">
        <time>2026-07-16T23:42:06Z</time>
      </trkpt>
      <trkpt lat="54.8049523" lon="17.5392238">
        <time>2026-07-16T23:42:36Z</time>
      </trkpt>
      <trkpt lat="54.8051342" lon="17.5411414">
        <time>2026-07-16T23:43:10Z</time>
      </trkpt>
      <trkpt lat="54.8055515" lon="17.5434592">
        <time>2026-07-16T23:43:52Z</time>
      </trkpt>
      <trkpt lat="54.8058066" lon="17.5460355">
        <time>2026-07-16T23:44:38Z</time>
      </trkpt>
      <trkpt lat="54.8060302" lon="17.5477385">
        <time>2026-07-16T23:45:08Z</time>
      </trkpt>
      <trkpt lat="54.8065163" lon="17.5498587">
        <time>2026-07-16T23:45:48Z</time>
      </trkpt>
      <trkpt lat="54.8068250" lon="17.5516006">
        <time>2026-07-16T23:46:20Z</time>
      </trkpt>
      <trkpt lat="54.8068343" lon="17.5528604">
        <time>2026-07-16T23:46:42Z</time>
      </trkpt>
      <trkpt lat="54.8066167" lon="17.5549961">
        <time>2026-07-16T23:47:20Z</time>
      </trkpt>
      <trkpt lat="54.8066993" lon="17.5564710">
        <time>2026-07-16T23:47:46Z</time>
      </trkpt>
      <trkpt lat="54.8070300" lon="17.5579640">
        <time>2026-07-16T23:48:14Z</time>
      </trkpt>
      <trkpt lat="54.8076031" lon="17.5594359">
        <time>2026-07-16T23:48:44Z</time>
      </trkpt>
      <trkpt lat="54.8082676" lon="17.5605522">
        <time>2026-07-16T23:49:12Z</time>
      </trkpt>
      <trkpt lat="54.8089996" lon="17.5616033">
        <time>2026-07-16T23:49:40Z</time>
      </trkpt>
      <trkpt lat="54.8094675" lon="17.5628162">
        <time>2026-07-16T23:50:06Z</time>
      </trkpt>
      <trkpt lat="54.8101002" lon="17.5657332">
        <time>2026-07-16T23:51:00Z</time>
      </trkpt>
      <trkpt lat="54.8103452" lon="17.5671766">
        <time>2026-07-16T23:51:27Z</time>
      </trkpt>
      <trkpt lat="54.8104083" lon="17.5693595">
        <time>2026-07-16T23:52:05Z</time>
      </trkpt>
      <trkpt lat="54.8106708" lon="17.5717760">
        <time>2026-07-16T23:52:47Z</time>
      </trkpt>
      <trkpt lat="54.8110473" lon="17.5736430">
        <time>2026-07-16T23:53:21Z</time>
      </trkpt>
      <trkpt lat="54.8113182" lon="17.5762666">
        <time>2026-07-16T23:54:07Z</time>
      </trkpt>
      <trkpt lat="54.8115315" lon="17.5777358">
        <time>2026-07-16T23:54:33Z</time>
      </trkpt>
      <trkpt lat="54.8122833" lon="17.5802127">
        <time>2026-07-16T23:55:21Z</time>
      </trkpt>
      <trkpt lat="54.8130986" lon="17.5822120">
        <time>2026-07-16T23:56:03Z</time>
      </trkpt>
      <trkpt lat="54.8136540" lon="17.5838156">
        <time>2026-07-16T23:56:35Z</time>
      </trkpt>
      <trkpt lat="54.8138478" lon="17.5850966">
        <time>2026-07-16T23:56:57Z</time>
      </trkpt>
      <trkpt lat="54.8139908" lon="17.5892345">
        <time>2026-07-16T23:58:10Z</time>
      </trkpt>
      <trkpt lat="54.8139532" lon="17.5913605">
        <time>2026-07-16T23:58:46Z</time>
      </trkpt>
      <trkpt lat="54.8140382" lon="17.5934263">
        <time>2026-07-16T23:59:22Z</time>
      </trkpt>
      <trkpt lat="54.8137387" lon="17.5972264">
        <time>2026-07-17T00:00:28Z</time>
      </trkpt>
      <trkpt lat="54.8134335" lon="17.6007463">
        <time>2026-07-17T00:01:28Z</time>
      </trkpt>
      <trkpt lat="54.8133684" lon="17.6033871">
        <time>2026-07-17T00:02:15Z</time>
      </trkpt>
      <trkpt lat="54.8132402" lon="17.6047797">
        <time>2026-07-17T00:02:39Z</time>
      </trkpt>
      <trkpt lat="54.8134043" lon="17.6103715">
        <time>2026-07-17T00:04:17Z</time>
      </trkpt>
      <trkpt lat="54.8134260" lon="17.6117677">
        <time>2026-07-17T00:04:41Z</time>
      </trkpt>
      <trkpt lat="54.8133280" lon="17.6133937">
        <time>2026-07-17T00:05:09Z</time>
      </trkpt>
      <trkpt lat="54.8133416" lon="17.6161883">
        <time>2026-07-17T00:05:57Z</time>
      </trkpt>
      <trkpt lat="54.8133379" lon="17.6178140">
        <time>2026-07-17T00:06:25Z</time>
      </trkpt>
      <trkpt lat="54.8132273" lon="17.6194980">
        <time>2026-07-17T00:06:54Z</time>
      </trkpt>
      <trkpt lat="54.8131822" lon="17.6219212">
        <time>2026-07-17T00:07:36Z</time>
      </trkpt>
      <trkpt lat="54.8130300" lon="17.6236100">
        <time>2026-07-17T00:08:06Z</time>
      </trkpt>
      <trkpt lat="54.8129367" lon="17.6251233">
        <time>2026-07-17T00:08:32Z</time>
      </trkpt>
      <trkpt lat="54.8132180" lon="17.6287748">
        <time>2026-07-17T00:09:36Z</time>
      </trkpt>
      <trkpt lat="54.8133005" lon="17.6305207">
        <time>2026-07-17T00:10:06Z</time>
      </trkpt>
      <trkpt lat="54.8135679" lon="17.6324251">
        <time>2026-07-17T00:10:40Z</time>
      </trkpt>
      <trkpt lat="54.8140906" lon="17.6346065">
        <time>2026-07-17T00:11:20Z</time>
      </trkpt>
      <trkpt lat="54.8143672" lon="17.6362865">
        <time>2026-07-17T00:11:50Z</time>
      </trkpt>
      <trkpt lat="54.8145319" lon="17.6383715">
        <time>2026-07-17T00:12:26Z</time>
      </trkpt>
      <trkpt lat="54.8148658" lon="17.6413295">
        <time>2026-07-17T00:13:19Z</time>
      </trkpt>
      <trkpt lat="54.8152870" lon="17.6437395">
        <time>2026-07-17T00:14:03Z</time>
      </trkpt>
      <trkpt lat="54.8154718" lon="17.6454447">
        <time>2026-07-17T00:14:33Z</time>
      </trkpt>
      <trkpt lat="54.8154411" lon="17.6467053">
        <time>2026-07-17T00:14:55Z</time>
      </trkpt>
      <trkpt lat="54.8155192" lon="17.6484198">
        <time>2026-07-17T00:15:25Z</time>
      </trkpt>
      <trkpt lat="54.8158610" lon="17.6502512">
        <time>2026-07-17T00:15:59Z</time>
      </trkpt>
      <trkpt lat="54.8161962" lon="17.6513840">
        <time>2026-07-17T00:16:21Z</time>
      </trkpt>
      <trkpt lat="54.8168192" lon="17.6531645">
        <time>2026-07-17T00:16:57Z</time>
      </trkpt>
      <trkpt lat="54.8171995" lon="17.6546271">
        <time>2026-07-17T00:17:25Z</time>
      </trkpt>
      <trkpt lat="54.8173750" lon="17.6566450">
        <time>2026-07-17T00:18:01Z</time>
      </trkpt>
      <trkpt lat="54.8177021" lon="17.6584983">
        <time>2026-07-17T00:18:35Z</time>
      </trkpt>
      <trkpt lat="54.8181872" lon="17.6603806">
        <time>2026-07-17T00:19:11Z</time>
      </trkpt>
      <trkpt lat="54.8184630" lon="17.6618025">
        <time>2026-07-17T00:19:37Z</time>
      </trkpt>
      <trkpt lat="54.8189257" lon="17.6634438">
        <time>2026-07-17T00:20:09Z</time>
      </trkpt>
      <trkpt lat="54.8197094" lon="17.6652302">
        <time>2026-07-17T00:20:47Z</time>
      </trkpt>
      <trkpt lat="54.8202405" lon="17.6672935">
        <time>2026-07-17T00:21:27Z</time>
      </trkpt>
      <trkpt lat="54.8213850" lon="17.6707845">
        <time>2026-07-17T00:22:37Z</time>
      </trkpt>
      <trkpt lat="54.8217224" lon="17.6718957">
        <time>2026-07-17T00:22:59Z</time>
      </trkpt>
      <trkpt lat="54.8223660" lon="17.6747697">
        <time>2026-07-17T00:23:53Z</time>
      </trkpt>
      <trkpt lat="54.8228191" lon="17.6768655">
        <time>2026-07-17T00:24:31Z</time>
      </trkpt>
      <trkpt lat="54.8233710" lon="17.6787215">
        <time>2026-07-17T00:25:07Z</time>
      </trkpt>
      <trkpt lat="54.8237785" lon="17.6805468">
        <time>2026-07-17T00:25:41Z</time>
      </trkpt>
      <trkpt lat="54.8238413" lon="17.6825895">
        <time>2026-07-17T00:26:18Z</time>
      </trkpt>
      <trkpt lat="54.8243982" lon="17.6847227">
        <time>2026-07-17T00:27:00Z</time>
      </trkpt>
      <trkpt lat="54.8249307" lon="17.6875502">
        <time>2026-07-17T00:27:52Z</time>
      </trkpt>
      <trkpt lat="54.8255642" lon="17.6899333">
        <time>2026-07-17T00:28:38Z</time>
      </trkpt>
      <trkpt lat="54.8258898" lon="17.6914333">
        <time>2026-07-17T00:29:06Z</time>
      </trkpt>
      <trkpt lat="54.8267048" lon="17.6944734">
        <time>2026-07-17T00:30:04Z</time>
      </trkpt>
      <trkpt lat="54.8271201" lon="17.6956762">
        <time>2026-07-17T00:30:28Z</time>
      </trkpt>
      <trkpt lat="54.8281000" lon="17.6978610">
        <time>2026-07-17T00:31:16Z</time>
      </trkpt>
      <trkpt lat="54.8286785" lon="17.6998203">
        <time>2026-07-17T00:31:54Z</time>
      </trkpt>
      <trkpt lat="54.8295528" lon="17.7020328">
        <time>2026-07-17T00:32:40Z</time>
      </trkpt>
      <trkpt lat="54.8299740" lon="17.7034393">
        <time>2026-07-17T00:33:08Z</time>
      </trkpt>
      <trkpt lat="54.8303099" lon="17.7047898">
        <time>2026-07-17T00:33:34Z</time>
      </trkpt>
      <trkpt lat="54.8308593" lon="17.7061637">
        <time>2026-07-17T00:34:02Z</time>
      </trkpt>
      <trkpt lat="54.8318405" lon="17.7078647">
        <time>2026-07-17T00:34:44Z</time>
      </trkpt>
      <trkpt lat="54.8325397" lon="17.7092725">
        <time>2026-07-17T00:35:16Z</time>
      </trkpt>
      <trkpt lat="54.8335437" lon="17.7108089">
        <time>2026-07-17T00:35:57Z</time>
      </trkpt>
      <trkpt lat="54.8353788" lon="17.7127633">
        <time>2026-07-17T00:37:01Z</time>
      </trkpt>
      <trkpt lat="54.8360013" lon="17.7136548">
        <time>2026-07-17T00:37:25Z</time>
      </trkpt>
      <trkpt lat="54.8364499" lon="17.7147910">
        <time>2026-07-17T00:37:49Z</time>
      </trkpt>
      <trkpt lat="54.8371845" lon="17.7190610">
        <time>2026-07-17T00:39:07Z</time>
      </trkpt>
      <trkpt lat="54.8376260" lon="17.7208256">
        <time>2026-07-17T00:39:41Z</time>
      </trkpt>
      <trkpt lat="54.8379412" lon="17.7223290">
        <time>2026-07-17T00:40:09Z</time>
      </trkpt>
      <trkpt lat="54.8386727" lon="17.7247329">
        <time>2026-07-17T00:40:57Z</time>
      </trkpt>
      <trkpt lat="54.8390217" lon="17.7263486">
        <time>2026-07-17T00:41:27Z</time>
      </trkpt>
      <trkpt lat="54.8392057" lon="17.7279242">
        <time>2026-07-17T00:41:55Z</time>
      </trkpt>
      <trkpt lat="54.8395717" lon="17.7298959">
        <time>2026-07-17T00:42:31Z</time>
      </trkpt>
      <trkpt lat="54.8397755" lon="17.7317897">
        <time>2026-07-17T00:43:05Z</time>
      </trkpt>
      <trkpt lat="54.8400275" lon="17.7331970">
        <time>2026-07-17T00:43:31Z</time>
      </trkpt>
      <trkpt lat="54.8411473" lon="17.7361427">
        <time>2026-07-17T00:44:33Z</time>
      </trkpt>
      <trkpt lat="54.8417437" lon="17.7380233">
        <time>2026-07-17T00:45:11Z</time>
      </trkpt>
      <trkpt lat="54.8423317" lon="17.7408402">
        <time>2026-07-17T00:46:03Z</time>
      </trkpt>
      <trkpt lat="54.8428263" lon="17.7426084">
        <time>2026-07-17T00:46:37Z</time>
      </trkpt>
      <trkpt lat="54.8438542" lon="17.7451525">
        <time>2026-07-17T00:47:31Z</time>
      </trkpt>
      <trkpt lat="54.8443567" lon="17.7467624">
        <time>2026-07-17T00:48:03Z</time>
      </trkpt>
      <trkpt lat="54.8446725" lon="17.7488635">
        <time>2026-07-17T00:48:41Z</time>
      </trkpt>
      <trkpt lat="54.8450308" lon="17.7499852">
        <time>2026-07-17T00:49:03Z</time>
      </trkpt>
      <trkpt lat="54.8456570" lon="17.7511680">
        <time>2026-07-17T00:49:31Z</time>
      </trkpt>
      <trkpt lat="54.8461481" lon="17.7522045">
        <time>2026-07-17T00:49:55Z</time>
      </trkpt>
      <trkpt lat="54.8467287" lon="17.7540606">
        <time>2026-07-17T00:50:31Z</time>
      </trkpt>
      <trkpt lat="54.8477630" lon="17.7566403">
        <time>2026-07-17T00:51:26Z</time>
      </trkpt>
      <trkpt lat="54.8481935" lon="17.7580508">
        <time>2026-07-17T00:51:54Z</time>
      </trkpt>
      <trkpt lat="54.8484176" lon="17.7607642">
        <time>2026-07-17T00:52:42Z</time>
      </trkpt>
      <trkpt lat="54.8487508" lon="17.7633928">
        <time>2026-07-17T00:53:28Z</time>
      </trkpt>
      <trkpt lat="54.8488521" lon="17.7650588">
        <time>2026-07-17T00:53:58Z</time>
      </trkpt>
      <trkpt lat="54.8487343" lon="17.7675921">
        <time>2026-07-17T00:54:42Z</time>
      </trkpt>
      <trkpt lat="54.8484975" lon="17.7702096">
        <time>2026-07-17T00:55:28Z</time>
      </trkpt>
      <trkpt lat="54.8486004" lon="17.7749922">
        <time>2026-07-17T00:56:50Z</time>
      </trkpt>
      <trkpt lat="54.8484864" lon="17.7769365">
        <time>2026-07-17T00:57:25Z</time>
      </trkpt>
      <trkpt lat="54.8483377" lon="17.7803747">
        <time>2026-07-17T00:58:25Z</time>
      </trkpt>
      <trkpt lat="54.8483537" lon="17.7819630">
        <time>2026-07-17T00:58:53Z</time>
      </trkpt>
      <trkpt lat="54.8484704" lon="17.7832008">
        <time>2026-07-17T00:59:15Z</time>
      </trkpt>
      <trkpt lat="54.8488773" lon="17.7858561">
        <time>2026-07-17T01:00:03Z</time>
      </trkpt>
      <trkpt lat="54.8490054" lon="17.7885984">
        <time>2026-07-17T01:00:51Z</time>
      </trkpt>
      <trkpt lat="54.8491625" lon="17.7903846">
        <time>2026-07-17T01:01:21Z</time>
      </trkpt>
      <trkpt lat="54.8494072" lon="17.7921209">
        <time>2026-07-17T01:01:53Z</time>
      </trkpt>
      <trkpt lat="54.8495167" lon="17.7936532">
        <time>2026-07-17T01:02:19Z</time>
      </trkpt>
      <trkpt lat="54.8494738" lon="17.7956525">
        <time>2026-07-17T01:02:54Z</time>
      </trkpt>
      <trkpt lat="54.8491520" lon="17.7989411">
        <time>2026-07-17T01:03:52Z</time>
      </trkpt>
      <trkpt lat="54.8490400" lon="17.8007841">
        <time>2026-07-17T01:04:24Z</time>
      </trkpt>
      <trkpt lat="54.8488221" lon="17.8029384">
        <time>2026-07-17T01:05:02Z</time>
      </trkpt>
      <trkpt lat="54.8486427" lon="17.8070135">
        <time>2026-07-17T01:06:14Z</time>
      </trkpt>
      <trkpt lat="54.8487693" lon="17.8105425">
        <time>2026-07-17T01:07:16Z</time>
      </trkpt>
      <trkpt lat="54.8486795" lon="17.8130868">
        <time>2026-07-17T01:08:00Z</time>
      </trkpt>
      <trkpt lat="54.8487115" lon="17.8168987">
        <time>2026-07-17T01:09:06Z</time>
      </trkpt>
      <trkpt lat="54.8486495" lon="17.8183949">
        <time>2026-07-17T01:09:32Z</time>
      </trkpt>
      <trkpt lat="54.8479623" lon="17.8209890">
        <time>2026-07-17T01:10:10Z</time>
      </trkpt>
      <trkpt lat="54.8480372" lon="17.8235667">
        <time>2026-07-17T01:11:06Z</time>
      </trkpt>
      <trkpt lat="54.8482200" lon="17.8255115">
        <time>2026-07-17T01:11:45Z</time>
      </trkpt>
      <trkpt lat="54.8482485" lon="17.8277058">
        <time>2026-07-17T01:12:23Z</time>
      </trkpt>
      <trkpt lat="54.8484822" lon="17.8300763">
        <time>2026-07-17T01:13:05Z</time>
      </trkpt>
      <trkpt lat="54.8485486" lon="17.8317335">
        <time>2026-07-17T01:13:35Z</time>
      </trkpt>
      <trkpt lat="54.8487045" lon="17.8331354">
        <time>2026-07-17T01:13:59Z</time>
      </trkpt>
      <trkpt lat="54.8490646" lon="17.8349133">
        <time>2026-07-17T01:14:31Z</time>
      </trkpt>
      <trkpt lat="54.8493055" lon="17.8366693">
        <time>2026-07-17T01:15:03Z</time>
      </trkpt>
      <trkpt lat="54.8493678" lon="17.8383535">
        <time>2026-07-17T01:15:33Z</time>
      </trkpt>
      <trkpt lat="54.8495929" lon="17.8401570">
        <time>2026-07-17T01:16:05Z</time>
      </trkpt>
      <trkpt lat="54.8501790" lon="17.8428685">
        <time>2026-07-17T01:16:55Z</time>
      </trkpt>
      <trkpt lat="54.8503400" lon="17.8454275">
        <time>2026-07-17T01:17:41Z</time>
      </trkpt>
      <trkpt lat="54.8506786" lon="17.8493142">
        <time>2026-07-17T01:18:49Z</time>
      </trkpt>
      <trkpt lat="54.8506918" lon="17.8512155">
        <time>2026-07-17T01:19:23Z</time>
      </trkpt>
      <trkpt lat="54.8511723" lon="17.8554575">
        <time>2026-07-17T01:20:39Z</time>
      </trkpt>
      <trkpt lat="54.8512757" lon="17.8572672">
        <time>2026-07-17T01:21:11Z</time>
      </trkpt>
      <trkpt lat="54.8511339" lon="17.8601432">
        <time>2026-07-17T01:22:02Z</time>
      </trkpt>
      <trkpt lat="54.8510042" lon="17.8619439">
        <time>2026-07-17T01:22:34Z</time>
      </trkpt>
      <trkpt lat="54.8510660" lon="17.8636387">
        <time>2026-07-17T01:23:04Z</time>
      </trkpt>
      <trkpt lat="54.8512712" lon="17.8650578">
        <time>2026-07-17T01:23:28Z</time>
      </trkpt>
      <trkpt lat="54.8517664" lon="17.8663820">
        <time>2026-07-17T01:23:56Z</time>
      </trkpt>
      <trkpt lat="54.8522062" lon="17.8681320">
        <time>2026-07-17T01:24:30Z</time>
      </trkpt>
      <trkpt lat="54.8524139" lon="17.8697947">
        <time>2026-07-17T01:25:00Z</time>
      </trkpt>
      <trkpt lat="54.8527100" lon="17.8716910">
        <time>2026-07-17T01:25:34Z</time>
      </trkpt>
      <trkpt lat="54.8528770" lon="17.8733464">
        <time>2026-07-17T01:26:04Z</time>
      </trkpt>
      <trkpt lat="54.8531552" lon="17.8749921">
        <time>2026-07-17T01:26:34Z</time>
      </trkpt>
      <trkpt lat="54.8536997" lon="17.8769387">
        <time>2026-07-17T01:27:12Z</time>
      </trkpt>
      <trkpt lat="54.8536890" lon="17.8819373">
        <time>2026-07-17T01:28:40Z</time>
      </trkpt>
      <trkpt lat="54.8536339" lon="17.8851426">
        <time>2026-07-17T01:29:36Z</time>
      </trkpt>
      <trkpt lat="54.8537415" lon="17.8870042">
        <time>2026-07-17T01:30:08Z</time>
      </trkpt>
      <trkpt lat="54.8540880" lon="17.8888535">
        <time>2026-07-17T01:30:43Z</time>
      </trkpt>
      <trkpt lat="54.8545274" lon="17.8904002">
        <time>2026-07-17T01:31:13Z</time>
      </trkpt>
      <trkpt lat="54.8547220" lon="17.8918092">
        <time>2026-07-17T01:31:39Z</time>
      </trkpt>
      <trkpt lat="54.8546720" lon="17.8932802">
        <time>2026-07-17T01:32:05Z</time>
      </trkpt>
      <trkpt lat="54.8548962" lon="17.8964450">
        <time>2026-07-17T01:33:01Z</time>
      </trkpt>
      <trkpt lat="54.8549046" lon="17.8997512">
        <time>2026-07-17T01:33:59Z</time>
      </trkpt>
      <trkpt lat="54.8548245" lon="17.9011273">
        <time>2026-07-17T01:34:23Z</time>
      </trkpt>
      <trkpt lat="54.8547193" lon="17.9025740">
        <time>2026-07-17T01:34:49Z</time>
      </trkpt>
      <trkpt lat="54.8548368" lon="17.9042480">
        <time>2026-07-17T01:35:19Z</time>
      </trkpt>
      <trkpt lat="54.8548734" lon="17.9069818">
        <time>2026-07-17T01:36:07Z</time>
      </trkpt>
      <trkpt lat="54.8548050" lon="17.9089193">
        <time>2026-07-17T01:36:41Z</time>
      </trkpt>
      <trkpt lat="54.8545003" lon="17.9103892">
        <time>2026-07-17T01:37:09Z</time>
      </trkpt>
      <trkpt lat="54.8539784" lon="17.9120010">
        <time>2026-07-17T01:37:41Z</time>
      </trkpt>
      <trkpt lat="54.8537673" lon="17.9134618">
        <time>2026-07-17T01:38:07Z</time>
      </trkpt>
      <trkpt lat="54.8538785" lon="17.9154870">
        <time>2026-07-17T01:38:43Z</time>
      </trkpt>
      <trkpt lat="54.8542367" lon="17.9174244">
        <time>2026-07-17T01:39:19Z</time>
      </trkpt>
      <trkpt lat="54.8543980" lon="17.9189077">
        <time>2026-07-17T01:39:45Z</time>
      </trkpt>
      <trkpt lat="54.8545082" lon="17.9203442">
        <time>2026-07-17T01:40:09Z</time>
      </trkpt>
      <trkpt lat="54.8544470" lon="17.9232180">
        <time>2026-07-17T01:40:59Z</time>
      </trkpt>
      <trkpt lat="54.8544567" lon="17.9262095">
        <time>2026-07-17T01:41:51Z</time>
      </trkpt>
      <trkpt lat="54.8545471" lon="17.9279350">
        <time>2026-07-17T01:42:21Z</time>
      </trkpt>
      <trkpt lat="54.8545917" lon="17.9299949">
        <time>2026-07-17T01:42:57Z</time>
      </trkpt>
      <trkpt lat="54.8547404" lon="17.9324026">
        <time>2026-07-17T01:43:40Z</time>
      </trkpt>
      <trkpt lat="54.8547849" lon="17.9336610">
        <time>2026-07-17T01:44:02Z</time>
      </trkpt>
      <trkpt lat="54.8545873" lon="17.9356749">
        <time>2026-07-17T01:44:38Z</time>
      </trkpt>
      <trkpt lat="54.8545797" lon="17.9372569">
        <time>2026-07-17T01:45:06Z</time>
      </trkpt>
      <trkpt lat="54.8550557" lon="17.9398835">
        <time>2026-07-17T01:45:54Z</time>
      </trkpt>
      <trkpt lat="54.8553628" lon="17.9428212">
        <time>2026-07-17T01:46:46Z</time>
      </trkpt>
      <trkpt lat="54.8556922" lon="17.9449313">
        <time>2026-07-17T01:47:24Z</time>
      </trkpt>
      <trkpt lat="54.8559671" lon="17.9481100">
        <time>2026-07-17T01:48:20Z</time>
      </trkpt>
      <trkpt lat="54.8559853" lon="17.9501678">
        <time>2026-07-17T01:48:56Z</time>
      </trkpt>
      <trkpt lat="54.8562713" lon="17.9525724">
        <time>2026-07-17T01:49:38Z</time>
      </trkpt>
      <trkpt lat="54.8564669" lon="17.9545940">
        <time>2026-07-17T01:50:15Z</time>
      </trkpt>
      <trkpt lat="54.8565026" lon="17.9564275">
        <time>2026-07-17T01:50:47Z</time>
      </trkpt>
      <trkpt lat="54.8562669" lon="17.9583213">
        <time>2026-07-17T01:51:21Z</time>
      </trkpt>
      <trkpt lat="54.8561768" lon="17.9597995">
        <time>2026-07-17T01:51:47Z</time>
      </trkpt>
      <trkpt lat="54.8559750" lon="17.9614749">
        <time>2026-07-17T01:52:17Z</time>
      </trkpt>
      <trkpt lat="54.8559050" lon="17.9627285">
        <time>2026-07-17T01:52:39Z</time>
      </trkpt>
      <trkpt lat="54.8558843" lon="17.9651958">
        <time>2026-07-17T01:53:21Z</time>
      </trkpt>
      <trkpt lat="54.8557890" lon="17.9665645">
        <time>2026-07-17T01:53:45Z</time>
      </trkpt>
      <trkpt lat="54.8553267" lon="17.9683500">
        <time>2026-07-17T01:54:20Z</time>
      </trkpt>
      <trkpt lat="54.8550833" lon="17.9703380">
        <time>2026-07-17T01:54:56Z</time>
      </trkpt>
      <trkpt lat="54.8550662" lon="17.9725320">
        <time>2026-07-17T01:55:34Z</time>
      </trkpt>
      <trkpt lat="54.8548913" lon="17.9746803">
        <time>2026-07-17T01:56:12Z</time>
      </trkpt>
      <trkpt lat="54.8548290" lon="17.9773638">
        <time>2026-07-17T01:56:58Z</time>
      </trkpt>
      <trkpt lat="54.8547260" lon="17.9792103">
        <time>2026-07-17T01:57:30Z</time>
      </trkpt>
      <trkpt lat="54.8548090" lon="17.9811715">
        <time>2026-07-17T01:58:04Z</time>
      </trkpt>
      <trkpt lat="54.8546952" lon="17.9834695">
        <time>2026-07-17T01:58:44Z</time>
      </trkpt>
      <trkpt lat="54.8546756" lon="17.9857880">
        <time>2026-07-17T01:59:24Z</time>
      </trkpt>
      <trkpt lat="54.8544731" lon="17.9891078">
        <time>2026-07-17T02:00:22Z</time>
      </trkpt>
      <trkpt lat="54.8545092" lon="17.9904276">
        <time>2026-07-17T02:00:44Z</time>
      </trkpt>
      <trkpt lat="54.8545202" lon="17.9920794">
        <time>2026-07-17T02:01:14Z</time>
      </trkpt>
      <trkpt lat="54.8548992" lon="17.9932958">
        <time>2026-07-17T02:01:38Z</time>
      </trkpt>
      <trkpt lat="54.8552167" lon="17.9950503">
        <time>2026-07-17T02:02:10Z</time>
      </trkpt>
      <trkpt lat="54.8554010" lon="17.9978073">
        <time>2026-07-17T02:02:58Z</time>
      </trkpt>
      <trkpt lat="54.8553867" lon="17.9994298">
        <time>2026-07-17T02:03:26Z</time>
      </trkpt>
      <trkpt lat="54.8555530" lon="18.0028857">
        <time>2026-07-17T02:04:27Z</time>
      </trkpt>
      <trkpt lat="54.8557487" lon="18.0057492">
        <time>2026-07-17T02:05:17Z</time>
      </trkpt>
      <trkpt lat="54.8557462" lon="18.0091105">
        <time>2026-07-17T02:06:15Z</time>
      </trkpt>
      <trkpt lat="54.8554155" lon="18.0145158">
        <time>2026-07-17T02:07:49Z</time>
      </trkpt>
      <trkpt lat="54.8552403" lon="18.0188075">
        <time>2026-07-17T02:09:03Z</time>
      </trkpt>
      <trkpt lat="54.8551213" lon="18.0231958">
        <time>2026-07-17T02:10:19Z</time>
      </trkpt>
      <trkpt lat="54.8548844" lon="18.0273680">
        <time>2026-07-17T02:11:31Z</time>
      </trkpt>
      <trkpt lat="54.8548362" lon="18.0295854">
        <time>2026-07-17T02:12:09Z</time>
      </trkpt>
      <trkpt lat="54.8547000" lon="18.0317844">
        <time>2026-07-17T02:12:47Z</time>
      </trkpt>
      <trkpt lat="54.8548171" lon="18.0350215">
        <time>2026-07-17T02:13:41Z</time>
      </trkpt>
      <trkpt lat="54.8549380" lon="18.0414145">
        <time>2026-07-17T02:15:32Z</time>
      </trkpt>
      <trkpt lat="54.8550708" lon="18.0446862">
        <time>2026-07-17T02:16:28Z</time>
      </trkpt>
      <trkpt lat="54.8551410" lon="18.0482723">
        <time>2026-07-17T02:17:30Z</time>
      </trkpt>
      <trkpt lat="54.8551761" lon="18.0512783">
        <time>2026-07-17T02:18:22Z</time>
      </trkpt>
      <trkpt lat="54.8551160" lon="18.0531645">
        <time>2026-07-17T02:18:54Z</time>
      </trkpt>
      <trkpt lat="54.8547378" lon="18.0572507">
        <time>2026-07-17T02:20:04Z</time>
      </trkpt>
      <trkpt lat="54.8546593" lon="18.0605922">
        <time>2026-07-17T02:21:02Z</time>
      </trkpt>
      <trkpt lat="54.8545539" lon="18.0624703">
        <time>2026-07-17T02:21:34Z</time>
      </trkpt>
      <trkpt lat="54.8544819" lon="18.0695074">
        <time>2026-07-17T02:23:34Z</time>
      </trkpt>
      <trkpt lat="54.8543780" lon="18.0714597">
        <time>2026-07-17T02:24:08Z</time>
      </trkpt>
      <trkpt lat="54.8543679" lon="18.0733817">
        <time>2026-07-17T02:24:40Z</time>
      </trkpt>
      <trkpt lat="54.8544085" lon="18.0751417">
        <time>2026-07-17T02:25:10Z</time>
      </trkpt>
      <trkpt lat="54.8541851" lon="18.0802080">
        <time>2026-07-17T02:26:37Z</time>
      </trkpt>
      <trkpt lat="54.8541595" lon="18.0836994">
        <time>2026-07-17T02:27:37Z</time>
      </trkpt>
      <trkpt lat="54.8539742" lon="18.0902532">
        <time>2026-07-17T02:29:29Z</time>
      </trkpt>
      <trkpt lat="54.8538777" lon="18.0957753">
        <time>2026-07-17T02:31:03Z</time>
      </trkpt>
      <trkpt lat="54.8537268" lon="18.0981124">
        <time>2026-07-17T02:31:43Z</time>
      </trkpt>
      <trkpt lat="54.8534678" lon="18.1053890">
        <time>2026-07-17T02:33:48Z</time>
      </trkpt>
      <trkpt lat="54.8533713" lon="18.1070058">
        <time>2026-07-17T02:34:16Z</time>
      </trkpt>
      <trkpt lat="54.8531677" lon="18.1127225">
        <time>2026-07-17T02:35:54Z</time>
      </trkpt>
      <trkpt lat="54.8532137" lon="18.1155129">
        <time>2026-07-17T02:36:42Z</time>
      </trkpt>
      <trkpt lat="54.8531112" lon="18.1184061">
        <time>2026-07-17T02:37:32Z</time>
      </trkpt>
      <trkpt lat="54.8531646" lon="18.1216652">
        <time>2026-07-17T02:38:28Z</time>
      </trkpt>
      <trkpt lat="54.8531066" lon="18.1237377">
        <time>2026-07-17T02:39:04Z</time>
      </trkpt>
      <trkpt lat="54.8531980" lon="18.1267594">
        <time>2026-07-17T02:39:56Z</time>
      </trkpt>
      <trkpt lat="54.8531702" lon="18.1281556">
        <time>2026-07-17T02:40:20Z</time>
      </trkpt>
      <trkpt lat="54.8532887" lon="18.1311615">
        <time>2026-07-17T02:41:12Z</time>
      </trkpt>
      <trkpt lat="54.8533708" lon="18.1342079">
        <time>2026-07-17T02:42:04Z</time>
      </trkpt>
      <trkpt lat="54.8533810" lon="18.1371615">
        <time>2026-07-17T02:42:54Z</time>
      </trkpt>
      <trkpt lat="54.8533521" lon="18.1400488">
        <time>2026-07-17T02:43:44Z</time>
      </trkpt>
      <trkpt lat="54.8531247" lon="18.1432077">
        <time>2026-07-17T02:44:38Z</time>
      </trkpt>
      <trkpt lat="54.8529887" lon="18.1462317">
        <time>2026-07-17T02:45:31Z</time>
      </trkpt>
      <trkpt lat="54.8529080" lon="18.1496020">
        <time>2026-07-17T02:46:29Z</time>
      </trkpt>
      <trkpt lat="54.8529897" lon="18.1524134">
        <time>2026-07-17T02:47:17Z</time>
      </trkpt>
      <trkpt lat="54.8529817" lon="18.1538242">
        <time>2026-07-17T02:47:41Z</time>
      </trkpt>
      <trkpt lat="54.8529090" lon="18.1555888">
        <time>2026-07-17T02:48:11Z</time>
      </trkpt>
      <trkpt lat="54.8530528" lon="18.1617755">
        <time>2026-07-17T02:49:57Z</time>
      </trkpt>
      <trkpt lat="54.8530092" lon="18.1636739">
        <time>2026-07-17T02:50:29Z</time>
      </trkpt>
      <trkpt lat="54.8527455" lon="18.1683010">
        <time>2026-07-17T02:51:49Z</time>
      </trkpt>
      <trkpt lat="54.8524255" lon="18.1714394">
        <time>2026-07-17T02:52:43Z</time>
      </trkpt>
      <trkpt lat="54.8522343" lon="18.1736555">
        <time>2026-07-17T02:53:21Z</time>
      </trkpt>
      <trkpt lat="54.8520947" lon="18.1759072">
        <time>2026-07-17T02:53:59Z</time>
      </trkpt>
      <trkpt lat="54.8518962" lon="18.1778725">
        <time>2026-07-17T02:54:33Z</time>
      </trkpt>
      <trkpt lat="54.8516629" lon="18.1817843">
        <time>2026-07-17T02:55:39Z</time>
      </trkpt>
      <trkpt lat="54.8514477" lon="18.1864900">
        <time>2026-07-17T02:56:59Z</time>
      </trkpt>
      <trkpt lat="54.8514914" lon="18.1895068">
        <time>2026-07-17T02:57:52Z</time>
      </trkpt>
      <trkpt lat="54.8514815" lon="18.1911429">
        <time>2026-07-17T02:58:20Z</time>
      </trkpt>
      <trkpt lat="54.8515374" lon="18.1937525">
        <time>2026-07-17T02:59:04Z</time>
      </trkpt>
      <trkpt lat="54.8513775" lon="18.1965696">
        <time>2026-07-17T02:59:52Z</time>
      </trkpt>
      <trkpt lat="54.8513158" lon="18.1990502">
        <time>2026-07-17T03:00:34Z</time>
      </trkpt>
      <trkpt lat="54.8512251" lon="18.2006838">
        <time>2026-07-17T03:01:02Z</time>
      </trkpt>
      <trkpt lat="54.8512017" lon="18.2037138">
        <time>2026-07-17T03:01:54Z</time>
      </trkpt>
      <trkpt lat="54.8511083" lon="18.2066687">
        <time>2026-07-17T03:02:44Z</time>
      </trkpt>
      <trkpt lat="54.8509678" lon="18.2094030">
        <time>2026-07-17T03:03:30Z</time>
      </trkpt>
      <trkpt lat="54.8510123" lon="18.2114543">
        <time>2026-07-17T03:04:06Z</time>
      </trkpt>
      <trkpt lat="54.8510440" lon="18.2149115">
        <time>2026-07-17T03:05:04Z</time>
      </trkpt>
      <trkpt lat="54.8509940" lon="18.2174138">
        <time>2026-07-17T03:05:46Z</time>
      </trkpt>
      <trkpt lat="54.8504248" lon="18.2244619">
        <time>2026-07-17T03:07:46Z</time>
      </trkpt>
      <trkpt lat="54.8503830" lon="18.2276321">
        <time>2026-07-17T03:08:41Z</time>
      </trkpt>
      <trkpt lat="54.8503358" lon="18.2299802">
        <time>2026-07-17T03:09:21Z</time>
      </trkpt>
      <trkpt lat="54.8502397" lon="18.2319945">
        <time>2026-07-17T03:09:55Z</time>
      </trkpt>
      <trkpt lat="54.8499996" lon="18.2342080">
        <time>2026-07-17T03:10:33Z</time>
      </trkpt>
      <trkpt lat="54.8498170" lon="18.2364218">
        <time>2026-07-17T03:11:11Z</time>
      </trkpt>
      <trkpt lat="54.8497482" lon="18.2377162">
        <time>2026-07-17T03:11:33Z</time>
      </trkpt>
      <trkpt lat="54.8497180" lon="18.2399421">
        <time>2026-07-17T03:12:11Z</time>
      </trkpt>
      <trkpt lat="54.8496560" lon="18.2419178">
        <time>2026-07-17T03:12:45Z</time>
      </trkpt>
      <trkpt lat="54.8492485" lon="18.2464932">
        <time>2026-07-17T03:14:03Z</time>
      </trkpt>
      <trkpt lat="54.8491212" lon="18.2481760">
        <time>2026-07-17T03:14:31Z</time>
      </trkpt>
      <trkpt lat="54.8491320" lon="18.2505343">
        <time>2026-07-17T03:15:12Z</time>
      </trkpt>
      <trkpt lat="54.8490673" lon="18.2557277">
        <time>2026-07-17T03:16:40Z</time>
      </trkpt>
      <trkpt lat="54.8489014" lon="18.2633878">
        <time>2026-07-17T03:18:50Z</time>
      </trkpt>
      <trkpt lat="54.8488813" lon="18.2650400">
        <time>2026-07-17T03:19:18Z</time>
      </trkpt>
      <trkpt lat="54.8490837" lon="18.2706060">
        <time>2026-07-17T03:20:53Z</time>
      </trkpt>
      <trkpt lat="54.8490853" lon="18.2745011">
        <time>2026-07-17T03:21:59Z</time>
      </trkpt>
      <trkpt lat="54.8491715" lon="18.2781460">
        <time>2026-07-17T03:23:01Z</time>
      </trkpt>
      <trkpt lat="54.8491513" lon="18.2794311">
        <time>2026-07-17T03:23:23Z</time>
      </trkpt>
      <trkpt lat="54.8490728" lon="18.2807167">
        <time>2026-07-17T03:23:45Z</time>
      </trkpt>
      <trkpt lat="54.8490793" lon="18.2820198">
        <time>2026-07-17T03:24:07Z</time>
      </trkpt>
      <trkpt lat="54.8492307" lon="18.2848887">
        <time>2026-07-17T03:24:55Z</time>
      </trkpt>
      <trkpt lat="54.8491958" lon="18.2865800">
        <time>2026-07-17T03:25:23Z</time>
      </trkpt>
      <trkpt lat="54.8492432" lon="18.2879729">
        <time>2026-07-17T03:25:47Z</time>
      </trkpt>
      <trkpt lat="54.8492180" lon="18.2915370">
        <time>2026-07-17T03:26:47Z</time>
      </trkpt>
      <trkpt lat="54.8491366" lon="18.2931277">
        <time>2026-07-17T03:27:15Z</time>
      </trkpt>
      <trkpt lat="54.8490810" lon="18.2957145">
        <time>2026-07-17T03:27:59Z</time>
      </trkpt>
      <trkpt lat="54.8489885" lon="18.2970231">
        <time>2026-07-17T03:28:21Z</time>
      </trkpt>
      <trkpt lat="54.8487845" lon="18.3014503">
        <time>2026-07-17T03:29:35Z</time>
      </trkpt>
      <trkpt lat="54.8485175" lon="18.3033268">
        <time>2026-07-17T03:30:08Z</time>
      </trkpt>
      <trkpt lat="54.8482285" lon="18.3046652">
        <time>2026-07-17T03:30:34Z</time>
      </trkpt>
      <trkpt lat="54.8480922" lon="18.3063863">
        <time>2026-07-17T03:31:02Z</time>
      </trkpt>
      <trkpt lat="54.8481539" lon="18.3074088">
        <time>2026-07-17T03:31:38Z</time>
      </trkpt>
      <trkpt lat="54.8474460" lon="18.3111950">
        <time>2026-07-17T03:33:04Z</time>
      </trkpt>
      <trkpt lat="54.8472940" lon="18.3138709">
        <time>2026-07-17T03:33:40Z</time>
      </trkpt>
      <trkpt lat="54.8471696" lon="18.3154720">
        <time>2026-07-17T03:34:06Z</time>
      </trkpt>
      <trkpt lat="54.8469425" lon="18.3175188">
        <time>2026-07-17T03:34:34Z</time>
      </trkpt>
      <trkpt lat="54.8466196" lon="18.3197235">
        <time>2026-07-17T03:35:18Z</time>
      </trkpt>
      <trkpt lat="54.8463729" lon="18.3212686">
        <time>2026-07-17T03:35:44Z</time>
      </trkpt>
      <trkpt lat="54.8461834" lon="18.3228506">
        <time>2026-07-17T03:36:12Z</time>
      </trkpt>
      <trkpt lat="54.8459694" lon="18.3244807">
        <time>2026-07-17T03:36:43Z</time>
      </trkpt>
      <trkpt lat="54.8459090" lon="18.3260544">
        <time>2026-07-17T03:37:05Z</time>
      </trkpt>
      <trkpt lat="54.8455887" lon="18.3273715">
        <time>2026-07-17T03:37:33Z</time>
      </trkpt>
      <trkpt lat="54.8453185" lon="18.3287505">
        <time>2026-07-17T03:37:59Z</time>
      </trkpt>
      <trkpt lat="54.8451043" lon="18.3300535">
        <time>2026-07-17T03:38:21Z</time>
      </trkpt>
      <trkpt lat="54.8447536" lon="18.3319368">
        <time>2026-07-17T03:38:55Z</time>
      </trkpt>
      <trkpt lat="54.8444837" lon="18.3331928">
        <time>2026-07-17T03:39:19Z</time>
      </trkpt>
      <trkpt lat="54.8441346" lon="18.3353372">
        <time>2026-07-17T03:39:57Z</time>
      </trkpt>
      <trkpt lat="54.8439217" lon="18.3367682">
        <time>2026-07-17T03:40:21Z</time>
      </trkpt>
      <trkpt lat="54.8438073" lon="18.3383160">
        <time>2026-07-17T03:40:39Z</time>
      </trkpt>
      <trkpt lat="54.8435699" lon="18.3398100">
        <time>2026-07-17T03:41:03Z</time>
      </trkpt>
      <trkpt lat="54.8436033" lon="18.3416855">
        <time>2026-07-17T03:41:21Z</time>
      </trkpt>
      <trkpt lat="54.8435195" lon="18.3430836">
        <time>2026-07-17T03:41:39Z</time>
      </trkpt>
      <trkpt lat="54.8432263" lon="18.3443395">
        <time>2026-07-17T03:42:05Z</time>
      </trkpt>
      <trkpt lat="54.8427460" lon="18.3464618">
        <time>2026-07-17T03:42:39Z</time>
      </trkpt>
      <trkpt lat="54.8423304" lon="18.3476805">
        <time>2026-07-17T03:43:05Z</time>
      </trkpt>
      <trkpt lat="54.8423978" lon="18.3490470">
        <time>2026-07-17T03:43:09Z</time>
      </trkpt>
      <trkpt lat="54.8421693" lon="18.3506501">
        <time>2026-07-17T03:43:30Z</time>
      </trkpt>
      <trkpt lat="54.8415138" lon="18.3511639">
        <time>2026-07-17T03:43:58Z</time>
      </trkpt>
      <trkpt lat="54.8408480" lon="18.3522945">
        <time>2026-07-17T03:44:26Z</time>
      </trkpt>
      <trkpt lat="54.8402493" lon="18.3533533">
        <time>2026-07-17T03:44:52Z</time>
      </trkpt>
      <trkpt lat="54.8381950" lon="18.3571205">
        <time>2026-07-17T03:46:52Z</time>
      </trkpt>
      <trkpt lat="54.8380545" lon="18.3589510">
        <time>2026-07-17T03:47:04Z</time>
      </trkpt>
      <trkpt lat="54.8377985" lon="18.3605006">
        <time>2026-07-17T03:47:32Z</time>
      </trkpt>
      <trkpt lat="54.8371674" lon="18.3618917">
        <time>2026-07-17T03:48:04Z</time>
      </trkpt>
      <trkpt lat="54.8361106" lon="18.3640786">
        <time>2026-07-17T03:48:52Z</time>
      </trkpt>
      <trkpt lat="54.8357377" lon="18.3651684">
        <time>2026-07-17T03:49:12Z</time>
      </trkpt>
      <trkpt lat="54.8350662" lon="18.3664121">
        <time>2026-07-17T03:49:39Z</time>
      </trkpt>
      <trkpt lat="54.8344222" lon="18.3679973">
        <time>2026-07-17T03:50:07Z</time>
      </trkpt>
      <trkpt lat="54.8335562" lon="18.3698020">
        <time>2026-07-17T03:50:45Z</time>
      </trkpt>
      <trkpt lat="54.8321533" lon="18.3723525">
        <time>2026-07-17T03:51:43Z</time>
      </trkpt>
      <trkpt lat="54.8316420" lon="18.3739031">
        <time>2026-07-17T03:52:17Z</time>
      </trkpt>
      <trkpt lat="54.8309424" lon="18.3751997">
        <time>2026-07-17T03:52:43Z</time>
      </trkpt>
      <trkpt lat="54.8303003" lon="18.3763905">
        <time>2026-07-17T03:53:13Z</time>
      </trkpt>
      <trkpt lat="54.8298383" lon="18.3776600">
        <time>2026-07-17T03:53:37Z</time>
      </trkpt>
      <trkpt lat="54.8277101" lon="18.3833148"/>
      <trkpt lat="54.8253143" lon="18.3897261"/>
      <trkpt lat="54.8232181" lon="18.3949244"/>
      <trkpt lat="54.8207559" lon="18.4017979"/>
      <trkpt lat="54.8185931" lon="18.4077470"/>
      <trkpt lat="54.8165634" lon="18.4136962"/>
      <trkpt lat="54.8147666" lon="18.4187791"/>
      <trkpt lat="54.8128701" lon="18.4247283"/>
      <trkpt lat="54.8100002" lon="18.4319771"/>
      <trkpt lat="54.7977722" lon="18.4647267"/>
      <trkpt lat="54.7819339" lon="18.5029345"/>
      <trkpt lat="54.7689491" lon="18.5349058"/>
      <trkpt lat="54.7590502" lon="18.5587236"/>
      <trkpt lat="54.7478702" lon="18.5902116"/>
      <trkpt lat="54.7375055" lon="18.6162496"/>
      <trkpt lat="54.7278396" lon="18.6392600"/>
      <trkpt lat="54.7172419" lon="18.6652981"/>
      <trkpt lat="54.7103710" lon="18.6804365"/>
      <trkpt lat="54.7009962" lon="18.7035723"/>
      <trkpt lat="54.6907479" lon="18.7305778"/>
      <trkpt lat="54.6807325" lon="18.7541571"/>
      <trkpt lat="54.6693197" lon="18.7773335"/>
      <trkpt lat="54.6657097" lon="18.7831500"/>
      <trkpt lat="54.6551121" lon="18.7974423"/>
      <trkpt lat="54.6440486" lon="18.8131438"/>
      <trkpt lat="54.6348485" lon="18.8238973"/>
      <trkpt lat="54.6271623" lon="18.8309374"/>
      <trkpt lat="54.6190103" lon="18.8347591"/>
      <trkpt lat="54.6121393" lon="18.8353626"/>
      <trkpt lat="54.6072481" lon="18.8339545"/>
      <trkpt lat="54.6021240" lon="18.8307362"/>
      <trkpt lat="54.5975821" lon="18.8275179"/>
      <trkpt lat="54.5929238" lon="18.8238973"/>
      <trkpt lat="54.5874627" lon="18.8229197">
        <time>2026-07-17T07:02:54Z</time>
      </trkpt>
      <trkpt lat="54.5863223" lon="18.8225365">
        <time>2026-07-17T07:03:18Z</time>
      </trkpt>
      <trkpt lat="54.5849111" lon="18.8220078">
        <time>2026-07-17T07:04:00Z</time>
      </trkpt>
      <trkpt lat="54.5840572" lon="18.8215647">
        <time>2026-07-17T07:04:26Z</time>
      </trkpt>
      <trkpt lat="54.5832510" lon="18.8210387">
        <time>2026-07-17T07:04:52Z</time>
      </trkpt>
      <trkpt lat="54.5812803" lon="18.8202660">
        <time>2026-07-17T07:05:53Z</time>
      </trkpt>
      <trkpt lat="54.5800402" lon="18.8197220">
        <time>2026-07-17T07:06:31Z</time>
      </trkpt>
      <trkpt lat="54.5793343" lon="18.8193117">
        <time>2026-07-17T07:06:53Z</time>
      </trkpt>
      <trkpt lat="54.5786430" lon="18.8187789">
        <time>2026-07-17T07:07:15Z</time>
      </trkpt>
      <trkpt lat="54.5776113" lon="18.8183200">
        <time>2026-07-17T07:07:47Z</time>
      </trkpt>
      <trkpt lat="54.5751220" lon="18.8171557">
        <time>2026-07-17T07:09:03Z</time>
      </trkpt>
      <trkpt lat="54.5729090" lon="18.8158884">
        <time>2026-07-17T07:10:11Z</time>
      </trkpt>
      <trkpt lat="54.5714597" lon="18.8154284">
        <time>2026-07-17T07:10:53Z</time>
      </trkpt>
      <trkpt lat="54.5706989" lon="18.8151372">
        <time>2026-07-17T07:11:15Z</time>
      </trkpt>
      <trkpt lat="54.5681237" lon="18.8137037">
        <time>2026-07-17T07:12:33Z</time>
      </trkpt>
      <trkpt lat="54.5664010" lon="18.8128953">
        <time>2026-07-17T07:13:26Z</time>
      </trkpt>
      <trkpt lat="54.5652518" lon="18.8122261">
        <time>2026-07-17T07:14:02Z</time>
      </trkpt>
      <trkpt lat="54.5641876" lon="18.8117403">
        <time>2026-07-17T07:14:34Z</time>
      </trkpt>
      <trkpt lat="54.5630932" lon="18.8113055">
        <time>2026-07-17T07:15:08Z</time>
      </trkpt>
      <trkpt lat="54.5602038" lon="18.8094842">
        <time>2026-07-17T07:16:38Z</time>
      </trkpt>
      <trkpt lat="54.5588873" lon="18.8087294">
        <time>2026-07-17T07:17:18Z</time>
      </trkpt>
      <trkpt lat="54.5573498" lon="18.8076185">
        <time>2026-07-17T07:18:06Z</time>
      </trkpt>
      <trkpt lat="54.5564163" lon="18.8073230">
        <time>2026-07-17T07:18:34Z</time>
      </trkpt>
      <trkpt lat="54.5557247" lon="18.8069749">
        <time>2026-07-17T07:18:54Z</time>
      </trkpt>
      <trkpt lat="54.5528775" lon="18.8052140">
        <time>2026-07-17T07:20:22Z</time>
      </trkpt>
      <trkpt lat="54.5505583" lon="18.8036922">
        <time>2026-07-17T07:21:34Z</time>
      </trkpt>
      <trkpt lat="54.5496715" lon="18.8029505">
        <time>2026-07-17T07:22:02Z</time>
      </trkpt>
      <trkpt lat="54.5489726" lon="18.8024938">
        <time>2026-07-17T07:22:24Z</time>
      </trkpt>
      <trkpt lat="54.5479228" lon="18.8019247">
        <time>2026-07-17T07:22:56Z</time>
      </trkpt>
      <trkpt lat="54.5470875" lon="18.8013345">
        <time>2026-07-17T07:23:23Z</time>
      </trkpt>
      <trkpt lat="54.5461108" lon="18.8009966">
        <time>2026-07-17T07:23:53Z</time>
      </trkpt>
      <trkpt lat="54.5448100" lon="18.8004172">
        <time>2026-07-17T07:24:33Z</time>
      </trkpt>
      <trkpt lat="54.5440830" lon="18.8002181">
        <time>2026-07-17T07:24:55Z</time>
      </trkpt>
      <trkpt lat="54.5423202" lon="18.8019347">
        <time>2026-07-17T07:25:59Z</time>
      </trkpt>
      <trkpt lat="54.5414948" lon="18.8026745">
        <time>2026-07-17T07:26:27Z</time>
      </trkpt>
      <trkpt lat="54.5404663" lon="18.8034711">
        <time>2026-07-17T07:27:01Z</time>
      </trkpt>
      <trkpt lat="54.5393195" lon="18.8047223">
        <time>2026-07-17T07:27:43Z</time>
      </trkpt>
      <trkpt lat="54.5385739" lon="18.8058074">
        <time>2026-07-17T07:28:13Z</time>
      </trkpt>
      <trkpt lat="54.5377715" lon="18.8067732">
        <time>2026-07-17T07:28:43Z</time>
      </trkpt>
      <trkpt lat="54.5371388" lon="18.8073850">
        <time>2026-07-17T07:29:05Z</time>
      </trkpt>
      <trkpt lat="54.5364908" lon="18.8079253">
        <time>2026-07-17T07:29:27Z</time>
      </trkpt>
      <trkpt lat="54.5353670" lon="18.8089017">
        <time>2026-07-17T07:30:07Z</time>
      </trkpt>
      <trkpt lat="54.5346501" lon="18.8096447">
        <time>2026-07-17T07:30:33Z</time>
      </trkpt>
      <trkpt lat="54.5330045" lon="18.8112154">
        <time>2026-07-17T07:31:31Z</time>
      </trkpt>
      <trkpt lat="54.5320895" lon="18.8119852">
        <time>2026-07-17T07:32:01Z</time>
      </trkpt>
      <trkpt lat="54.5313907" lon="18.8123460">
        <time>2026-07-17T07:32:25Z</time>
      </trkpt>
      <trkpt lat="54.5286764" lon="18.8143455">
        <time>2026-07-17T07:33:55Z</time>
      </trkpt>
      <trkpt lat="54.5278061" lon="18.8145283">
        <time>2026-07-17T07:34:23Z</time>
      </trkpt>
      <trkpt lat="54.5271089" lon="18.8142082">
        <time>2026-07-17T07:34:45Z</time>
      </trkpt>
      <trkpt lat="54.5262107" lon="18.8140317">
        <time>2026-07-17T07:35:13Z</time>
      </trkpt>
      <trkpt lat="54.5242044" lon="18.8134513">
        <time>2026-07-17T07:36:15Z</time>
      </trkpt>
      <trkpt lat="54.5215687" lon="18.8129093">
        <time>2026-07-17T07:37:37Z</time>
      </trkpt>
      <trkpt lat="54.5191729" lon="18.8122094">
        <time>2026-07-17T07:38:54Z</time>
      </trkpt>
      <trkpt lat="54.5164155" lon="18.8115158">
        <time>2026-07-17T07:40:20Z</time>
      </trkpt>
      <trkpt lat="54.5151749" lon="18.8110987">
        <time>2026-07-17T07:40:58Z</time>
      </trkpt>
      <trkpt lat="54.5116588" lon="18.8101783">
        <time>2026-07-17T07:42:46Z</time>
      </trkpt>
      <trkpt lat="54.5101070" lon="18.8098772">
        <time>2026-07-17T07:43:35Z</time>
      </trkpt>
      <trkpt lat="54.5089337" lon="18.8095135">
        <time>2026-07-17T07:44:11Z</time>
      </trkpt>
      <trkpt lat="54.5073738" lon="18.8092203">
        <time>2026-07-17T07:44:59Z</time>
      </trkpt>
      <trkpt lat="54.5062115" lon="18.8089468">
        <time>2026-07-17T07:45:35Z</time>
      </trkpt>
      <trkpt lat="54.5044287" lon="18.8083515">
        <time>2026-07-17T07:46:31Z</time>
      </trkpt>
      <trkpt lat="54.5034330" lon="18.8081048">
        <time>2026-07-17T07:47:01Z</time>
      </trkpt>
      <trkpt lat="54.5024078" lon="18.8077295">
        <time>2026-07-17T07:47:33Z</time>
      </trkpt>
      <trkpt lat="54.5007728" lon="18.8070143">
        <time>2026-07-17T07:48:23Z</time>
      </trkpt>
      <trkpt lat="54.4997450" lon="18.8066107">
        <time>2026-07-17T07:48:55Z</time>
      </trkpt>
      <trkpt lat="54.4977952" lon="18.8061637">
        <time>2026-07-17T07:49:56Z</time>
      </trkpt>
      <trkpt lat="54.4961376" lon="18.8062057">
        <time>2026-07-17T07:50:46Z</time>
      </trkpt>
      <trkpt lat="54.4944505" lon="18.8056655">
        <time>2026-07-17T07:51:38Z</time>
      </trkpt>
      <trkpt lat="54.4935279" lon="18.8053976">
        <time>2026-07-17T07:52:06Z</time>
      </trkpt>
      <trkpt lat="54.4920177" lon="18.8046889">
        <time>2026-07-17T07:52:52Z</time>
      </trkpt>
      <trkpt lat="54.4903126" lon="18.8044005">
        <time>2026-07-17T07:53:44Z</time>
      </trkpt>
      <trkpt lat="54.4890275" lon="18.8041475">
        <time>2026-07-17T07:54:22Z</time>
      </trkpt>
      <trkpt lat="54.4873169" lon="18.8036617">
        <time>2026-07-17T07:55:14Z</time>
      </trkpt>
      <trkpt lat="54.4828500" lon="18.8027887">
        <time>2026-07-17T07:57:29Z</time>
      </trkpt>
      <trkpt lat="54.4818524" lon="18.8024999">
        <time>2026-07-17T07:57:59Z</time>
      </trkpt>
      <trkpt lat="54.4809258" lon="18.8023160">
        <time>2026-07-17T07:58:27Z</time>
      </trkpt>
      <trkpt lat="54.4795965" lon="18.8019343">
        <time>2026-07-17T07:59:07Z</time>
      </trkpt>
      <trkpt lat="54.4781301" lon="18.8016520">
        <time>2026-07-17T07:59:51Z</time>
      </trkpt>
      <trkpt lat="54.4767673" lon="18.8011330">
        <time>2026-07-17T08:00:31Z</time>
      </trkpt>
      <trkpt lat="54.4741670" lon="18.8005195">
        <time>2026-07-17T08:01:49Z</time>
      </trkpt>
      <trkpt lat="54.4705660" lon="18.8001385">
        <time>2026-07-17T08:03:36Z</time>
      </trkpt>
      <trkpt lat="54.4678783" lon="18.7995197">
        <time>2026-07-17T08:04:56Z</time>
      </trkpt>
      <trkpt lat="54.4655776" lon="18.7993369">
        <time>2026-07-17T08:06:04Z</time>
      </trkpt>
      <trkpt lat="54.4626635" lon="18.7988882">
        <time>2026-07-17T08:07:30Z</time>
      </trkpt>
      <trkpt lat="54.4615150" lon="18.7986455">
        <time>2026-07-17T08:08:04Z</time>
      </trkpt>
      <trkpt lat="54.4602942" lon="18.7984800">
        <time>2026-07-17T08:08:40Z</time>
      </trkpt>
      <trkpt lat="54.4578395" lon="18.7979709">
        <time>2026-07-17T08:09:52Z</time>
      </trkpt>
      <trkpt lat="54.4566372" lon="18.7979942">
        <time>2026-07-17T08:10:26Z</time>
      </trkpt>
      <trkpt lat="54.4541178" lon="18.7977350">
        <time>2026-07-17T08:11:40Z</time>
      </trkpt>
      <trkpt lat="54.4528221" lon="18.7974493">
        <time>2026-07-17T08:12:18Z</time>
      </trkpt>
      <trkpt lat="54.4520623" lon="18.7973767">
        <time>2026-07-17T08:12:40Z</time>
      </trkpt>
      <trkpt lat="54.4505348" lon="18.7974387">
        <time>2026-07-17T08:13:24Z</time>
      </trkpt>
      <trkpt lat="54.4472880" lon="18.7969243">
        <time>2026-07-17T08:15:00Z</time>
      </trkpt>
      <trkpt lat="54.4464708" lon="18.7966982">
        <time>2026-07-17T08:15:24Z</time>
      </trkpt>
      <trkpt lat="54.4446282" lon="18.7964445">
        <time>2026-07-17T08:16:18Z</time>
      </trkpt>
      <trkpt lat="54.4438885" lon="18.7962585">
        <time>2026-07-17T08:16:41Z</time>
      </trkpt>
      <trkpt lat="54.4421749" lon="18.7961454">
        <time>2026-07-17T08:17:31Z</time>
      </trkpt>
      <trkpt lat="54.4408133" lon="18.7959714">
        <time>2026-07-17T08:18:11Z</time>
      </trkpt>
      <trkpt lat="54.4391050" lon="18.7959410">
        <time>2026-07-17T08:19:01Z</time>
      </trkpt>
      <trkpt lat="54.4373318" lon="18.7957098">
        <time>2026-07-17T08:19:53Z</time>
      </trkpt>
      <trkpt lat="54.4337057" lon="18.7954057">
        <time>2026-07-17T08:21:39Z</time>
      </trkpt>
      <trkpt lat="54.4326893" lon="18.7952283">
        <time>2026-07-17T08:22:09Z</time>
      </trkpt>
      <trkpt lat="54.4312127" lon="18.7950507">
        <time>2026-07-17T08:22:53Z</time>
      </trkpt>
      <trkpt lat="54.4299354" lon="18.7950416">
        <time>2026-07-17T08:23:31Z</time>
      </trkpt>
      <trkpt lat="54.4287227" lon="18.7949253">
        <time>2026-07-17T08:24:07Z</time>
      </trkpt>
      <trkpt lat="54.4273238" lon="18.7945941">
        <time>2026-07-17T08:24:50Z</time>
      </trkpt>
      <trkpt lat="54.4247307" lon="18.7937650">
        <time>2026-07-17T08:26:08Z</time>
      </trkpt>
      <trkpt lat="54.4239485" lon="18.7934520">
        <time>2026-07-17T08:26:32Z</time>
      </trkpt>
      <trkpt lat="54.4191790" lon="18.7919579">
        <time>2026-07-17T08:28:54Z</time>
      </trkpt>
      <trkpt lat="54.4178007" lon="18.7913020">
        <time>2026-07-17T08:29:36Z</time>
      </trkpt>
      <trkpt lat="54.4165204" lon="18.7908728">
        <time>2026-07-17T08:30:14Z</time>
      </trkpt>
      <trkpt lat="54.4149536" lon="18.7901125">
        <time>2026-07-17T08:31:03Z</time>
      </trkpt>
      <trkpt lat="54.4134943" lon="18.7895160">
        <time>2026-07-17T08:31:47Z</time>
      </trkpt>
      <trkpt lat="54.4118620" lon="18.7886996">
        <time>2026-07-17T08:32:37Z</time>
      </trkpt>
      <trkpt lat="54.4109711" lon="18.7881691">
        <time>2026-07-17T08:33:05Z</time>
      </trkpt>
      <trkpt lat="54.4098343" lon="18.7876265">
        <time>2026-07-17T08:33:39Z</time>
      </trkpt>
      <trkpt lat="54.4083085" lon="18.7867117">
        <time>2026-07-17T08:34:27Z</time>
      </trkpt>
      <trkpt lat="54.4071108" lon="18.7861870">
        <time>2026-07-17T08:35:03Z</time>
      </trkpt>
      <trkpt lat="54.4058580" lon="18.7854319">
        <time>2026-07-17T08:35:41Z</time>
      </trkpt>
      <trkpt lat="54.4016069" lon="18.7834034">
        <time>2026-07-17T08:37:49Z</time>
      </trkpt>
      <trkpt lat="54.3988186" lon="18.7822077">
        <time>2026-07-17T08:39:13Z</time>
      </trkpt>
      <trkpt lat="54.3961470" lon="18.7813280">
        <time>2026-07-17T08:40:31Z</time>
      </trkpt>
      <trkpt lat="54.3945205" lon="18.7809569">
        <time>2026-07-17T08:41:19Z</time>
      </trkpt>
      <trkpt lat="54.3931463" lon="18.7804881">
        <time>2026-07-17T08:42:01Z</time>
      </trkpt>
      <trkpt lat="54.3907560" lon="18.7795313">
        <time>2026-07-17T08:43:14Z</time>
      </trkpt>
      <trkpt lat="54.3880915" lon="18.7788118">
        <time>2026-07-17T08:44:32Z</time>
      </trkpt>
      <trkpt lat="54.3861945" lon="18.7784658">
        <time>2026-07-17T08:45:28Z</time>
      </trkpt>
      <trkpt lat="54.3849012" lon="18.7781291">
        <time>2026-07-17T08:46:06Z</time>
      </trkpt>
      <trkpt lat="54.3833043" lon="18.7776075">
        <time>2026-07-17T08:46:56Z</time>
      </trkpt>
      <trkpt lat="54.3822708" lon="18.7774205">
        <time>2026-07-17T08:47:26Z</time>
      </trkpt>
      <trkpt lat="54.3804193" lon="18.7768683">
        <time>2026-07-17T08:48:20Z</time>
      </trkpt>
      <trkpt lat="54.3781150" lon="18.7763910">
        <time>2026-07-17T08:49:29Z</time>
      </trkpt>
      <trkpt lat="54.3768435" lon="18.7763687">
        <time>2026-07-17T08:50:07Z</time>
      </trkpt>
      <trkpt lat="54.3758541" lon="18.7765294">
        <time>2026-07-17T08:50:37Z</time>
      </trkpt>
      <trkpt lat="54.3749434" lon="18.7768673">
        <time>2026-07-17T08:51:05Z</time>
      </trkpt>
      <trkpt lat="54.3710762" lon="18.7795702">
        <time>2026-07-17T08:53:11Z</time>
      </trkpt>
      <trkpt lat="54.3696802" lon="18.7804748">
        <time>2026-07-17T08:53:55Z</time>
      </trkpt>
      <trkpt lat="54.3685692" lon="18.7810505">
        <time>2026-07-17T08:54:29Z</time>
      </trkpt>
      <trkpt lat="54.3668847" lon="18.7817857">
        <time>2026-07-17T08:55:21Z</time>
      </trkpt>
      <trkpt lat="54.3652971" lon="18.7823643">
        <time>2026-07-17T08:56:09Z</time>
      </trkpt>
      <trkpt lat="54.3631765" lon="18.7829745">
        <time>2026-07-17T08:57:13Z</time>
      </trkpt>
      <trkpt lat="54.3600822" lon="18.7840903">
        <time>2026-07-17T08:58:45Z</time>
      </trkpt>
      <trkpt lat="54.3587862" lon="18.7844728">
        <time>2026-07-17T08:59:23Z</time>
      </trkpt>
      <trkpt lat="54.3545037" lon="18.7861865">
        <time>2026-07-17T09:01:33Z</time>
      </trkpt>
      <trkpt lat="54.3520027" lon="18.7871255">
        <time>2026-07-17T09:02:49Z</time>
      </trkpt>
      <trkpt lat="54.3507016" lon="18.7874243">
        <time>2026-07-17T09:03:29Z</time>
      </trkpt>
      <trkpt lat="54.3497798" lon="18.7872476">
        <time>2026-07-17T09:03:57Z</time>
      </trkpt>
      <trkpt lat="54.3490859" lon="18.7868203">
        <time>2026-07-17T09:04:19Z</time>
      </trkpt>
      <trkpt lat="54.3487692" lon="18.7862540">
        <time>2026-07-17T09:04:33Z</time>
      </trkpt>
      <trkpt lat="54.3485775" lon="18.7851677">
        <time>2026-07-17T09:04:53Z</time>
      </trkpt>
      <trkpt lat="54.3485785" lon="18.7837782">
        <time>2026-07-17T09:05:17Z</time>
      </trkpt>
      <trkpt lat="54.3489608" lon="18.7816605">
        <time>2026-07-17T09:05:56Z</time>
      </trkpt>
      <trkpt lat="54.3493923" lon="18.7805107">
        <time>2026-07-17T09:06:20Z</time>
      </trkpt>
      <trkpt lat="54.3504740" lon="18.7784142">
        <time>2026-07-17T09:07:08Z</time>
      </trkpt>
      <trkpt lat="54.3513562" lon="18.7769511">
        <time>2026-07-17T09:07:44Z</time>
      </trkpt>
      <trkpt lat="54.3519622" lon="18.7755130">
        <time>2026-07-17T09:08:14Z</time>
      </trkpt>
      <trkpt lat="54.3525716" lon="18.7732349">
        <time>2026-07-17T09:08:56Z</time>
      </trkpt>
      <trkpt lat="54.3528804" lon="18.7709137">
        <time>2026-07-17T09:09:36Z</time>
      </trkpt>
      <trkpt lat="54.3529725" lon="18.7678455">
        <time>2026-07-17T09:10:28Z</time>
      </trkpt>
      <trkpt lat="54.3526923" lon="18.7654363">
        <time>2026-07-17T09:11:10Z</time>
      </trkpt>
      <trkpt lat="54.3523280" lon="18.7635512">
        <time>2026-07-17T09:11:44Z</time>
      </trkpt>
      <trkpt lat="54.3519983" lon="18.7623550">
        <time>2026-07-17T09:12:06Z</time>
      </trkpt>
      <trkpt lat="54.3510168" lon="18.7594230">
        <time>2026-07-17T09:13:02Z</time>
      </trkpt>
      <trkpt lat="54.3506389" lon="18.7577138">
        <time>2026-07-17T09:13:32Z</time>
      </trkpt>
      <trkpt lat="54.3505045" lon="18.7566630">
        <time>2026-07-17T09:13:50Z</time>
      </trkpt>
      <trkpt lat="54.3504197" lon="18.7555805">
        <time>2026-07-17T09:14:08Z</time>
      </trkpt>
      <trkpt lat="54.3504167" lon="18.7541379">
        <time>2026-07-17T09:14:32Z</time>
      </trkpt>
      <trkpt lat="54.3507322" lon="18.7519240">
        <time>2026-07-17T09:15:10Z</time>
      </trkpt>
      <trkpt lat="54.3527760" lon="18.7433690">
        <time>2026-07-17T09:17:44Z</time>
      </trkpt>
      <trkpt lat="54.3541899" lon="18.7369742">
        <time>2026-07-17T09:19:38Z</time>
      </trkpt>
      <trkpt lat="54.3545642" lon="18.7351658">
        <time>2026-07-17T09:20:10Z</time>
      </trkpt>
      <trkpt lat="54.3548090" lon="18.7334294">
        <time>2026-07-17T09:20:41Z</time>
      </trkpt>
      <trkpt lat="54.3549318" lon="18.7317663">
        <time>2026-07-17T09:21:09Z</time>
      </trkpt>
      <trkpt lat="54.3549332" lon="18.7310520">
        <time>2026-07-17T09:21:21Z</time>
      </trkpt>
      <trkpt lat="54.3548193" lon="18.7290279">
        <time>2026-07-17T09:21:55Z</time>
      </trkpt>
      <trkpt lat="54.3547590" lon="18.7266315">
        <time>2026-07-17T09:22:35Z</time>
      </trkpt>
      <trkpt lat="54.3547760" lon="18.7253107">
        <time>2026-07-17T09:22:57Z</time>
      </trkpt>
      <trkpt lat="54.3548563" lon="18.7238630">
        <time>2026-07-17T09:23:21Z</time>
      </trkpt>
      <trkpt lat="54.3549708" lon="18.7224252">
        <time>2026-07-17T09:23:45Z</time>
      </trkpt>
      <trkpt lat="54.3554855" lon="18.7182588">
        <time>2026-07-17T09:25:01Z</time>
      </trkpt>
      <trkpt lat="54.3556510" lon="18.7173305">
        <time>2026-07-17T09:25:23Z</time>
      </trkpt>
      <trkpt lat="54.3558346" lon="18.7159117">
        <time>2026-07-17T09:25:57Z</time>
      </trkpt>
      <trkpt lat="54.3559025" lon="18.7150895">
        <time>2026-07-17T09:26:17Z</time>
      </trkpt>
      <trkpt lat="54.3559027" lon="18.7141072">
        <time>2026-07-17T09:26:49Z</time>
      </trkpt>
      <trkpt lat="54.3558518" lon="18.7132670">
        <time>2026-07-17T09:27:29Z</time>
      </trkpt>
      <trkpt lat="54.3557265" lon="18.7125245">
        <time>2026-07-17T09:28:23Z</time>
      </trkpt>
      <trkpt lat="54.3556108" lon="18.7121771">
        <time>2026-07-17T09:29:01Z</time>
      </trkpt>
      <trkpt lat="54.3552652" lon="18.7115078">
        <time>2026-07-17T09:31:19Z</time>
      </trkpt>
      <trkpt lat="54.3552127" lon="18.7115134">
        <time>2026-07-17T09:31:57Z</time>
      </trkpt>
    </trkseg>
  </trk>

</gpx>
